<?xml version='1.0' encoding='UTF-8'?><gpx version="1.1" creator="JPX - https://github.com/jenetics/jpx" xmlns="http://www.topografix.com/GPX/1/1"><trk><trkseg><trkpt lat="43.51787519412869" lon="10.790486680639487"><ele>71.0</ele><time>2026-04-06T08:30:27.001Z</time></trkpt><trkpt lat="43.51798377416723" lon="10.790491857631388"><ele>71.0</ele><time>2026-04-06T08:30:28.001Z</time></trkpt><trkpt lat="43.518090804216015" lon="10.790459716267424"><ele>71.0</ele><time>2026-04-06T08:30:29.001Z</time></trkpt><trkpt lat="43.518201608175055" lon="10.790412099933816"><ele>71.0</ele><time>2026-04-06T08:30:30.001Z</time></trkpt><trkpt lat="43.51830547900988" lon="10.790344822437145"><ele>71.0</ele><time>2026-04-06T08:30:31.001Z</time></trkpt><trkpt lat="43.51843452550835" lon="10.79022139979869"><ele>71.25</ele><time>2026-04-06T08:30:33.001Z</time></trkpt><trkpt lat="43.51851760042627" lon="10.790133138257769"><ele>71.5</ele><time>2026-04-06T08:30:34.001Z</time></trkpt><trkpt lat="43.518606745346496" lon="10.790038225348537"><ele>71.75</ele><time>2026-04-06T08:30:35.001Z</time></trkpt><trkpt lat="43.51870653485202" lon="10.789931348330473"><ele>72.0</ele><time>2026-04-06T08:30:36.001Z</time></trkpt><trkpt lat="43.518811347922934" lon="10.78982114621012"><ele>72.0</ele><time>2026-04-06T08:30:37.001Z</time></trkpt><trkpt lat="43.518921949009076" lon="10.789706164982585"><ele>72.0</ele><time>2026-04-06T08:30:38.001Z</time></trkpt><trkpt lat="43.519035631223865" lon="10.789593619592294"><ele>72.0</ele><time>2026-04-06T08:30:39.001Z</time></trkpt><trkpt lat="43.51915490670255" lon="10.7894784395182"><ele>72.0</ele><time>2026-04-06T08:30:40.001Z</time></trkpt><trkpt lat="43.519274668771175" lon="10.789360354974223"><ele>72.0</ele><time>2026-04-06T08:30:41.001Z</time></trkpt><trkpt lat="43.519390525719665" lon="10.78923810696646"><ele>72.0</ele><time>2026-04-06T08:30:42.001Z</time></trkpt><trkpt lat="43.519509997579675" lon="10.789108878189145"><ele>72.0</ele><time>2026-04-06T08:30:43.001Z</time></trkpt><trkpt lat="43.51962481066927" lon="10.788944655204142"><ele>71.66666666666667</ele><time>2026-04-06T08:30:44.001Z</time></trkpt><trkpt lat="43.51973159171189" lon="10.788739146983056"><ele>71.33333333333334</ele><time>2026-04-06T08:30:45.001Z</time></trkpt><trkpt lat="43.51984378915194" lon="10.788523920297777"><ele>71.0</ele><time>2026-04-06T08:30:46.001Z</time></trkpt><trkpt lat="43.51996173399931" lon="10.788299006085364"><ele>71.0</ele><time>2026-04-06T08:30:47.001Z</time></trkpt><trkpt lat="43.5200824393922" lon="10.788062648871927"><ele>71.0</ele><time>2026-04-06T08:30:48.001Z</time></trkpt><trkpt lat="43.52019952612717" lon="10.787829045329563"><ele>71.0</ele><time>2026-04-06T08:30:49.001Z</time></trkpt><trkpt lat="43.52031917750005" lon="10.787602645799831"><ele>70.0</ele><time>2026-04-06T08:30:50.001Z</time></trkpt><trkpt lat="43.520438377458746" lon="10.787375412842268"><ele>69.0</ele><time>2026-04-06T08:30:51.001Z</time></trkpt><trkpt lat="43.52056744299466" lon="10.78714566803348"><ele>68.0</ele><time>2026-04-06T08:30:52.001Z</time></trkpt><trkpt lat="43.520681577731516" lon="10.786917911657714"><ele>68.33333333333334</ele><time>2026-04-06T08:30:53.001Z</time></trkpt><trkpt lat="43.52079887920189" lon="10.786691173021032"><ele>68.66666666666667</ele><time>2026-04-06T08:30:54.001Z</time></trkpt><trkpt lat="43.520912602900076" lon="10.786475102200086"><ele>69.0</ele><time>2026-04-06T08:30:55.001Z</time></trkpt><trkpt lat="43.52103380753078" lon="10.786297811287483"><ele>69.0</ele><time>2026-04-06T08:30:56.001Z</time></trkpt><trkpt lat="43.5211447870402" lon="10.786128365448796"><ele>69.0</ele><time>2026-04-06T08:30:57.001Z</time></trkpt><trkpt lat="43.521265636911316" lon="10.785984021995487"><ele>69.0</ele><time>2026-04-06T08:30:58.001Z</time></trkpt><trkpt lat="43.521391640407906" lon="10.785874067011738"><ele>68.33333333333333</ele><time>2026-04-06T08:30:59.001Z</time></trkpt><trkpt lat="43.52152709611361" lon="10.785754671826382"><ele>67.66666666666666</ele><time>2026-04-06T08:31:00.001Z</time></trkpt><trkpt lat="43.521679837799255" lon="10.785672996944802"><ele>67.0</ele><time>2026-04-06T08:31:01.001Z</time></trkpt><trkpt lat="43.521824114183076" lon="10.785594742639004"><ele>67.0</ele><time>2026-04-06T08:31:02.001Z</time></trkpt><trkpt lat="43.52196045410923" lon="10.78551059442988"><ele>67.0</ele><time>2026-04-06T08:31:03.001Z</time></trkpt><trkpt lat="43.522096296030455" lon="10.785440745289979"><ele>67.0</ele><time>2026-04-06T08:31:04.001Z</time></trkpt><trkpt lat="43.52224409660437" lon="10.785340896020099"><ele>67.0</ele><time>2026-04-06T08:31:05.001Z</time></trkpt><trkpt lat="43.52238810504712" lon="10.785257828056139"><ele>67.0</ele><time>2026-04-06T08:31:06.001Z</time></trkpt><trkpt lat="43.52252928871593" lon="10.785171759421019"><ele>67.0</ele><time>2026-04-06T08:31:07.001Z</time></trkpt><trkpt lat="43.52267923317631" lon="10.78507880660891"><ele>67.0</ele><time>2026-04-06T08:31:08.001Z</time></trkpt><trkpt lat="43.52283411679811" lon="10.784985049659396"><ele>67.0</ele><time>2026-04-06T08:31:09.001Z</time></trkpt><trkpt lat="43.52299436368827" lon="10.784890888485277"><ele>67.0</ele><time>2026-04-06T08:31:10.001Z</time></trkpt><trkpt lat="43.52315949517843" lon="10.784790383324102"><ele>67.66666666666666</ele><time>2026-04-06T08:31:11.001Z</time></trkpt><trkpt lat="43.52331543554196" lon="10.784699343127878"><ele>68.33333333333333</ele><time>2026-04-06T08:31:12.001Z</time></trkpt><trkpt lat="43.52346903789853" lon="10.78460863004545"><ele>69.0</ele><time>2026-04-06T08:31:13.001Z</time></trkpt><trkpt lat="43.52361360102905" lon="10.784520732308778"><ele>68.75</ele><time>2026-04-06T08:31:14.001Z</time></trkpt><trkpt lat="43.523742070470696" lon="10.784430739024648"><ele>68.5</ele><time>2026-04-06T08:31:15.001Z</time></trkpt><trkpt lat="43.52385826019747" lon="10.78431466858353"><ele>68.25</ele><time>2026-04-06T08:31:16.001Z</time></trkpt><trkpt lat="43.523954812191676" lon="10.784157524407172"><ele>68.0</ele><time>2026-04-06T08:31:17.001Z</time></trkpt><trkpt lat="43.52403825359258" lon="10.783985393194323"><ele>67.25</ele><time>2026-04-06T08:31:18.001Z</time></trkpt><trkpt lat="43.52411259435934" lon="10.783813187106768"><ele>66.5</ele><time>2026-04-06T08:31:19.001Z</time></trkpt><trkpt lat="43.52418036931984" lon="10.783641082156354"><ele>65.75</ele><time>2026-04-06T08:31:20.001Z</time></trkpt><trkpt lat="43.52425482373091" lon="10.783470224645848"><ele>65.0</ele><time>2026-04-06T08:31:21.001Z</time></trkpt><trkpt lat="43.524330066516065" lon="10.783295537528296"><ele>65.0</ele><time>2026-04-06T08:31:22.001Z</time></trkpt><trkpt lat="43.52440811408126" lon="10.783125399542344"><ele>65.0</ele><time>2026-04-06T08:31:23.001Z</time></trkpt><trkpt lat="43.52448936831729" lon="10.782960281427917"><ele>65.0</ele><time>2026-04-06T08:31:24.001Z</time></trkpt><trkpt lat="43.52456517165225" lon="10.782792936558074"><ele>65.0</ele><time>2026-04-06T08:31:25.001Z</time></trkpt><trkpt lat="43.52463959943045" lon="10.782632271107538"><ele>66.5</ele><time>2026-04-06T08:31:26.001Z</time></trkpt><trkpt lat="43.52472406497875" lon="10.782481301736844"><ele>68.0</ele><time>2026-04-06T08:31:27.001Z</time></trkpt><trkpt lat="43.52482398365467" lon="10.782341310098605"><ele>69.5</ele><time>2026-04-06T08:31:28.001Z</time></trkpt><trkpt lat="43.524933112918795" lon="10.782214539128232"><ele>71.0</ele><time>2026-04-06T08:31:29.001Z</time></trkpt><trkpt lat="43.52504570726743" lon="10.782096880237214"><ele>71.0</ele><time>2026-04-06T08:31:30.001Z</time></trkpt><trkpt lat="43.52515625067269" lon="10.7819954882363"><ele>71.0</ele><time>2026-04-06T08:31:31.001Z</time></trkpt><trkpt lat="43.52525979755916" lon="10.781893010628131"><ele>71.0</ele><time>2026-04-06T08:31:32.001Z</time></trkpt><trkpt lat="43.52536159063161" lon="10.781795762782844"><ele>71.0</ele><time>2026-04-06T08:31:33.001Z</time></trkpt><trkpt lat="43.525454532067066" lon="10.781700057287082"><ele>70.6</ele><time>2026-04-06T08:31:34.001Z</time></trkpt><trkpt lat="43.525543836168424" lon="10.781611798321922"><ele>70.19999999999999</ele><time>2026-04-06T08:31:35.001Z</time></trkpt><trkpt lat="43.52562477065677" lon="10.781528759642972"><ele>69.80000000000001</ele><time>2026-04-06T08:31:36.001Z</time></trkpt><trkpt lat="43.525702093279385" lon="10.781452632988868"><ele>69.4</ele><time>2026-04-06T08:31:37.001Z</time></trkpt><trkpt lat="43.52577570578609" lon="10.781380369201042"><ele>69.0</ele><time>2026-04-06T08:31:38.001Z</time></trkpt><trkpt lat="43.52584075304172" lon="10.781311146400574"><ele>69.0</ele><time>2026-04-06T08:31:39.001Z</time></trkpt><trkpt lat="43.52589324166949" lon="10.781257006964294"><ele>69.0</ele><time>2026-04-06T08:31:40.001Z</time></trkpt><trkpt lat="43.52595275913262" lon="10.781206775678768"><ele>69.0</ele><time>2026-04-06T08:31:42.001Z</time></trkpt><trkpt lat="43.52599888744651" lon="10.781277748827806"><ele>69.0</ele><time>2026-04-06T08:31:56.001Z</time></trkpt><trkpt lat="43.5260553492494" lon="10.781440550450771"><ele>69.0</ele><time>2026-04-06T08:31:58.001Z</time></trkpt><trkpt lat="43.5260838518817" lon="10.78156773756677"><ele>69.0</ele><time>2026-04-06T08:31:59.001Z</time></trkpt><trkpt lat="43.52611736177705" lon="10.78170140822999"><ele>69.0</ele><time>2026-04-06T08:32:00.001Z</time></trkpt><trkpt lat="43.52615636627894" lon="10.781827836133338"><ele>69.0</ele><time>2026-04-06T08:32:01.001Z</time></trkpt><trkpt lat="43.52620232478814" lon="10.781971325604928"><ele>69.0</ele><time>2026-04-06T08:32:02.001Z</time></trkpt><trkpt lat="43.52624714674393" lon="10.78212411210082"><ele>69.0</ele><time>2026-04-06T08:32:03.001Z</time></trkpt><trkpt lat="43.526294851343565" lon="10.782286737636142"><ele>70.5</ele><time>2026-04-06T08:32:04.001Z</time></trkpt><trkpt lat="43.52634931989856" lon="10.782454518925082"><ele>72.0</ele><time>2026-04-06T08:32:05.001Z</time></trkpt><trkpt lat="43.52640474548897" lon="10.782629202512723"><ele>73.5</ele><time>2026-04-06T08:32:06.001Z</time></trkpt><trkpt lat="43.52645751976842" lon="10.782799811746528"><ele>75.0</ele><time>2026-04-06T08:32:07.001Z</time></trkpt><trkpt lat="43.52650986391851" lon="10.782970842073048"><ele>78.0</ele><time>2026-04-06T08:32:08.001Z</time></trkpt><trkpt lat="43.52655549453322" lon="10.783121758641412"><ele>81.0</ele><time>2026-04-06T08:32:09.001Z</time></trkpt><trkpt lat="43.52660438379183" lon="10.783247356856167"><ele>84.0</ele><time>2026-04-06T08:32:10.001Z</time></trkpt><trkpt lat="43.52666403865757" lon="10.783375345865117"><ele>87.0</ele><time>2026-04-06T08:32:11.001Z</time></trkpt><trkpt lat="43.526748211536834" lon="10.783505220169861"><ele>88.0</ele><time>2026-04-06T08:32:12.002Z</time></trkpt><trkpt lat="43.5268375032593" lon="10.783643316992812"><ele>89.0</ele><time>2026-04-06T08:32:13.002Z</time></trkpt><trkpt lat="43.526921371483475" lon="10.783785240482347"><ele>90.0</ele><time>2026-04-06T08:32:14.002Z</time></trkpt><trkpt lat="43.52700267102178" lon="10.783920901351687"><ele>91.0</ele><time>2026-04-06T08:32:15.002Z</time></trkpt><trkpt lat="43.527080581477186" lon="10.784053061508676"><ele>91.4</ele><time>2026-04-06T08:32:16.002Z</time></trkpt><trkpt lat="43.52714266139081" lon="10.784181293527896"><ele>91.8</ele><time>2026-04-06T08:32:17.002Z</time></trkpt><trkpt lat="43.5271961117512" lon="10.784295004551378"><ele>92.2</ele><time>2026-04-06T08:32:18.002Z</time></trkpt><trkpt lat="43.527248702954985" lon="10.784393514283968"><ele>92.60000000000001</ele><time>2026-04-06T08:32:19.002Z</time></trkpt><trkpt lat="43.52731618906214" lon="10.784471535169466"><ele>93.0</ele><time>2026-04-06T08:32:20.002Z</time></trkpt><trkpt lat="43.52739961231191" lon="10.784545592716677"><ele>92.0</ele><time>2026-04-06T08:32:21.002Z</time></trkpt><trkpt lat="43.52749476663527" lon="10.784603747490983"><ele>91.0</ele><time>2026-04-06T08:32:22.002Z</time></trkpt><trkpt lat="43.527602514516985" lon="10.784642369175863"><ele>90.0</ele><time>2026-04-06T08:32:23.002Z</time></trkpt><trkpt lat="43.52772173629207" lon="10.784668386161826"><ele>89.0</ele><time>2026-04-06T08:32:24.002Z</time></trkpt><trkpt lat="43.527850448532575" lon="10.784692647827617"><ele>92.0</ele><time>2026-04-06T08:32:25.002Z</time></trkpt><trkpt lat="43.52797648978837" lon="10.784711539854866"><ele>95.0</ele><time>2026-04-06T08:32:26.002Z</time></trkpt><trkpt lat="43.52809986137813" lon="10.784718096257977"><ele>98.0</ele><time>2026-04-06T08:32:27.002Z</time></trkpt><trkpt lat="43.52821742916513" lon="10.784712147766605"><ele>101.0</ele><time>2026-04-06T08:32:28.002Z</time></trkpt><trkpt lat="43.528328421831645" lon="10.784687498715654"><ele>100.99999999999999</ele><time>2026-04-06T08:32:29.002Z</time></trkpt><trkpt lat="43.52843627651132" lon="10.784658410405703"><ele>101.0</ele><time>2026-04-06T08:32:30.002Z</time></trkpt><trkpt lat="43.52851339254952" lon="10.7846414307521"><ele>101.0</ele><time>2026-04-06T08:32:31Z</time></trkpt><trkpt lat="43.52857942574847" lon="10.784632629742946"><ele>101.0</ele><time>2026-04-06T08:32:32Z</time></trkpt><trkpt lat="43.5286554158563" lon="10.784639005997143"><ele>100.99999999999999</ele><time>2026-04-06T08:32:33Z</time></trkpt><trkpt lat="43.52873981563152" lon="10.78464483913527"><ele>101.0</ele><time>2026-04-06T08:32:34Z</time></trkpt><trkpt lat="43.52883903097699" lon="10.784659233181024"><ele>103.4</ele><time>2026-04-06T08:32:35Z</time></trkpt><trkpt lat="43.52893944500061" lon="10.784685950034484"><ele>105.8</ele><time>2026-04-06T08:32:36Z</time></trkpt><trkpt lat="43.5290454248429" lon="10.784704930617256"><ele>108.20000000000002</ele><time>2026-04-06T08:32:37Z</time></trkpt><trkpt lat="43.52915937414842" lon="10.784718970747008"><ele>110.60000000000001</ele><time>2026-04-06T08:32:38Z</time></trkpt><trkpt lat="43.52927661612355" lon="10.784743710652739"><ele>113.0</ele><time>2026-04-06T08:32:39Z</time></trkpt><trkpt lat="43.52940002214604" lon="10.78475977064378"><ele>113.0</ele><time>2026-04-06T08:32:40Z</time></trkpt><trkpt lat="43.52951990873065" lon="10.784768244523415"><ele>113.00000000000001</ele><time>2026-04-06T08:32:41Z</time></trkpt><trkpt lat="43.529633719639634" lon="10.784780828078762"><ele>113.00000000000001</ele><time>2026-04-06T08:32:42Z</time></trkpt><trkpt lat="43.52973998197938" lon="10.784795983708939"><ele>113.0</ele><time>2026-04-06T08:32:43Z</time></trkpt><trkpt lat="43.52983524530341" lon="10.784780683936429"><ele>113.0</ele><time>2026-04-06T08:32:44Z</time></trkpt><trkpt lat="43.52991468769799" lon="10.784757908927137"><ele>117.4</ele><time>2026-04-06T08:32:45Z</time></trkpt><trkpt lat="43.52999013462986" lon="10.784721298307874"><ele>121.80000000000001</ele><time>2026-04-06T08:32:46Z</time></trkpt><trkpt lat="43.530064375318084" lon="10.784658548096848"><ele>126.2</ele><time>2026-04-06T08:32:47Z</time></trkpt><trkpt lat="43.5301188660681" lon="10.78454293036915"><ele>130.6</ele><time>2026-04-06T08:32:48Z</time></trkpt><trkpt lat="43.53019120740815" lon="10.784448837215782"><ele>135.0</ele><time>2026-04-06T08:32:49Z</time></trkpt><trkpt lat="43.53026824291886" lon="10.78436404046258"><ele>134.0</ele><time>2026-04-06T08:32:50Z</time></trkpt><trkpt lat="43.53034032269179" lon="10.78427628346506"><ele>133.0</ele><time>2026-04-06T08:32:51Z</time></trkpt><trkpt lat="43.53041942862072" lon="10.784212416174809"><ele>132.0</ele><time>2026-04-06T08:32:52Z</time></trkpt><trkpt lat="43.53052241668413" lon="10.784129013038038"><ele>131.0</ele><time>2026-04-06T08:32:54Z</time></trkpt><trkpt lat="43.530610815482014" lon="10.784189791461593"><ele>130.0</ele><time>2026-04-06T08:32:56Z</time></trkpt><trkpt lat="43.53064653066258" lon="10.784318677676156"><ele>131.5</ele><time>2026-04-06T08:32:58Z</time></trkpt><trkpt lat="43.53067255843177" lon="10.78440319836545"><ele>133.0</ele><time>2026-04-06T08:32:59Z</time></trkpt><trkpt lat="43.53070131961387" lon="10.784514261786928"><ele>134.5</ele><time>2026-04-06T08:33:00Z</time></trkpt><trkpt lat="43.53073138465108" lon="10.78462285923816"><ele>136.0</ele><time>2026-04-06T08:33:01Z</time></trkpt><trkpt lat="43.53076204979153" lon="10.784737718036034"><ele>137.5</ele><time>2026-04-06T08:33:02Z</time></trkpt><trkpt lat="43.53079272651739" lon="10.784856768850638"><ele>139.0</ele><time>2026-04-06T08:33:03Z</time></trkpt><trkpt lat="43.53082667397005" lon="10.78496731461697"><ele>139.0</ele><time>2026-04-06T08:33:04Z</time></trkpt><trkpt lat="43.53084833654919" lon="10.785079602450294"><ele>139.0</ele><time>2026-04-06T08:33:05Z</time></trkpt><trkpt lat="43.530857472692205" lon="10.785192286945215"><ele>139.0</ele><time>2026-04-06T08:33:06Z</time></trkpt><trkpt lat="43.53085327261081" lon="10.785298772180504"><ele>139.0</ele><time>2026-04-06T08:33:07Z</time></trkpt><trkpt lat="43.53083153303236" lon="10.785411669808862"><ele>139.0</ele><time>2026-04-06T08:33:08Z</time></trkpt><trkpt lat="43.53078598851983" lon="10.785520498972351"><ele>139.0</ele><time>2026-04-06T08:33:09Z</time></trkpt><trkpt lat="43.530740616763666" lon="10.785622114261571"><ele>139.33333333333334</ele><time>2026-04-06T08:33:10Z</time></trkpt><trkpt lat="43.5306972903959" lon="10.785732550345308"><ele>139.66666666666669</ele><time>2026-04-06T08:33:11Z</time></trkpt><trkpt lat="43.53065705556335" lon="10.785837141361053"><ele>140.0</ele><time>2026-04-06T08:33:12Z</time></trkpt><trkpt lat="43.530624277977786" lon="10.785932711153626"><ele>140.33333333333334</ele><time>2026-04-06T08:33:13Z</time></trkpt><trkpt lat="43.53060983963267" lon="10.786090830122816"><ele>140.66666666666666</ele><time>2026-04-06T08:33:15Z</time></trkpt><trkpt lat="43.530631009354806" lon="10.786176144800244"><ele>141.0</ele><time>2026-04-06T08:33:16Z</time></trkpt><trkpt lat="43.53067644688997" lon="10.786264404337668"><ele>141.0</ele><time>2026-04-06T08:33:17Z</time></trkpt><trkpt lat="43.53074000931936" lon="10.786355507347565"><ele>141.0</ele><time>2026-04-06T08:33:18Z</time></trkpt><trkpt lat="43.53082109526447" lon="10.786460042418915"><ele>141.0</ele><time>2026-04-06T08:33:19Z</time></trkpt><trkpt lat="43.5309137136046" lon="10.786578899079379"><ele>141.0</ele><time>2026-04-06T08:33:20Z</time></trkpt><trkpt lat="43.53099980919858" lon="10.786700137419768"><ele>141.0</ele><time>2026-04-06T08:33:21Z</time></trkpt><trkpt lat="43.5310841772905" lon="10.786835468500971"><ele>141.0</ele><time>2026-04-06T08:33:22Z</time></trkpt><trkpt lat="43.531169203280975" lon="10.786969052758149"><ele>141.0</ele><time>2026-04-06T08:33:23Z</time></trkpt><trkpt lat="43.53125563066202" lon="10.787112306454636"><ele>141.0</ele><time>2026-04-06T08:33:24Z</time></trkpt><trkpt lat="43.5313306400283" lon="10.787254141007462"><ele>142.25</ele><time>2026-04-06T08:33:25Z</time></trkpt><trkpt lat="43.531413997661325" lon="10.787394807559593"><ele>143.5</ele><time>2026-04-06T08:33:26Z</time></trkpt><trkpt lat="43.53148865520469" lon="10.787527119661986"><ele>144.75</ele><time>2026-04-06T08:33:27.001Z</time></trkpt><trkpt lat="43.53156880517273" lon="10.787661771330475"><ele>146.0</ele><time>2026-04-06T08:33:28.001Z</time></trkpt><trkpt lat="43.53164086946021" lon="10.787788789411026"><ele>146.0</ele><time>2026-04-06T08:33:29.001Z</time></trkpt><trkpt lat="43.53170808591229" lon="10.787908795887118"><ele>146.0</ele><time>2026-04-06T08:33:30.001Z</time></trkpt><trkpt lat="43.53177657448687" lon="10.788013894928728"><ele>146.0</ele><time>2026-04-06T08:33:31.001Z</time></trkpt><trkpt lat="43.531850874642046" lon="10.788109417402369"><ele>146.0</ele><time>2026-04-06T08:33:32.001Z</time></trkpt><trkpt lat="43.53193825024432" lon="10.7881938063493"><ele>146.0</ele><time>2026-04-06T08:33:33.001Z</time></trkpt><trkpt lat="43.53203590935085" lon="10.788261070943173"><ele>148.75</ele><time>2026-04-06T08:33:34.001Z</time></trkpt><trkpt lat="43.53214565809096" lon="10.788323495885862"><ele>151.5</ele><time>2026-04-06T08:33:35.001Z</time></trkpt><trkpt lat="43.53225856383989" lon="10.788384888909222"><ele>154.25</ele><time>2026-04-06T08:33:36.001Z</time></trkpt><trkpt lat="43.532372354453095" lon="10.788446045443784"><ele>157.0</ele><time>2026-04-06T08:33:37.001Z</time></trkpt><trkpt lat="43.532485330309704" lon="10.788508310523998"><ele>158.25</ele><time>2026-04-06T08:33:38.001Z</time></trkpt><trkpt lat="43.53259756662704" lon="10.788571924155121"><ele>159.5</ele><time>2026-04-06T08:33:39.001Z</time></trkpt><trkpt lat="43.53270817105887" lon="10.788634427648997"><ele>160.75</ele><time>2026-04-06T08:33:40.001Z</time></trkpt><trkpt lat="43.532819967979144" lon="10.788700695650336"><ele>162.0</ele><time>2026-04-06T08:33:41.001Z</time></trkpt><trkpt lat="43.53292473526352" lon="10.788762725848729"><ele>162.0</ele><time>2026-04-06T08:33:42.001Z</time></trkpt><trkpt lat="43.53303258790447" lon="10.788829228189762"><ele>162.0</ele><time>2026-04-06T08:33:43.001Z</time></trkpt><trkpt lat="43.53314379036316" lon="10.788890906671773"><ele>162.0</ele><time>2026-04-06T08:33:44.001Z</time></trkpt><trkpt lat="43.533253431797036" lon="10.788954126437995"><ele>162.0</ele><time>2026-04-06T08:33:45.001Z</time></trkpt><trkpt lat="43.53336609304089" lon="10.789013676929095"><ele>162.0</ele><time>2026-04-06T08:33:46.001Z</time></trkpt><trkpt lat="43.5334731855882" lon="10.789074954549802"><ele>162.0</ele><time>2026-04-06T08:33:47.001Z</time></trkpt><trkpt lat="43.5335840224005" lon="10.78913950427941"><ele>162.0</ele><time>2026-04-06T08:33:48.001Z</time></trkpt><trkpt lat="43.53370247210648" lon="10.789205999936316"><ele>162.0</ele><time>2026-04-06T08:33:49.001Z</time></trkpt><trkpt lat="43.53382028377546" lon="10.789281128927508"><ele>162.75</ele><time>2026-04-06T08:33:50.001Z</time></trkpt><trkpt lat="43.533933813107396" lon="10.789355001751355"><ele>163.5</ele><time>2026-04-06T08:33:51.001Z</time></trkpt><trkpt lat="43.534066554794904" lon="10.789425226068598"><ele>164.25</ele><time>2026-04-06T08:33:52.001Z</time></trkpt><trkpt lat="43.53417900565651" lon="10.789495534459293"><ele>165.0</ele><time>2026-04-06T08:33:53.001Z</time></trkpt><trkpt lat="43.534283518153636" lon="10.789554019431167"><ele>165.0</ele><time>2026-04-06T08:33:54.001Z</time></trkpt><trkpt lat="43.53439461033321" lon="10.78961651973615"><ele>165.0</ele><time>2026-04-06T08:33:55.001Z</time></trkpt><trkpt lat="43.53451106158545" lon="10.7896863696448"><ele>165.0</ele><time>2026-04-06T08:33:56.001Z</time></trkpt><trkpt lat="43.5346389058183" lon="10.789774996593906"><ele>165.0</ele><time>2026-04-06T08:33:57.001Z</time></trkpt><trkpt lat="43.53476709112018" lon="10.789862663114015"><ele>164.5</ele><time>2026-04-06T08:33:58.001Z</time></trkpt><trkpt lat="43.53489198612488" lon="10.789955630779106"><ele>164.0</ele><time>2026-04-06T08:33:59.001Z</time></trkpt><trkpt lat="43.535009516159896" lon="10.790055270967864"><ele>163.5</ele><time>2026-04-06T08:34:00.001Z</time></trkpt><trkpt lat="43.53513152346342" lon="10.790150759443621"><ele>163.0</ele><time>2026-04-06T08:34:01.001Z</time></trkpt><trkpt lat="43.535246310157774" lon="10.790267136534194"><ele>163.0</ele><time>2026-04-06T08:34:02.001Z</time></trkpt><trkpt lat="43.53537171953053" lon="10.790349890762206"><ele>163.0</ele><time>2026-04-06T08:34:03.001Z</time></trkpt><trkpt lat="43.535489044085594" lon="10.790444210795046"><ele>163.0</ele><time>2026-04-06T08:34:04.001Z</time></trkpt><trkpt lat="43.53559368931047" lon="10.790538988348336"><ele>163.0</ele><time>2026-04-06T08:34:05.001Z</time></trkpt><trkpt lat="43.53571147233173" lon="10.790632501642733"><ele>166.75</ele><time>2026-04-06T08:34:06.001Z</time></trkpt><trkpt lat="43.5358292371771" lon="10.790744518957638"><ele>170.5</ele><time>2026-04-06T08:34:07.001Z</time></trkpt><trkpt lat="43.5359328651582" lon="10.790811705378234"><ele>174.25</ele><time>2026-04-06T08:34:08.001Z</time></trkpt><trkpt lat="43.53601992263632" lon="10.790856420040528"><ele>178.0</ele><time>2026-04-06T08:34:10.001Z</time></trkpt><trkpt lat="43.53612183687541" lon="10.790891171445882"><ele>178.0</ele><time>2026-04-06T08:34:12.001Z</time></trkpt><trkpt lat="43.53619057655885" lon="10.790865616787764"><ele>178.0</ele><time>2026-04-06T08:34:13.001Z</time></trkpt><trkpt lat="43.536259225292504" lon="10.790877117708227"><ele>178.0</ele><time>2026-04-06T08:34:14.001Z</time></trkpt><trkpt lat="43.5363311406762" lon="10.790856756730227"><ele>178.0</ele><time>2026-04-06T08:34:15.001Z</time></trkpt><trkpt lat="43.53654584425834" lon="10.790826709326556"><ele>178.0</ele><time>2026-04-06T08:34:17.001Z</time></trkpt><trkpt lat="43.53663638407753" lon="10.790812759930441"><ele>178.2</ele><time>2026-04-06T08:34:18.001Z</time></trkpt><trkpt lat="43.536736223584995" lon="10.790828441634723"><ele>178.4</ele><time>2026-04-06T08:34:19.001Z</time></trkpt><trkpt lat="43.536835404832246" lon="10.790838860006732"><ele>178.6</ele><time>2026-04-06T08:34:20.001Z</time></trkpt><trkpt lat="43.536930034292034" lon="10.790849788808025"><ele>178.79999999999998</ele><time>2026-04-06T08:34:21.001Z</time></trkpt><trkpt lat="43.53702274357727" lon="10.790857773569567"><ele>179.0</ele><time>2026-04-06T08:34:22.001Z</time></trkpt><trkpt lat="43.53711982611427" lon="10.790849320570551"><ele>178.6</ele><time>2026-04-06T08:34:23.001Z</time></trkpt><trkpt lat="43.53720777069112" lon="10.790819550987957"><ele>178.2</ele><time>2026-04-06T08:34:24.001Z</time></trkpt><trkpt lat="43.53729800596045" lon="10.79078422391601"><ele>177.79999999999998</ele><time>2026-04-06T08:34:25.001Z</time></trkpt><trkpt lat="43.53738484141844" lon="10.790734510056188"><ele>177.39999999999998</ele><time>2026-04-06T08:34:26.001Z</time></trkpt><trkpt lat="43.53747482640313" lon="10.790697405122527"><ele>177.0</ele><time>2026-04-06T08:34:27.001Z</time></trkpt><trkpt lat="43.53757329801149" lon="10.790659381747185"><ele>177.0</ele><time>2026-04-06T08:34:28.001Z</time></trkpt><trkpt lat="43.53765605925433" lon="10.790637212911939"><ele>177.0</ele><time>2026-04-06T08:34:29.001Z</time></trkpt><trkpt lat="43.53774359693476" lon="10.790612693458515"><ele>177.0</ele><time>2026-04-06T08:34:30.001Z</time></trkpt><trkpt lat="43.53783127254953" lon="10.790609674067792"><ele>177.0</ele><time>2026-04-06T08:34:31.001Z</time></trkpt><trkpt lat="43.53791575508374" lon="10.790620985057524"><ele>177.0</ele><time>2026-04-06T08:34:32.001Z</time></trkpt><trkpt lat="43.538003188268604" lon="10.790642686866022"><ele>177.0</ele><time>2026-04-06T08:34:33.001Z</time></trkpt><trkpt lat="43.538086242081334" lon="10.7906735520012"><ele>177.33333333333334</ele><time>2026-04-06T08:34:34.001Z</time></trkpt><trkpt lat="43.53816798226096" lon="10.790704668433888"><ele>177.66666666666666</ele><time>2026-04-06T08:34:35.001Z</time></trkpt><trkpt lat="43.53823617295718" lon="10.790749117556928"><ele>178.0</ele><time>2026-04-06T08:34:36.001Z</time></trkpt><trkpt lat="43.5383053354019" lon="10.790788146405632"><ele>178.33333333333331</ele><time>2026-04-06T08:34:37Z</time></trkpt><trkpt lat="43.53839239335052" lon="10.790867488568814"><ele>178.66666666666666</ele><time>2026-04-06T08:34:39Z</time></trkpt><trkpt lat="43.53845548996933" lon="10.790887351812732"><ele>179.0</ele><time>2026-04-06T08:34:41Z</time></trkpt><trkpt lat="43.53853367771568" lon="10.79090450958888"><ele>178.16666666666666</ele><time>2026-04-06T08:34:43Z</time></trkpt><trkpt lat="43.53858021585261" lon="10.791036196830147"><ele>177.33333333333331</ele><time>2026-04-06T08:34:44Z</time></trkpt><trkpt lat="43.538640242222606" lon="10.791129988304688"><ele>176.5</ele><time>2026-04-06T08:34:45Z</time></trkpt><trkpt lat="43.53870172838002" lon="10.791229169640374"><ele>175.66666666666666</ele><time>2026-04-06T08:34:46Z</time></trkpt><trkpt lat="43.53875122104356" lon="10.791296813969932"><ele>174.83333333333334</ele><time>2026-04-06T08:34:47Z</time></trkpt><trkpt lat="43.538797382311806" lon="10.791376931548994"><ele>174.0</ele><time>2026-04-06T08:34:48Z</time></trkpt><trkpt lat="43.538847322852845" lon="10.791445100752222"><ele>175.16666666666666</ele><time>2026-04-06T08:34:49Z</time></trkpt><trkpt lat="43.538894766473796" lon="10.791506325321635"><ele>176.33333333333334</ele><time>2026-04-06T08:34:50Z</time></trkpt><trkpt lat="43.53894297498795" lon="10.791574314343814"><ele>177.5</ele><time>2026-04-06T08:34:51Z</time></trkpt><trkpt lat="43.53898520305902" lon="10.79164071210171"><ele>178.66666666666669</ele><time>2026-04-06T08:34:52Z</time></trkpt><trkpt lat="43.53903223849486" lon="10.791704131357275"><ele>179.83333333333334</ele><time>2026-04-06T08:34:53Z</time></trkpt><trkpt lat="43.53909522613712" lon="10.791851232382509"><ele>181.0</ele><time>2026-04-06T08:34:55Z</time></trkpt><trkpt lat="43.53913079994705" lon="10.791936897109208"><ele>181.0</ele><time>2026-04-06T08:34:56Z</time></trkpt><trkpt lat="43.53917019147819" lon="10.792044065206866"><ele>181.0</ele><time>2026-04-06T08:34:57Z</time></trkpt><trkpt lat="43.53921589564048" lon="10.79216207634195"><ele>181.0</ele><time>2026-04-06T08:34:58Z</time></trkpt><trkpt lat="43.53926490315731" lon="10.792287922186828"><ele>181.0</ele><time>2026-04-06T08:34:59Z</time></trkpt><trkpt lat="43.53931808927635" lon="10.792399628449656"><ele>181.0</ele><time>2026-04-06T08:35:00Z</time></trkpt><trkpt lat="43.53937585968765" lon="10.79250472055072"><ele>181.0</ele><time>2026-04-06T08:35:01Z</time></trkpt><trkpt lat="43.53940805823238" lon="10.792618764914755"><ele>181.0</ele><time>2026-04-06T08:35:02Z</time></trkpt><trkpt lat="43.53945711996964" lon="10.792709255549068"><ele>181.0</ele><time>2026-04-06T08:35:03Z</time></trkpt><trkpt lat="43.53948521610242" lon="10.792806867752516"><ele>181.0</ele><time>2026-04-06T08:35:04Z</time></trkpt><trkpt lat="43.539518386769615" lon="10.792883484205182"><ele>181.0</ele><time>2026-04-06T08:35:05Z</time></trkpt><trkpt lat="43.53956399751302" lon="10.792984925506557"><ele>181.0</ele><time>2026-04-06T08:35:07Z</time></trkpt><trkpt lat="43.539567899583055" lon="10.79307981164571"><ele>181.0</ele><time>2026-04-06T08:35:09Z</time></trkpt><trkpt lat="43.53957392290438" lon="10.793206271219908"><ele>181.0</ele><time>2026-04-06T08:35:11Z</time></trkpt><trkpt lat="43.53957095437797" lon="10.793370830539539"><ele>181.0</ele><time>2026-04-06T08:35:13Z</time></trkpt><trkpt lat="43.53953285965266" lon="10.793509406593872"><ele>181.0</ele><time>2026-04-06T08:35:15Z</time></trkpt><trkpt lat="43.53947735129781" lon="10.79360824947667"><ele>181.0</ele><time>2026-04-06T08:35:17Z</time></trkpt><trkpt lat="43.539418697777045" lon="10.79367606233586"><ele>180.8</ele><time>2026-04-06T08:35:18Z</time></trkpt><trkpt lat="43.53936498356141" lon="10.793741114755402"><ele>180.60000000000002</ele><time>2026-04-06T08:35:19Z</time></trkpt><trkpt lat="43.53931889865799" lon="10.793803679168795"><ele>180.4</ele><time>2026-04-06T08:35:20Z</time></trkpt><trkpt lat="43.539214859922836" lon="10.793898764567649"><ele>180.2</ele><time>2026-04-06T08:35:22Z</time></trkpt><trkpt lat="43.53911639136917" lon="10.793998249187219"><ele>180.0</ele><time>2026-04-06T08:35:24Z</time></trkpt><trkpt lat="43.53906386739848" lon="10.794060923097598"><ele>180.0</ele><time>2026-04-06T08:35:25Z</time></trkpt><trkpt lat="43.5390170734078" lon="10.794146119164287"><ele>180.0</ele><time>2026-04-06T08:35:26Z</time></trkpt><trkpt lat="43.53896969997116" lon="10.79434245197453"><ele>180.0</ele><time>2026-04-06T08:35:28Z</time></trkpt><trkpt lat="43.53895417673072" lon="10.79445981410523"><ele>180.0</ele><time>2026-04-06T08:35:29Z</time></trkpt><trkpt lat="43.53892552421243" lon="10.794575541028266"><ele>180.0</ele><time>2026-04-06T08:35:30Z</time></trkpt><trkpt lat="43.5389160005581" lon="10.79468817556815"><ele>179.8</ele><time>2026-04-06T08:35:31Z</time></trkpt><trkpt lat="43.53890534992174" lon="10.794800003295935"><ele>179.6</ele><time>2026-04-06T08:35:32Z</time></trkpt><trkpt lat="43.538881664609754" lon="10.79491432808541"><ele>179.39999999999998</ele><time>2026-04-06T08:35:33Z</time></trkpt><trkpt lat="43.5388651954442" lon="10.795034532202632"><ele>179.2</ele><time>2026-04-06T08:35:34Z</time></trkpt><trkpt lat="43.53879003402421" lon="10.795142362435985"><ele>179.0</ele><time>2026-04-06T08:35:35Z</time></trkpt><trkpt lat="43.5387242378856" lon="10.795236518337685"><ele>178.2</ele><time>2026-04-06T08:35:36Z</time></trkpt><trkpt lat="43.53864898917319" lon="10.795307828390412"><ele>177.39999999999998</ele><time>2026-04-06T08:35:37Z</time></trkpt><trkpt lat="43.538562377897634" lon="10.795359781164505"><ele>176.6</ele><time>2026-04-06T08:35:38.001Z</time></trkpt><trkpt lat="43.538470667202915" lon="10.795404560979627"><ele>175.8</ele><time>2026-04-06T08:35:39.001Z</time></trkpt><trkpt lat="43.538387712850586" lon="10.795444717826674"><ele>175.0</ele><time>2026-04-06T08:35:40.001Z</time></trkpt><trkpt lat="43.538314354902234" lon="10.795497803541672"><ele>175.0</ele><time>2026-04-06T08:35:41.001Z</time></trkpt><trkpt lat="43.538251773655965" lon="10.795569067190035"><ele>175.0</ele><time>2026-04-06T08:35:42.001Z</time></trkpt><trkpt lat="43.538198053080905" lon="10.795672527084466"><ele>175.0</ele><time>2026-04-06T08:35:43.001Z</time></trkpt><trkpt lat="43.538165894007165" lon="10.795806006500936"><ele>175.0</ele><time>2026-04-06T08:35:44.001Z</time></trkpt><trkpt lat="43.538109887283966" lon="10.795930769295692"><ele>175.0</ele><time>2026-04-06T08:35:45.001Z</time></trkpt><trkpt lat="43.538072337968465" lon="10.79607959400197"><ele>173.6</ele><time>2026-04-06T08:35:46.001Z</time></trkpt><trkpt lat="43.53806234071226" lon="10.796212749706624"><ele>172.2</ele><time>2026-04-06T08:35:47.001Z</time></trkpt><trkpt lat="43.5380768030429" lon="10.796362118879395"><ele>170.8</ele><time>2026-04-06T08:35:48.001Z</time></trkpt><trkpt lat="43.538110767928515" lon="10.796506779864849"><ele>169.4</ele><time>2026-04-06T08:35:49.001Z</time></trkpt><trkpt lat="43.538165856669714" lon="10.79666666026133"><ele>168.0</ele><time>2026-04-06T08:35:50.001Z</time></trkpt><trkpt lat="43.538230898892216" lon="10.796831868559535"><ele>165.33333333333334</ele><time>2026-04-06T08:35:51.001Z</time></trkpt><trkpt lat="43.538279406329195" lon="10.797019105078167"><ele>162.66666666666669</ele><time>2026-04-06T08:35:52.001Z</time></trkpt><trkpt lat="43.538331426603015" lon="10.797226202789766"><ele>160.0</ele><time>2026-04-06T08:35:53.001Z</time></trkpt><trkpt lat="43.53835808006856" lon="10.797441585021806"><ele>160.0</ele><time>2026-04-06T08:35:54.001Z</time></trkpt><trkpt lat="43.53838562616471" lon="10.797661922424378"><ele>160.0</ele><time>2026-04-06T08:35:55.001Z</time></trkpt><trkpt lat="43.53841557777544" lon="10.797879186559213"><ele>160.0</ele><time>2026-04-06T08:35:56.001Z</time></trkpt><trkpt lat="43.53844505192502" lon="10.798089495063998"><ele>160.5</ele><time>2026-04-06T08:35:57.001Z</time></trkpt><trkpt lat="43.53847302324517" lon="10.798294040087576"><ele>161.0</ele><time>2026-04-06T08:35:58.001Z</time></trkpt><trkpt lat="43.538495812125674" lon="10.798489154142793"><ele>161.5</ele><time>2026-04-06T08:35:59.001Z</time></trkpt><trkpt lat="43.53850902355879" lon="10.798671139740184"><ele>162.0</ele><time>2026-04-06T08:36:00.001Z</time></trkpt><trkpt lat="43.53851062510236" lon="10.798838900956136"><ele>162.0</ele><time>2026-04-06T08:36:01.001Z</time></trkpt><trkpt lat="43.53848885732931" lon="10.79899720966314"><ele>162.0</ele><time>2026-04-06T08:36:02.001Z</time></trkpt><trkpt lat="43.538447999464296" lon="10.799154323342044"><ele>162.0</ele><time>2026-04-06T08:36:03.001Z</time></trkpt><trkpt lat="43.53839896335999" lon="10.799320856344812"><ele>162.0</ele><time>2026-04-06T08:36:04.001Z</time></trkpt><trkpt lat="43.5383304815651" lon="10.79949510092287"><ele>163.33333333333334</ele><time>2026-04-06T08:36:05.001Z</time></trkpt><trkpt lat="43.5382523574042" lon="10.799681506217862"><ele>164.66666666666669</ele><time>2026-04-06T08:36:06.001Z</time></trkpt><trkpt lat="43.53817329785597" lon="10.79987629639127"><ele>166.0</ele><time>2026-04-06T08:36:07.001Z</time></trkpt><trkpt lat="43.538096265308305" lon="10.800067473127344"><ele>164.5</ele><time>2026-04-06T08:36:08.001Z</time></trkpt><trkpt lat="43.538034842047374" lon="10.800241551304483"><ele>163.0</ele><time>2026-04-06T08:36:09.001Z</time></trkpt><trkpt lat="43.537966236443104" lon="10.800393161383473"><ele>161.5</ele><time>2026-04-06T08:36:10.001Z</time></trkpt><trkpt lat="43.537883603296315" lon="10.800526951051745"><ele>160.0</ele><time>2026-04-06T08:36:11.001Z</time></trkpt><trkpt lat="43.53778299824714" lon="10.800654795477804"><ele>161.0</ele><time>2026-04-06T08:36:12.001Z</time></trkpt><trkpt lat="43.53767879580426" lon="10.800777820495943"><ele>162.0</ele><time>2026-04-06T08:36:13.001Z</time></trkpt><trkpt lat="43.53757624895461" lon="10.80090616724407"><ele>163.0</ele><time>2026-04-06T08:36:14.001Z</time></trkpt><trkpt lat="43.53746737659496" lon="10.8010257267103"><ele>164.0</ele><time>2026-04-06T08:36:15.001Z</time></trkpt><trkpt lat="43.53735151625605" lon="10.80114087930822"><ele>164.0</ele><time>2026-04-06T08:36:16.001Z</time></trkpt><trkpt lat="43.537223393308686" lon="10.801245161587293"><ele>164.0</ele><time>2026-04-06T08:36:17.001Z</time></trkpt><trkpt lat="43.53710170230701" lon="10.801354100331988"><ele>164.0</ele><time>2026-04-06T08:36:18.001Z</time></trkpt><trkpt lat="43.536997220867995" lon="10.801461907753568"><ele>164.0</ele><time>2026-04-06T08:36:19.001Z</time></trkpt><trkpt lat="43.536905535324934" lon="10.801594552958258"><ele>165.0</ele><time>2026-04-06T08:36:20.001Z</time></trkpt><trkpt lat="43.536822979873996" lon="10.801753352819123"><ele>166.0</ele><time>2026-04-06T08:36:21.001Z</time></trkpt><trkpt lat="43.53676474626824" lon="10.801945489392963"><ele>167.0</ele><time>2026-04-06T08:36:22.001Z</time></trkpt><trkpt lat="43.536714710865574" lon="10.80215292701648"><ele>164.66666666666666</ele><time>2026-04-06T08:36:23.001Z</time></trkpt><trkpt lat="43.536680045529934" lon="10.80237398458573"><ele>162.33333333333334</ele><time>2026-04-06T08:36:24.001Z</time></trkpt><trkpt lat="43.53667870888042" lon="10.802612039937792"><ele>160.0</ele><time>2026-04-06T08:36:25.001Z</time></trkpt><trkpt lat="43.536678026322" lon="10.802844643588994"><ele>158.66666666666669</ele><time>2026-04-06T08:36:26.001Z</time></trkpt><trkpt lat="43.536680299827204" lon="10.803068855425666"><ele>157.33333333333334</ele><time>2026-04-06T08:36:27.001Z</time></trkpt><trkpt lat="43.536670619405264" lon="10.803274833003272"><ele>156.0</ele><time>2026-04-06T08:36:28.001Z</time></trkpt><trkpt lat="43.53665954584606" lon="10.80346997484134"><ele>156.5</ele><time>2026-04-06T08:36:29.001Z</time></trkpt><trkpt lat="43.53664312167025" lon="10.8036519575806"><ele>157.0</ele><time>2026-04-06T08:36:30.001Z</time></trkpt><trkpt lat="43.536622698473415" lon="10.803832543698013"><ele>157.5</ele><time>2026-04-06T08:36:31.001Z</time></trkpt><trkpt lat="43.53659784824921" lon="10.804016315749799"><ele>158.0</ele><time>2026-04-06T08:36:32.001Z</time></trkpt><trkpt lat="43.536559579952176" lon="10.804186164040468"><ele>159.5</ele><time>2026-04-06T08:36:33.001Z</time></trkpt><trkpt lat="43.536506357612126" lon="10.804357775841353"><ele>161.0</ele><time>2026-04-06T08:36:34.001Z</time></trkpt><trkpt lat="43.53645667384875" lon="10.804521241104307"><ele>162.5</ele><time>2026-04-06T08:36:35.001Z</time></trkpt><trkpt lat="43.5364041957693" lon="10.804683955437577"><ele>164.0</ele><time>2026-04-06T08:36:36.001Z</time></trkpt><trkpt lat="43.53634482622494" lon="10.804844164982805"><ele>164.0</ele><time>2026-04-06T08:36:37.001Z</time></trkpt><trkpt lat="43.53628088967978" lon="10.804997879029525"><ele>164.0</ele><time>2026-04-06T08:36:38.001Z</time></trkpt><trkpt lat="43.536236337355795" lon="10.80516137446792"><ele>164.0</ele><time>2026-04-06T08:36:39.001Z</time></trkpt><trkpt lat="43.536171614283774" lon="10.805311802817187"><ele>164.0</ele><time>2026-04-06T08:36:40.001Z</time></trkpt><trkpt lat="43.536112388617276" lon="10.805458063310382"><ele>164.0</ele><time>2026-04-06T08:36:41.001Z</time></trkpt><trkpt lat="43.536054562812524" lon="10.805603200382047"><ele>164.0</ele><time>2026-04-06T08:36:42.001Z</time></trkpt><trkpt lat="43.536012228268" lon="10.80576412050783"><ele>164.0</ele><time>2026-04-06T08:36:43Z</time></trkpt><trkpt lat="43.53599175973283" lon="10.805949803207634"><ele>164.0</ele><time>2026-04-06T08:36:44Z</time></trkpt><trkpt lat="43.535977612748844" lon="10.806128231425438"><ele>164.25</ele><time>2026-04-06T08:36:45Z</time></trkpt><trkpt lat="43.53596217141033" lon="10.806300928894391"><ele>164.5</ele><time>2026-04-06T08:36:46Z</time></trkpt><trkpt lat="43.53596099381184" lon="10.806464703632894"><ele>164.75</ele><time>2026-04-06T08:36:47Z</time></trkpt><trkpt lat="43.53598866410015" lon="10.806635585268733"><ele>165.0</ele><time>2026-04-06T08:36:48Z</time></trkpt><trkpt lat="43.53604050866938" lon="10.806811654158231"><ele>164.5</ele><time>2026-04-06T08:36:49Z</time></trkpt><trkpt lat="43.536065483817254" lon="10.807004366554162"><ele>164.0</ele><time>2026-04-06T08:36:50Z</time></trkpt><trkpt lat="43.53607948301768" lon="10.807205679605342"><ele>163.5</ele><time>2026-04-06T08:36:51Z</time></trkpt><trkpt lat="43.53608786151314" lon="10.807420191652433"><ele>163.0</ele><time>2026-04-06T08:36:52Z</time></trkpt><trkpt lat="43.536096449640375" lon="10.807628450624163"><ele>162.33333333333334</ele><time>2026-04-06T08:36:53Z</time></trkpt><trkpt lat="43.53609919995795" lon="10.807834086710644"><ele>161.66666666666666</ele><time>2026-04-06T08:36:54Z</time></trkpt><trkpt lat="43.53608990929114" lon="10.808040696857073"><ele>161.0</ele><time>2026-04-06T08:36:55Z</time></trkpt><trkpt lat="43.53606120045515" lon="10.808250520304332"><ele>161.0</ele><time>2026-04-06T08:36:56Z</time></trkpt><trkpt lat="43.53602241326117" lon="10.808449961480289"><ele>161.0</ele><time>2026-04-06T08:36:57Z</time></trkpt><trkpt lat="43.53598838019578" lon="10.808638166653886"><ele>161.0</ele><time>2026-04-06T08:36:58Z</time></trkpt><trkpt lat="43.53596617404402" lon="10.80881764594685"><ele>161.0</ele><time>2026-04-06T08:36:59Z</time></trkpt><trkpt lat="43.53596681960839" lon="10.808994056979106"><ele>161.75</ele><time>2026-04-06T08:37:00Z</time></trkpt><trkpt lat="43.53599444403304" lon="10.809171547235794"><ele>162.5</ele><time>2026-04-06T08:37:01Z</time></trkpt><trkpt lat="43.53601442133155" lon="10.809355969927438"><ele>163.25</ele><time>2026-04-06T08:37:02Z</time></trkpt><trkpt lat="43.53606129603708" lon="10.809536930564535"><ele>164.0</ele><time>2026-04-06T08:37:03Z</time></trkpt><trkpt lat="43.53612090508581" lon="10.809714045383421"><ele>164.25</ele><time>2026-04-06T08:37:04Z</time></trkpt><trkpt lat="43.53620497903169" lon="10.80987623193793"><ele>164.5</ele><time>2026-04-06T08:37:05Z</time></trkpt><trkpt lat="43.53629834043608" lon="10.810013932822127"><ele>164.75</ele><time>2026-04-06T08:37:06Z</time></trkpt><trkpt lat="43.53636290883399" lon="10.810136766434344"><ele>165.0</ele><time>2026-04-06T08:37:07Z</time></trkpt><trkpt lat="43.536402126607136" lon="10.810281048975389"><ele>165.5</ele><time>2026-04-06T08:37:08Z</time></trkpt><trkpt lat="43.536418828737574" lon="10.810462418329841"><ele>166.0</ele><time>2026-04-06T08:37:09Z</time></trkpt><trkpt lat="43.53642024574892" lon="10.810649830741477"><ele>166.5</ele><time>2026-04-06T08:37:10Z</time></trkpt><trkpt lat="43.53640993056778" lon="10.810845729819263"><ele>167.0</ele><time>2026-04-06T08:37:11Z</time></trkpt><trkpt lat="43.53640372862577" lon="10.811055926507661"><ele>167.5</ele><time>2026-04-06T08:37:12Z</time></trkpt><trkpt lat="43.536416949531045" lon="10.811254039039028"><ele>168.0</ele><time>2026-04-06T08:37:13Z</time></trkpt><trkpt lat="43.53645459276635" lon="10.811452595566605"><ele>168.5</ele><time>2026-04-06T08:37:14Z</time></trkpt><trkpt lat="43.536509497082" lon="10.811633615158481"><ele>169.0</ele><time>2026-04-06T08:37:15Z</time></trkpt><trkpt lat="43.53658546537195" lon="10.811803339342509"><ele>170.5</ele><time>2026-04-06T08:37:16Z</time></trkpt><trkpt lat="43.53667950858952" lon="10.8119641977393"><ele>172.0</ele><time>2026-04-06T08:37:17Z</time></trkpt><trkpt lat="43.53677339020527" lon="10.812123359418662"><ele>173.5</ele><time>2026-04-06T08:37:18Z</time></trkpt><trkpt lat="43.53686785470921" lon="10.812278997398352"><ele>175.0</ele><time>2026-04-06T08:37:19Z</time></trkpt><trkpt lat="43.53696664105206" lon="10.812418154799932"><ele>174.75</ele><time>2026-04-06T08:37:20Z</time></trkpt><trkpt lat="43.537070253995616" lon="10.812541971010127"><ele>174.5</ele><time>2026-04-06T08:37:21Z</time></trkpt><trkpt lat="43.53717160358973" lon="10.812648568302919"><ele>174.25</ele><time>2026-04-06T08:37:22Z</time></trkpt><trkpt lat="43.53726639073593" lon="10.812724286485805"><ele>174.0</ele><time>2026-04-06T08:37:23Z</time></trkpt><trkpt lat="43.53734817959962" lon="10.812785503063626"><ele>174.6</ele><time>2026-04-06T08:37:24Z</time></trkpt><trkpt lat="43.537410589730314" lon="10.812882333953176"><ele>175.2</ele><time>2026-04-06T08:37:25Z</time></trkpt><trkpt lat="43.53748246922499" lon="10.813018056193092"><ele>175.79999999999998</ele><time>2026-04-06T08:37:26Z</time></trkpt><trkpt lat="43.537506115100655" lon="10.813166368343364"><ele>176.39999999999998</ele><time>2026-04-06T08:37:27Z</time></trkpt><trkpt lat="43.53749199796303" lon="10.813293749855923"><ele>177.0</ele><time>2026-04-06T08:37:28Z</time></trkpt><trkpt lat="43.53745148409837" lon="10.81341243371161"><ele>175.0</ele><time>2026-04-06T08:37:29Z</time></trkpt><trkpt lat="43.53741266794973" lon="10.813540161910982"><ele>173.0</ele><time>2026-04-06T08:37:30Z</time></trkpt><trkpt lat="43.53735058750333" lon="10.813660168675604"><ele>171.0</ele><time>2026-04-06T08:37:31Z</time></trkpt><trkpt lat="43.5373118858785" lon="10.813806458509122"><ele>169.0</ele><time>2026-04-06T08:37:32Z</time></trkpt><trkpt lat="43.53722492261371" lon="10.813932444205493"><ele>167.0</ele><time>2026-04-06T08:37:33Z</time></trkpt><trkpt lat="43.53715560666317" lon="10.814063510172257"><ele>167.0</ele><time>2026-04-06T08:37:34Z</time></trkpt><trkpt lat="43.53710830445972" lon="10.814211735767001"><ele>167.0</ele><time>2026-04-06T08:37:35Z</time></trkpt><trkpt lat="43.53710693709421" lon="10.814371732666494"><ele>167.0</ele><time>2026-04-06T08:37:36Z</time></trkpt><trkpt lat="43.537117274779405" lon="10.814532005329616"><ele>167.0</ele><time>2026-04-06T08:37:37Z</time></trkpt><trkpt lat="43.53713409787688" lon="10.814694939190812"><ele>165.75</ele><time>2026-04-06T08:37:38.001Z</time></trkpt><trkpt lat="43.537179985608404" lon="10.814854978226839"><ele>164.5</ele><time>2026-04-06T08:37:39.001Z</time></trkpt><trkpt lat="43.53722945164412" lon="10.815018746345627"><ele>163.25</ele><time>2026-04-06T08:37:40.001Z</time></trkpt><trkpt lat="43.537279722820436" lon="10.81518161769296"><ele>162.0</ele><time>2026-04-06T08:37:41.001Z</time></trkpt><trkpt lat="43.5373319755411" lon="10.81534219907156"><ele>162.0</ele><time>2026-04-06T08:37:42.001Z</time></trkpt><trkpt lat="43.5373803837198" lon="10.815504693348124"><ele>162.0</ele><time>2026-04-06T08:37:43.001Z</time></trkpt><trkpt lat="43.53742589372444" lon="10.815672126998738"><ele>162.0</ele><time>2026-04-06T08:37:44.001Z</time></trkpt><trkpt lat="43.53747494482382" lon="10.815838855821154"><ele>162.0</ele><time>2026-04-06T08:37:45.001Z</time></trkpt><trkpt lat="43.53752596985473" lon="10.816001750794495"><ele>164.0</ele><time>2026-04-06T08:37:46.001Z</time></trkpt><trkpt lat="43.53758422879793" lon="10.816160120350567"><ele>166.0</ele><time>2026-04-06T08:37:47.001Z</time></trkpt><trkpt lat="43.53764883303288" lon="10.81631705300764"><ele>168.0</ele><time>2026-04-06T08:37:48.001Z</time></trkpt><trkpt lat="43.53772207065128" lon="10.816482142325045"><ele>170.0</ele><time>2026-04-06T08:37:49.001Z</time></trkpt><trkpt lat="43.5377990005507" lon="10.81665095114201"><ele>173.0</ele><time>2026-04-06T08:37:50.001Z</time></trkpt><trkpt lat="43.537877377769945" lon="10.816828247141563"><ele>176.0</ele><time>2026-04-06T08:37:51.001Z</time></trkpt><trkpt lat="43.537958483304244" lon="10.817009830391557"><ele>179.0</ele><time>2026-04-06T08:37:52.001Z</time></trkpt><trkpt lat="43.53804193452487" lon="10.817197047844978"><ele>176.33333333333331</ele><time>2026-04-06T08:37:53.001Z</time></trkpt><trkpt lat="43.538126912326085" lon="10.817390693755145"><ele>173.66666666666666</ele><time>2026-04-06T08:37:54.001Z</time></trkpt><trkpt lat="43.538216389564376" lon="10.817591143905828"><ele>171.0</ele><time>2026-04-06T08:37:55.001Z</time></trkpt><trkpt lat="43.538304007264635" lon="10.817788327106006"><ele>171.0</ele><time>2026-04-06T08:37:56.001Z</time></trkpt><trkpt lat="43.53837933227897" lon="10.81796960646318"><ele>171.0</ele><time>2026-04-06T08:37:57.001Z</time></trkpt><trkpt lat="43.538450614770746" lon="10.818139282730252"><ele>171.0</ele><time>2026-04-06T08:37:58.001Z</time></trkpt><trkpt lat="43.53852361871265" lon="10.818292200456115"><ele>171.0</ele><time>2026-04-06T08:37:59.001Z</time></trkpt><trkpt lat="43.53858540906789" lon="10.818455660679446"><ele>171.20000000000002</ele><time>2026-04-06T08:38:00.001Z</time></trkpt><trkpt lat="43.53862869947228" lon="10.818615892863901"><ele>171.4</ele><time>2026-04-06T08:38:01.001Z</time></trkpt><trkpt lat="43.53862720477821" lon="10.818755981728895"><ele>171.6</ele><time>2026-04-06T08:38:02.001Z</time></trkpt><trkpt lat="43.53862913359969" lon="10.818848066136207"><ele>171.8</ele><time>2026-04-06T08:38:03.001Z</time></trkpt><trkpt lat="43.538648139490824" lon="10.818981230143969"><ele>172.0</ele><time>2026-04-06T08:38:04.001Z</time></trkpt><trkpt lat="43.53868700848386" lon="10.819188589289533"><ele>170.0</ele><time>2026-04-06T08:38:05.001Z</time></trkpt><trkpt lat="43.53873921569513" lon="10.81937220928953"><ele>168.0</ele><time>2026-04-06T08:38:06.001Z</time></trkpt><trkpt lat="43.53879275199016" lon="10.819537729820736"><ele>166.0</ele><time>2026-04-06T08:38:07.001Z</time></trkpt><trkpt lat="43.538841979276306" lon="10.819703705164775"><ele>164.0</ele><time>2026-04-06T08:38:08.001Z</time></trkpt><trkpt lat="43.53888480243474" lon="10.819869653131711"><ele>164.0</ele><time>2026-04-06T08:38:09.001Z</time></trkpt><trkpt lat="43.538933083215305" lon="10.820034827555634"><ele>164.0</ele><time>2026-04-06T08:38:10.001Z</time></trkpt><trkpt lat="43.53898146320991" lon="10.820193890919382"><ele>164.0</ele><time>2026-04-06T08:38:11.001Z</time></trkpt><trkpt lat="43.53901767478923" lon="10.820356160654264"><ele>164.0</ele><time>2026-04-06T08:38:12.001Z</time></trkpt><trkpt lat="43.53903084262183" lon="10.820555037575055"><ele>164.5</ele><time>2026-04-06T08:38:13.001Z</time></trkpt><trkpt lat="43.53903734191974" lon="10.820721697429098"><ele>165.0</ele><time>2026-04-06T08:38:14.001Z</time></trkpt><trkpt lat="43.53903786186668" lon="10.820888903444708"><ele>165.5</ele><time>2026-04-06T08:38:15.001Z</time></trkpt><trkpt lat="43.53903408974831" lon="10.821055105131181"><ele>166.0</ele><time>2026-04-06T08:38:16.001Z</time></trkpt><trkpt lat="43.53903672357072" lon="10.821225789659895"><ele>166.20000000000002</ele><time>2026-04-06T08:38:17.001Z</time></trkpt><trkpt lat="43.53903793618472" lon="10.821389631484578"><ele>166.4</ele><time>2026-04-06T08:38:18.001Z</time></trkpt><trkpt lat="43.539045640256724" lon="10.82154637409715"><ele>166.6</ele><time>2026-04-06T08:38:19.001Z</time></trkpt><trkpt lat="43.539056083594296" lon="10.82169092343353"><ele>166.8</ele><time>2026-04-06T08:38:20.001Z</time></trkpt><trkpt lat="43.53907250133684" lon="10.82183303498315"><ele>167.0</ele><time>2026-04-06T08:38:21.001Z</time></trkpt><trkpt lat="43.53908840110784" lon="10.821973917368025"><ele>167.39999999999998</ele><time>2026-04-06T08:38:22.001Z</time></trkpt><trkpt lat="43.539110271163516" lon="10.822110882210337"><ele>167.79999999999998</ele><time>2026-04-06T08:38:23.001Z</time></trkpt><trkpt lat="43.5391320995456" lon="10.822246479464217"><ele>168.2</ele><time>2026-04-06T08:38:24.001Z</time></trkpt><trkpt lat="43.53914887482568" lon="10.822373041143562"><ele>168.6</ele><time>2026-04-06T08:38:25.001Z</time></trkpt><trkpt lat="43.539167578602665" lon="10.822497138255171"><ele>169.0</ele><time>2026-04-06T08:38:26.001Z</time></trkpt><trkpt lat="43.53918401627321" lon="10.82261697558854"><ele>169.0</ele><time>2026-04-06T08:38:27.001Z</time></trkpt><trkpt lat="43.539201591139445" lon="10.822734990398262"><ele>169.0</ele><time>2026-04-06T08:38:28.001Z</time></trkpt><trkpt lat="43.53922197728829" lon="10.822855515905216"><ele>169.0</ele><time>2026-04-06T08:38:29.001Z</time></trkpt><trkpt lat="43.539239868940996" lon="10.822977213214157"><ele>169.0</ele><time>2026-04-06T08:38:30.001Z</time></trkpt><trkpt lat="43.53925590397176" lon="10.823099579327463"><ele>169.0</ele><time>2026-04-06T08:38:31.001Z</time></trkpt><trkpt lat="43.53927076561407" lon="10.823219561333175"><ele>169.0</ele><time>2026-04-06T08:38:32.001Z</time></trkpt><trkpt lat="43.53929104917329" lon="10.823343007537147"><ele>169.0</ele><time>2026-04-06T08:38:33.001Z</time></trkpt><trkpt lat="43.539309446398704" lon="10.823464785334204"><ele>169.0</ele><time>2026-04-06T08:38:34.001Z</time></trkpt><trkpt lat="43.5393290767206" lon="10.823588034561105"><ele>169.0</ele><time>2026-04-06T08:38:35.001Z</time></trkpt><trkpt lat="43.539343896306455" lon="10.823706907294506"><ele>169.0</ele><time>2026-04-06T08:38:36.001Z</time></trkpt><trkpt lat="43.53935554918096" lon="10.82382528471765"><ele>169.0</ele><time>2026-04-06T08:38:37.001Z</time></trkpt><trkpt lat="43.539371504306935" lon="10.82394556892639"><ele>169.0</ele><time>2026-04-06T08:38:38.001Z</time></trkpt><trkpt lat="43.53938701886871" lon="10.824057095994672"><ele>168.16666666666669</ele><time>2026-04-06T08:38:39.001Z</time></trkpt><trkpt lat="43.53940467419788" lon="10.824164206978256"><ele>167.33333333333334</ele><time>2026-04-06T08:38:40.001Z</time></trkpt><trkpt lat="43.53941909999363" lon="10.82426989059544"><ele>166.5</ele><time>2026-04-06T08:38:41.001Z</time></trkpt><trkpt lat="43.539432370454755" lon="10.824378694838677"><ele>165.66666666666666</ele><time>2026-04-06T08:38:42.001Z</time></trkpt><trkpt lat="43.53944881182523" lon="10.824484514022355"><ele>164.83333333333331</ele><time>2026-04-06T08:38:43.002Z</time></trkpt><trkpt lat="43.539464699507846" lon="10.824589475179309"><ele>164.0</ele><time>2026-04-06T08:38:44.002Z</time></trkpt><trkpt lat="43.539479983045226" lon="10.82469834798931"><ele>163.16666666666666</ele><time>2026-04-06T08:38:45.002Z</time></trkpt><trkpt lat="43.539490713941156" lon="10.824802338959362"><ele>162.33333333333331</ele><time>2026-04-06T08:38:46.002Z</time></trkpt><trkpt lat="43.53950618649758" lon="10.824912857125035"><ele>161.5</ele><time>2026-04-06T08:38:47.002Z</time></trkpt><trkpt lat="43.53952000809954" lon="10.825027619345843"><ele>160.66666666666666</ele><time>2026-04-06T08:38:48.002Z</time></trkpt><trkpt lat="43.539535046389375" lon="10.825139446021321"><ele>159.83333333333334</ele><time>2026-04-06T08:38:49Z</time></trkpt><trkpt lat="43.5395490381379" lon="10.825251354260216"><ele>159.0</ele><time>2026-04-06T08:38:50Z</time></trkpt><trkpt lat="43.53956589074604" lon="10.82536711123674"><ele>159.0</ele><time>2026-04-06T08:38:51Z</time></trkpt><trkpt lat="43.5395833901913" lon="10.825484482653328"><ele>159.0</ele><time>2026-04-06T08:38:52Z</time></trkpt><trkpt lat="43.53959901669184" lon="10.825602096752554"><ele>159.0</ele><time>2026-04-06T08:38:53Z</time></trkpt><trkpt lat="43.539616878091934" lon="10.825718223946845"><ele>159.0</ele><time>2026-04-06T08:38:54Z</time></trkpt><trkpt lat="43.53963713504806" lon="10.825833769109112"><ele>159.0</ele><time>2026-04-06T08:38:55Z</time></trkpt><trkpt lat="43.539654100151566" lon="10.825948459650323"><ele>159.0</ele><time>2026-04-06T08:38:56Z</time></trkpt><trkpt lat="43.539668820557004" lon="10.826061317792933"><ele>158.5</ele><time>2026-04-06T08:38:57Z</time></trkpt><trkpt lat="43.53968638710708" lon="10.826173362621974"><ele>158.0</ele><time>2026-04-06T08:38:58Z</time></trkpt><trkpt lat="43.53970488186562" lon="10.826283192029011"><ele>157.5</ele><time>2026-04-06T08:38:59Z</time></trkpt><trkpt lat="43.539719837493564" lon="10.826390584850511"><ele>157.0</ele><time>2026-04-06T08:39:00Z</time></trkpt><trkpt lat="43.53973444171692" lon="10.826500437049038"><ele>156.5</ele><time>2026-04-06T08:39:01Z</time></trkpt><trkpt lat="43.53975036470869" lon="10.82661434481566"><ele>156.0</ele><time>2026-04-06T08:39:02Z</time></trkpt><trkpt lat="43.539768093283534" lon="10.826729588135288"><ele>155.16666666666666</ele><time>2026-04-06T08:39:03Z</time></trkpt><trkpt lat="43.539788028169966" lon="10.826850361649887"><ele>154.33333333333334</ele><time>2026-04-06T08:39:04Z</time></trkpt><trkpt lat="43.539808070807624" lon="10.826970802639007"><ele>153.5</ele><time>2026-04-06T08:39:05Z</time></trkpt><trkpt lat="43.53982651762034" lon="10.827088848197567"><ele>152.66666666666669</ele><time>2026-04-06T08:39:06Z</time></trkpt><trkpt lat="43.5398436740647" lon="10.82720413463687"><ele>151.83333333333334</ele><time>2026-04-06T08:39:07Z</time></trkpt><trkpt lat="43.53985622922609" lon="10.82731704819113"><ele>151.0</ele><time>2026-04-06T08:39:08Z</time></trkpt><trkpt lat="43.5398655626766" lon="10.827420404893658"><ele>151.0</ele><time>2026-04-06T08:39:09Z</time></trkpt><trkpt lat="43.539877487845374" lon="10.827517863209513"><ele>151.0</ele><time>2026-04-06T08:39:10Z</time></trkpt><trkpt lat="43.53988877684078" lon="10.827610393121047"><ele>151.0</ele><time>2026-04-06T08:39:11Z</time></trkpt><trkpt lat="43.53989525162262" lon="10.827697577978276"><ele>151.0</ele><time>2026-04-06T08:39:12Z</time></trkpt><trkpt lat="43.53992330220267" lon="10.827856791273907"><ele>151.0</ele><time>2026-04-06T08:39:14Z</time></trkpt><trkpt lat="43.53995144224265" lon="10.828025943196435"><ele>151.0</ele><time>2026-04-06T08:39:17Z</time></trkpt><trkpt lat="43.54012593550512" lon="10.828046982973135"><ele>151.0</ele><time>2026-04-06T08:39:21Z</time></trkpt><trkpt lat="43.54016622783487" lon="10.827977016106345"><ele>151.0</ele><time>2026-04-06T08:39:22Z</time></trkpt><trkpt lat="43.540216908166855" lon="10.82788639882642"><ele>151.0</ele><time>2026-04-06T08:39:23Z</time></trkpt><trkpt lat="43.54027006907859" lon="10.8277900736053"><ele>151.0</ele><time>2026-04-06T08:39:24Z</time></trkpt><trkpt lat="43.54032369073793" lon="10.827689161642333"><ele>151.0</ele><time>2026-04-06T08:39:25Z</time></trkpt><trkpt lat="43.540379582181586" lon="10.827578007239595"><ele>151.0</ele><time>2026-04-06T08:39:26Z</time></trkpt><trkpt lat="43.54043860376391" lon="10.827455050927027"><ele>148.5</ele><time>2026-04-06T08:39:27Z</time></trkpt><trkpt lat="43.540496943225584" lon="10.827320198979008"><ele>146.0</ele><time>2026-04-06T08:39:28Z</time></trkpt><trkpt lat="43.54055349418648" lon="10.827165413364293"><ele>143.5</ele><time>2026-04-06T08:39:29Z</time></trkpt><trkpt lat="43.54060716985584" lon="10.826995937211581"><ele>141.0</ele><time>2026-04-06T08:39:30Z</time></trkpt><trkpt lat="43.54063966538979" lon="10.82681388919192"><ele>141.5</ele><time>2026-04-06T08:39:31.001Z</time></trkpt><trkpt lat="43.54069621264668" lon="10.826645373115392"><ele>142.0</ele><time>2026-04-06T08:39:32.001Z</time></trkpt><trkpt lat="43.54074093155385" lon="10.826459434391209"><ele>142.5</ele><time>2026-04-06T08:39:33.001Z</time></trkpt><trkpt lat="43.54078588389913" lon="10.826271548559966"><ele>143.0</ele><time>2026-04-06T08:39:34.001Z</time></trkpt><trkpt lat="43.54083409407754" lon="10.826082777059383"><ele>142.5</ele><time>2026-04-06T08:39:35.001Z</time></trkpt><trkpt lat="43.54088490929334" lon="10.825890612145246"><ele>142.0</ele><time>2026-04-06T08:39:36.001Z</time></trkpt><trkpt lat="43.54093270806986" lon="10.82569973982318"><ele>141.5</ele><time>2026-04-06T08:39:37.001Z</time></trkpt><trkpt lat="43.54098217459871" lon="10.825506520749727"><ele>141.0</ele><time>2026-04-06T08:39:38.001Z</time></trkpt><trkpt lat="43.54103249547304" lon="10.825322086193339"><ele>141.0</ele><time>2026-04-06T08:39:39.001Z</time></trkpt><trkpt lat="43.541081611926266" lon="10.825150171789934"><ele>141.0</ele><time>2026-04-06T08:39:40.001Z</time></trkpt><trkpt lat="43.54112616179283" lon="10.82498619152998"><ele>141.0</ele><time>2026-04-06T08:39:41.001Z</time></trkpt><trkpt lat="43.541165761483526" lon="10.824826431694275"><ele>141.0</ele><time>2026-04-06T08:39:42.001Z</time></trkpt><trkpt lat="43.54122359057911" lon="10.824668051477325"><ele>137.0</ele><time>2026-04-06T08:39:43.001Z</time></trkpt><trkpt lat="43.5412749682333" lon="10.824496114775624"><ele>133.0</ele><time>2026-04-06T08:39:44.001Z</time></trkpt><trkpt lat="43.54133150366637" lon="10.824315922414874"><ele>129.0</ele><time>2026-04-06T08:39:45.001Z</time></trkpt><trkpt lat="43.541390564214446" lon="10.824136650193338"><ele>125.0</ele><time>2026-04-06T08:39:46.001Z</time></trkpt><trkpt lat="43.54144873261592" lon="10.823959226717283"><ele>125.0</ele><time>2026-04-06T08:39:47.001Z</time></trkpt><trkpt lat="43.54150649332105" lon="10.823776482633878"><ele>125.0</ele><time>2026-04-06T08:39:48.001Z</time></trkpt><trkpt lat="43.54156298479281" lon="10.82359333521634"><ele>125.0</ele><time>2026-04-06T08:39:49.001Z</time></trkpt><trkpt lat="43.541617829949935" lon="10.823415815434679"><ele>125.0</ele><time>2026-04-06T08:39:50.001Z</time></trkpt><trkpt lat="43.54166776972913" lon="10.82324186894407"><ele>125.0</ele><time>2026-04-06T08:39:51.001Z</time></trkpt><trkpt lat="43.5417145539626" lon="10.823074379267974"><ele>125.0</ele><time>2026-04-06T08:39:52.001Z</time></trkpt><trkpt lat="43.541750316429926" lon="10.822927032703026"><ele>125.0</ele><time>2026-04-06T08:39:53.001Z</time></trkpt><trkpt lat="43.54177137754185" lon="10.822785808627003"><ele>125.0</ele><time>2026-04-06T08:39:54.001Z</time></trkpt><trkpt lat="43.541784658806804" lon="10.822642616368602"><ele>124.4</ele><time>2026-04-06T08:39:55.001Z</time></trkpt><trkpt lat="43.541805498837135" lon="10.822495050650396"><ele>123.8</ele><time>2026-04-06T08:39:56.001Z</time></trkpt><trkpt lat="43.54179418109577" lon="10.822344662691759"><ele>123.19999999999999</ele><time>2026-04-06T08:39:57.001Z</time></trkpt><trkpt lat="43.54179909480345" lon="10.822201267174567"><ele>122.6</ele><time>2026-04-06T08:39:58.001Z</time></trkpt><trkpt lat="43.541800720050915" lon="10.822059770182562"><ele>122.0</ele><time>2026-04-06T08:39:59.001Z</time></trkpt><trkpt lat="43.541813600000246" lon="10.821923161359411"><ele>121.6</ele><time>2026-04-06T08:40:00.001Z</time></trkpt><trkpt lat="43.54184499712064" lon="10.821791658470625"><ele>121.19999999999999</ele><time>2026-04-06T08:40:01.001Z</time></trkpt><trkpt lat="43.54189163073869" lon="10.82166674435074"><ele>120.8</ele><time>2026-04-06T08:40:02.001Z</time></trkpt><trkpt lat="43.54196204118494" lon="10.821564189853541"><ele>120.4</ele><time>2026-04-06T08:40:03.001Z</time></trkpt><trkpt lat="43.54201345575992" lon="10.82145005506124"><ele>120.0</ele><time>2026-04-06T08:40:04.001Z</time></trkpt><trkpt lat="43.542076906688465" lon="10.821351678645783"><ele>116.8</ele><time>2026-04-06T08:40:05.001Z</time></trkpt><trkpt lat="43.54213836688321" lon="10.821257963117617"><ele>113.6</ele><time>2026-04-06T08:40:06.001Z</time></trkpt><trkpt lat="43.54218574249222" lon="10.821149978629771"><ele>110.4</ele><time>2026-04-06T08:40:07.001Z</time></trkpt><trkpt lat="43.542236532265555" lon="10.821034642360354"><ele>107.2</ele><time>2026-04-06T08:40:08.001Z</time></trkpt><trkpt lat="43.54228760882595" lon="10.820899325274935"><ele>104.0</ele><time>2026-04-06T08:40:09.001Z</time></trkpt><trkpt lat="43.54232780840246" lon="10.820750166311077"><ele>104.0</ele><time>2026-04-06T08:40:10.001Z</time></trkpt><trkpt lat="43.54236837124563" lon="10.820587239143517"><ele>104.0</ele><time>2026-04-06T08:40:11.001Z</time></trkpt><trkpt lat="43.542411224249925" lon="10.820410963043756"><ele>104.0</ele><time>2026-04-06T08:40:12.001Z</time></trkpt><trkpt lat="43.542456232791416" lon="10.82023883931226"><ele>104.0</ele><time>2026-04-06T08:40:13.001Z</time></trkpt><trkpt lat="43.54248838587141" lon="10.820070203669392"><ele>103.25</ele><time>2026-04-06T08:40:14.001Z</time></trkpt><trkpt lat="43.54251935902384" lon="10.819907498204756"><ele>102.5</ele><time>2026-04-06T08:40:15.001Z</time></trkpt><trkpt lat="43.54254252319896" lon="10.819748403518302"><ele>101.75</ele><time>2026-04-06T08:40:16.001Z</time></trkpt><trkpt lat="43.54256031370324" lon="10.81958770096657"><ele>101.0</ele><time>2026-04-06T08:40:17.001Z</time></trkpt><trkpt lat="43.54258282545793" lon="10.819421394758733"><ele>100.0</ele><time>2026-04-06T08:40:18.001Z</time></trkpt><trkpt lat="43.542588488778854" lon="10.819247175303849"><ele>99.0</ele><time>2026-04-06T08:40:19.001Z</time></trkpt><trkpt lat="43.542600830628885" lon="10.819072555772532"><ele>98.0</ele><time>2026-04-06T08:40:20.001Z</time></trkpt><trkpt lat="43.542612694336384" lon="10.818890460577121"><ele>97.0</ele><time>2026-04-06T08:40:21.001Z</time></trkpt><trkpt lat="43.542621040092634" lon="10.818702308828305"><ele>97.0</ele><time>2026-04-06T08:40:22.001Z</time></trkpt><trkpt lat="43.54263070427729" lon="10.818524442984256"><ele>97.0</ele><time>2026-04-06T08:40:23.001Z</time></trkpt><trkpt lat="43.54265137031842" lon="10.818361175688445"><ele>97.0</ele><time>2026-04-06T08:40:24.001Z</time></trkpt><trkpt lat="43.54264957172644" lon="10.81819741370395"><ele>97.0</ele><time>2026-04-06T08:40:25.001Z</time></trkpt><trkpt lat="43.542658654948134" lon="10.8180484758063"><ele>96.16666666666667</ele><time>2026-04-06T08:40:26.001Z</time></trkpt><trkpt lat="43.542666073412676" lon="10.817912419448271"><ele>95.33333333333334</ele><time>2026-04-06T08:40:27.001Z</time></trkpt><trkpt lat="43.542677648920645" lon="10.817792059505829"><ele>94.5</ele><time>2026-04-06T08:40:28.001Z</time></trkpt><trkpt lat="43.54269280891308" lon="10.817680409594002"><ele>93.66666666666667</ele><time>2026-04-06T08:40:29.001Z</time></trkpt><trkpt lat="43.54271721515971" lon="10.817577171674328"><ele>92.83333333333334</ele><time>2026-04-06T08:40:30.001Z</time></trkpt><trkpt lat="43.542754725654504" lon="10.817476050573926"><ele>92.0</ele><time>2026-04-06T08:40:31.001Z</time></trkpt><trkpt lat="43.54280599801164" lon="10.817380016188887"><ele>90.8</ele><time>2026-04-06T08:40:32.001Z</time></trkpt><trkpt lat="43.542873341039716" lon="10.817298922096255"><ele>89.6</ele><time>2026-04-06T08:40:33.001Z</time></trkpt><trkpt lat="43.54295314594633" lon="10.817229539397896"><ele>88.39999999999999</ele><time>2026-04-06T08:40:34.001Z</time></trkpt><trkpt lat="43.54305526632082" lon="10.817204182571718"><ele>87.19999999999999</ele><time>2026-04-06T08:40:35.001Z</time></trkpt><trkpt lat="43.54315269940277" lon="10.817134150535663"><ele>86.0</ele><time>2026-04-06T08:40:36.002Z</time></trkpt><trkpt lat="43.54327003355722" lon="10.817080999140469"><ele>85.25</ele><time>2026-04-06T08:40:37.002Z</time></trkpt><trkpt lat="43.54339252001391" lon="10.817029446102298"><ele>84.5</ele><time>2026-04-06T08:40:38.002Z</time></trkpt><trkpt lat="43.54352141146727" lon="10.816990780171494"><ele>83.75</ele><time>2026-04-06T08:40:39.002Z</time></trkpt><trkpt lat="43.543650917092776" lon="10.816932712674024"><ele>83.0</ele><time>2026-04-06T08:40:40.002Z</time></trkpt><trkpt lat="43.543776208937786" lon="10.816876534542708"><ele>83.0</ele><time>2026-04-06T08:40:41.002Z</time></trkpt><trkpt lat="43.54388105312997" lon="10.816812874453321"><ele>83.0</ele><time>2026-04-06T08:40:42.002Z</time></trkpt><trkpt lat="43.54397428324125" lon="10.816780357347271"><ele>83.0</ele><time>2026-04-06T08:40:43.002Z</time></trkpt><trkpt lat="43.54406437670854" lon="10.816775529348993"><ele>83.0</ele><time>2026-04-06T08:40:44.002Z</time></trkpt><trkpt lat="43.544148423433214" lon="10.816788676368962"><ele>83.0</ele><time>2026-04-06T08:40:45.002Z</time></trkpt><trkpt lat="43.54422228929658" lon="10.816836771544462"><ele>83.0</ele><time>2026-04-06T08:40:46.002Z</time></trkpt><trkpt lat="43.544287409742225" lon="10.816916270109704"><ele>83.0</ele><time>2026-04-06T08:40:47.002Z</time></trkpt><trkpt lat="43.5443399431439" lon="10.817013470022017"><ele>83.0</ele><time>2026-04-06T08:40:48.002Z</time></trkpt><trkpt lat="43.54437470837313" lon="10.817127172902204"><ele>83.0</ele><time>2026-04-06T08:40:49.002Z</time></trkpt><trkpt lat="43.54440348506894" lon="10.817271141070897"><ele>83.0</ele><time>2026-04-06T08:40:50.002Z</time></trkpt><trkpt lat="43.54443245983329" lon="10.817429871715857"><ele>83.0</ele><time>2026-04-06T08:40:51.002Z</time></trkpt><trkpt lat="43.54445460151824" lon="10.81762409347822"><ele>83.0</ele><time>2026-04-06T08:40:52.002Z</time></trkpt><trkpt lat="43.54448019944517" lon="10.817864965156117"><ele>83.0</ele><time>2026-04-06T08:40:53.002Z</time></trkpt><trkpt lat="43.544511563154494" lon="10.8181642147448"><ele>83.0</ele><time>2026-04-06T08:40:54.002Z</time></trkpt><trkpt lat="43.54454612367271" lon="10.818445334349192"><ele>83.0</ele><time>2026-04-06T08:40:55.001Z</time></trkpt><trkpt lat="43.54457630194345" lon="10.818673718056793"><ele>83.0</ele><time>2026-04-06T08:40:56.001Z</time></trkpt><trkpt lat="43.54460430775893" lon="10.818867941653334"><ele>85.80000000000001</ele><time>2026-04-06T08:40:57.001Z</time></trkpt><trkpt lat="43.54463153545592" lon="10.819055868658253"><ele>88.6</ele><time>2026-04-06T08:40:58.001Z</time></trkpt><trkpt lat="43.54465351332724" lon="10.819205511627612"><ele>91.4</ele><time>2026-04-06T08:40:59Z</time></trkpt><trkpt lat="43.54467098243983" lon="10.819337009207302"><ele>94.19999999999999</ele><time>2026-04-06T08:41:00Z</time></trkpt><trkpt lat="43.5446912256321" lon="10.81946648367307"><ele>97.0</ele><time>2026-04-06T08:41:01Z</time></trkpt><trkpt lat="43.54473051425557" lon="10.819606400814969"><ele>97.0</ele><time>2026-04-06T08:41:02Z</time></trkpt><trkpt lat="43.544793716998555" lon="10.819750215211013"><ele>97.0</ele><time>2026-04-06T08:41:03Z</time></trkpt><trkpt lat="43.544880602576924" lon="10.819891341850791"><ele>97.0</ele><time>2026-04-06T08:41:04Z</time></trkpt><trkpt lat="43.54498444838146" lon="10.82002565506286"><ele>97.0</ele><time>2026-04-06T08:41:05Z</time></trkpt><trkpt lat="43.54510377283492" lon="10.820148716405118"><ele>96.5</ele><time>2026-04-06T08:41:06Z</time></trkpt><trkpt lat="43.5452206197669" lon="10.820271437554577"><ele>96.0</ele><time>2026-04-06T08:41:07Z</time></trkpt><trkpt lat="43.54531191954929" lon="10.820408201453416"><ele>95.5</ele><time>2026-04-06T08:41:08Z</time></trkpt><trkpt lat="43.545383103036116" lon="10.820567048157246"><ele>95.0</ele><time>2026-04-06T08:41:09Z</time></trkpt><trkpt lat="43.545431690165685" lon="10.820737001137033"><ele>99.66666666666667</ele><time>2026-04-06T08:41:10Z</time></trkpt><trkpt lat="43.54546203162379" lon="10.820943800354119"><ele>104.33333333333334</ele><time>2026-04-06T08:41:11Z</time></trkpt><trkpt lat="43.54550190592087" lon="10.821186845333967"><ele>109.0</ele><time>2026-04-06T08:41:12Z</time></trkpt><trkpt lat="43.545541939998" lon="10.82142034761432"><ele>109.25</ele><time>2026-04-06T08:41:13Z</time></trkpt><trkpt lat="43.545575124035174" lon="10.821602729158428"><ele>109.5</ele><time>2026-04-06T08:41:14Z</time></trkpt><trkpt lat="43.545605732429614" lon="10.821766326390755"><ele>109.75</ele><time>2026-04-06T08:41:15Z</time></trkpt><trkpt lat="43.54563928604921" lon="10.821926154407294"><ele>110.0</ele><time>2026-04-06T08:41:16Z</time></trkpt><trkpt lat="43.54567877490784" lon="10.82207480644425"><ele>110.0</ele><time>2026-04-06T08:41:17Z</time></trkpt><trkpt lat="43.545732326085435" lon="10.822217014484506"><ele>110.0</ele><time>2026-04-06T08:41:18Z</time></trkpt><trkpt lat="43.54579159321523" lon="10.822357371789733"><ele>110.0</ele><time>2026-04-06T08:41:19Z</time></trkpt><trkpt lat="43.54585316695605" lon="10.822497970265875"><ele>110.0</ele><time>2026-04-06T08:41:20Z</time></trkpt><trkpt lat="43.54591501945448" lon="10.822631248685449"><ele>109.57142857142857</ele><time>2026-04-06T08:41:21Z</time></trkpt><trkpt lat="43.545970345458635" lon="10.822734863654563"><ele>109.14285714285714</ele><time>2026-04-06T08:41:22Z</time></trkpt><trkpt lat="43.54601638866788" lon="10.822811796690045"><ele>108.71428571428572</ele><time>2026-04-06T08:41:23Z</time></trkpt><trkpt lat="43.54606752261951" lon="10.822866524397899"><ele>108.28571428571428</ele><time>2026-04-06T08:41:24Z</time></trkpt><trkpt lat="43.54612906567851" lon="10.822903343111554"><ele>107.85714285714286</ele><time>2026-04-06T08:41:25Z</time></trkpt><trkpt lat="43.54619666498791" lon="10.822912173553894"><ele>107.42857142857143</ele><time>2026-04-06T08:41:26Z</time></trkpt><trkpt lat="43.54626204902675" lon="10.822886673597678"><ele>107.0</ele><time>2026-04-06T08:41:27Z</time></trkpt><trkpt lat="43.54631935644534" lon="10.822824833104734"><ele>110.0</ele><time>2026-04-06T08:41:28Z</time></trkpt><trkpt lat="43.54637969781719" lon="10.822757408612075"><ele>112.99999999999999</ele><time>2026-04-06T08:41:29Z</time></trkpt><trkpt lat="43.54640318692302" lon="10.822637118776282"><ele>115.99999999999999</ele><time>2026-04-06T08:41:30Z</time></trkpt><trkpt lat="43.54643171502528" lon="10.82251518425507"><ele>119.0</ele><time>2026-04-06T08:41:31Z</time></trkpt><trkpt lat="43.54646294863662" lon="10.822377535846602"><ele>122.0</ele><time>2026-04-06T08:41:32Z</time></trkpt><trkpt lat="43.546496752988816" lon="10.822226968007394"><ele>122.5</ele><time>2026-04-06T08:41:33Z</time></trkpt><trkpt lat="43.54652985145752" lon="10.822079544087089"><ele>123.0</ele><time>2026-04-06T08:41:34Z</time></trkpt><trkpt lat="43.5465674329918" lon="10.821912152288816"><ele>123.5</ele><time>2026-04-06T08:41:35.001Z</time></trkpt><trkpt lat="43.54660502300849" lon="10.821744135414184"><ele>124.0</ele><time>2026-04-06T08:41:36.001Z</time></trkpt><trkpt lat="43.546642298127864" lon="10.821567182076757"><ele>124.75</ele><time>2026-04-06T08:41:37.001Z</time></trkpt><trkpt lat="43.54668038298907" lon="10.821382540768543"><ele>125.5</ele><time>2026-04-06T08:41:38.001Z</time></trkpt><trkpt lat="43.54670635667264" lon="10.821187399751091"><ele>126.25</ele><time>2026-04-06T08:41:39.001Z</time></trkpt><trkpt lat="43.546752118308355" lon="10.821008728273053"><ele>127.0</ele><time>2026-04-06T08:41:40.001Z</time></trkpt><trkpt lat="43.5467906118679" lon="10.820832483867152"><ele>127.33333333333334</ele><time>2026-04-06T08:41:41.001Z</time></trkpt><trkpt lat="43.5468210328281" lon="10.820691685110594"><ele>127.66666666666667</ele><time>2026-04-06T08:41:42.001Z</time></trkpt><trkpt lat="43.546843507189095" lon="10.82057926853284"><ele>128.0</ele><time>2026-04-06T08:41:43.001Z</time></trkpt><trkpt lat="43.54686648748873" lon="10.82049403463866"><ele>128.33333333333334</ele><time>2026-04-06T08:41:44.001Z</time></trkpt><trkpt lat="43.54694974701829" lon="10.820379161033973"><ele>128.66666666666666</ele><time>2026-04-06T08:41:46.001Z</time></trkpt><trkpt lat="43.547014700365544" lon="10.820345752041362"><ele>129.0</ele><time>2026-04-06T08:41:47.001Z</time></trkpt><trkpt lat="43.5470799718857" lon="10.8203429883754"><ele>131.5</ele><time>2026-04-06T08:41:48.001Z</time></trkpt><trkpt lat="43.54714708701811" lon="10.82037628459799"><ele>134.0</ele><time>2026-04-06T08:41:49.001Z</time></trkpt><trkpt lat="43.54720871107366" lon="10.820439330201145"><ele>136.5</ele><time>2026-04-06T08:41:50.001Z</time></trkpt><trkpt lat="43.54726518423792" lon="10.820521027112672"><ele>139.0</ele><time>2026-04-06T08:41:51.001Z</time></trkpt><trkpt lat="43.5473168890591" lon="10.82061300554114"><ele>141.5</ele><time>2026-04-06T08:41:52.001Z</time></trkpt><trkpt lat="43.54737587548274" lon="10.820710287654428"><ele>144.0</ele><time>2026-04-06T08:41:53.001Z</time></trkpt><trkpt lat="43.54743491771172" lon="10.82080275084529"><ele>144.0</ele><time>2026-04-06T08:41:54.001Z</time></trkpt><trkpt lat="43.54749494669197" lon="10.82088636474587"><ele>144.0</ele><time>2026-04-06T08:41:55.001Z</time></trkpt><trkpt lat="43.54754687651879" lon="10.820960482840775"><ele>144.0</ele><time>2026-04-06T08:41:56.001Z</time></trkpt><trkpt lat="43.54763328579843" lon="10.82108958016228"><ele>144.0</ele><time>2026-04-06T08:41:58.001Z</time></trkpt><trkpt lat="43.5476912075223" lon="10.821160637057442"><ele>144.0</ele><time>2026-04-06T08:41:59.001Z</time></trkpt><trkpt lat="43.54774780806692" lon="10.821241484615953"><ele>144.0</ele><time>2026-04-06T08:42:00.001Z</time></trkpt><trkpt lat="43.547808222418496" lon="10.821324160637959"><ele>143.8</ele><time>2026-04-06T08:42:01.001Z</time></trkpt><trkpt lat="43.547870366589535" lon="10.821405976090931"><ele>143.60000000000002</ele><time>2026-04-06T08:42:02.001Z</time></trkpt><trkpt lat="43.54792778755086" lon="10.82148834018451"><ele>143.4</ele><time>2026-04-06T08:42:03.001Z</time></trkpt><trkpt lat="43.547986421693565" lon="10.82157583627335"><ele>143.20000000000002</ele><time>2026-04-06T08:42:04.001Z</time></trkpt><trkpt lat="43.54805689091692" lon="10.82167562194055"><ele>143.0</ele><time>2026-04-06T08:42:05.001Z</time></trkpt><trkpt lat="43.54812905563607" lon="10.821792415528993"><ele>145.75</ele><time>2026-04-06T08:42:06.001Z</time></trkpt><trkpt lat="43.548209529663744" lon="10.821908302120871"><ele>148.5</ele><time>2026-04-06T08:42:07.001Z</time></trkpt><trkpt lat="43.54829602751598" lon="10.822016503127541"><ele>151.25</ele><time>2026-04-06T08:42:08.001Z</time></trkpt><trkpt lat="43.54837865383288" lon="10.822117543139331"><ele>154.0</ele><time>2026-04-06T08:42:09.001Z</time></trkpt><trkpt lat="43.54846637072989" lon="10.822213613785705"><ele>154.0</ele><time>2026-04-06T08:42:10.001Z</time></trkpt><trkpt lat="43.54855978728446" lon="10.822296078075128"><ele>154.0</ele><time>2026-04-06T08:42:11.001Z</time></trkpt><trkpt lat="43.54865714907557" lon="10.822360238066175"><ele>154.0</ele><time>2026-04-06T08:42:12.001Z</time></trkpt><trkpt lat="43.54875965517225" lon="10.822410444479091"><ele>154.0</ele><time>2026-04-06T08:42:13.001Z</time></trkpt><trkpt lat="43.54885849018649" lon="10.822452541986449"><ele>154.0</ele><time>2026-04-06T08:42:14.001Z</time></trkpt><trkpt lat="43.54895144120585" lon="10.822480066169001"><ele>152.2</ele><time>2026-04-06T08:42:15.001Z</time></trkpt><trkpt lat="43.549037418506515" lon="10.822503690305851"><ele>150.4</ele><time>2026-04-06T08:42:16.001Z</time></trkpt><trkpt lat="43.54911992374236" lon="10.82252689052695"><ele>148.6</ele><time>2026-04-06T08:42:17.001Z</time></trkpt><trkpt lat="43.549210836741786" lon="10.822545215574387"><ele>146.8</ele><time>2026-04-06T08:42:18.001Z</time></trkpt><trkpt lat="43.549314609021586" lon="10.8225677549523"><ele>145.0</ele><time>2026-04-06T08:42:19.001Z</time></trkpt><trkpt lat="43.54941650416042" lon="10.822594494349936"><ele>145.0</ele><time>2026-04-06T08:42:20.001Z</time></trkpt><trkpt lat="43.54952676419082" lon="10.822622196497743"><ele>145.0</ele><time>2026-04-06T08:42:21.001Z</time></trkpt><trkpt lat="43.54963422000555" lon="10.822647246989751"><ele>145.0</ele><time>2026-04-06T08:42:22.001Z</time></trkpt><trkpt lat="43.5497460421496" lon="10.822675461458628"><ele>145.0</ele><time>2026-04-06T08:42:23.001Z</time></trkpt><trkpt lat="43.54985980176338" lon="10.822701057846425"><ele>146.25</ele><time>2026-04-06T08:42:24.001Z</time></trkpt><trkpt lat="43.549974285285714" lon="10.82272996713309"><ele>147.5</ele><time>2026-04-06T08:42:25.001Z</time></trkpt><trkpt lat="43.55008730054562" lon="10.822759278710986"><ele>148.75</ele><time>2026-04-06T08:42:26.001Z</time></trkpt><trkpt lat="43.55020029459826" lon="10.82278721033696"><ele>150.0</ele><time>2026-04-06T08:42:27.001Z</time></trkpt><trkpt lat="43.55031637041117" lon="10.822814414460112"><ele>149.4</ele><time>2026-04-06T08:42:28.001Z</time></trkpt><trkpt lat="43.550430093621266" lon="10.822842635430371"><ele>148.8</ele><time>2026-04-06T08:42:29.001Z</time></trkpt><trkpt lat="43.550540651069696" lon="10.822882118127694"><ele>148.2</ele><time>2026-04-06T08:42:30.001Z</time></trkpt><trkpt lat="43.550646923655044" lon="10.822927175883752"><ele>147.6</ele><time>2026-04-06T08:42:31.001Z</time></trkpt><trkpt lat="43.55075239859758" lon="10.822958104001131"><ele>147.0</ele><time>2026-04-06T08:42:32.001Z</time></trkpt><trkpt lat="43.550851046644695" lon="10.822981456125477"><ele>147.0</ele><time>2026-04-06T08:42:33.001Z</time></trkpt><trkpt lat="43.55094505578024" lon="10.82299399660104"><ele>147.0</ele><time>2026-04-06T08:42:34.001Z</time></trkpt><trkpt lat="43.55103760353843" lon="10.822990593496094"><ele>147.0</ele><time>2026-04-06T08:42:35.001Z</time></trkpt><trkpt lat="43.55113011154322" lon="10.822981928162767"><ele>147.0</ele><time>2026-04-06T08:42:36.001Z</time></trkpt><trkpt lat="43.55121775930515" lon="10.82297353196963"><ele>147.0</ele><time>2026-04-06T08:42:37.001Z</time></trkpt><trkpt lat="43.55129544113959" lon="10.82296249029493"><ele>147.0</ele><time>2026-04-06T08:42:38.001Z</time></trkpt><trkpt lat="43.551365657625915" lon="10.822946914115871"><ele>147.0</ele><time>2026-04-06T08:42:39.001Z</time></trkpt><trkpt lat="43.55143123002599" lon="10.822917240877024"><ele>147.0</ele><time>2026-04-06T08:42:40.001Z</time></trkpt><trkpt lat="43.5514933275874" lon="10.822867749717853"><ele>147.0</ele><time>2026-04-06T08:42:41.001Z</time></trkpt><trkpt lat="43.551551101185815" lon="10.82279389247214"><ele>147.0</ele><time>2026-04-06T08:42:42.001Z</time></trkpt><trkpt lat="43.551606442221946" lon="10.822699700299244"><ele>147.0</ele><time>2026-04-06T08:42:43.001Z</time></trkpt><trkpt lat="43.5516656076801" lon="10.822599129636469"><ele>147.0</ele><time>2026-04-06T08:42:44.001Z</time></trkpt><trkpt lat="43.55172797574242" lon="10.82249004884013"><ele>144.5</ele><time>2026-04-06T08:42:45.001Z</time></trkpt><trkpt lat="43.55179354637002" lon="10.822370198416907"><ele>142.0</ele><time>2026-04-06T08:42:46.002Z</time></trkpt><trkpt lat="43.55185852699492" lon="10.822244831048419"><ele>139.5</ele><time>2026-04-06T08:42:47.002Z</time></trkpt><trkpt lat="43.55192708454377" lon="10.822113221838949"><ele>137.0</ele><time>2026-04-06T08:42:48.002Z</time></trkpt><trkpt lat="43.55200048516261" lon="10.82197568154888"><ele>137.5</ele><time>2026-04-06T08:42:49.002Z</time></trkpt><trkpt lat="43.552079721808504" lon="10.821841827578321"><ele>138.0</ele><time>2026-04-06T08:42:50.002Z</time></trkpt><trkpt lat="43.55215757162143" lon="10.821704024758922"><ele>138.5</ele><time>2026-04-06T08:42:51.002Z</time></trkpt><trkpt lat="43.552231419154985" lon="10.82155509023746"><ele>139.0</ele><time>2026-04-06T08:42:52.002Z</time></trkpt><trkpt lat="43.552303457621" lon="10.821413762683417"><ele>137.0</ele><time>2026-04-06T08:42:53.002Z</time></trkpt><trkpt lat="43.55237855890149" lon="10.821278966311114"><ele>135.0</ele><time>2026-04-06T08:42:54.002Z</time></trkpt><trkpt lat="43.552453233106625" lon="10.821145689905405"><ele>133.0</ele><time>2026-04-06T08:42:55.002Z</time></trkpt><trkpt lat="43.55252197236606" lon="10.821022095900535"><ele>131.0</ele><time>2026-04-06T08:42:56.002Z</time></trkpt><trkpt lat="43.5525866223031" lon="10.820906358757439"><ele>130.4</ele><time>2026-04-06T08:42:57.002Z</time></trkpt><trkpt lat="43.55264539498399" lon="10.820790914374419"><ele>129.8</ele><time>2026-04-06T08:42:58.002Z</time></trkpt><trkpt lat="43.552702543461265" lon="10.820678765171913"><ele>129.20000000000002</ele><time>2026-04-06T08:42:59.002Z</time></trkpt><trkpt lat="43.55276261133746" lon="10.820571507770167"><ele>128.6</ele><time>2026-04-06T08:43:00.002Z</time></trkpt><trkpt lat="43.552822884090226" lon="10.820466357357004"><ele>128.0</ele><time>2026-04-06T08:43:01Z</time></trkpt><trkpt lat="43.55288743053637" lon="10.820359134817343"><ele>128.0</ele><time>2026-04-06T08:43:02Z</time></trkpt><trkpt lat="43.55295292183292" lon="10.820247035518024"><ele>128.0</ele><time>2026-04-06T08:43:03Z</time></trkpt><trkpt lat="43.553014770298695" lon="10.820130089964247"><ele>128.0</ele><time>2026-04-06T08:43:04Z</time></trkpt><trkpt lat="43.553079229096085" lon="10.82001239059107"><ele>128.0</ele><time>2026-04-06T08:43:05Z</time></trkpt><trkpt lat="43.553146021385" lon="10.819891167393399"><ele>128.0</ele><time>2026-04-06T08:43:06Z</time></trkpt><trkpt lat="43.553212050075686" lon="10.819768622106361"><ele>126.80000000000001</ele><time>2026-04-06T08:43:07Z</time></trkpt><trkpt lat="43.55327881038691" lon="10.819645554081976"><ele>125.60000000000001</ele><time>2026-04-06T08:43:08Z</time></trkpt><trkpt lat="43.55333808560012" lon="10.819538299049913"><ele>124.39999999999999</ele><time>2026-04-06T08:43:09Z</time></trkpt><trkpt lat="43.55338490485952" lon="10.819454186032306"><ele>123.19999999999999</ele><time>2026-04-06T08:43:10Z</time></trkpt><trkpt lat="43.55346513433975" lon="10.819355633462777"><ele>122.0</ele><time>2026-04-06T08:43:12Z</time></trkpt><trkpt lat="43.553510841559614" lon="10.819262431890099"><ele>120.99999999999999</ele><time>2026-04-06T08:43:15Z</time></trkpt><trkpt lat="43.55355604404804" lon="10.819174174565134"><ele>120.0</ele><time>2026-04-06T08:43:19Z</time></trkpt><trkpt lat="43.55359822378358" lon="10.81908771698175"><ele>119.0</ele><time>2026-04-06T08:43:21Z</time></trkpt><trkpt lat="43.55367295563152" lon="10.81895124352278"><ele>118.0</ele><time>2026-04-06T08:43:23Z</time></trkpt><trkpt lat="43.55372104395768" lon="10.818870370503333"><ele>116.99999999999999</ele><time>2026-04-06T08:43:24Z</time></trkpt><trkpt lat="43.553776430956" lon="10.818794637995909"><ele>116.0</ele><time>2026-04-06T08:43:25Z</time></trkpt><trkpt lat="43.55381589834969" lon="10.818690690794885"><ele>113.0</ele><time>2026-04-06T08:43:26Z</time></trkpt></trkseg><trkseg><trkpt lat="43.55450905925232" lon="10.81738003487388"><ele>102.60000000000001</ele><time>2026-04-06T09:01:36.001Z</time></trkpt><trkpt lat="43.554597287323986" lon="10.817237454482445"><ele>102.2</ele><time>2026-04-06T09:01:38.001Z</time></trkpt><trkpt lat="43.554648761618054" lon="10.817148751733898"><ele>101.8</ele><time>2026-04-06T09:01:39.001Z</time></trkpt><trkpt lat="43.55472882794243" lon="10.817063211566964"><ele>101.4</ele><time>2026-04-06T09:01:40.001Z</time></trkpt><trkpt lat="43.554788804778" lon="10.816955074708225"><ele>101.0</ele><time>2026-04-06T09:01:41.001Z</time></trkpt><trkpt lat="43.55485403847352" lon="10.81683745985906"><ele>100.19999999999999</ele><time>2026-04-06T09:01:42.001Z</time></trkpt><trkpt lat="43.55492155180625" lon="10.816715734900166"><ele>99.39999999999999</ele><time>2026-04-06T09:01:43.001Z</time></trkpt><trkpt lat="43.55498502707413" lon="10.816600207419066"><ele>98.6</ele><time>2026-04-06T09:01:44.001Z</time></trkpt><trkpt lat="43.55504829309768" lon="10.81648438108588"><ele>97.8</ele><time>2026-04-06T09:01:45.001Z</time></trkpt><trkpt lat="43.55510791505914" lon="10.81637522630723"><ele>97.0</ele><time>2026-04-06T09:01:46.001Z</time></trkpt><trkpt lat="43.55516545741564" lon="10.816269878742013"><ele>97.00000000000001</ele><time>2026-04-06T09:01:47.001Z</time></trkpt><trkpt lat="43.555221328804286" lon="10.81616340017716"><ele>97.0</ele><time>2026-04-06T09:01:48.001Z</time></trkpt><trkpt lat="43.55527206258781" lon="10.816065187199602"><ele>97.0</ele><time>2026-04-06T09:01:49.001Z</time></trkpt><trkpt lat="43.55532208727629" lon="10.815973174921728"><ele>97.0</ele><time>2026-04-06T09:01:50.001Z</time></trkpt><trkpt lat="43.55537285391288" lon="10.815889206639383"><ele>97.00000000000001</ele><time>2026-04-06T09:01:51.001Z</time></trkpt><trkpt lat="43.55542978644404" lon="10.815814562354229"><ele>97.0</ele><time>2026-04-06T09:01:52.001Z</time></trkpt><trkpt lat="43.555490743585544" lon="10.8157468639513"><ele>95.39999999999999</ele><time>2026-04-06T09:01:53.001Z</time></trkpt><trkpt lat="43.555560088902055" lon="10.815687913799191"><ele>93.8</ele><time>2026-04-06T09:01:54.001Z</time></trkpt><trkpt lat="43.555637619925946" lon="10.815618154804548"><ele>92.2</ele><time>2026-04-06T09:01:55.001Z</time></trkpt><trkpt lat="43.555727880113906" lon="10.81557552311896"><ele>90.6</ele><time>2026-04-06T09:01:56.001Z</time></trkpt><trkpt lat="43.555822451364655" lon="10.815539685600907"><ele>89.0</ele><time>2026-04-06T09:01:57.001Z</time></trkpt><trkpt lat="43.5559219142727" lon="10.815509471226502"><ele>89.0</ele><time>2026-04-06T09:01:58.001Z</time></trkpt><trkpt lat="43.55602142175603" lon="10.815478363179796"><ele>89.0</ele><time>2026-04-06T09:01:59.001Z</time></trkpt><trkpt lat="43.55612446981667" lon="10.815443418544886"><ele>89.0</ele><time>2026-04-06T09:02:00.001Z</time></trkpt><trkpt lat="43.556230109961376" lon="10.815409255997887"><ele>89.0</ele><time>2026-04-06T09:02:01.001Z</time></trkpt><trkpt lat="43.5563366687422" lon="10.815375158009973"><ele>89.0</ele><time>2026-04-06T09:02:02.001Z</time></trkpt><trkpt lat="43.55644134999524" lon="10.815332114119585"><ele>87.0</ele><time>2026-04-06T09:02:03.001Z</time></trkpt><trkpt lat="43.55655273854815" lon="10.815310192370662"><ele>85.0</ele><time>2026-04-06T09:02:04.001Z</time></trkpt><trkpt lat="43.55665853416177" lon="10.815252528528738"><ele>83.0</ele><time>2026-04-06T09:02:04.996Z</time></trkpt><trkpt lat="43.55676982637514" lon="10.81522183731526"><ele>81.0</ele><time>2026-04-06T09:02:05.996Z</time></trkpt><trkpt lat="43.556880532727405" lon="10.81519872785449"><ele>81.0</ele><time>2026-04-06T09:02:06.996Z</time></trkpt><trkpt lat="43.55699051528057" lon="10.815187615605772"><ele>81.0</ele><time>2026-04-06T09:02:07.996Z</time></trkpt><trkpt lat="43.557106588880096" lon="10.815196631642364"><ele>81.0</ele><time>2026-04-06T09:02:08.996Z</time></trkpt><trkpt lat="43.557220504022254" lon="10.815219499949537"><ele>81.0</ele><time>2026-04-06T09:02:09.996Z</time></trkpt><trkpt lat="43.55733581253387" lon="10.81524829273925"><ele>80.0</ele><time>2026-04-06T09:02:10.996Z</time></trkpt><trkpt lat="43.55745639169421" lon="10.815279055323629"><ele>79.0</ele><time>2026-04-06T09:02:11.996Z</time></trkpt><trkpt lat="43.55757393875441" lon="10.815312390364621"><ele>78.0</ele><time>2026-04-06T09:02:12.996Z</time></trkpt><trkpt lat="43.557692695156824" lon="10.815340897120333"><ele>77.0</ele><time>2026-04-06T09:02:13.996Z</time></trkpt><trkpt lat="43.55781939089847" lon="10.81537152615184"><ele>77.75</ele><time>2026-04-06T09:02:14.996Z</time></trkpt><trkpt lat="43.55794358407825" lon="10.815405873409839"><ele>78.5</ele><time>2026-04-06T09:02:15.996Z</time></trkpt><trkpt lat="43.558066049118835" lon="10.81543291214816"><ele>79.25</ele><time>2026-04-06T09:02:16.996Z</time></trkpt><trkpt lat="43.5581909842075" lon="10.815457557778357"><ele>80.0</ele><time>2026-04-06T09:02:17.997Z</time></trkpt><trkpt lat="43.558320933171686" lon="10.815481983538778"><ele>80.0</ele><time>2026-04-06T09:02:18.997Z</time></trkpt><trkpt lat="43.558450377000185" lon="10.815514217501732"><ele>80.0</ele><time>2026-04-06T09:02:19.997Z</time></trkpt><trkpt lat="43.55858718307493" lon="10.815547914259342"><ele>80.0</ele><time>2026-04-06T09:02:20.997Z</time></trkpt><trkpt lat="43.5587256717023" lon="10.815580920239844"><ele>80.0</ele><time>2026-04-06T09:02:21.997Z</time></trkpt><trkpt lat="43.55886844932603" lon="10.815612755126143"><ele>80.25</ele><time>2026-04-06T09:02:22.997Z</time></trkpt><trkpt lat="43.55900977253688" lon="10.815645456623393"><ele>80.5</ele><time>2026-04-06T09:02:23.997Z</time></trkpt><trkpt lat="43.55915180921484" lon="10.815677871800583"><ele>80.75</ele><time>2026-04-06T09:02:24.997Z</time></trkpt><trkpt lat="43.55929217814413" lon="10.815706060735055"><ele>81.0</ele><time>2026-04-06T09:02:25.997Z</time></trkpt><trkpt lat="43.559424435250136" lon="10.815738191150256"><ele>80.0</ele><time>2026-04-06T09:02:26.997Z</time></trkpt><trkpt lat="43.559547233386915" lon="10.815788910517451"><ele>79.0</ele><time>2026-04-06T09:02:27.998Z</time></trkpt><trkpt lat="43.55965864113897" lon="10.815856559252175"><ele>78.0</ele><time>2026-04-06T09:02:28.998Z</time></trkpt><trkpt lat="43.559763151467166" lon="10.81594697140554"><ele>77.0</ele><time>2026-04-06T09:02:29.998Z</time></trkpt><trkpt lat="43.55987117723694" lon="10.816053721258104"><ele>79.75</ele><time>2026-04-06T09:02:30.998Z</time></trkpt><trkpt lat="43.55998107183856" lon="10.81616980007071"><ele>82.5</ele><time>2026-04-06T09:02:31.998Z</time></trkpt><trkpt lat="43.56009544021018" lon="10.81629315116169"><ele>85.25</ele><time>2026-04-06T09:02:32.998Z</time></trkpt><trkpt lat="43.560207207179154" lon="10.816409843260566"><ele>88.0</ele><time>2026-04-06T09:02:33.998Z</time></trkpt><trkpt lat="43.56031903452344" lon="10.816520989497073"><ele>87.25</ele><time>2026-04-06T09:02:34.998Z</time></trkpt><trkpt lat="43.560429421796805" lon="10.816619507963711"><ele>86.5</ele><time>2026-04-06T09:02:35.998Z</time></trkpt><trkpt lat="43.56053101758505" lon="10.816717830754264"><ele>85.75</ele><time>2026-04-06T09:02:36.998Z</time></trkpt><trkpt lat="43.56063396971933" lon="10.816816865823167"><ele>85.0</ele><time>2026-04-06T09:02:37.998Z</time></trkpt><trkpt lat="43.56073701108576" lon="10.816922844016183"><ele>85.0</ele><time>2026-04-06T09:02:38.998Z</time></trkpt><trkpt lat="43.56083767959249" lon="10.817048953356103"><ele>85.0</ele><time>2026-04-06T09:02:39.998Z</time></trkpt><trkpt lat="43.560952273849125" lon="10.81718129795091"><ele>85.0</ele><time>2026-04-06T09:02:40.998Z</time></trkpt><trkpt lat="43.56108829969467" lon="10.817328709691651"><ele>85.0</ele><time>2026-04-06T09:02:41.998Z</time></trkpt><trkpt lat="43.56117668529603" lon="10.817604129733365"><ele>85.0</ele><time>2026-04-06T09:02:42.998Z</time></trkpt><trkpt lat="43.56129317835615" lon="10.817820455545622"><ele>85.0</ele><time>2026-04-06T09:02:43.998Z</time></trkpt><trkpt lat="43.561402123287166" lon="10.81801435960628"><ele>84.25</ele><time>2026-04-06T09:02:44.998Z</time></trkpt><trkpt lat="43.56150150954454" lon="10.818185447656951"><ele>83.5</ele><time>2026-04-06T09:02:45.998Z</time></trkpt><trkpt lat="43.561600311153875" lon="10.818347436403355"><ele>82.75</ele><time>2026-04-06T09:02:46.998Z</time></trkpt><trkpt lat="43.561684051216304" lon="10.818487836439143"><ele>82.0</ele><time>2026-04-06T09:02:47.998Z</time></trkpt><trkpt lat="43.56176200154456" lon="10.818630567932832"><ele>82.39999999999999</ele><time>2026-04-06T09:02:48.999Z</time></trkpt><trkpt lat="43.561834561425" lon="10.818764562989525"><ele>82.8</ele><time>2026-04-06T09:02:49.999Z</time></trkpt><trkpt lat="43.5619043485174" lon="10.818887363032328"><ele>83.2</ele><time>2026-04-06T09:02:50.999Z</time></trkpt><trkpt lat="43.56196911407991" lon="10.8189961984364"><ele>83.6</ele><time>2026-04-06T09:02:51.999Z</time></trkpt><trkpt lat="43.56202984866516" lon="10.819093678870674"><ele>84.0</ele><time>2026-04-06T09:02:52.999Z</time></trkpt><trkpt lat="43.562095731715765" lon="10.819170549609336"><ele>84.0</ele><time>2026-04-06T09:02:53.999Z</time></trkpt><trkpt lat="43.56217604492983" lon="10.819222561077824"><ele>84.0</ele><time>2026-04-06T09:02:54.999Z</time></trkpt><trkpt lat="43.56226490523139" lon="10.819248625374376"><ele>84.0</ele><time>2026-04-06T09:02:55.999Z</time></trkpt><trkpt lat="43.562356384390675" lon="10.819252460388164"><ele>84.0</ele><time>2026-04-06T09:02:56.999Z</time></trkpt><trkpt lat="43.5624483665612" lon="10.819232809758704"><ele>84.0</ele><time>2026-04-06T09:02:57.999Z</time></trkpt><trkpt lat="43.56254033723584" lon="10.819184738541802"><ele>84.0</ele><time>2026-04-06T09:02:58.999Z</time></trkpt><trkpt lat="43.56263119955195" lon="10.819115723036822"><ele>84.0</ele><time>2026-04-06T09:02:59.999Z</time></trkpt><trkpt lat="43.562727614215916" lon="10.819045313013087"><ele>84.0</ele><time>2026-04-06T09:03:00.999Z</time></trkpt><trkpt lat="43.562829628264375" lon="10.81897781441653"><ele>84.0</ele><time>2026-04-06T09:03:01.999Z</time></trkpt><trkpt lat="43.56293846219071" lon="10.81890594546992"><ele>84.0</ele><time>2026-04-06T09:03:02.999Z</time></trkpt><trkpt lat="43.5630501915388" lon="10.818827159743254"><ele>83.0</ele><time>2026-04-06T09:03:03.999Z</time></trkpt><trkpt lat="43.56315867782872" lon="10.818748970303067"><ele>82.0</ele><time>2026-04-06T09:03:04.999Z</time></trkpt><trkpt lat="43.563262005216465" lon="10.818673756642827"><ele>81.0</ele><time>2026-04-06T09:03:05.999Z</time></trkpt><trkpt lat="43.56335670916798" lon="10.818608441680786"><ele>80.0</ele><time>2026-04-06T09:03:06.999Z</time></trkpt><trkpt lat="43.56344374488586" lon="10.818559909811778"><ele>79.0</ele><time>2026-04-06T09:03:07.999Z</time></trkpt><trkpt lat="43.56352418257025" lon="10.818536031822044"><ele>79.00000000000001</ele><time>2026-04-06T09:03:08.999Z</time></trkpt><trkpt lat="43.563605484110994" lon="10.818540462686066"><ele>79.0</ele><time>2026-04-06T09:03:09.999Z</time></trkpt><trkpt lat="43.563676208155414" lon="10.818558046994605"><ele>79.0</ele><time>2026-04-06T09:03:10.999Z</time></trkpt><trkpt lat="43.56374427407752" lon="10.818595001694748"><ele>79.0</ele><time>2026-04-06T09:03:11.999Z</time></trkpt><trkpt lat="43.5638092414577" lon="10.818644920252499"><ele>79.0</ele><time>2026-04-06T09:03:12.999Z</time></trkpt><trkpt lat="43.56386671920679" lon="10.8187062448719"><ele>79.00000000000001</ele><time>2026-04-06T09:03:13.999Z</time></trkpt><trkpt lat="43.56391338723614" lon="10.818783566439791"><ele>79.0</ele><time>2026-04-06T09:03:14.999Z</time></trkpt><trkpt lat="43.56395476780577" lon="10.818882086771403"><ele>80.2</ele><time>2026-04-06T09:03:15.999Z</time></trkpt><trkpt lat="43.563991832233725" lon="10.818993944739272"><ele>81.4</ele><time>2026-04-06T09:03:16.999Z</time></trkpt><trkpt lat="43.56403191168369" lon="10.819114974349649"><ele>82.6</ele><time>2026-04-06T09:03:17.999Z</time></trkpt><trkpt lat="43.564083341778705" lon="10.819238790246189"><ele>83.8</ele><time>2026-04-06T09:03:18.999Z</time></trkpt><trkpt lat="43.564137931932834" lon="10.819370074523365"><ele>85.0</ele><time>2026-04-06T09:03:19.999Z</time></trkpt><trkpt lat="43.56419795947993" lon="10.81950915014732"><ele>85.0</ele><time>2026-04-06T09:03:20.999Z</time></trkpt><trkpt lat="43.56426571013495" lon="10.819664882538616"><ele>85.0</ele><time>2026-04-06T09:03:21.999Z</time></trkpt><trkpt lat="43.564345790055405" lon="10.8198338750164"><ele>85.0</ele><time>2026-04-06T09:03:22.999Z</time></trkpt><trkpt lat="43.56445145173102" lon="10.820002501547421"><ele>85.0</ele><time>2026-04-06T09:03:23.999Z</time></trkpt><trkpt lat="43.56458213691715" lon="10.820164851798813"><ele>89.66666666666666</ele><time>2026-04-06T09:03:24.999Z</time></trkpt><trkpt lat="43.564727870138675" lon="10.82031521857184"><ele>94.33333333333333</ele><time>2026-04-06T09:03:25.999Z</time></trkpt><trkpt lat="43.56487304599229" lon="10.820460378438236"><ele>99.0</ele><time>2026-04-06T09:03:26.999Z</time></trkpt><trkpt lat="43.56500743388014" lon="10.820614917904448"><ele>99.0</ele><time>2026-04-06T09:03:27.999Z</time></trkpt><trkpt lat="43.56514190467795" lon="10.820769846736878"><ele>99.0</ele><time>2026-04-06T09:03:28.999Z</time></trkpt><trkpt lat="43.565269000527735" lon="10.820917284767662"><ele>99.0</ele><time>2026-04-06T09:03:29.999Z</time></trkpt><trkpt lat="43.565387411597726" lon="10.821043001265771"><ele>99.0</ele><time>2026-04-06T09:03:30.999Z</time></trkpt><trkpt lat="43.565508314068786" lon="10.821163874136465"><ele>99.0</ele><time>2026-04-06T09:03:31.999Z</time></trkpt><trkpt lat="43.56563407258121" lon="10.821241681075396"><ele>99.0</ele><time>2026-04-06T09:03:32.999Z</time></trkpt><trkpt lat="43.56576807531476" lon="10.821282185389647"><ele>99.0</ele><time>2026-04-06T09:03:33.999Z</time></trkpt><trkpt lat="43.56590973916504" lon="10.821306592662799"><ele>99.0</ele><time>2026-04-06T09:03:34.999Z</time></trkpt><trkpt lat="43.56604936211922" lon="10.8213221536577"><ele>99.0</ele><time>2026-04-06T09:03:35.999Z</time></trkpt><trkpt lat="43.56619765602867" lon="10.82135041117148"><ele>99.0</ele><time>2026-04-06T09:03:36.999Z</time></trkpt><trkpt lat="43.56634068153595" lon="10.821388030398712"><ele>99.0</ele><time>2026-04-06T09:03:37.999Z</time></trkpt><trkpt lat="43.566481371713934" lon="10.821436143592384"><ele>101.75</ele><time>2026-04-06T09:03:38.999Z</time></trkpt><trkpt lat="43.56659529477935" lon="10.82148928824989"><ele>104.5</ele><time>2026-04-06T09:03:39.999Z</time></trkpt><trkpt lat="43.56672748552757" lon="10.821533320643862"><ele>107.25</ele><time>2026-04-06T09:03:41Z</time></trkpt><trkpt lat="43.56686070120077" lon="10.821563412015621"><ele>110.0</ele><time>2026-04-06T09:03:42Z</time></trkpt><trkpt lat="43.56699793573315" lon="10.821595544876255"><ele>115.33333333333333</ele><time>2026-04-06T09:03:43Z</time></trkpt><trkpt lat="43.567137582579726" lon="10.821654795485566"><ele>120.66666666666666</ele><time>2026-04-06T09:03:44Z</time></trkpt><trkpt lat="43.56728619513776" lon="10.82172170154802"><ele>126.0</ele><time>2026-04-06T09:03:45Z</time></trkpt><trkpt lat="43.56744499179903" lon="10.821769749751532"><ele>126.0</ele><time>2026-04-06T09:03:46Z</time></trkpt><trkpt lat="43.56760261453802" lon="10.821804618832582"><ele>126.0</ele><time>2026-04-06T09:03:47Z</time></trkpt><trkpt lat="43.56776041791392" lon="10.821840011494356"><ele>126.0</ele><time>2026-04-06T09:03:48Z</time></trkpt><trkpt lat="43.56791353716684" lon="10.821874855949787"><ele>127.0</ele><time>2026-04-06T09:03:49Z</time></trkpt><trkpt lat="43.56804847097625" lon="10.821919391322881"><ele>128.0</ele><time>2026-04-06T09:03:50Z</time></trkpt><trkpt lat="43.56815696800233" lon="10.821992521135053"><ele>129.0</ele><time>2026-04-06T09:03:51Z</time></trkpt><trkpt lat="43.56824188637387" lon="10.822105387456395"><ele>130.0</ele><time>2026-04-06T09:03:52Z</time></trkpt><trkpt lat="43.568300299403056" lon="10.822254473592501"><ele>130.0</ele><time>2026-04-06T09:03:53Z</time></trkpt><trkpt lat="43.56832644504795" lon="10.822421802208783"><ele>130.0</ele><time>2026-04-06T09:03:54Z</time></trkpt><trkpt lat="43.568335109261575" lon="10.822606901087894"><ele>130.0</ele><time>2026-04-06T09:03:55Z</time></trkpt><trkpt lat="43.56833645334725" lon="10.822818429398279"><ele>130.0</ele><time>2026-04-06T09:03:56Z</time></trkpt><trkpt lat="43.56834584244066" lon="10.82305187465852"><ele>129.66666666666669</ele><time>2026-04-06T09:03:57Z</time></trkpt><trkpt lat="43.56836306305398" lon="10.823292692011862"><ele>129.33333333333334</ele><time>2026-04-06T09:03:58Z</time></trkpt><trkpt lat="43.568381900462384" lon="10.823525499001956"><ele>129.0</ele><time>2026-04-06T09:03:59Z</time></trkpt><trkpt lat="43.568401552785204" lon="10.823744862916095"><ele>129.5</ele><time>2026-04-06T09:04:00Z</time></trkpt><trkpt lat="43.56842160837646" lon="10.823947073199346"><ele>130.0</ele><time>2026-04-06T09:04:01Z</time></trkpt><trkpt lat="43.568440274612456" lon="10.824136429452121"><ele>130.5</ele><time>2026-04-06T09:04:02Z</time></trkpt><trkpt lat="43.56846395067987" lon="10.824307754609432"><ele>131.0</ele><time>2026-04-06T09:04:03Z</time></trkpt><trkpt lat="43.56848865881118" lon="10.82446660077867"><ele>131.83333333333331</ele><time>2026-04-06T09:04:04Z</time></trkpt><trkpt lat="43.568507835037735" lon="10.824594321441818"><ele>132.66666666666666</ele><time>2026-04-06T09:04:05Z</time></trkpt><trkpt lat="43.56852092356649" lon="10.824727938346198"><ele>133.5</ele><time>2026-04-06T09:04:06Z</time></trkpt><trkpt lat="43.56853045939672" lon="10.824842710540015"><ele>134.33333333333334</ele><time>2026-04-06T09:04:07Z</time></trkpt><trkpt lat="43.568545606826966" lon="10.824942849669636"><ele>135.16666666666669</ele><time>2026-04-06T09:04:08Z</time></trkpt><trkpt lat="43.56857904918129" lon="10.825056600642503"><ele>136.0</ele><time>2026-04-06T09:04:10Z</time></trkpt><trkpt lat="43.568628061371506" lon="10.82511222280962"><ele>136.25</ele><time>2026-04-06T09:04:12.994Z</time></trkpt><trkpt lat="43.56878936081222" lon="10.824997767654123"><ele>136.5</ele><time>2026-04-06T09:04:25.995Z</time></trkpt><trkpt lat="43.56883767306414" lon="10.824920252389044"><ele>136.75</ele><time>2026-04-06T09:04:26.996Z</time></trkpt><trkpt lat="43.56888195594127" lon="10.82485240280628"><ele>137.0</ele><time>2026-04-06T09:04:27.996Z</time></trkpt><trkpt lat="43.56879783109532" lon="10.824615001043236"><ele>137.0</ele><time>2026-04-06T09:04:28.996Z</time></trkpt><trkpt lat="43.568839317753266" lon="10.824484433406479"><ele>137.0</ele><time>2026-04-06T09:04:29.996Z</time></trkpt><trkpt lat="43.568870264999276" lon="10.824323857013335"><ele>137.0</ele><time>2026-04-06T09:04:30.996Z</time></trkpt><trkpt lat="43.56889991971998" lon="10.824167232130904"><ele>137.0</ele><time>2026-04-06T09:04:31.996Z</time></trkpt><trkpt lat="43.568927834666006" lon="10.824019796087466"><ele>138.0</ele><time>2026-04-06T09:04:32.996Z</time></trkpt><trkpt lat="43.56895621912679" lon="10.823855801067213"><ele>139.0</ele><time>2026-04-06T09:04:33.997Z</time></trkpt><trkpt lat="43.568980898862684" lon="10.823701508784904"><ele>140.0</ele><time>2026-04-06T09:04:34.997Z</time></trkpt><trkpt lat="43.56900212612587" lon="10.82355858741105"><ele>141.0</ele><time>2026-04-06T09:04:35.997Z</time></trkpt><trkpt lat="43.56902204101591" lon="10.823409738177697"><ele>142.25</ele><time>2026-04-06T09:04:36.997Z</time></trkpt><trkpt lat="43.56902367794699" lon="10.823252354466531"><ele>143.5</ele><time>2026-04-06T09:04:37.997Z</time></trkpt><trkpt lat="43.56904336844316" lon="10.823089351924061"><ele>144.75</ele><time>2026-04-06T09:04:38.997Z</time></trkpt><trkpt lat="43.569063678557995" lon="10.822925511803117"><ele>146.0</ele><time>2026-04-06T09:04:39.997Z</time></trkpt><trkpt lat="43.569076138052395" lon="10.822746609862236"><ele>146.66666666666666</ele><time>2026-04-06T09:04:40.997Z</time></trkpt><trkpt lat="43.569091642624976" lon="10.822547299074357"><ele>147.33333333333334</ele><time>2026-04-06T09:04:41.997Z</time></trkpt><trkpt lat="43.56910489389224" lon="10.822333307106115"><ele>148.0</ele><time>2026-04-06T09:04:42.997Z</time></trkpt><trkpt lat="43.569116420274376" lon="10.822117680661643"><ele>148.0</ele><time>2026-04-06T09:04:43.997Z</time></trkpt><trkpt lat="43.56910847519673" lon="10.821890240824873"><ele>148.0</ele><time>2026-04-06T09:04:44.998Z</time></trkpt><trkpt lat="43.56908597546511" lon="10.821656827509788"><ele>148.0</ele><time>2026-04-06T09:04:45.998Z</time></trkpt><trkpt lat="43.56902558450264" lon="10.821413509460506"><ele>149.66666666666669</ele><time>2026-04-06T09:04:46.998Z</time></trkpt><trkpt lat="43.56897473586014" lon="10.821185855063945"><ele>151.33333333333334</ele><time>2026-04-06T09:04:47.998Z</time></trkpt><trkpt lat="43.568943737673855" lon="10.820966515734044"><ele>153.0</ele><time>2026-04-06T09:04:48.998Z</time></trkpt><trkpt lat="43.56891106567527" lon="10.820779080055312"><ele>155.25</ele><time>2026-04-06T09:04:49.998Z</time></trkpt><trkpt lat="43.568887433870664" lon="10.820617063899425"><ele>157.5</ele><time>2026-04-06T09:04:50.998Z</time></trkpt><trkpt lat="43.56889196988439" lon="10.82046439630251"><ele>159.75</ele><time>2026-04-06T09:04:51.998Z</time></trkpt><trkpt lat="43.56895143299838" lon="10.82032270242838"><ele>162.0</ele><time>2026-04-06T09:04:52.998Z</time></trkpt><trkpt lat="43.56899442944464" lon="10.82015508170786"><ele>164.33333333333334</ele><time>2026-04-06T09:04:53.998Z</time></trkpt><trkpt lat="43.569080773886085" lon="10.819974431896458"><ele>166.66666666666669</ele><time>2026-04-06T09:04:54.998Z</time></trkpt><trkpt lat="43.56915705723971" lon="10.81979310768396"><ele>169.0</ele><time>2026-04-06T09:04:55.998Z</time></trkpt><trkpt lat="43.56925197470466" lon="10.819601690725072"><ele>169.0</ele><time>2026-04-06T09:04:56.998Z</time></trkpt><trkpt lat="43.569343003608104" lon="10.819424689311436"><ele>169.0</ele><time>2026-04-06T09:04:57.998Z</time></trkpt><trkpt lat="43.569429700053746" lon="10.81926136527842"><ele>169.0</ele><time>2026-04-06T09:04:58.998Z</time></trkpt><trkpt lat="43.56950065129552" lon="10.819103296251468"><ele>169.0</ele><time>2026-04-06T09:04:59.998Z</time></trkpt><trkpt lat="43.56953210566437" lon="10.81896066657789"><ele>169.25</ele><time>2026-04-06T09:05:00.998Z</time></trkpt><trkpt lat="43.56953268522359" lon="10.81878933342586"><ele>169.5</ele><time>2026-04-06T09:05:01.999Z</time></trkpt><trkpt lat="43.569522630247924" lon="10.818611355867993"><ele>169.75</ele><time>2026-04-06T09:05:02.999Z</time></trkpt><trkpt lat="43.56948579945196" lon="10.818439777328365"><ele>170.0</ele><time>2026-04-06T09:05:03.999Z</time></trkpt><trkpt lat="43.569431870690345" lon="10.818274765850363"><ele>170.66666666666666</ele><time>2026-04-06T09:05:04.999Z</time></trkpt><trkpt lat="43.56935608392971" lon="10.818107489994768"><ele>171.33333333333334</ele><time>2026-04-06T09:05:05.999Z</time></trkpt><trkpt lat="43.56927629045287" lon="10.817927245270942"><ele>172.0</ele><time>2026-04-06T09:05:06.999Z</time></trkpt><trkpt lat="43.56920394602905" lon="10.817737085894885"><ele>175.33333333333334</ele><time>2026-04-06T09:05:07.999Z</time></trkpt><trkpt lat="43.56912700180948" lon="10.817549174423588"><ele>178.66666666666666</ele><time>2026-04-06T09:05:08.999Z</time></trkpt><trkpt lat="43.56904538641598" lon="10.817354783178844"><ele>182.0</ele><time>2026-04-06T09:05:09.999Z</time></trkpt><trkpt lat="43.56895829402364" lon="10.817153653527662"><ele>182.0</ele><time>2026-04-06T09:05:10.999Z</time></trkpt><trkpt lat="43.56887038724878" lon="10.816951568441457"><ele>182.0</ele><time>2026-04-06T09:05:11.999Z</time></trkpt><trkpt lat="43.56878117863039" lon="10.816757066853889"><ele>182.0</ele><time>2026-04-06T09:05:12.999Z</time></trkpt><trkpt lat="43.568683691873495" lon="10.816569237634788"><ele>181.75</ele><time>2026-04-06T09:05:13.999Z</time></trkpt><trkpt lat="43.568590277150754" lon="10.816389605476466"><ele>181.5</ele><time>2026-04-06T09:05:14.999Z</time></trkpt><trkpt lat="43.56849987476272" lon="10.816221550695408"><ele>181.25</ele><time>2026-04-06T09:05:15.999Z</time></trkpt><trkpt lat="43.5684301393385" lon="10.816065106055673"><ele>181.0</ele><time>2026-04-06T09:05:16.999Z</time></trkpt><trkpt lat="43.56836537185633" lon="10.815920847823156"><ele>181.0</ele><time>2026-04-06T09:05:17.999Z</time></trkpt><trkpt lat="43.568304088394235" lon="10.815780399866144"><ele>181.0</ele><time>2026-04-06T09:05:18.999Z</time></trkpt><trkpt lat="43.56826843564075" lon="10.815640621827827"><ele>181.0</ele><time>2026-04-06T09:05:19.999Z</time></trkpt><trkpt lat="43.56823095802476" lon="10.81550048558873"><ele>181.0</ele><time>2026-04-06T09:05:20.999Z</time></trkpt><trkpt lat="43.56819598573502" lon="10.815340414921963"><ele>181.0</ele><time>2026-04-06T09:05:21.999Z</time></trkpt><trkpt lat="43.56817216245244" lon="10.815167374376465"><ele>181.0</ele><time>2026-04-06T09:05:22.999Z</time></trkpt><trkpt lat="43.568148916806834" lon="10.814991876679034"><ele>181.0</ele><time>2026-04-06T09:05:23.999Z</time></trkpt><trkpt lat="43.5681294857779" lon="10.814798740232128"><ele>181.0</ele><time>2026-04-06T09:05:24.999Z</time></trkpt><trkpt lat="43.568099442180625" lon="10.814607435420545"><ele>180.25</ele><time>2026-04-06T09:05:25.999Z</time></trkpt><trkpt lat="43.56808411012848" lon="10.81441072733915"><ele>179.5</ele><time>2026-04-06T09:05:26.999Z</time></trkpt><trkpt lat="43.56805849963009" lon="10.814210285356312"><ele>178.75</ele><time>2026-04-06T09:05:27.999Z</time></trkpt><trkpt lat="43.56804801789974" lon="10.814006059721649"><ele>178.0</ele><time>2026-04-06T09:05:28.999Z</time></trkpt><trkpt lat="43.56802613728574" lon="10.813801400169309"><ele>176.75</ele><time>2026-04-06T09:05:29.999Z</time></trkpt><trkpt lat="43.56801766669734" lon="10.813600137234161"><ele>175.5</ele><time>2026-04-06T09:05:31Z</time></trkpt><trkpt lat="43.56806654671804" lon="10.81342105331164"><ele>174.25</ele><time>2026-04-06T09:05:32Z</time></trkpt><trkpt lat="43.56811920328439" lon="10.813254350806833"><ele>173.0</ele><time>2026-04-06T09:05:33Z</time></trkpt><trkpt lat="43.568189683503796" lon="10.813104789478878"><ele>172.8</ele><time>2026-04-06T09:05:34Z</time></trkpt><trkpt lat="43.5682322089051" lon="10.812954484114929"><ele>172.60000000000002</ele><time>2026-04-06T09:05:35Z</time></trkpt><trkpt lat="43.56825597826756" lon="10.812819331994463"><ele>172.39999999999998</ele><time>2026-04-06T09:05:36Z</time></trkpt><trkpt lat="43.568254380521346" lon="10.812674193682895"><ele>172.2</ele><time>2026-04-06T09:05:37Z</time></trkpt><trkpt lat="43.56822224954005" lon="10.81252420099855"><ele>172.0</ele><time>2026-04-06T09:05:38Z</time></trkpt><trkpt lat="43.568174332023794" lon="10.812378697891294"><ele>173.0</ele><time>2026-04-06T09:05:39Z</time></trkpt><trkpt lat="43.56812667957032" lon="10.812228889971292"><ele>174.0</ele><time>2026-04-06T09:05:40Z</time></trkpt><trkpt lat="43.56809859259858" lon="10.81206304568797"><ele>175.0</ele><time>2026-04-06T09:05:41Z</time></trkpt><trkpt lat="43.56805584102121" lon="10.811895820184608"><ele>176.0</ele><time>2026-04-06T09:05:42Z</time></trkpt><trkpt lat="43.56799894136827" lon="10.811734332039025"><ele>177.75</ele><time>2026-04-06T09:05:43Z</time></trkpt><trkpt lat="43.5679558838506" lon="10.811562119153635"><ele>179.5</ele><time>2026-04-06T09:05:44Z</time></trkpt><trkpt lat="43.567915611423636" lon="10.811389846854278"><ele>181.25</ele><time>2026-04-06T09:05:45Z</time></trkpt><trkpt lat="43.5678752327671" lon="10.811225004888161"><ele>183.0</ele><time>2026-04-06T09:05:46Z</time></trkpt><trkpt lat="43.56781292009822" lon="10.811085756489634"><ele>181.2</ele><time>2026-04-06T09:05:47Z</time></trkpt><trkpt lat="43.56778697153343" lon="10.810941312118041"><ele>179.4</ele><time>2026-04-06T09:05:48Z</time></trkpt><trkpt lat="43.5677637839139" lon="10.81079818603525"><ele>177.6</ele><time>2026-04-06T09:05:49Z</time></trkpt><trkpt lat="43.567753813064655" lon="10.810652551973227"><ele>175.79999999999998</ele><time>2026-04-06T09:05:50Z</time></trkpt><trkpt lat="43.56781528820966" lon="10.810533160502258"><ele>174.0</ele><time>2026-04-06T09:05:51Z</time></trkpt><trkpt lat="43.56787046988555" lon="10.810421406556813"><ele>172.75</ele><time>2026-04-06T09:05:52Z</time></trkpt><trkpt lat="43.567933996277226" lon="10.810291321462724"><ele>171.5</ele><time>2026-04-06T09:05:53Z</time></trkpt><trkpt lat="43.568003819173924" lon="10.810167010884305"><ele>170.25</ele><time>2026-04-06T09:05:54Z</time></trkpt><trkpt lat="43.56806927539687" lon="10.810041083894872"><ele>169.0</ele><time>2026-04-06T09:05:55Z</time></trkpt><trkpt lat="43.56817053277332" lon="10.80996494721096"><ele>169.0</ele><time>2026-04-06T09:05:56Z</time></trkpt><trkpt lat="43.568290426987225" lon="10.809961420176288"><ele>169.0</ele><time>2026-04-06T09:05:57Z</time></trkpt><trkpt lat="43.56840208723623" lon="10.809922071410266"><ele>169.0</ele><time>2026-04-06T09:05:58Z</time></trkpt><trkpt lat="43.568505350890085" lon="10.809881362942823"><ele>169.0</ele><time>2026-04-06T09:05:59Z</time></trkpt><trkpt lat="43.568598190455994" lon="10.809805451673263"><ele>169.0</ele><time>2026-04-06T09:06:00Z</time></trkpt><trkpt lat="43.56868240074343" lon="10.809685973233254"><ele>169.0</ele><time>2026-04-06T09:06:01Z</time></trkpt><trkpt lat="43.56876160031178" lon="10.809535154404937"><ele>169.0</ele><time>2026-04-06T09:06:02Z</time></trkpt><trkpt lat="43.5688433965248" lon="10.809379634921955"><ele>169.0</ele><time>2026-04-06T09:06:03.001Z</time></trkpt><trkpt lat="43.568943322973766" lon="10.80922240851126"><ele>168.75</ele><time>2026-04-06T09:06:04.001Z</time></trkpt><trkpt lat="43.569040395390026" lon="10.809071235615203"><ele>168.5</ele><time>2026-04-06T09:06:05.001Z</time></trkpt><trkpt lat="43.56914348729498" lon="10.808935387186338"><ele>168.25</ele><time>2026-04-06T09:06:06.001Z</time></trkpt><trkpt lat="43.569259369319454" lon="10.80883996237728"><ele>168.0</ele><time>2026-04-06T09:06:07.001Z</time></trkpt><trkpt lat="43.569367471798024" lon="10.808753228452055"><ele>168.0</ele><time>2026-04-06T09:06:08.001Z</time></trkpt><trkpt lat="43.56948001705738" lon="10.808691038945977"><ele>168.0</ele><time>2026-04-06T09:06:09.001Z</time></trkpt><trkpt lat="43.569593200068255" lon="10.808665559029562"><ele>168.0</ele><time>2026-04-06T09:06:10.001Z</time></trkpt><trkpt lat="43.56970382097213" lon="10.808672150688224"><ele>168.0</ele><time>2026-04-06T09:06:11.001Z</time></trkpt><trkpt lat="43.56981532142439" lon="10.808749509742178"><ele>168.5</ele><time>2026-04-06T09:06:12.001Z</time></trkpt><trkpt lat="43.56992812340551" lon="10.808825182204348"><ele>169.0</ele><time>2026-04-06T09:06:13.001Z</time></trkpt><trkpt lat="43.5700366254033" lon="10.808885555130065"><ele>169.5</ele><time>2026-04-06T09:06:14.001Z</time></trkpt><trkpt lat="43.570148965973296" lon="10.80891518984703"><ele>170.0</ele><time>2026-04-06T09:06:15.001Z</time></trkpt><trkpt lat="43.57025752540569" lon="10.808906449549506"><ele>169.0</ele><time>2026-04-06T09:06:16.001Z</time></trkpt><trkpt lat="43.5703627330181" lon="10.80886027930027"><ele>168.0</ele><time>2026-04-06T09:06:16.997Z</time></trkpt><trkpt lat="43.57046129977383" lon="10.80877243531699"><ele>167.0</ele><time>2026-04-06T09:06:17.997Z</time></trkpt><trkpt lat="43.57054664636733" lon="10.808652713218684"><ele>166.0</ele><time>2026-04-06T09:06:18.997Z</time></trkpt><trkpt lat="43.570627136768735" lon="10.808518402325133"><ele>168.5</ele><time>2026-04-06T09:06:19.997Z</time></trkpt><trkpt lat="43.57071552777662" lon="10.808393279367655"><ele>171.0</ele><time>2026-04-06T09:06:20.997Z</time></trkpt><trkpt lat="43.57079274485899" lon="10.808250927285702"><ele>173.5</ele><time>2026-04-06T09:06:21.997Z</time></trkpt><trkpt lat="43.570881671362564" lon="10.80811150247637"><ele>176.0</ele><time>2026-04-06T09:06:22.998Z</time></trkpt><trkpt lat="43.57097414467926" lon="10.807970786756435"><ele>176.0</ele><time>2026-04-06T09:06:23.998Z</time></trkpt><trkpt lat="43.57106447416539" lon="10.807829434406564"><ele>176.0</ele><time>2026-04-06T09:06:24.998Z</time></trkpt><trkpt lat="43.57114121449439" lon="10.8076758099867"><ele>176.0</ele><time>2026-04-06T09:06:25.998Z</time></trkpt><trkpt lat="43.57119319205637" lon="10.807516655785074"><ele>176.0</ele><time>2026-04-06T09:06:26.998Z</time></trkpt><trkpt lat="43.571210031058634" lon="10.807343150603543"><ele>176.0</ele><time>2026-04-06T09:06:27.998Z</time></trkpt><trkpt lat="43.571203772942354" lon="10.807162254105668"><ele>176.0</ele><time>2026-04-06T09:06:28.998Z</time></trkpt><trkpt lat="43.57116192226159" lon="10.80696433895691"><ele>176.0</ele><time>2026-04-06T09:06:29.998Z</time></trkpt><trkpt lat="43.57112887318232" lon="10.806749542921759"><ele>176.0</ele><time>2026-04-06T09:06:30.999Z</time></trkpt><trkpt lat="43.57108428315564" lon="10.806529375049038"><ele>176.0</ele><time>2026-04-06T09:06:31.999Z</time></trkpt><trkpt lat="43.5710446070727" lon="10.806301421942969"><ele>176.0</ele><time>2026-04-06T09:06:32.999Z</time></trkpt><trkpt lat="43.57101307302735" lon="10.806076737167508"><ele>176.0</ele><time>2026-04-06T09:06:33.999Z</time></trkpt><trkpt lat="43.571008754474434" lon="10.805862641031776"><ele>177.66666666666666</ele><time>2026-04-06T09:06:34.999Z</time></trkpt><trkpt lat="43.57101278533624" lon="10.805642631787194"><ele>179.33333333333334</ele><time>2026-04-06T09:06:35.999Z</time></trkpt><trkpt lat="43.57103388516689" lon="10.805406193414248"><ele>181.0</ele><time>2026-04-06T09:06:36.999Z</time></trkpt><trkpt lat="43.571066555318666" lon="10.805157093214884"><ele>184.66666666666669</ele><time>2026-04-06T09:06:37.999Z</time></trkpt><trkpt lat="43.57108814566318" lon="10.804922659147284"><ele>188.33333333333334</ele><time>2026-04-06T09:06:38.999Z</time></trkpt><trkpt lat="43.5711078333287" lon="10.80469433348072"><ele>192.0</ele><time>2026-04-06T09:06:40Z</time></trkpt><trkpt lat="43.57111671299528" lon="10.804477799508025"><ele>194.5</ele><time>2026-04-06T09:06:41Z</time></trkpt><trkpt lat="43.57110707466845" lon="10.804277449710385"><ele>197.0</ele><time>2026-04-06T09:06:42Z</time></trkpt><trkpt lat="43.57107835112334" lon="10.804104289858705"><ele>199.5</ele><time>2026-04-06T09:06:43Z</time></trkpt><trkpt lat="43.57103046534176" lon="10.803941589539559"><ele>202.0</ele><time>2026-04-06T09:06:44Z</time></trkpt><trkpt lat="43.57095743435507" lon="10.803790530999573"><ele>202.0</ele><time>2026-04-06T09:06:45Z</time></trkpt><trkpt lat="43.57086031565391" lon="10.803665186705818"><ele>202.0</ele><time>2026-04-06T09:06:46Z</time></trkpt><trkpt lat="43.570738533908404" lon="10.803564376368461"><ele>202.0</ele><time>2026-04-06T09:06:47Z</time></trkpt><trkpt lat="43.570601003323105" lon="10.803481767486106"><ele>202.0</ele><time>2026-04-06T09:06:48Z</time></trkpt><trkpt lat="43.57047022764587" lon="10.803410949834161"><ele>202.75</ele><time>2026-04-06T09:06:49Z</time></trkpt><trkpt lat="43.570340789943195" lon="10.803353596699324"><ele>203.5</ele><time>2026-04-06T09:06:50Z</time></trkpt><trkpt lat="43.57023814299465" lon="10.803270107970445"><ele>204.25</ele><time>2026-04-06T09:06:51Z</time></trkpt><trkpt lat="43.57013972367362" lon="10.80320233864983"><ele>205.0</ele><time>2026-04-06T09:06:52Z</time></trkpt><trkpt lat="43.570076864308895" lon="10.803069733516974"><ele>205.0</ele><time>2026-04-06T09:06:53Z</time></trkpt><trkpt lat="43.570011057774934" lon="10.80293647810847"><ele>205.0</ele><time>2026-04-06T09:06:54Z</time></trkpt><trkpt lat="43.56994772883931" lon="10.802799561046422"><ele>205.0</ele><time>2026-04-06T09:06:55.001Z</time></trkpt><trkpt lat="43.569887447250466" lon="10.80267201065701"><ele>205.0</ele><time>2026-04-06T09:06:56.001Z</time></trkpt><trkpt lat="43.56984418098082" lon="10.802569658253217"><ele>205.0</ele><time>2026-04-06T09:06:57.001Z</time></trkpt><trkpt lat="43.56981489068529" lon="10.802485658401011"><ele>207.0</ele><time>2026-04-06T09:06:58.001Z</time></trkpt><trkpt lat="43.56978183735826" lon="10.802404340339155"><ele>209.0</ele><time>2026-04-06T09:06:59.001Z</time></trkpt><trkpt lat="43.56974143251685" lon="10.802329193756092"><ele>211.0</ele><time>2026-04-06T09:07:00.001Z</time></trkpt><trkpt lat="43.56970098116346" lon="10.802251891161148"><ele>213.0</ele><time>2026-04-06T09:07:01.001Z</time></trkpt><trkpt lat="43.569665732464856" lon="10.8021704146718"><ele>215.0</ele><time>2026-04-06T09:07:02.001Z</time></trkpt><trkpt lat="43.56962934663402" lon="10.80207435008249"><ele>217.0</ele><time>2026-04-06T09:07:03.001Z</time></trkpt><trkpt lat="43.56958887573861" lon="10.801988933609918"><ele>219.0</ele><time>2026-04-06T09:07:04.001Z</time></trkpt><trkpt lat="43.56953840574348" lon="10.801902111995805"><ele>214.2</ele><time>2026-04-06T09:07:05.001Z</time></trkpt><trkpt lat="43.569470845862135" lon="10.801824754289717"><ele>209.39999999999998</ele><time>2026-04-06T09:07:06.001Z</time></trkpt><trkpt lat="43.56939234423005" lon="10.801776047920113"><ele>204.6</ele><time>2026-04-06T09:07:07.001Z</time></trkpt><trkpt lat="43.56930666462258" lon="10.80175596430269"><ele>199.8</ele><time>2026-04-06T09:07:08.001Z</time></trkpt><trkpt lat="43.569201059730325" lon="10.801782401631913"><ele>195.0</ele><time>2026-04-06T09:07:09.001Z</time></trkpt><trkpt lat="43.56910306076528" lon="10.801834408061021"><ele>194.75</ele><time>2026-04-06T09:07:10.001Z</time></trkpt><trkpt lat="43.56900375353599" lon="10.801885062353618"><ele>194.5</ele><time>2026-04-06T09:07:11.001Z</time></trkpt><trkpt lat="43.56888925176765" lon="10.801917287748743"><ele>194.25</ele><time>2026-04-06T09:07:12.001Z</time></trkpt><trkpt lat="43.568775048071224" lon="10.801922801098808"><ele>194.0</ele><time>2026-04-06T09:07:13.001Z</time></trkpt><trkpt lat="43.568660021339205" lon="10.801914208079738"><ele>190.75</ele><time>2026-04-06T09:07:14.001Z</time></trkpt><trkpt lat="43.56854343169611" lon="10.801904651757495"><ele>187.5</ele><time>2026-04-06T09:07:15.001Z</time></trkpt><trkpt lat="43.568424296108496" lon="10.801901285673665"><ele>184.25</ele><time>2026-04-06T09:07:16.001Z</time></trkpt><trkpt lat="43.56829877939799" lon="10.801892945361455"><ele>181.0</ele><time>2026-04-06T09:07:17.001Z</time></trkpt><trkpt lat="43.56818087946109" lon="10.801885401216843"><ele>181.0</ele><time>2026-04-06T09:07:18.001Z</time></trkpt><trkpt lat="43.56806454244949" lon="10.801877318404555"><ele>181.0</ele><time>2026-04-06T09:07:19.001Z</time></trkpt><trkpt lat="43.56794826645827" lon="10.801867996427484"><ele>181.0</ele><time>2026-04-06T09:07:20.002Z</time></trkpt><trkpt lat="43.567841433635" lon="10.801868700676065"><ele>181.0</ele><time>2026-04-06T09:07:21.002Z</time></trkpt><trkpt lat="43.56773178249991" lon="10.801856091461039"><ele>181.4</ele><time>2026-04-06T09:07:22.002Z</time></trkpt><trkpt lat="43.56762729682296" lon="10.801842910906963"><ele>181.8</ele><time>2026-04-06T09:07:23.002Z</time></trkpt><trkpt lat="43.56752023477412" lon="10.801817187137804"><ele>182.20000000000002</ele><time>2026-04-06T09:07:24.002Z</time></trkpt><trkpt lat="43.567412843950784" lon="10.80178486659182"><ele>182.60000000000002</ele><time>2026-04-06T09:07:25.002Z</time></trkpt><trkpt lat="43.567302216856966" lon="10.801743489465705"><ele>183.0</ele><time>2026-04-06T09:07:26.002Z</time></trkpt><trkpt lat="43.56718801470811" lon="10.801689119612803"><ele>183.0</ele><time>2026-04-06T09:07:27.002Z</time></trkpt><trkpt lat="43.56707186284638" lon="10.801626872205464"><ele>183.0</ele><time>2026-04-06T09:07:28.002Z</time></trkpt><trkpt lat="43.56696150597383" lon="10.801558922696131"><ele>183.0</ele><time>2026-04-06T09:07:29.002Z</time></trkpt><trkpt lat="43.56685056373857" lon="10.801496619586601"><ele>183.0</ele><time>2026-04-06T09:07:30.002Z</time></trkpt><trkpt lat="43.56673873405832" lon="10.801433871432497"><ele>183.0</ele><time>2026-04-06T09:07:31.002Z</time></trkpt><trkpt lat="43.56662923678247" lon="10.801373249302337"><ele>183.0</ele><time>2026-04-06T09:07:32.002Z</time></trkpt><trkpt lat="43.56652422932578" lon="10.801307938606987"><ele>183.0</ele><time>2026-04-06T09:07:33.002Z</time></trkpt><trkpt lat="43.566412148555976" lon="10.801242227969407"><ele>183.0</ele><time>2026-04-06T09:07:34.002Z</time></trkpt><trkpt lat="43.56629042719281" lon="10.801167822608916"><ele>182.8</ele><time>2026-04-06T09:07:35.002Z</time></trkpt><trkpt lat="43.5661774388756" lon="10.801090026795475"><ele>182.60000000000002</ele><time>2026-04-06T09:07:36.002Z</time></trkpt><trkpt lat="43.566070578722126" lon="10.801019862623667"><ele>182.39999999999998</ele><time>2026-04-06T09:07:37.002Z</time></trkpt><trkpt lat="43.565976351279936" lon="10.80095730733407"><ele>182.2</ele><time>2026-04-06T09:07:38.002Z</time></trkpt><trkpt lat="43.56589036712583" lon="10.800890661260906"><ele>182.0</ele><time>2026-04-06T09:07:39.002Z</time></trkpt><trkpt lat="43.565813826656196" lon="10.800813718954231"><ele>182.0</ele><time>2026-04-06T09:07:40.002Z</time></trkpt><trkpt lat="43.56574178968678" lon="10.800722320624415"><ele>182.0</ele><time>2026-04-06T09:07:41.002Z</time></trkpt><trkpt lat="43.56567604523598" lon="10.800622082665072"><ele>182.0</ele><time>2026-04-06T09:07:42.002Z</time></trkpt><trkpt lat="43.56561806576712" lon="10.800528245773801"><ele>182.0</ele><time>2026-04-06T09:07:43.002Z</time></trkpt><trkpt lat="43.56555516783" lon="10.80045938162653"><ele>182.0</ele><time>2026-04-06T09:07:44.002Z</time></trkpt><trkpt lat="43.56548031895253" lon="10.800421051443664"><ele>182.0</ele><time>2026-04-06T09:07:45.002Z</time></trkpt><trkpt lat="43.56539740696103" lon="10.800401651738897"><ele>181.6</ele><time>2026-04-06T09:07:46.002Z</time></trkpt><trkpt lat="43.5653080775176" lon="10.80040001464018"><ele>181.2</ele><time>2026-04-06T09:07:47.002Z</time></trkpt><trkpt lat="43.565213136944706" lon="10.800405661805904"><ele>180.8</ele><time>2026-04-06T09:07:48.002Z</time></trkpt><trkpt lat="43.565118168731" lon="10.800415682133629"><ele>180.4</ele><time>2026-04-06T09:07:49.002Z</time></trkpt><trkpt lat="43.56502395701298" lon="10.800416933490137"><ele>180.0</ele><time>2026-04-06T09:07:50.002Z</time></trkpt><trkpt lat="43.564932898464285" lon="10.800395880737621"><ele>180.0</ele><time>2026-04-06T09:07:51.002Z</time></trkpt><trkpt lat="43.564850944579064" lon="10.800332951687215"><ele>180.0</ele><time>2026-04-06T09:07:52.003Z</time></trkpt><trkpt lat="43.564762558315564" lon="10.800286655273537"><ele>180.0</ele><time>2026-04-06T09:07:53.003Z</time></trkpt><trkpt lat="43.56467515593982" lon="10.800243754051369"><ele>180.0</ele><time>2026-04-06T09:07:54.003Z</time></trkpt><trkpt lat="43.56458620993055" lon="10.800223963609593"><ele>180.0</ele><time>2026-04-06T09:07:55.003Z</time></trkpt><trkpt lat="43.56450611778451" lon="10.800188505796786"><ele>180.83333333333334</ele><time>2026-04-06T09:07:56.003Z</time></trkpt><trkpt lat="43.56442945190118" lon="10.80015232663388"><ele>181.66666666666666</ele><time>2026-04-06T09:07:57.003Z</time></trkpt><trkpt lat="43.564353218347435" lon="10.800113660654782"><ele>182.5</ele><time>2026-04-06T09:07:58.003Z</time></trkpt><trkpt lat="43.56428695339569" lon="10.800047047105673"><ele>183.33333333333331</ele><time>2026-04-06T09:07:59.003Z</time></trkpt><trkpt lat="43.5642117329191" lon="10.800021670824277"><ele>184.16666666666666</ele><time>2026-04-06T09:08:00.003Z</time></trkpt><trkpt lat="43.56414564631832" lon="10.79996626968983"><ele>185.0</ele><time>2026-04-06T09:08:01.003Z</time></trkpt><trkpt lat="43.56407410409421" lon="10.799900521237056"><ele>185.0</ele><time>2026-04-06T09:08:02.003Z</time></trkpt><trkpt lat="43.563995732342185" lon="10.799861183536878"><ele>185.0</ele><time>2026-04-06T09:08:03.003Z</time></trkpt><trkpt lat="43.56392354368786" lon="10.799794945003388"><ele>185.0</ele><time>2026-04-06T09:08:04.003Z</time></trkpt><trkpt lat="43.5638623392037" lon="10.799709937506975"><ele>185.0</ele><time>2026-04-06T09:08:05.003Z</time></trkpt><trkpt lat="43.56382190090958" lon="10.799611378526754"><ele>185.0</ele><time>2026-04-06T09:08:06.003Z</time></trkpt><trkpt lat="43.563826166708694" lon="10.799485516040345"><ele>185.0</ele><time>2026-04-06T09:08:07.003Z</time></trkpt><trkpt lat="43.56379415798714" lon="10.799378820103087"><ele>185.57142857142856</ele><time>2026-04-06T09:08:08.003Z</time></trkpt><trkpt lat="43.56376316347302" lon="10.799282707851036"><ele>186.14285714285714</ele><time>2026-04-06T09:08:09.003Z</time></trkpt><trkpt lat="43.56372710767802" lon="10.799193501807379"><ele>186.71428571428572</ele><time>2026-04-06T09:08:10.003Z</time></trkpt><trkpt lat="43.563672146239455" lon="10.79914612925834"><ele>187.28571428571428</ele><time>2026-04-06T09:08:11.003Z</time></trkpt><trkpt lat="43.563618538023135" lon="10.79908167549755"><ele>187.85714285714286</ele><time>2026-04-06T09:08:12.003Z</time></trkpt><trkpt lat="43.56355866309206" lon="10.7990207894946"><ele>188.42857142857142</ele><time>2026-04-06T09:08:13.003Z</time></trkpt><trkpt lat="43.56349544176251" lon="10.798959608156434"><ele>189.0</ele><time>2026-04-06T09:08:14.003Z</time></trkpt><trkpt lat="43.563428729692866" lon="10.798902397475649"><ele>189.0</ele><time>2026-04-06T09:08:15.003Z</time></trkpt><trkpt lat="43.563359806933484" lon="10.798852892723254"><ele>189.0</ele><time>2026-04-06T09:08:16.003Z</time></trkpt><trkpt lat="43.56329275981366" lon="10.798768520578776"><ele>189.0</ele><time>2026-04-06T09:08:17.003Z</time></trkpt><trkpt lat="43.563212954392014" lon="10.798702671642802"><ele>189.0</ele><time>2026-04-06T09:08:18.003Z</time></trkpt><trkpt lat="43.56313364099002" lon="10.798638082795357"><ele>189.0</ele><time>2026-04-06T09:08:19.003Z</time></trkpt><trkpt lat="43.56306856258327" lon="10.79857367391543"><ele>189.0</ele><time>2026-04-06T09:08:20.003Z</time></trkpt><trkpt lat="43.562986025271705" lon="10.798507251315312"><ele>186.79999999999998</ele><time>2026-04-06T09:08:21.003Z</time></trkpt><trkpt lat="43.56289774483786" lon="10.798442767680537"><ele>184.6</ele><time>2026-04-06T09:08:22.003Z</time></trkpt><trkpt lat="43.56281563246629" lon="10.798374343396985"><ele>182.4</ele><time>2026-04-06T09:08:23Z</time></trkpt><trkpt lat="43.56273744207765" lon="10.798307070796387"><ele>180.2</ele><time>2026-04-06T09:08:24Z</time></trkpt><trkpt lat="43.56266506658853" lon="10.798216190910717"><ele>178.0</ele><time>2026-04-06T09:08:25Z</time></trkpt><trkpt lat="43.56259485611154" lon="10.798142316275035"><ele>178.0</ele><time>2026-04-06T09:08:26Z</time></trkpt><trkpt lat="43.56252237680059" lon="10.798060527608452"><ele>178.0</ele><time>2026-04-06T09:08:27Z</time></trkpt><trkpt lat="43.56244795859504" lon="10.797975972074983"><ele>178.0</ele><time>2026-04-06T09:08:28Z</time></trkpt><trkpt lat="43.56237063544993" lon="10.79790100031959"><ele>178.0</ele><time>2026-04-06T09:08:29Z</time></trkpt><trkpt lat="43.562291127297634" lon="10.797825050149743"><ele>178.0</ele><time>2026-04-06T09:08:30Z</time></trkpt><trkpt lat="43.56220645761623" lon="10.797766178267407"><ele>178.0</ele><time>2026-04-06T09:08:31Z</time></trkpt><trkpt lat="43.56214210374219" lon="10.797724535797169"><ele>178.0</ele><time>2026-04-06T09:08:32Z</time></trkpt><trkpt lat="43.56206660361187" lon="10.797688068355649"><ele>178.0</ele><time>2026-04-06T09:08:33Z</time></trkpt><trkpt lat="43.561980033261456" lon="10.797663209280438"><ele>178.0</ele><time>2026-04-06T09:08:34Z</time></trkpt><trkpt lat="43.561894014302375" lon="10.797644817971454"><ele>178.0</ele><time>2026-04-06T09:08:35Z</time></trkpt><trkpt lat="43.56180333415354" lon="10.797609816075544"><ele>178.0</ele><time>2026-04-06T09:08:36Z</time></trkpt><trkpt lat="43.5617058355583" lon="10.797575264930634"><ele>176.0</ele><time>2026-04-06T09:08:37Z</time></trkpt><trkpt lat="43.56160523241202" lon="10.797546470392518"><ele>174.0</ele><time>2026-04-06T09:08:38Z</time></trkpt><trkpt lat="43.561502383908504" lon="10.79751848551744"><ele>172.0</ele><time>2026-04-06T09:08:39Z</time></trkpt><trkpt lat="43.561396152099164" lon="10.797498191850943"><ele>170.0</ele><time>2026-04-06T09:08:40Z</time></trkpt><trkpt lat="43.56129390111274" lon="10.797473356859825"><ele>168.0</ele><time>2026-04-06T09:08:41Z</time></trkpt><trkpt lat="43.561189446676536" lon="10.797453813252268"><ele>168.0</ele><time>2026-04-06T09:08:42Z</time></trkpt><trkpt lat="43.561079550138764" lon="10.797435564094913"><ele>168.0</ele><time>2026-04-06T09:08:43Z</time></trkpt><trkpt lat="43.56097255242838" lon="10.797425790528468"><ele>168.0</ele><time>2026-04-06T09:08:44Z</time></trkpt><trkpt lat="43.56086605077532" lon="10.797426589649785"><ele>168.0</ele><time>2026-04-06T09:08:45Z</time></trkpt><trkpt lat="43.56075809419329" lon="10.79743592851163"><ele>168.0</ele><time>2026-04-06T09:08:46Z</time></trkpt><trkpt lat="43.56065323331998" lon="10.79744130864979"><ele>168.0</ele><time>2026-04-06T09:08:47Z</time></trkpt><trkpt lat="43.56055239294475" lon="10.797430538982676"><ele>168.0</ele><time>2026-04-06T09:08:48Z</time></trkpt><trkpt lat="43.560467302444295" lon="10.797405550336972"><ele>168.0</ele><time>2026-04-06T09:08:49Z</time></trkpt><trkpt lat="43.560392160164625" lon="10.797366662803887"><ele>168.0</ele><time>2026-04-06T09:08:50Z</time></trkpt><trkpt lat="43.560313848099014" lon="10.797318406247948"><ele>168.0</ele><time>2026-04-06T09:08:51Z</time></trkpt><trkpt lat="43.56024095495393" lon="10.797258905055061"><ele>168.0</ele><time>2026-04-06T09:08:52Z</time></trkpt><trkpt lat="43.56017980947318" lon="10.797184232575708"><ele>168.0</ele><time>2026-04-06T09:08:53Z</time></trkpt><trkpt lat="43.56012301008076" lon="10.797089628609946"><ele>168.0</ele><time>2026-04-06T09:08:54Z</time></trkpt><trkpt lat="43.560064182266096" lon="10.796986415288904"><ele>168.0</ele><time>2026-04-06T09:08:55.001Z</time></trkpt><trkpt lat="43.56000884030204" lon="10.796862302170526"><ele>168.0</ele><time>2026-04-06T09:08:56.001Z</time></trkpt><trkpt lat="43.559927992752485" lon="10.79674800929799"><ele>168.0</ele><time>2026-04-06T09:08:57.001Z</time></trkpt><trkpt lat="43.55985827087522" lon="10.796644081610165"><ele>168.0</ele><time>2026-04-06T09:08:58.001Z</time></trkpt><trkpt lat="43.559797339863586" lon="10.796520940874796"><ele>168.0</ele><time>2026-04-06T09:08:59.001Z</time></trkpt><trkpt lat="43.55973263664476" lon="10.79641379854832"><ele>168.0</ele><time>2026-04-06T09:09:00.001Z</time></trkpt><trkpt lat="43.559672886726204" lon="10.796309889418449"><ele>168.0</ele><time>2026-04-06T09:09:01.001Z</time></trkpt><trkpt lat="43.55961431646523" lon="10.796200086889481"><ele>168.0</ele><time>2026-04-06T09:09:02.001Z</time></trkpt><trkpt lat="43.559559468291894" lon="10.796094917889945"><ele>165.16666666666666</ele><time>2026-04-06T09:09:03.001Z</time></trkpt><trkpt lat="43.55950555149423" lon="10.79599219724284"><ele>162.33333333333334</ele><time>2026-04-06T09:09:04.001Z</time></trkpt><trkpt lat="43.559438786068185" lon="10.795909276848878"><ele>159.5</ele><time>2026-04-06T09:09:05.001Z</time></trkpt><trkpt lat="43.55938770188681" lon="10.795834846688152"><ele>156.66666666666669</ele><time>2026-04-06T09:09:06.001Z</time></trkpt><trkpt lat="43.55932317312536" lon="10.795772535738017"><ele>153.83333333333334</ele><time>2026-04-06T09:09:07.001Z</time></trkpt><trkpt lat="43.55925374836017" lon="10.795713584667547"><ele>151.0</ele><time>2026-04-06T09:09:08.001Z</time></trkpt><trkpt lat="43.55918007778586" lon="10.795655292776535"><ele>151.0</ele><time>2026-04-06T09:09:09.001Z</time></trkpt><trkpt lat="43.559098896075874" lon="10.795592292714609"><ele>151.0</ele><time>2026-04-06T09:09:10.001Z</time></trkpt><trkpt lat="43.559017273046926" lon="10.795504455922583"><ele>151.0</ele><time>2026-04-06T09:09:11.001Z</time></trkpt><trkpt lat="43.55892340893349" lon="10.795417109589467"><ele>151.0</ele><time>2026-04-06T09:09:12.001Z</time></trkpt><trkpt lat="43.558830244990936" lon="10.795318848512405"><ele>151.0</ele><time>2026-04-06T09:09:13.001Z</time></trkpt><trkpt lat="43.55874565945037" lon="10.79520874196838"><ele>149.0</ele><time>2026-04-06T09:09:14.001Z</time></trkpt><trkpt lat="43.558670353904226" lon="10.795089575371694"><ele>147.0</ele><time>2026-04-06T09:09:15.001Z</time></trkpt><trkpt lat="43.558599487315036" lon="10.794962190390695"><ele>145.0</ele><time>2026-04-06T09:09:16.001Z</time></trkpt><trkpt lat="43.55853914615498" lon="10.79483009423871"><ele>143.0</ele><time>2026-04-06T09:09:17.001Z</time></trkpt><trkpt lat="43.558481952772446" lon="10.79468841443963"><ele>143.0</ele><time>2026-04-06T09:09:18.001Z</time></trkpt><trkpt lat="43.558411201758084" lon="10.794546043152508"><ele>143.0</ele><time>2026-04-06T09:09:19.001Z</time></trkpt><trkpt lat="43.558346844870734" lon="10.794443693936417"><ele>143.0</ele><time>2026-04-06T09:09:20.001Z</time></trkpt><trkpt lat="43.55828608846017" lon="10.79434958224314"><ele>143.0</ele><time>2026-04-06T09:09:21.001Z</time></trkpt><trkpt lat="43.55826041577858" lon="10.794243900516625"><ele>143.0</ele><time>2026-04-06T09:09:22.001Z</time></trkpt><trkpt lat="43.55822416426002" lon="10.794156851567001"><ele>144.4</ele><time>2026-04-06T09:09:23.001Z</time></trkpt><trkpt lat="43.55821400740371" lon="10.794048442866032"><ele>145.8</ele><time>2026-04-06T09:09:24.001Z</time></trkpt><trkpt lat="43.55820322561612" lon="10.793927721963573"><ele>147.2</ele><time>2026-04-06T09:09:25.001Z</time></trkpt><trkpt lat="43.55819384207937" lon="10.793803945608982"><ele>148.6</ele><time>2026-04-06T09:09:26.002Z</time></trkpt><trkpt lat="43.558181790089435" lon="10.793675448095291"><ele>150.0</ele><time>2026-04-06T09:09:27.002Z</time></trkpt><trkpt lat="43.558150504263786" lon="10.79354687355905"><ele>150.25</ele><time>2026-04-06T09:09:28.002Z</time></trkpt><trkpt lat="43.558117522835225" lon="10.793404764045924"><ele>150.5</ele><time>2026-04-06T09:09:29.002Z</time></trkpt><trkpt lat="43.55806652324428" lon="10.793253044533808"><ele>150.75</ele><time>2026-04-06T09:09:30.002Z</time></trkpt><trkpt lat="43.558019599299925" lon="10.793088677728454"><ele>151.0</ele><time>2026-04-06T09:09:31.002Z</time></trkpt><trkpt lat="43.55797635995809" lon="10.792916317928015"><ele>151.0</ele><time>2026-04-06T09:09:32.002Z</time></trkpt><trkpt lat="43.557941269524164" lon="10.792746562992834"><ele>151.0</ele><time>2026-04-06T09:09:33.002Z</time></trkpt><trkpt lat="43.55789069101118" lon="10.792597542843321"><ele>151.0</ele><time>2026-04-06T09:09:34.002Z</time></trkpt><trkpt lat="43.55785554333301" lon="10.792464175428359"><ele>151.0</ele><time>2026-04-06T09:09:35.002Z</time></trkpt><trkpt lat="43.557828692918186" lon="10.792356842938903"><ele>151.0</ele><time>2026-04-06T09:09:36.002Z</time></trkpt><trkpt lat="43.55781362631462" lon="10.792259321032457"><ele>149.4</ele><time>2026-04-06T09:09:37.002Z</time></trkpt><trkpt lat="43.55784869277063" lon="10.792158751389387"><ele>147.8</ele><time>2026-04-06T09:09:38.002Z</time></trkpt><trkpt lat="43.557889441910255" lon="10.792062624775768"><ele>146.20000000000002</ele><time>2026-04-06T09:09:39.002Z</time></trkpt><trkpt lat="43.557935830667574" lon="10.791959245242637"><ele>144.6</ele><time>2026-04-06T09:09:40.002Z</time></trkpt><trkpt lat="43.55799330337665" lon="10.79184646202986"><ele>143.0</ele><time>2026-04-06T09:09:41.002Z</time></trkpt><trkpt lat="43.5580408158661" lon="10.791723939664402"><ele>142.0</ele><time>2026-04-06T09:09:42.002Z</time></trkpt><trkpt lat="43.55807068226019" lon="10.791588766612891"><ele>141.0</ele><time>2026-04-06T09:09:43.002Z</time></trkpt><trkpt lat="43.55808799890376" lon="10.791449871702559"><ele>140.0</ele><time>2026-04-06T09:09:44.002Z</time></trkpt><trkpt lat="43.558102303487864" lon="10.791310425532915"><ele>139.0</ele><time>2026-04-06T09:09:45.002Z</time></trkpt><trkpt lat="43.55808859084597" lon="10.791183736496794"><ele>138.0</ele><time>2026-04-06T09:09:46.002Z</time></trkpt><trkpt lat="43.558087302090776" lon="10.791067684516308"><ele>138.6</ele><time>2026-04-06T09:09:47.002Z</time></trkpt><trkpt lat="43.558056371734985" lon="10.790956093426283"><ele>139.20000000000002</ele><time>2026-04-06T09:09:48.002Z</time></trkpt><trkpt lat="43.5580150684599" lon="10.790837493604728"><ele>139.8</ele><time>2026-04-06T09:09:49.002Z</time></trkpt><trkpt lat="43.55794526900983" lon="10.79073348987367"><ele>140.4</ele><time>2026-04-06T09:09:50.002Z</time></trkpt><trkpt lat="43.55787384047444" lon="10.790604954267478"><ele>141.0</ele><time>2026-04-06T09:09:51.002Z</time></trkpt><trkpt lat="43.557799518226425" lon="10.790452337019287"><ele>141.0</ele><time>2026-04-06T09:09:52.002Z</time></trkpt><trkpt lat="43.5577146821468" lon="10.790287674195099"><ele>141.0</ele><time>2026-04-06T09:09:53.002Z</time></trkpt><trkpt lat="43.55763065807595" lon="10.790133971638257"><ele>141.0</ele><time>2026-04-06T09:09:54.002Z</time></trkpt><trkpt lat="43.55754930077681" lon="10.789995963675715"><ele>141.0</ele><time>2026-04-06T09:09:55.002Z</time></trkpt><trkpt lat="43.557485486690695" lon="10.789873273975532"><ele>143.2</ele><time>2026-04-06T09:09:56.002Z</time></trkpt><trkpt lat="43.55744060784177" lon="10.789756961145814"><ele>145.39999999999998</ele><time>2026-04-06T09:09:57.002Z</time></trkpt><trkpt lat="43.55741250951437" lon="10.789624051692138"><ele>147.6</ele><time>2026-04-06T09:09:58.002Z</time></trkpt><trkpt lat="43.55739580139407" lon="10.789469773175915"><ele>149.79999999999998</ele><time>2026-04-06T09:09:59.003Z</time></trkpt><trkpt lat="43.55738241658568" lon="10.78931611491538"><ele>152.0</ele><time>2026-04-06T09:10:00.003Z</time></trkpt><trkpt lat="43.557365248303654" lon="10.789167892799618"><ele>152.79999999999998</ele><time>2026-04-06T09:10:01.003Z</time></trkpt><trkpt lat="43.55734809200011" lon="10.78905016746147"><ele>153.6</ele><time>2026-04-06T09:10:02.003Z</time></trkpt><trkpt lat="43.55731744473636" lon="10.788939957791893"><ele>154.39999999999998</ele><time>2026-04-06T09:10:03.003Z</time></trkpt><trkpt lat="43.557275345237485" lon="10.788822223591966"><ele>155.2</ele><time>2026-04-06T09:10:04.003Z</time></trkpt><trkpt lat="43.5572267032271" lon="10.788701716495614"><ele>156.0</ele><time>2026-04-06T09:10:05.003Z</time></trkpt><trkpt lat="43.557173968072405" lon="10.788575369866965"><ele>153.75</ele><time>2026-04-06T09:10:06.003Z</time></trkpt><trkpt lat="43.55710459368705" lon="10.788450180151662"><ele>151.5</ele><time>2026-04-06T09:10:07.003Z</time></trkpt><trkpt lat="43.55706419935896" lon="10.78830511287463"><ele>149.25</ele><time>2026-04-06T09:10:08.003Z</time></trkpt><trkpt lat="43.55700163194452" lon="10.788173840759988"><ele>147.0</ele><time>2026-04-06T09:10:09.003Z</time></trkpt><trkpt lat="43.55695548537606" lon="10.788022818333472"><ele>146.0</ele><time>2026-04-06T09:10:10.003Z</time></trkpt><trkpt lat="43.55691263563464" lon="10.787880812660744"><ele>145.0</ele><time>2026-04-06T09:10:11.003Z</time></trkpt><trkpt lat="43.55688812582537" lon="10.787736966439008"><ele>144.0</ele><time>2026-04-06T09:10:12.003Z</time></trkpt><trkpt lat="43.556847627466304" lon="10.787596393111658"><ele>143.0</ele><time>2026-04-06T09:10:13.003Z</time></trkpt><trkpt lat="43.55679324749949" lon="10.787471758413684"><ele>142.0</ele><time>2026-04-06T09:10:14.003Z</time></trkpt><trkpt lat="43.55673897864698" lon="10.787341797633147"><ele>144.0</ele><time>2026-04-06T09:10:15.003Z</time></trkpt><trkpt lat="43.55667990757827" lon="10.787227163311883"><ele>146.0</ele><time>2026-04-06T09:10:16.003Z</time></trkpt><trkpt lat="43.55660305313066" lon="10.787115736772698"><ele>148.0</ele><time>2026-04-06T09:10:17.003Z</time></trkpt><trkpt lat="43.55653422354207" lon="10.786981936238178"><ele>150.0</ele><time>2026-04-06T09:10:18.003Z</time></trkpt><trkpt lat="43.55645445758555" lon="10.786873526384708"><ele>152.0</ele><time>2026-04-06T09:10:19.003Z</time></trkpt><trkpt lat="43.55638463438465" lon="10.786758529891186"><ele>152.2</ele><time>2026-04-06T09:10:20.003Z</time></trkpt><trkpt lat="43.5563138597697" lon="10.786645234118058"><ele>152.39999999999998</ele><time>2026-04-06T09:10:21.003Z</time></trkpt><trkpt lat="43.556244134493724" lon="10.786535165138519"><ele>152.60000000000002</ele><time>2026-04-06T09:10:22.003Z</time></trkpt><trkpt lat="43.55617609891457" lon="10.786425525142207"><ele>152.8</ele><time>2026-04-06T09:10:23.003Z</time></trkpt><trkpt lat="43.556103910687874" lon="10.78632380888107"><ele>153.0</ele><time>2026-04-06T09:10:24.003Z</time></trkpt><trkpt lat="43.55602642973528" lon="10.78623370857968"><ele>153.5</ele><time>2026-04-06T09:10:25.003Z</time></trkpt><trkpt lat="43.55594412332125" lon="10.7861542782633"><ele>154.0</ele><time>2026-04-06T09:10:26.003Z</time></trkpt><trkpt lat="43.555871490395624" lon="10.786087448439837"><ele>154.5</ele><time>2026-04-06T09:10:27.003Z</time></trkpt><trkpt lat="43.5558067707372" lon="10.786026792650864"><ele>155.0</ele><time>2026-04-06T09:10:28.003Z</time></trkpt><trkpt lat="43.55574887034326" lon="10.785976173604123"><ele>155.5</ele><time>2026-04-06T09:10:29Z</time></trkpt><trkpt lat="43.55569774430466" lon="10.785922923831414"><ele>156.0</ele><time>2026-04-06T09:10:30Z</time></trkpt><trkpt lat="43.55563387280228" lon="10.785789646867677"><ele>156.16666666666666</ele><time>2026-04-06T09:10:32Z</time></trkpt><trkpt lat="43.55564066786171" lon="10.785684819743926"><ele>156.33333333333334</ele><time>2026-04-06T09:10:33Z</time></trkpt><trkpt lat="43.55565998405381" lon="10.785580409899001"><ele>156.5</ele><time>2026-04-06T09:10:34Z</time></trkpt><trkpt lat="43.555686485838336" lon="10.785463351840987"><ele>156.66666666666669</ele><time>2026-04-06T09:10:35Z</time></trkpt><trkpt lat="43.555716461841016" lon="10.785327515231485"><ele>156.83333333333334</ele><time>2026-04-06T09:10:36Z</time></trkpt><trkpt lat="43.55572946329506" lon="10.785189186563505"><ele>157.0</ele><time>2026-04-06T09:10:37Z</time></trkpt><trkpt lat="43.555742995169915" lon="10.785064264535723"><ele>156.4</ele><time>2026-04-06T09:10:38Z</time></trkpt><trkpt lat="43.55573228554548" lon="10.784944469866511"><ele>155.79999999999998</ele><time>2026-04-06T09:10:39Z</time></trkpt><trkpt lat="43.555699782300756" lon="10.78481098655995"><ele>155.2</ele><time>2026-04-06T09:10:40Z</time></trkpt><trkpt lat="43.55564786194616" lon="10.784680610338386"><ele>154.6</ele><time>2026-04-06T09:10:41Z</time></trkpt><trkpt lat="43.55559929756711" lon="10.784548612859405"><ele>154.0</ele><time>2026-04-06T09:10:42Z</time></trkpt><trkpt lat="43.555555525256736" lon="10.78440576415759"><ele>154.4</ele><time>2026-04-06T09:10:43Z</time></trkpt><trkpt lat="43.55550243670261" lon="10.784287756473145"><ele>154.8</ele><time>2026-04-06T09:10:44Z</time></trkpt><trkpt lat="43.55548493140134" lon="10.784161029937577"><ele>155.2</ele><time>2026-04-06T09:10:45Z</time></trkpt><trkpt lat="43.55548373120188" lon="10.78404107569253"><ele>155.6</ele><time>2026-04-06T09:10:46Z</time></trkpt><trkpt lat="43.555489346883434" lon="10.783908639470399"><ele>156.0</ele><time>2026-04-06T09:10:47Z</time></trkpt><trkpt lat="43.55549936873294" lon="10.783767423189273"><ele>156.0</ele><time>2026-04-06T09:10:48Z</time></trkpt><trkpt lat="43.55551032900113" lon="10.783624531604"><ele>156.0</ele><time>2026-04-06T09:10:49Z</time></trkpt><trkpt lat="43.555526541827525" lon="10.783475337597228"><ele>156.0</ele><time>2026-04-06T09:10:50Z</time></trkpt><trkpt lat="43.555537980760114" lon="10.783324518351634"><ele>156.0</ele><time>2026-04-06T09:10:51Z</time></trkpt><trkpt lat="43.555541930885525" lon="10.783169797882854"><ele>156.0</ele><time>2026-04-06T09:10:52Z</time></trkpt><trkpt lat="43.55555594943588" lon="10.783025441172743"><ele>157.4</ele><time>2026-04-06T09:10:53Z</time></trkpt><trkpt lat="43.55555994852132" lon="10.78288717522384"><ele>158.8</ele><time>2026-04-06T09:10:54Z</time></trkpt><trkpt lat="43.55557167369193" lon="10.782745390152616"><ele>160.20000000000002</ele><time>2026-04-06T09:10:55Z</time></trkpt><trkpt lat="43.55558934372661" lon="10.782610752031694"><ele>161.6</ele><time>2026-04-06T09:10:56Z</time></trkpt><trkpt lat="43.55560653602608" lon="10.782474300215554"><ele>163.0</ele><time>2026-04-06T09:10:57Z</time></trkpt><trkpt lat="43.55562619078935" lon="10.78234004162207"><ele>165.0</ele><time>2026-04-06T09:10:58Z</time></trkpt><trkpt lat="43.555643352848925" lon="10.782219129726762"><ele>167.0</ele><time>2026-04-06T09:10:59Z</time></trkpt><trkpt lat="43.55569142889199" lon="10.782036518740401"><ele>169.0</ele><time>2026-04-06T09:11:01.001Z</time></trkpt><trkpt lat="43.55569972030839" lon="10.781930050484915"><ele>171.0</ele><time>2026-04-06T09:11:02.001Z</time></trkpt><trkpt lat="43.55574105226841" lon="10.781823663801516"><ele>173.0</ele><time>2026-04-06T09:11:03.001Z</time></trkpt><trkpt lat="43.55578708120568" lon="10.781685301698145"><ele>175.0</ele><time>2026-04-06T09:11:04.001Z</time></trkpt><trkpt lat="43.555802792354356" lon="10.781554103442542"><ele>177.0</ele><time>2026-04-06T09:11:05.001Z</time></trkpt><trkpt lat="43.55580839502552" lon="10.781384770120049"><ele>179.0</ele><time>2026-04-06T09:11:06.001Z</time></trkpt><trkpt lat="43.55581066376363" lon="10.781219158400237"><ele>181.0</ele><time>2026-04-06T09:11:07.001Z</time></trkpt><trkpt lat="43.555804785176" lon="10.781039951934469"><ele>181.0</ele><time>2026-04-06T09:11:08.001Z</time></trkpt><trkpt lat="43.55578685640333" lon="10.780869323976388"><ele>181.0</ele><time>2026-04-06T09:11:09.001Z</time></trkpt><trkpt lat="43.55575004543266" lon="10.780713466510111"><ele>181.0</ele><time>2026-04-06T09:11:10.001Z</time></trkpt><trkpt lat="43.55569867499692" lon="10.780545431368362"><ele>181.0</ele><time>2026-04-06T09:11:11.001Z</time></trkpt><trkpt lat="43.555632438698076" lon="10.780365398232528"><ele>181.0</ele><time>2026-04-06T09:11:12.001Z</time></trkpt><trkpt lat="43.55556224189671" lon="10.780191903995958"><ele>181.0</ele><time>2026-04-06T09:11:13.001Z</time></trkpt><trkpt lat="43.55549986226217" lon="10.780013302338917"><ele>181.0</ele><time>2026-04-06T09:11:14.001Z</time></trkpt><trkpt lat="43.55545927411832" lon="10.779835519460297"><ele>181.0</ele><time>2026-04-06T09:11:15.001Z</time></trkpt><trkpt lat="43.555432526603596" lon="10.779658737515215"><ele>180.75</ele><time>2026-04-06T09:11:16.001Z</time></trkpt><trkpt lat="43.55542981517183" lon="10.779480429532237"><ele>180.5</ele><time>2026-04-06T09:11:17.001Z</time></trkpt><trkpt lat="43.555430308437344" lon="10.779285468495345"><ele>180.25</ele><time>2026-04-06T09:11:18.001Z</time></trkpt><trkpt lat="43.555421207324954" lon="10.7790808321771"><ele>180.0</ele><time>2026-04-06T09:11:19.001Z</time></trkpt><trkpt lat="43.55543252199336" lon="10.778879164990444"><ele>180.0</ele><time>2026-04-06T09:11:20.001Z</time></trkpt><trkpt lat="43.55543142708293" lon="10.778675140215674"><ele>180.0</ele><time>2026-04-06T09:11:21.001Z</time></trkpt><trkpt lat="43.55541519448363" lon="10.778491123689149"><ele>180.0</ele><time>2026-04-06T09:11:22.001Z</time></trkpt><trkpt lat="43.55539577807211" lon="10.778319053115295"><ele>180.0</ele><time>2026-04-06T09:11:23.001Z</time></trkpt><trkpt lat="43.555385951210155" lon="10.778183089589833"><ele>180.5</ele><time>2026-04-06T09:11:24.001Z</time></trkpt><trkpt lat="43.55536741472531" lon="10.778072057155187"><ele>181.0</ele><time>2026-04-06T09:11:25.001Z</time></trkpt><trkpt lat="43.55533641662248" lon="10.777980988342883"><ele>181.5</ele><time>2026-04-06T09:11:26.001Z</time></trkpt><trkpt lat="43.555286266276575" lon="10.77789856128028"><ele>182.0</ele><time>2026-04-06T09:11:27.001Z</time></trkpt><trkpt lat="43.55520801191381" lon="10.777816848198771"><ele>182.5</ele><time>2026-04-06T09:11:28.001Z</time></trkpt><trkpt lat="43.555120980780536" lon="10.777740689217955"><ele>183.0</ele><time>2026-04-06T09:11:29.001Z</time></trkpt><trkpt lat="43.55503166696883" lon="10.777676072994117"><ele>183.5</ele><time>2026-04-06T09:11:30.001Z</time></trkpt><trkpt lat="43.55496562682676" lon="10.777613528348096"><ele>184.0</ele><time>2026-04-06T09:11:31.001Z</time></trkpt><trkpt lat="43.55492050943348" lon="10.77752443245383"><ele>184.5</ele><time>2026-04-06T09:11:32.001Z</time></trkpt><trkpt lat="43.55491797621619" lon="10.777413576781584"><ele>185.0</ele><time>2026-04-06T09:11:33.001Z</time></trkpt><trkpt lat="43.55490031083822" lon="10.777295472597093"><ele>185.5</ele><time>2026-04-06T09:11:34.002Z</time></trkpt><trkpt lat="43.554919548961514" lon="10.777168919298699"><ele>186.0</ele><time>2026-04-06T09:11:35.002Z</time></trkpt><trkpt lat="43.55493001490274" lon="10.77704650320673"><ele>186.0</ele><time>2026-04-06T09:11:36.002Z</time></trkpt><trkpt lat="43.554949691290844" lon="10.776916138814558"><ele>186.0</ele><time>2026-04-06T09:11:37.002Z</time></trkpt><trkpt lat="43.55498472831966" lon="10.776799710445204"><ele>186.0</ele><time>2026-04-06T09:11:38.002Z</time></trkpt><trkpt lat="43.55500945146527" lon="10.776698364984334"><ele>186.0</ele><time>2026-04-06T09:11:39.002Z</time></trkpt><trkpt lat="43.55499435554755" lon="10.7765868925787"><ele>186.0</ele><time>2026-04-06T09:11:40.002Z</time></trkpt><trkpt lat="43.5549603319578" lon="10.776456596649481"><ele>186.0</ele><time>2026-04-06T09:11:41.002Z</time></trkpt><trkpt lat="43.5549133858708" lon="10.776355061994595"><ele>184.75</ele><time>2026-04-06T09:11:42.002Z</time></trkpt><trkpt lat="43.554844143225836" lon="10.776249786845032"><ele>183.5</ele><time>2026-04-06T09:11:43.002Z</time></trkpt><trkpt lat="43.55477532972548" lon="10.776135166337182"><ele>182.25</ele><time>2026-04-06T09:11:44.002Z</time></trkpt><trkpt lat="43.55469055803845" lon="10.775992556041498"><ele>181.0</ele><time>2026-04-06T09:11:45.002Z</time></trkpt><trkpt lat="43.55460974238452" lon="10.775853430889235"><ele>175.75</ele><time>2026-04-06T09:11:46.002Z</time></trkpt><trkpt lat="43.55453239700599" lon="10.775734984998374"><ele>170.5</ele><time>2026-04-06T09:11:47.002Z</time></trkpt><trkpt lat="43.55444491375773" lon="10.775624026901493"><ele>165.25</ele><time>2026-04-06T09:11:48.002Z</time></trkpt><trkpt lat="43.55435651392169" lon="10.775535444867298"><ele>160.0</ele><time>2026-04-06T09:11:49.002Z</time></trkpt><trkpt lat="43.55426529735016" lon="10.775438031431078"><ele>160.0</ele><time>2026-04-06T09:11:50.002Z</time></trkpt><trkpt lat="43.55417613376816" lon="10.775341781464325"><ele>160.0</ele><time>2026-04-06T09:11:51.002Z</time></trkpt><trkpt lat="43.5541261753043" lon="10.775220448905214"><ele>160.0</ele><time>2026-04-06T09:11:52.002Z</time></trkpt><trkpt lat="43.55409502664274" lon="10.775112069985909"><ele>160.0</ele><time>2026-04-06T09:11:53.002Z</time></trkpt><trkpt lat="43.55410346452401" lon="10.774994332958792"><ele>160.0</ele><time>2026-04-06T09:11:54.002Z</time></trkpt><trkpt lat="43.55412057287492" lon="10.774865567802992"><ele>160.0</ele><time>2026-04-06T09:11:55.002Z</time></trkpt><trkpt lat="43.55414160020263" lon="10.77470439807632"><ele>160.0</ele><time>2026-04-06T09:11:56.002Z</time></trkpt><trkpt lat="43.55414979500444" lon="10.774518884768922"><ele>160.0</ele><time>2026-04-06T09:11:57.002Z</time></trkpt><trkpt lat="43.554174068139645" lon="10.7743371615476"><ele>160.0</ele><time>2026-04-06T09:11:58.002Z</time></trkpt><trkpt lat="43.55420566966567" lon="10.774136218617421"><ele>157.33333333333334</ele><time>2026-04-06T09:11:59.002Z</time></trkpt><trkpt lat="43.554212714987216" lon="10.773930125670912"><ele>154.66666666666666</ele><time>2026-04-06T09:12:00.002Z</time></trkpt><trkpt lat="43.55421539445184" lon="10.773714240138489"><ele>152.0</ele><time>2026-04-06T09:12:01.002Z</time></trkpt><trkpt lat="43.5542208159326" lon="10.773491288999349"><ele>149.66666666666666</ele><time>2026-04-06T09:12:02.002Z</time></trkpt><trkpt lat="43.55420208535052" lon="10.773258478410488"><ele>147.33333333333334</ele><time>2026-04-06T09:12:03.002Z</time></trkpt><trkpt lat="43.55419447294176" lon="10.773015328736202"><ele>145.0</ele><time>2026-04-06T09:12:04.002Z</time></trkpt><trkpt lat="43.554196083355315" lon="10.772732947790193"><ele>144.33333333333334</ele><time>2026-04-06T09:12:05.002Z</time></trkpt><trkpt lat="43.55417665280883" lon="10.77244407290178"><ele>143.66666666666666</ele><time>2026-04-06T09:12:06.002Z</time></trkpt><trkpt lat="43.55416663993282" lon="10.772140740002428"><ele>143.0</ele><time>2026-04-06T09:12:07.003Z</time></trkpt><trkpt lat="43.55415603549155" lon="10.771830843982848"><ele>143.0</ele><time>2026-04-06T09:12:08.003Z</time></trkpt><trkpt lat="43.55414804429118" lon="10.771503602752649"><ele>143.0</ele><time>2026-04-06T09:12:09.003Z</time></trkpt><trkpt lat="43.554147960090184" lon="10.771313547277233"><ele>143.0</ele><time>2026-04-06T09:12:11.003Z</time></trkpt><trkpt lat="43.55418993514258" lon="10.771156062065131"><ele>142.75</ele><time>2026-04-06T09:12:12.003Z</time></trkpt><trkpt lat="43.55424489524168" lon="10.77099313592395"><ele>142.5</ele><time>2026-04-06T09:12:13.003Z</time></trkpt><trkpt lat="43.55430751731127" lon="10.770804715765564"><ele>142.25</ele><time>2026-04-06T09:12:14.003Z</time></trkpt><trkpt lat="43.55437030778015" lon="10.770611702555962"><ele>142.0</ele><time>2026-04-06T09:12:15.003Z</time></trkpt><trkpt lat="43.55443734996941" lon="10.770406803082816"><ele>142.0</ele><time>2026-04-06T09:12:16.003Z</time></trkpt><trkpt lat="43.55450918512511" lon="10.770199005613357"><ele>142.0</ele><time>2026-04-06T09:12:17.003Z</time></trkpt><trkpt lat="43.55458018311137" lon="10.770007175140254"><ele>142.0</ele><time>2026-04-06T09:12:18.003Z</time></trkpt><trkpt lat="43.55466110367144" lon="10.769814757151524"><ele>141.0</ele><time>2026-04-06T09:12:19.003Z</time></trkpt><trkpt lat="43.55473676184436" lon="10.769674111098086"><ele>140.0</ele><time>2026-04-06T09:12:20.003Z</time></trkpt><trkpt lat="43.55483128071208" lon="10.769548306110199"><ele>139.0</ele><time>2026-04-06T09:12:21.003Z</time></trkpt><trkpt lat="43.55493320149332" lon="10.769418318950395"><ele>138.0</ele><time>2026-04-06T09:12:22.003Z</time></trkpt><trkpt lat="43.55503776972323" lon="10.76928617018367"><ele>138.0</ele><time>2026-04-06T09:12:23.003Z</time></trkpt><trkpt lat="43.55514206413925" lon="10.769154315101806"><ele>138.0</ele><time>2026-04-06T09:12:24.003Z</time></trkpt><trkpt lat="43.5552527843021" lon="10.769014336274738"><ele>138.0</ele><time>2026-04-06T09:12:25.003Z</time></trkpt><trkpt lat="43.55537232027792" lon="10.768863211910032"><ele>138.66666666666666</ele><time>2026-04-06T09:12:26.003Z</time></trkpt><trkpt lat="43.555489659649794" lon="10.768714321379822"><ele>139.33333333333331</ele><time>2026-04-06T09:12:27.003Z</time></trkpt><trkpt lat="43.55559745944006" lon="10.76854554094758"><ele>140.0</ele><time>2026-04-06T09:12:28.003Z</time></trkpt><trkpt lat="43.55571354944937" lon="10.76841934219125"><ele>141.25</ele><time>2026-04-06T09:12:29.003Z</time></trkpt><trkpt lat="43.55582448748562" lon="10.76828098737562"><ele>142.5</ele><time>2026-04-06T09:12:30.003Z</time></trkpt><trkpt lat="43.55593025979751" lon="10.768147308789906"><ele>143.75</ele><time>2026-04-06T09:12:31.003Z</time></trkpt><trkpt lat="43.55601510370427" lon="10.768044060609828"><ele>145.0</ele><time>2026-04-06T09:12:32.003Z</time></trkpt><trkpt lat="43.556069192194336" lon="10.767967971133931"><ele>145.0</ele><time>2026-04-06T09:12:33.003Z</time></trkpt><trkpt lat="43.55609389562481" lon="10.767814701911472"><ele>145.0</ele><time>2026-04-06T09:12:35Z</time></trkpt><trkpt lat="43.55600363248151" lon="10.767682121247505"><ele>145.0</ele><time>2026-04-06T09:12:37Z</time></trkpt><trkpt lat="43.55597547965628" lon="10.76757270604699"><ele>145.0</ele><time>2026-04-06T09:12:38Z</time></trkpt><trkpt lat="43.55589499202085" lon="10.767431009632036"><ele>146.25</ele><time>2026-04-06T09:12:39Z</time></trkpt><trkpt lat="43.555860228409095" lon="10.767316431773361"><ele>147.5</ele><time>2026-04-06T09:12:40Z</time></trkpt><trkpt lat="43.555775446535556" lon="10.767090926127862"><ele>148.75</ele><time>2026-04-06T09:12:41Z</time></trkpt><trkpt lat="43.55573314072603" lon="10.766964454111449"><ele>150.0</ele><time>2026-04-06T09:12:42Z</time></trkpt><trkpt lat="43.55569811550136" lon="10.766842018645633"><ele>150.16666666666666</ele><time>2026-04-06T09:12:43Z</time></trkpt><trkpt lat="43.55571635074477" lon="10.766703224530364"><ele>150.33333333333334</ele><time>2026-04-06T09:12:45Z</time></trkpt><trkpt lat="43.555816984837726" lon="10.766652984331909"><ele>150.5</ele><time>2026-04-06T09:12:46Z</time></trkpt><trkpt lat="43.55588687164325" lon="10.76661617552178"><ele>150.66666666666669</ele><time>2026-04-06T09:12:47Z</time></trkpt><trkpt lat="43.555954579075774" lon="10.766625038369758"><ele>150.83333333333334</ele><time>2026-04-06T09:12:48Z</time></trkpt><trkpt lat="43.55603941555585" lon="10.766608282654508"><ele>151.0</ele><time>2026-04-06T09:12:49Z</time></trkpt><trkpt lat="43.55611666735541" lon="10.766601443769805"><ele>152.4</ele><time>2026-04-06T09:12:50Z</time></trkpt><trkpt lat="43.55620841105438" lon="10.766562297189408"><ele>153.8</ele><time>2026-04-06T09:12:51Z</time></trkpt><trkpt lat="43.55630101486969" lon="10.766487967286874"><ele>155.20000000000002</ele><time>2026-04-06T09:12:52Z</time></trkpt><trkpt lat="43.55638572247533" lon="10.766388060661647"><ele>156.6</ele><time>2026-04-06T09:12:53Z</time></trkpt><trkpt lat="43.55647506191651" lon="10.76627672409036"><ele>158.0</ele><time>2026-04-06T09:12:54Z</time></trkpt><trkpt lat="43.55656965625707" lon="10.766166362709804"><ele>158.0</ele><time>2026-04-06T09:12:55Z</time></trkpt><trkpt lat="43.556672884010815" lon="10.766075284286565"><ele>158.0</ele><time>2026-04-06T09:12:56Z</time></trkpt><trkpt lat="43.556768797874454" lon="10.765963307800817"><ele>158.0</ele><time>2026-04-06T09:12:57Z</time></trkpt><trkpt lat="43.55686774214952" lon="10.76583752009172"><ele>158.0</ele><time>2026-04-06T09:12:58Z</time></trkpt><trkpt lat="43.55694792863475" lon="10.765692032389866"><ele>155.25</ele><time>2026-04-06T09:12:59Z</time></trkpt><trkpt lat="43.556994969019094" lon="10.765527644027179"><ele>152.5</ele><time>2026-04-06T09:13:00Z</time></trkpt><trkpt lat="43.557033973790546" lon="10.765346282239259"><ele>149.75</ele><time>2026-04-06T09:13:01Z</time></trkpt><trkpt lat="43.557081084222084" lon="10.765162410271383"><ele>147.0</ele><time>2026-04-06T09:13:02Z</time></trkpt><trkpt lat="43.557142186840665" lon="10.764988826051733"><ele>147.0</ele><time>2026-04-06T09:13:03Z</time></trkpt><trkpt lat="43.557191774603105" lon="10.764818262497547"><ele>147.0</ele><time>2026-04-06T09:13:04Z</time></trkpt><trkpt lat="43.55724359432777" lon="10.76467001505583"><ele>147.0</ele><time>2026-04-06T09:13:05.001Z</time></trkpt><trkpt lat="43.5573068346251" lon="10.764554060037717"><ele>147.0</ele><time>2026-04-06T09:13:06.001Z</time></trkpt><trkpt lat="43.557387700747334" lon="10.764463734443996"><ele>147.0</ele><time>2026-04-06T09:13:07.001Z</time></trkpt><trkpt lat="43.55747744535881" lon="10.764409476179091"><ele>147.0</ele><time>2026-04-06T09:13:08.001Z</time></trkpt><trkpt lat="43.557569377017856" lon="10.764398445847618"><ele>147.0</ele><time>2026-04-06T09:13:09.001Z</time></trkpt><trkpt lat="43.55763501703562" lon="10.764353049710104"><ele>147.0</ele><time>2026-04-06T09:13:10.001Z</time></trkpt><trkpt lat="43.55767992211106" lon="10.764279970151254"><ele>147.0</ele><time>2026-04-06T09:13:11.001Z</time></trkpt><trkpt lat="43.55772335193249" lon="10.764091928480422"><ele>145.4</ele><time>2026-04-06T09:13:13.001Z</time></trkpt><trkpt lat="43.55771933888965" lon="10.763976713562917"><ele>143.79999999999998</ele><time>2026-04-06T09:13:14.001Z</time></trkpt><trkpt lat="43.55771634211703" lon="10.763860818698577"><ele>142.2</ele><time>2026-04-06T09:13:15.001Z</time></trkpt><trkpt lat="43.55766291439602" lon="10.763746564073644"><ele>140.6</ele><time>2026-04-06T09:13:16.001Z</time></trkpt><trkpt lat="43.55762221497696" lon="10.763578131731297"><ele>139.0</ele><time>2026-04-06T09:13:17.001Z</time></trkpt><trkpt lat="43.557593545403904" lon="10.763367203668954"><ele>137.25</ele><time>2026-04-06T09:13:18.001Z</time></trkpt><trkpt lat="43.557608109427505" lon="10.763193251027948"><ele>135.5</ele><time>2026-04-06T09:13:19.001Z</time></trkpt><trkpt lat="43.55762067095327" lon="10.76301976458431"><ele>133.75</ele><time>2026-04-06T09:13:20.001Z</time></trkpt><trkpt lat="43.55763898262593" lon="10.762836616847654"><ele>132.0</ele><time>2026-04-06T09:13:21.001Z</time></trkpt><trkpt lat="43.55764966755255" lon="10.762600471616496"><ele>130.75</ele><time>2026-04-06T09:13:22.001Z</time></trkpt><trkpt lat="43.5576478837748" lon="10.762405810228898"><ele>129.5</ele><time>2026-04-06T09:13:23.001Z</time></trkpt><trkpt lat="43.557616785866614" lon="10.762204252122531"><ele>128.25</ele><time>2026-04-06T09:13:24.001Z</time></trkpt><trkpt lat="43.557579433034896" lon="10.762016214028302"><ele>127.0</ele><time>2026-04-06T09:13:25.001Z</time></trkpt><trkpt lat="43.55754141273534" lon="10.761825897092963"><ele>126.25</ele><time>2026-04-06T09:13:26.001Z</time></trkpt><trkpt lat="43.557489559352845" lon="10.76163289606843"><ele>125.5</ele><time>2026-04-06T09:13:27.001Z</time></trkpt><trkpt lat="43.55744006676924" lon="10.761437418788061"><ele>124.75</ele><time>2026-04-06T09:13:28.001Z</time></trkpt><trkpt lat="43.55738961038264" lon="10.76124462506116"><ele>124.0</ele><time>2026-04-06T09:13:29.001Z</time></trkpt><trkpt lat="43.557333499921135" lon="10.761036878616828"><ele>123.0</ele><time>2026-04-06T09:13:30.001Z</time></trkpt><trkpt lat="43.557311502940124" lon="10.76085632541351"><ele>122.0</ele><time>2026-04-06T09:13:31.001Z</time></trkpt><trkpt lat="43.557277819192464" lon="10.760685695125359"><ele>121.0</ele><time>2026-04-06T09:13:32.001Z</time></trkpt><trkpt lat="43.55724380120389" lon="10.760513371534094"><ele>120.0</ele><time>2026-04-06T09:13:33.001Z</time></trkpt><trkpt lat="43.55721002323016" lon="10.760357818573706"><ele>120.0</ele><time>2026-04-06T09:13:34.001Z</time></trkpt><trkpt lat="43.55717404143073" lon="10.760201209483183"><ele>120.0</ele><time>2026-04-06T09:13:35.001Z</time></trkpt><trkpt lat="43.55715122228572" lon="10.760031602489052"><ele>120.0</ele><time>2026-04-06T09:13:36.001Z</time></trkpt><trkpt lat="43.55711769352137" lon="10.759891275084096"><ele>120.0</ele><time>2026-04-06T09:13:37.001Z</time></trkpt><trkpt lat="43.55708896745639" lon="10.759759605466995"><ele>119.0</ele><time>2026-04-06T09:13:38.001Z</time></trkpt><trkpt lat="43.55706329431773" lon="10.759622344127097"><ele>118.0</ele><time>2026-04-06T09:13:39.001Z</time></trkpt><trkpt lat="43.5570846305042" lon="10.75948974853953"><ele>117.0</ele><time>2026-04-06T09:13:40.001Z</time></trkpt><trkpt lat="43.55718220278602" lon="10.759359159448959"><ele>116.0</ele><time>2026-04-06T09:13:42.002Z</time></trkpt><trkpt lat="43.55725452939778" lon="10.75927274238243"><ele>115.0</ele><time>2026-04-06T09:13:43.002Z</time></trkpt><trkpt lat="43.557318061226276" lon="10.759163297772588"><ele>113.8</ele><time>2026-04-06T09:13:44.002Z</time></trkpt><trkpt lat="43.557400201849454" lon="10.759089622806114"><ele>112.6</ele><time>2026-04-06T09:13:45.002Z</time></trkpt><trkpt lat="43.55746348775567" lon="10.758981353096576"><ele>111.4</ele><time>2026-04-06T09:13:46.002Z</time></trkpt><trkpt lat="43.557539124700185" lon="10.758874414185891"><ele>110.2</ele><time>2026-04-06T09:13:47.002Z</time></trkpt><trkpt lat="43.55760727473991" lon="10.75874789926844"><ele>109.0</ele><time>2026-04-06T09:13:48.002Z</time></trkpt><trkpt lat="43.557682236153546" lon="10.758586402247918"><ele>106.0</ele><time>2026-04-06T09:13:49.002Z</time></trkpt><trkpt lat="43.55775890237146" lon="10.75840164442489"><ele>103.0</ele><time>2026-04-06T09:13:50.002Z</time></trkpt><trkpt lat="43.55781374855657" lon="10.758196019082751"><ele>100.0</ele><time>2026-04-06T09:13:51.002Z</time></trkpt><trkpt lat="43.55786486101007" lon="10.757986639500595"><ele>99.33333333333334</ele><time>2026-04-06T09:13:52.002Z</time></trkpt><trkpt lat="43.55788857300681" lon="10.757736424059377"><ele>98.66666666666666</ele><time>2026-04-06T09:13:53.002Z</time></trkpt><trkpt lat="43.55791726388323" lon="10.757505687271324"><ele>98.0</ele><time>2026-04-06T09:13:54.002Z</time></trkpt><trkpt lat="43.55796809576681" lon="10.75729051221595"><ele>98.0</ele><time>2026-04-06T09:13:55.002Z</time></trkpt><trkpt lat="43.55797628298063" lon="10.757080610442816"><ele>98.0</ele><time>2026-04-06T09:13:56.002Z</time></trkpt><trkpt lat="43.55798151767727" lon="10.756885123059842"><ele>98.0</ele><time>2026-04-06T09:13:57.002Z</time></trkpt><trkpt lat="43.557962314545335" lon="10.756691153535877"><ele>98.0</ele><time>2026-04-06T09:13:58.002Z</time></trkpt><trkpt lat="43.55792958851306" lon="10.756504515857513"><ele>98.60000000000001</ele><time>2026-04-06T09:13:59.002Z</time></trkpt><trkpt lat="43.55788405999164" lon="10.756328889573329"><ele>99.2</ele><time>2026-04-06T09:14:00.002Z</time></trkpt><trkpt lat="43.55779942980538" lon="10.756220819719635"><ele>99.8</ele><time>2026-04-06T09:14:01.002Z</time></trkpt><trkpt lat="43.557785128591505" lon="10.756099811538084"><ele>100.4</ele><time>2026-04-06T09:14:02.002Z</time></trkpt><trkpt lat="43.55779935088257" lon="10.755990385695874"><ele>101.0</ele><time>2026-04-06T09:14:03.002Z</time></trkpt><trkpt lat="43.557848953423765" lon="10.755899693761869"><ele>100.0</ele><time>2026-04-06T09:14:04.002Z</time></trkpt><trkpt lat="43.557899113847505" lon="10.755779535336679"><ele>99.0</ele><time>2026-04-06T09:14:05.002Z</time></trkpt><trkpt lat="43.55796019046979" lon="10.755644226820467"><ele>98.0</ele><time>2026-04-06T09:14:06.002Z</time></trkpt><trkpt lat="43.55804208027216" lon="10.755482462737843"><ele>97.0</ele><time>2026-04-06T09:14:07.002Z</time></trkpt><trkpt lat="43.55813234741705" lon="10.755302475837093"><ele>94.66666666666667</ele><time>2026-04-06T09:14:08.002Z</time></trkpt><trkpt lat="43.55818146560838" lon="10.755115155543963"><ele>92.33333333333334</ele><time>2026-04-06T09:14:09.002Z</time></trkpt><trkpt lat="43.558237349718105" lon="10.75491526786517"><ele>90.0</ele><time>2026-04-06T09:14:10.002Z</time></trkpt><trkpt lat="43.558280363100494" lon="10.75470284220875"><ele>90.0</ele><time>2026-04-06T09:14:11.002Z</time></trkpt><trkpt lat="43.55832636488039" lon="10.754465654788202"><ele>90.0</ele><time>2026-04-06T09:14:12.002Z</time></trkpt><trkpt lat="43.55837407690825" lon="10.754219926295699"><ele>90.0</ele><time>2026-04-06T09:14:13.002Z</time></trkpt><trkpt lat="43.55842174198207" lon="10.753994826155242"><ele>87.66666666666667</ele><time>2026-04-06T09:14:14.002Z</time></trkpt><trkpt lat="43.55846336502569" lon="10.753781578896987"><ele>85.33333333333334</ele><time>2026-04-06T09:14:15.002Z</time></trkpt><trkpt lat="43.55849311731593" lon="10.753566923711102"><ele>83.0</ele><time>2026-04-06T09:14:16.002Z</time></trkpt><trkpt lat="43.55851521778492" lon="10.753350399355531"><ele>80.5</ele><time>2026-04-06T09:14:17.003Z</time></trkpt><trkpt lat="43.558533910514946" lon="10.75316171366913"><ele>78.0</ele><time>2026-04-06T09:14:18.003Z</time></trkpt><trkpt lat="43.55854973365779" lon="10.75300199357081"><ele>75.5</ele><time>2026-04-06T09:14:19.003Z</time></trkpt><trkpt lat="43.55856805171285" lon="10.752845421845949"><ele>73.0</ele><time>2026-04-06T09:14:20.003Z</time></trkpt><trkpt lat="43.55860199869895" lon="10.752681382144388"><ele>72.0</ele><time>2026-04-06T09:14:21.003Z</time></trkpt><trkpt lat="43.55864813031378" lon="10.752545431079094"><ele>71.0</ele><time>2026-04-06T09:14:22.003Z</time></trkpt><trkpt lat="43.558701303677594" lon="10.752435405732184"><ele>70.0</ele><time>2026-04-06T09:14:23.003Z</time></trkpt><trkpt lat="43.55877163486978" lon="10.752364309607506"><ele>69.0</ele><time>2026-04-06T09:14:24.003Z</time></trkpt><trkpt lat="43.55887340500351" lon="10.752327505263512"><ele>68.0</ele><time>2026-04-06T09:14:25.003Z</time></trkpt><trkpt lat="43.558978778657725" lon="10.752259676352342"><ele>67.6</ele><time>2026-04-06T09:14:26.003Z</time></trkpt><trkpt lat="43.55908296679497" lon="10.752196005147493"><ele>67.19999999999999</ele><time>2026-04-06T09:14:27.003Z</time></trkpt><trkpt lat="43.5591710725189" lon="10.752112623489802"><ele>66.8</ele><time>2026-04-06T09:14:28.003Z</time></trkpt><trkpt lat="43.55922024425269" lon="10.752041724783851"><ele>66.39999999999999</ele><time>2026-04-06T09:14:29.003Z</time></trkpt><trkpt lat="43.55922771758644" lon="10.751921568184226"><ele>66.0</ele><time>2026-04-06T09:14:30.003Z</time></trkpt><trkpt lat="43.55922422298277" lon="10.751778269595016"><ele>64.75</ele><time>2026-04-06T09:14:31.003Z</time></trkpt><trkpt lat="43.55922088415543" lon="10.751608417681602"><ele>63.5</ele><time>2026-04-06T09:14:32.003Z</time></trkpt><trkpt lat="43.559195506031266" lon="10.751454786524326"><ele>62.25</ele><time>2026-04-06T09:14:33.003Z</time></trkpt><trkpt lat="43.5591845969137" lon="10.751291717980086"><ele>61.0</ele><time>2026-04-06T09:14:34.003Z</time></trkpt><trkpt lat="43.55918211268211" lon="10.751152198841503"><ele>60.0</ele><time>2026-04-06T09:14:35.003Z</time></trkpt><trkpt lat="43.559161813594365" lon="10.751017263198172"><ele>58.99999999999999</ele><time>2026-04-06T09:14:36.003Z</time></trkpt><trkpt lat="43.55912506437663" lon="10.750906498263246"><ele>57.99999999999999</ele><time>2026-04-06T09:14:37.003Z</time></trkpt><trkpt lat="43.55905608866062" lon="10.75079758583968"><ele>57.0</ele><time>2026-04-06T09:14:38.003Z</time></trkpt><trkpt lat="43.5589848886449" lon="10.750694445533655"><ele>56.0</ele><time>2026-04-06T09:14:39.003Z</time></trkpt><trkpt lat="43.558926840193124" lon="10.750606287107884"><ele>56.00000000000001</ele><time>2026-04-06T09:14:40.003Z</time></trkpt><trkpt lat="43.55889082092969" lon="10.750535029695328"><ele>56.0</ele><time>2026-04-06T09:14:40.999Z</time></trkpt><trkpt lat="43.55887680340585" lon="10.750442233927581"><ele>56.0</ele><time>2026-04-06T09:14:43.999Z</time></trkpt><trkpt lat="43.55895224142858" lon="10.750320870986323"><ele>56.0</ele><time>2026-04-06T09:14:45.999Z</time></trkpt><trkpt lat="43.5590243400005" lon="10.750238925487073"><ele>56.00000000000001</ele><time>2026-04-06T09:14:46.999Z</time></trkpt><trkpt lat="43.55908876925307" lon="10.750147871000507"><ele>56.0</ele><time>2026-04-06T09:14:47.999Z</time></trkpt><trkpt lat="43.55915940783549" lon="10.750047966182947"><ele>54.75</ele><time>2026-04-06T09:14:48.999Z</time></trkpt><trkpt lat="43.559244907740045" lon="10.749934077904857"><ele>53.5</ele><time>2026-04-06T09:14:49.999Z</time></trkpt><trkpt lat="43.55932700678603" lon="10.749812758372268"><ele>52.25</ele><time>2026-04-06T09:14:50.999Z</time></trkpt><trkpt lat="43.559420544037344" lon="10.74964527314724"><ele>51.0</ele><time>2026-04-06T09:14:51.999Z</time></trkpt><trkpt lat="43.55964063407747" lon="10.749350205141022"><ele>51.0</ele><time>2026-04-06T09:14:53.999Z</time></trkpt><trkpt lat="43.55977015690849" lon="10.749261038414065"><ele>51.0</ele><time>2026-04-06T09:14:55Z</time></trkpt><trkpt lat="43.55990480354393" lon="10.749209956282408"><ele>51.0</ele><time>2026-04-06T09:14:56Z</time></trkpt><trkpt lat="43.56004363597017" lon="10.749173741060522"><ele>51.0</ele><time>2026-04-06T09:14:57Z</time></trkpt><trkpt lat="43.5601852862428" lon="10.749129974837487"><ele>51.0</ele><time>2026-04-06T09:14:58Z</time></trkpt><trkpt lat="43.560324099032435" lon="10.749083383121233"><ele>51.0</ele><time>2026-04-06T09:14:59Z</time></trkpt><trkpt lat="43.56046221302964" lon="10.749041901010933"><ele>51.0</ele><time>2026-04-06T09:15:00Z</time></trkpt><trkpt lat="43.56059713851143" lon="10.74899346531961"><ele>51.0</ele><time>2026-04-06T09:15:01Z</time></trkpt><trkpt lat="43.560733974476896" lon="10.748957543582906"><ele>51.25</ele><time>2026-04-06T09:15:02Z</time></trkpt><trkpt lat="43.56086282155256" lon="10.748933373808265"><ele>51.5</ele><time>2026-04-06T09:15:03Z</time></trkpt><trkpt lat="43.56098889605163" lon="10.74889368145108"><ele>51.75</ele><time>2026-04-06T09:15:04Z</time></trkpt><trkpt lat="43.56110652522476" lon="10.748860130627586"><ele>52.0</ele><time>2026-04-06T09:15:05Z</time></trkpt><trkpt lat="43.56121456397689" lon="10.74882586666702"><ele>51.5</ele><time>2026-04-06T09:15:06Z</time></trkpt><trkpt lat="43.561342265250104" lon="10.74879941042456"><ele>51.0</ele><time>2026-04-06T09:15:07Z</time></trkpt><trkpt lat="43.561485273912474" lon="10.748806426269098"><ele>50.5</ele><time>2026-04-06T09:15:08Z</time></trkpt><trkpt lat="43.56163076459504" lon="10.748839210221576"><ele>50.0</ele><time>2026-04-06T09:15:09Z</time></trkpt><trkpt lat="43.56177451226357" lon="10.748865371376482"><ele>50.0</ele><time>2026-04-06T09:15:10Z</time></trkpt><trkpt lat="43.5619202230957" lon="10.748889466267544"><ele>50.0</ele><time>2026-04-06T09:15:11Z</time></trkpt><trkpt lat="43.56206755519173" lon="10.748918274022214"><ele>50.0</ele><time>2026-04-06T09:15:12Z</time></trkpt><trkpt lat="43.56220329680094" lon="10.74895016259897"><ele>50.0</ele><time>2026-04-06T09:15:13Z</time></trkpt><trkpt lat="43.56234763295598" lon="10.748974811609358"><ele>50.5</ele><time>2026-04-06T09:15:14Z</time></trkpt><trkpt lat="43.56247952731263" lon="10.74900111083616"><ele>51.0</ele><time>2026-04-06T09:15:15Z</time></trkpt><trkpt lat="43.56260101858091" lon="10.749023804573946"><ele>51.5</ele><time>2026-04-06T09:15:16Z</time></trkpt><trkpt lat="43.562708469108564" lon="10.74901164990658"><ele>52.0</ele><time>2026-04-06T09:15:17Z</time></trkpt><trkpt lat="43.56279351629916" lon="10.749060917157896"><ele>52.0</ele><time>2026-04-06T09:15:18Z</time></trkpt><trkpt lat="43.56285498593238" lon="10.749090442376767"><ele>52.0</ele><time>2026-04-06T09:15:19Z</time></trkpt><trkpt lat="43.56295274677669" lon="10.749173891567224"><ele>52.0</ele><time>2026-04-06T09:15:21.001Z</time></trkpt><trkpt lat="43.56300266711993" lon="10.749256716365673"><ele>52.0</ele><time>2026-04-06T09:15:22.001Z</time></trkpt><trkpt lat="43.56302349842451" lon="10.749387849263023"><ele>52.0</ele><time>2026-04-06T09:15:23.001Z</time></trkpt><trkpt lat="43.563079782320834" lon="10.749538385159426"><ele>53.666666666666664</ele><time>2026-04-06T09:15:24.001Z</time></trkpt><trkpt lat="43.56312863024557" lon="10.749723759756682"><ele>55.33333333333333</ele><time>2026-04-06T09:15:25.001Z</time></trkpt><trkpt lat="43.56319066722337" lon="10.749926676165035"><ele>57.0</ele><time>2026-04-06T09:15:26.001Z</time></trkpt><trkpt lat="43.56325649447839" lon="10.750136825619714"><ele>55.66666666666667</ele><time>2026-04-06T09:15:27.001Z</time></trkpt><trkpt lat="43.563335392456544" lon="10.75037833442189"><ele>54.333333333333336</ele><time>2026-04-06T09:15:28.001Z</time></trkpt><trkpt lat="43.56342143584309" lon="10.75064190889078"><ele>53.0</ele><time>2026-04-06T09:15:29.001Z</time></trkpt><trkpt lat="43.563517815021186" lon="10.750933405610207"><ele>53.0</ele><time>2026-04-06T09:15:30.001Z</time></trkpt><trkpt lat="43.56361812236281" lon="10.751235192252906"><ele>53.0</ele><time>2026-04-06T09:15:31.001Z</time></trkpt><trkpt lat="43.563719391096036" lon="10.751534355844777"><ele>56.5</ele><time>2026-04-06T09:15:32.001Z</time></trkpt><trkpt lat="43.56382400547549" lon="10.751847998268884"><ele>60.0</ele><time>2026-04-06T09:15:33.001Z</time></trkpt><trkpt lat="43.56391883634941" lon="10.752157890063966"><ele>60.0</ele><time>2026-04-06T09:15:34.001Z</time></trkpt><trkpt lat="43.56402162382733" lon="10.75246124399583"><ele>60.0</ele><time>2026-04-06T09:15:35.001Z</time></trkpt><trkpt lat="43.56414141002023" lon="10.752764170090634"><ele>57.0</ele><time>2026-04-06T09:15:36.001Z</time></trkpt><trkpt lat="43.56427716904464" lon="10.753047307270442"><ele>54.0</ele><time>2026-04-06T09:15:37.001Z</time></trkpt><trkpt lat="43.564439447580064" lon="10.753315961791355"><ele>55.5</ele><time>2026-04-06T09:15:38.001Z</time></trkpt><trkpt lat="43.56461843150025" lon="10.75356897796451"><ele>57.0</ele><time>2026-04-06T09:15:39.001Z</time></trkpt><trkpt lat="43.56483377304213" lon="10.753797838992309"><ele>57.0</ele><time>2026-04-06T09:15:40.001Z</time></trkpt><trkpt lat="43.56507460392634" lon="10.754009460796253"><ele>57.0</ele><time>2026-04-06T09:15:41.001Z</time></trkpt><trkpt lat="43.56533739137758" lon="10.754211370961604"><ele>56.5</ele><time>2026-04-06T09:15:42.001Z</time></trkpt><trkpt lat="43.5656086855206" lon="10.754417888148643"><ele>56.0</ele><time>2026-04-06T09:15:43.001Z</time></trkpt><trkpt lat="43.56588232831626" lon="10.754647855208262"><ele>56.0</ele><time>2026-04-06T09:15:44.001Z</time></trkpt><trkpt lat="43.56616095077848" lon="10.754883701776178"><ele>56.0</ele><time>2026-04-06T09:15:45.001Z</time></trkpt><trkpt lat="43.56644836287906" lon="10.755124334459893"><ele>55.0</ele><time>2026-04-06T09:15:46.001Z</time></trkpt><trkpt lat="43.566738771755396" lon="10.755370282819808"><ele>54.0</ele><time>2026-04-06T09:15:47.001Z</time></trkpt><trkpt lat="43.567021848817845" lon="10.75561047317909"><ele>55.0</ele><time>2026-04-06T09:15:48.001Z</time></trkpt><trkpt lat="43.56729990865608" lon="10.75584350794166"><ele>56.0</ele><time>2026-04-06T09:15:49.001Z</time></trkpt><trkpt lat="43.56757385208666" lon="10.756072707823828"><ele>56.0</ele><time>2026-04-06T09:15:50.001Z</time></trkpt><trkpt lat="43.567844666071615" lon="10.756301718328647"><ele>56.0</ele><time>2026-04-06T09:15:51.002Z</time></trkpt><trkpt lat="43.568118151808946" lon="10.756532498466205"><ele>56.5</ele><time>2026-04-06T09:15:52.002Z</time></trkpt><trkpt lat="43.56839518007299" lon="10.75676600924087"><ele>57.0</ele><time>2026-04-06T09:15:53.002Z</time></trkpt><trkpt lat="43.56867361327986" lon="10.756999887359148"><ele>57.0</ele><time>2026-04-06T09:15:54.002Z</time></trkpt><trkpt lat="43.56895528215863" lon="10.757230209159392"><ele>57.0</ele><time>2026-04-06T09:15:55.002Z</time></trkpt><trkpt lat="43.569239875046975" lon="10.757468430371729"><ele>58.5</ele><time>2026-04-06T09:15:56.002Z</time></trkpt><trkpt lat="43.569527075044796" lon="10.757707133377702"><ele>60.0</ele><time>2026-04-06T09:15:57.002Z</time></trkpt><trkpt lat="43.56981543613504" lon="10.757947285859535"><ele>60.0</ele><time>2026-04-06T09:15:58.002Z</time></trkpt><trkpt lat="43.570103301773116" lon="10.758186260506879"><ele>60.0</ele><time>2026-04-06T09:15:59.002Z</time></trkpt><trkpt lat="43.57039326631426" lon="10.758426482822953"><ele>59.0</ele><time>2026-04-06T09:16:00.002Z</time></trkpt><trkpt lat="43.570683088459894" lon="10.758670203626881"><ele>58.0</ele><time>2026-04-06T09:16:01.002Z</time></trkpt><trkpt lat="43.57096845748558" lon="10.758922690394913"><ele>58.5</ele><time>2026-04-06T09:16:02.002Z</time></trkpt><trkpt lat="43.57125269185765" lon="10.759194865364934"><ele>59.0</ele><time>2026-04-06T09:16:03.002Z</time></trkpt><trkpt lat="43.57150030492607" lon="10.759512342117738"><ele>59.0</ele><time>2026-04-06T09:16:04.002Z</time></trkpt><trkpt lat="43.571746401814046" lon="10.759829239799222"><ele>59.0</ele><time>2026-04-06T09:16:05.002Z</time></trkpt><trkpt lat="43.571959388695454" lon="10.760161611762467"><ele>59.5</ele><time>2026-04-06T09:16:06.002Z</time></trkpt><trkpt lat="43.57215814908364" lon="10.760465173422553"><ele>60.0</ele><time>2026-04-06T09:16:07.002Z</time></trkpt><trkpt lat="43.572349800471734" lon="10.760746839769203"><ele>60.0</ele><time>2026-04-06T09:16:08.002Z</time></trkpt><trkpt lat="43.572527168623196" lon="10.76100355021836"><ele>60.0</ele><time>2026-04-06T09:16:09.002Z</time></trkpt><trkpt lat="43.57270456184231" lon="10.761258882994584"><ele>61.0</ele><time>2026-04-06T09:16:10.002Z</time></trkpt><trkpt lat="43.572874692191476" lon="10.761504590304687"><ele>62.0</ele><time>2026-04-06T09:16:11.002Z</time></trkpt><trkpt lat="43.5730422120287" lon="10.761744150996321"><ele>60.0</ele><time>2026-04-06T09:16:12.002Z</time></trkpt><trkpt lat="43.573207890918816" lon="10.761981022114492"><ele>58.0</ele><time>2026-04-06T09:16:13.002Z</time></trkpt><trkpt lat="43.573370925709675" lon="10.76221469145685"><ele>58.0</ele><time>2026-04-06T09:16:14.002Z</time></trkpt><trkpt lat="43.5735319483164" lon="10.762451405515263"><ele>58.0</ele><time>2026-04-06T09:16:15.002Z</time></trkpt><trkpt lat="43.57369366282092" lon="10.762690373434236"><ele>61.0</ele><time>2026-04-06T09:16:16.002Z</time></trkpt><trkpt lat="43.573857508555314" lon="10.762931143817706"><ele>64.0</ele><time>2026-04-06T09:16:17.002Z</time></trkpt><trkpt lat="43.57402119546892" lon="10.76317160484336"><ele>64.0</ele><time>2026-04-06T09:16:18.002Z</time></trkpt><trkpt lat="43.574185389980556" lon="10.763406990259114"><ele>64.0</ele><time>2026-04-06T09:16:19.002Z</time></trkpt><trkpt lat="43.57435046136921" lon="10.763647038335533"><ele>64.0</ele><time>2026-04-06T09:16:20.002Z</time></trkpt><trkpt lat="43.574516130006714" lon="10.76388627548255"><ele>64.0</ele><time>2026-04-06T09:16:21.002Z</time></trkpt><trkpt lat="43.57468497971685" lon="10.764126513103879"><ele>62.0</ele><time>2026-04-06T09:16:22.002Z</time></trkpt><trkpt lat="43.574858976624995" lon="10.76436368845228"><ele>60.0</ele><time>2026-04-06T09:16:23.002Z</time></trkpt><trkpt lat="43.57504010741934" lon="10.76460045601853"><ele>60.0</ele><time>2026-04-06T09:16:24.003Z</time></trkpt><trkpt lat="43.575224244110046" lon="10.764835892454128"><ele>60.0</ele><time>2026-04-06T09:16:25.003Z</time></trkpt><trkpt lat="43.57541204826453" lon="10.765074729752493"><ele>60.0</ele><time>2026-04-06T09:16:26.003Z</time></trkpt><trkpt lat="43.575600359399495" lon="10.765319034515132"><ele>60.0</ele><time>2026-04-06T09:16:27.003Z</time></trkpt><trkpt lat="43.575788686219774" lon="10.765560477234864"><ele>60.0</ele><time>2026-04-06T09:16:28.003Z</time></trkpt><trkpt lat="43.57597669184554" lon="10.76580180449021"><ele>60.0</ele><time>2026-04-06T09:16:29.003Z</time></trkpt><trkpt lat="43.57616597208552" lon="10.766041815742277"><ele>60.0</ele><time>2026-04-06T09:16:30.003Z</time></trkpt><trkpt lat="43.576350891762914" lon="10.766278953886935"><ele>60.0</ele><time>2026-04-06T09:16:31.003Z</time></trkpt><trkpt lat="43.57653795672227" lon="10.766523699687625"><ele>60.0</ele><time>2026-04-06T09:16:32.003Z</time></trkpt><trkpt lat="43.57672750108702" lon="10.766765515787522"><ele>60.0</ele><time>2026-04-06T09:16:33.003Z</time></trkpt><trkpt lat="43.57692027784812" lon="10.767007978221043"><ele>61.5</ele><time>2026-04-06T09:16:34.003Z</time></trkpt><trkpt lat="43.577111191220396" lon="10.767253085031143"><ele>63.0</ele><time>2026-04-06T09:16:35.003Z</time></trkpt><trkpt lat="43.57730489509438" lon="10.767501002447705"><ele>63.0</ele><time>2026-04-06T09:16:36.003Z</time></trkpt><trkpt lat="43.57749575277188" lon="10.76774376802428"><ele>63.0</ele><time>2026-04-06T09:16:37.003Z</time></trkpt><trkpt lat="43.57768189431986" lon="10.767985259054607"><ele>62.5</ele><time>2026-04-06T09:16:38.003Z</time></trkpt><trkpt lat="43.577853555813746" lon="10.768240210450005"><ele>62.0</ele><time>2026-04-06T09:16:39.003Z</time></trkpt><trkpt lat="43.57800535478922" lon="10.768523395852828"><ele>62.5</ele><time>2026-04-06T09:16:40.003Z</time></trkpt><trkpt lat="43.578146870767455" lon="10.76882949929314"><ele>63.0</ele><time>2026-04-06T09:16:41.003Z</time></trkpt><trkpt lat="43.578291399228696" lon="10.769168163175628"><ele>62.0</ele><time>2026-04-06T09:16:42.003Z</time></trkpt><trkpt lat="43.578439779058996" lon="10.769506149643874"><ele>61.0</ele><time>2026-04-06T09:16:43.003Z</time></trkpt><trkpt lat="43.57859374728544" lon="10.769859566184103"><ele>62.0</ele><time>2026-04-06T09:16:44.003Z</time></trkpt><trkpt lat="43.57875054995285" lon="10.770199563373108"><ele>63.0</ele><time>2026-04-06T09:16:45.003Z</time></trkpt><trkpt lat="43.57890902427216" lon="10.770543975753364"><ele>63.0</ele><time>2026-04-06T09:16:46.003Z</time></trkpt><trkpt lat="43.579061397198664" lon="10.770877405558858"><ele>63.0</ele><time>2026-04-06T09:16:46.999Z</time></trkpt><trkpt lat="43.57921459034965" lon="10.771210657385502"><ele>63.0</ele><time>2026-04-06T09:16:47.999Z</time></trkpt><trkpt lat="43.579368116874804" lon="10.771547651479853"><ele>63.0</ele><time>2026-04-06T09:16:48.999Z</time></trkpt><trkpt lat="43.57951783209845" lon="10.77187722414733"><ele>65.0</ele><time>2026-04-06T09:16:49.999Z</time></trkpt><trkpt lat="43.5796721708481" lon="10.77220899496391"><ele>67.0</ele><time>2026-04-06T09:16:50.999Z</time></trkpt><trkpt lat="43.57982052266662" lon="10.772533799086725"><ele>65.0</ele><time>2026-04-06T09:16:51.999Z</time></trkpt><trkpt lat="43.57997749580279" lon="10.772858927832182"><ele>63.0</ele><time>2026-04-06T09:16:52.999Z</time></trkpt><trkpt lat="43.58013701263773" lon="10.773183924635724"><ele>63.0</ele><time>2026-04-06T09:16:53.999Z</time></trkpt><trkpt lat="43.58029756637161" lon="10.773501340736635"><ele>63.0</ele><time>2026-04-06T09:16:54.999Z</time></trkpt><trkpt lat="43.58045518074964" lon="10.773827761974342"><ele>63.0</ele><time>2026-04-06T09:16:55.999Z</time></trkpt><trkpt lat="43.580621631187995" lon="10.77415843207154"><ele>63.0</ele><time>2026-04-06T09:16:56.999Z</time></trkpt><trkpt lat="43.580784220965676" lon="10.774487043588419"><ele>63.0</ele><time>2026-04-06T09:16:57.999Z</time></trkpt><trkpt lat="43.580942089384" lon="10.774810474291948"><ele>63.0</ele><time>2026-04-06T09:16:59Z</time></trkpt><trkpt lat="43.58110428245106" lon="10.775145481783369"><ele>65.0</ele><time>2026-04-06T09:17:00Z</time></trkpt><trkpt lat="43.581266916422706" lon="10.775483782071676"><ele>67.0</ele><time>2026-04-06T09:17:01Z</time></trkpt><trkpt lat="43.58143205441988" lon="10.775820030880505"><ele>65.5</ele><time>2026-04-06T09:17:02Z</time></trkpt><trkpt lat="43.5816042006725" lon="10.776153396687237"><ele>64.0</ele><time>2026-04-06T09:17:03Z</time></trkpt><trkpt lat="43.58177584881105" lon="10.776489183031781"><ele>64.0</ele><time>2026-04-06T09:17:04Z</time></trkpt><trkpt lat="43.58193699430797" lon="10.776830346654513"><ele>64.0</ele><time>2026-04-06T09:17:05Z</time></trkpt><trkpt lat="43.58208847183401" lon="10.7771781912937"><ele>63.0</ele><time>2026-04-06T09:17:06Z</time></trkpt><trkpt lat="43.58223743974441" lon="10.777520410363238"><ele>62.0</ele><time>2026-04-06T09:17:07Z</time></trkpt><trkpt lat="43.58238632472878" lon="10.777881432861214"><ele>61.5</ele><time>2026-04-06T09:17:08Z</time></trkpt><trkpt lat="43.582534823779774" lon="10.778230279938898"><ele>61.0</ele><time>2026-04-06T09:17:09Z</time></trkpt><trkpt lat="43.5826805802064" lon="10.778577588433405"><ele>62.0</ele><time>2026-04-06T09:17:10Z</time></trkpt><trkpt lat="43.5828265089554" lon="10.778920964691604"><ele>63.0</ele><time>2026-04-06T09:17:11Z</time></trkpt><trkpt lat="43.582971205088405" lon="10.779262718020062"><ele>63.5</ele><time>2026-04-06T09:17:12Z</time></trkpt><trkpt lat="43.583119858882775" lon="10.779607774705214"><ele>64.0</ele><time>2026-04-06T09:17:13Z</time></trkpt><trkpt lat="43.5832574385645" lon="10.779947474543631"><ele>63.5</ele><time>2026-04-06T09:17:14Z</time></trkpt><trkpt lat="43.58339849694966" lon="10.780286118207213"><ele>63.0</ele><time>2026-04-06T09:17:15Z</time></trkpt><trkpt lat="43.58353526240499" lon="10.78062127305173"><ele>63.0</ele><time>2026-04-06T09:17:16Z</time></trkpt><trkpt lat="43.583672141617754" lon="10.780953183378834"><ele>63.0</ele><time>2026-04-06T09:17:17Z</time></trkpt><trkpt lat="43.58380087671668" lon="10.781266180295914"><ele>64.5</ele><time>2026-04-06T09:17:18Z</time></trkpt><trkpt lat="43.5839169083602" lon="10.781558140214418"><ele>66.0</ele><time>2026-04-06T09:17:19Z</time></trkpt><trkpt lat="43.584016228824844" lon="10.781844573776617"><ele>66.5</ele><time>2026-04-06T09:17:20Z</time></trkpt><trkpt lat="43.58409137160204" lon="10.782148880312237"><ele>67.0</ele><time>2026-04-06T09:17:21.001Z</time></trkpt><trkpt lat="43.58410759571925" lon="10.782467006490236"><ele>66.5</ele><time>2026-04-06T09:17:22.001Z</time></trkpt><trkpt lat="43.58405642967976" lon="10.782809250613068"><ele>66.0</ele><time>2026-04-06T09:17:23.001Z</time></trkpt><trkpt lat="43.5839942830356" lon="10.783177378608107"><ele>66.0</ele><time>2026-04-06T09:17:24.001Z</time></trkpt><trkpt lat="43.5839437315415" lon="10.783554620447276"><ele>66.0</ele><time>2026-04-06T09:17:25.001Z</time></trkpt><trkpt lat="43.5839036031936" lon="10.783929971703335"><ele>66.0</ele><time>2026-04-06T09:17:26.001Z</time></trkpt><trkpt lat="43.58386536765509" lon="10.78430015874187"><ele>66.0</ele><time>2026-04-06T09:17:27.001Z</time></trkpt><trkpt lat="43.583824323562915" lon="10.784668873399376"><ele>66.0</ele><time>2026-04-06T09:17:28.001Z</time></trkpt><trkpt lat="43.58378259379984" lon="10.785040715699838"><ele>66.0</ele><time>2026-04-06T09:17:29.001Z</time></trkpt><trkpt lat="43.58373981234278" lon="10.785417436444396"><ele>66.0</ele><time>2026-04-06T09:17:30.001Z</time></trkpt><trkpt lat="43.583697460882235" lon="10.785790803202573"><ele>66.0</ele><time>2026-04-06T09:17:31.001Z</time></trkpt><trkpt lat="43.58365428782934" lon="10.786163341248328"><ele>66.0</ele><time>2026-04-06T09:17:32.001Z</time></trkpt><trkpt lat="43.583609754965195" lon="10.786534829699562"><ele>66.0</ele><time>2026-04-06T09:17:33.001Z</time></trkpt><trkpt lat="43.583564226681055" lon="10.786908171289474"><ele>66.5</ele><time>2026-04-06T09:17:34.001Z</time></trkpt><trkpt lat="43.583520775662585" lon="10.787276170147774"><ele>67.0</ele><time>2026-04-06T09:17:35.001Z</time></trkpt><trkpt lat="43.58348400967047" lon="10.787639831890868"><ele>67.0</ele><time>2026-04-06T09:17:36.001Z</time></trkpt><trkpt lat="43.58344768638107" lon="10.787999039635432"><ele>67.0</ele><time>2026-04-06T09:17:37.001Z</time></trkpt><trkpt lat="43.58340633942653" lon="10.788358843839678"><ele>67.5</ele><time>2026-04-06T09:17:38.001Z</time></trkpt><trkpt lat="43.583364125578434" lon="10.788717620880016"><ele>68.0</ele><time>2026-04-06T09:17:39.001Z</time></trkpt><trkpt lat="43.583329436826055" lon="10.789079254033055"><ele>69.5</ele><time>2026-04-06T09:17:40.001Z</time></trkpt><trkpt lat="43.58328718572592" lon="10.789437359419168"><ele>71.0</ele><time>2026-04-06T09:17:41.001Z</time></trkpt><trkpt lat="43.583228545707804" lon="10.789790721827424"><ele>71.0</ele><time>2026-04-06T09:17:42.001Z</time></trkpt><trkpt lat="43.58314008387288" lon="10.790134083608907"><ele>71.0</ele><time>2026-04-06T09:17:43.001Z</time></trkpt><trkpt lat="43.583037282454235" lon="10.790472009195907"><ele>71.0</ele><time>2026-04-06T09:17:44.001Z</time></trkpt><trkpt lat="43.58293601754962" lon="10.790809516143137"><ele>71.0</ele><time>2026-04-06T09:17:45.001Z</time></trkpt><trkpt lat="43.58284256347074" lon="10.791146240224327"><ele>71.0</ele><time>2026-04-06T09:17:46.001Z</time></trkpt><trkpt lat="43.582755942684976" lon="10.791464589701118"><ele>71.0</ele><time>2026-04-06T09:17:47.001Z</time></trkpt><trkpt lat="43.58267656533306" lon="10.791756624915644"><ele>71.66666666666667</ele><time>2026-04-06T09:17:48.001Z</time></trkpt><trkpt lat="43.58259341519345" lon="10.792048434381924"><ele>72.33333333333333</ele><time>2026-04-06T09:17:49.001Z</time></trkpt><trkpt lat="43.582512250023406" lon="10.792330359241777"><ele>73.0</ele><time>2026-04-06T09:17:50.002Z</time></trkpt><trkpt lat="43.582430804544344" lon="10.792612437784808"><ele>72.66666666666666</ele><time>2026-04-06T09:17:51.002Z</time></trkpt><trkpt lat="43.582353561252326" lon="10.79288954687645"><ele>72.33333333333333</ele><time>2026-04-06T09:17:52.002Z</time></trkpt><trkpt lat="43.58228534993239" lon="10.793149325050347"><ele>72.0</ele><time>2026-04-06T09:17:53.002Z</time></trkpt><trkpt lat="43.58221909702065" lon="10.793395873333294"><ele>72.66666666666667</ele><time>2026-04-06T09:17:54.002Z</time></trkpt><trkpt lat="43.58215381037442" lon="10.793636325486945"><ele>73.33333333333334</ele><time>2026-04-06T09:17:55.002Z</time></trkpt><trkpt lat="43.58208870815288" lon="10.793868068227452"><ele>74.0</ele><time>2026-04-06T09:17:56.002Z</time></trkpt><trkpt lat="43.582027397410485" lon="10.79409328755153"><ele>74.0</ele><time>2026-04-06T09:17:57.002Z</time></trkpt><trkpt lat="43.5819592672365" lon="10.794303268430031"><ele>74.0</ele><time>2026-04-06T09:17:58.002Z</time></trkpt><trkpt lat="43.581866199032895" lon="10.794500350791536"><ele>74.0</ele><time>2026-04-06T09:17:59.002Z</time></trkpt><trkpt lat="43.58173886828908" lon="10.794685218189107"><ele>74.0</ele><time>2026-04-06T09:18:00.002Z</time></trkpt><trkpt lat="43.5815888036684" lon="10.794845579278178"><ele>74.0</ele><time>2026-04-06T09:18:01.002Z</time></trkpt><trkpt lat="43.581430270222256" lon="10.79500277759787"><ele>74.0</ele><time>2026-04-06T09:18:02.002Z</time></trkpt><trkpt lat="43.58127908910378" lon="10.79515264983931"><ele>74.0</ele><time>2026-04-06T09:18:03.002Z</time></trkpt><trkpt lat="43.581136680214286" lon="10.795296397637463"><ele>74.0</ele><time>2026-04-06T09:18:04.002Z</time></trkpt><trkpt lat="43.580991589406" lon="10.79544495615866"><ele>74.0</ele><time>2026-04-06T09:18:05.002Z</time></trkpt><trkpt lat="43.58084323645215" lon="10.795595136882303"><ele>74.0</ele><time>2026-04-06T09:18:06.002Z</time></trkpt><trkpt lat="43.58069766977372" lon="10.795741049625187"><ele>74.0</ele><time>2026-04-06T09:18:07.002Z</time></trkpt><trkpt lat="43.58055869815682" lon="10.79588693974266"><ele>74.0</ele><time>2026-04-06T09:18:08.002Z</time></trkpt><trkpt lat="43.58042169639195" lon="10.79605131610539"><ele>75.0</ele><time>2026-04-06T09:18:09.002Z</time></trkpt><trkpt lat="43.580287656895926" lon="10.7962317292948"><ele>76.0</ele><time>2026-04-06T09:18:10.002Z</time></trkpt><trkpt lat="43.580161828439806" lon="10.796415582993756"><ele>77.0</ele><time>2026-04-06T09:18:11.002Z</time></trkpt><trkpt lat="43.58003681746236" lon="10.796615822144092"><ele>77.0</ele><time>2026-04-06T09:18:12.002Z</time></trkpt><trkpt lat="43.579909437261044" lon="10.796822589803499"><ele>77.0</ele><time>2026-04-06T09:18:13.002Z</time></trkpt><trkpt lat="43.579782599483245" lon="10.797018616880088"><ele>77.0</ele><time>2026-04-06T09:18:14.002Z</time></trkpt><trkpt lat="43.5796606935827" lon="10.797212933669975"><ele>77.0</ele><time>2026-04-06T09:18:15.002Z</time></trkpt><trkpt lat="43.579542672184786" lon="10.797408195045495"><ele>77.0</ele><time>2026-04-06T09:18:16.002Z</time></trkpt><trkpt lat="43.579426735722635" lon="10.797602761548239"><ele>77.0</ele><time>2026-04-06T09:18:17.002Z</time></trkpt><trkpt lat="43.57931954677723" lon="10.797784586289408"><ele>77.0</ele><time>2026-04-06T09:18:18.002Z</time></trkpt><trkpt lat="43.57922008253257" lon="10.797954630865238"><ele>77.0</ele><time>2026-04-06T09:18:19.002Z</time></trkpt><trkpt lat="43.5791414931204" lon="10.798132649551492"><ele>77.0</ele><time>2026-04-06T09:18:20.002Z</time></trkpt><trkpt lat="43.57908138465617" lon="10.798355138977648"><ele>78.0</ele><time>2026-04-06T09:18:21.002Z</time></trkpt><trkpt lat="43.57904180876545" lon="10.798579327757317"><ele>79.0</ele><time>2026-04-06T09:18:22.002Z</time></trkpt><trkpt lat="43.57899652562991" lon="10.798812686660332"><ele>80.0</ele><time>2026-04-06T09:18:23.003Z</time></trkpt><trkpt lat="43.578947647684224" lon="10.79902996555028"><ele>80.0</ele><time>2026-04-06T09:18:24.003Z</time></trkpt><trkpt lat="43.578903315123775" lon="10.79924938117357"><ele>80.0</ele><time>2026-04-06T09:18:25.003Z</time></trkpt><trkpt lat="43.57885551318127" lon="10.799471390856741"><ele>80.0</ele><time>2026-04-06T09:18:26.003Z</time></trkpt><trkpt lat="43.57880832526217" lon="10.799700383600824"><ele>80.0</ele><time>2026-04-06T09:18:27.003Z</time></trkpt><trkpt lat="43.57875936184879" lon="10.799927356065943"><ele>80.0</ele><time>2026-04-06T09:18:28.003Z</time></trkpt><trkpt lat="43.578705725068275" lon="10.800151428214711"><ele>80.0</ele><time>2026-04-06T09:18:29.003Z</time></trkpt><trkpt lat="43.57863921018811" lon="10.80036515541196"><ele>79.66666666666667</ele><time>2026-04-06T09:18:30.003Z</time></trkpt><trkpt lat="43.578556828326626" lon="10.800575077923721"><ele>79.33333333333333</ele><time>2026-04-06T09:18:31.003Z</time></trkpt><trkpt lat="43.57846083882356" lon="10.800793847249212"><ele>79.0</ele><time>2026-04-06T09:18:32.003Z</time></trkpt><trkpt lat="43.57835474661598" lon="10.801032473024037"><ele>80.33333333333333</ele><time>2026-04-06T09:18:33.003Z</time></trkpt><trkpt lat="43.57825582195102" lon="10.801258240965375"><ele>81.66666666666667</ele><time>2026-04-06T09:18:34.003Z</time></trkpt><trkpt lat="43.578164390693104" lon="10.801480038448862"><ele>83.0</ele><time>2026-04-06T09:18:35.003Z</time></trkpt><trkpt lat="43.578069713116676" lon="10.801735191380855"><ele>85.5</ele><time>2026-04-06T09:18:36.003Z</time></trkpt><trkpt lat="43.57794585310733" lon="10.802002050302914"><ele>88.0</ele><time>2026-04-06T09:18:37.003Z</time></trkpt><trkpt lat="43.57780360393328" lon="10.802278000278719"><ele>87.0</ele><time>2026-04-06T09:18:38.003Z</time></trkpt><trkpt lat="43.57767585307266" lon="10.802564556580524"><ele>86.0</ele><time>2026-04-06T09:18:39.003Z</time></trkpt><trkpt lat="43.57756115524344" lon="10.802839988597976"><ele>86.0</ele><time>2026-04-06T09:18:40.003Z</time></trkpt><trkpt lat="43.57745049962209" lon="10.803082983537626"><ele>86.0</ele><time>2026-04-06T09:18:41.003Z</time></trkpt><trkpt lat="43.5773474524738" lon="10.803310279903668"><ele>86.0</ele><time>2026-04-06T09:18:42.003Z</time></trkpt><trkpt lat="43.577260616479414" lon="10.803530708732257"><ele>86.66666666666667</ele><time>2026-04-06T09:18:43.003Z</time></trkpt><trkpt lat="43.577203999406855" lon="10.803774745345045"><ele>87.33333333333333</ele><time>2026-04-06T09:18:44.003Z</time></trkpt><trkpt lat="43.57719471385426" lon="10.804040720164567"><ele>88.0</ele><time>2026-04-06T09:18:45.003Z</time></trkpt><trkpt lat="43.577251258082335" lon="10.80433798013958"><ele>88.0</ele><time>2026-04-06T09:18:46.003Z</time></trkpt><trkpt lat="43.577287387642315" lon="10.804635328607894"><ele>88.0</ele><time>2026-04-06T09:18:47.003Z</time></trkpt><trkpt lat="43.57732276802865" lon="10.804930784310656"><ele>88.0</ele><time>2026-04-06T09:18:48.003Z</time></trkpt><trkpt lat="43.577358780983865" lon="10.805221634451195"><ele>87.0</ele><time>2026-04-06T09:18:49.003Z</time></trkpt><trkpt lat="43.57739017384656" lon="10.805513148102094"><ele>86.0</ele><time>2026-04-06T09:18:50.003Z</time></trkpt><trkpt lat="43.57741918975387" lon="10.805805793416267"><ele>85.0</ele><time>2026-04-06T09:18:51.003Z</time></trkpt><trkpt lat="43.57744996847025" lon="10.806091040378513"><ele>83.66666666666666</ele><time>2026-04-06T09:18:52.003Z</time></trkpt><trkpt lat="43.5774820159898" lon="10.806379460774076"><ele>82.33333333333333</ele><time>2026-04-06T09:18:53Z</time></trkpt><trkpt lat="43.577504838073494" lon="10.80665256401034"><ele>81.0</ele><time>2026-04-06T09:18:54Z</time></trkpt><trkpt lat="43.577514709600656" lon="10.80691647259826"><ele>80.0</ele><time>2026-04-06T09:18:55Z</time></trkpt><trkpt lat="43.57750700891565" lon="10.807172762365605"><ele>79.0</ele><time>2026-04-06T09:18:56Z</time></trkpt><trkpt lat="43.57747622272476" lon="10.807415725622556"><ele>78.0</ele><time>2026-04-06T09:18:57Z</time></trkpt><trkpt lat="43.577431077204636" lon="10.807633873128314"><ele>77.75</ele><time>2026-04-06T09:18:58Z</time></trkpt><trkpt lat="43.57738372862676" lon="10.807811974054244"><ele>77.5</ele><time>2026-04-06T09:18:59Z</time></trkpt><trkpt lat="43.57733851573055" lon="10.807960486965003"><ele>77.25</ele><time>2026-04-06T09:19:00Z</time></trkpt><trkpt lat="43.57731044254678" lon="10.808102563238617"><ele>77.0</ele><time>2026-04-06T09:19:01Z</time></trkpt><trkpt lat="43.577254399800566" lon="10.808494878711306"><ele>76.8</ele><time>2026-04-06T09:19:02Z</time></trkpt><trkpt lat="43.57721138644504" lon="10.808677950583675"><ele>76.6</ele><time>2026-04-06T09:19:03Z</time></trkpt><trkpt lat="43.57717159623298" lon="10.808841730707988"><ele>76.39999999999999</ele><time>2026-04-06T09:19:04Z</time></trkpt><trkpt lat="43.57714112607864" lon="10.808964557563316"><ele>76.2</ele><time>2026-04-06T09:19:05Z</time></trkpt><trkpt lat="43.577118262355235" lon="10.809047275624481"><ele>76.0</ele><time>2026-04-06T09:19:06Z</time></trkpt><trkpt lat="43.577148319567044" lon="10.80916014963759"><ele>76.0</ele><time>2026-04-06T09:19:08Z</time></trkpt><trkpt lat="43.57726134982066" lon="10.809210520547737"><ele>76.0</ele><time>2026-04-06T09:19:10Z</time></trkpt><trkpt lat="43.57733562492106" lon="10.809218595286215"><ele>76.0</ele><time>2026-04-06T09:19:11Z</time></trkpt><trkpt lat="43.57743379092731" lon="10.80923083552432"><ele>76.0</ele><time>2026-04-06T09:19:12Z</time></trkpt><trkpt lat="43.577541722563865" lon="10.809247751872"><ele>76.0</ele><time>2026-04-06T09:19:13Z</time></trkpt><trkpt lat="43.577654909660666" lon="10.809263165793833"><ele>76.0</ele><time>2026-04-06T09:19:14Z</time></trkpt><trkpt lat="43.57778104655273" lon="10.80927257239135"><ele>76.0</ele><time>2026-04-06T09:19:15Z</time></trkpt><trkpt lat="43.577903555995746" lon="10.809297394531844"><ele>76.0</ele><time>2026-04-06T09:19:16Z</time></trkpt><trkpt lat="43.57803331515127" lon="10.80933652908464"><ele>76.0</ele><time>2026-04-06T09:19:17Z</time></trkpt><trkpt lat="43.57816013870954" lon="10.809382416496227"><ele>78.25</ele><time>2026-04-06T09:19:18Z</time></trkpt><trkpt lat="43.57828831811086" lon="10.809428654980087"><ele>80.5</ele><time>2026-04-06T09:19:19Z</time></trkpt><trkpt lat="43.578410380049256" lon="10.809463969714674"><ele>82.75</ele><time>2026-04-06T09:19:20Z</time></trkpt><trkpt lat="43.578530422270504" lon="10.809506334508404"><ele>85.0</ele><time>2026-04-06T09:19:21Z</time></trkpt><trkpt lat="43.578648387361255" lon="10.809564584826594"><ele>85.0</ele><time>2026-04-06T09:19:22.001Z</time></trkpt><trkpt lat="43.57876107925777" lon="10.80964737867061"><ele>85.0</ele><time>2026-04-06T09:19:23.001Z</time></trkpt><trkpt lat="43.578870676116864" lon="10.809748318173147"><ele>85.0</ele><time>2026-04-06T09:19:24.001Z</time></trkpt><trkpt lat="43.57896923724034" lon="10.809882765614086"><ele>85.0</ele><time>2026-04-06T09:19:25.001Z</time></trkpt><trkpt lat="43.57906480597936" lon="10.810017656776878"><ele>85.0</ele><time>2026-04-06T09:19:26.001Z</time></trkpt><trkpt lat="43.579146736876844" lon="10.810127922941453"><ele>85.0</ele><time>2026-04-06T09:19:27.001Z</time></trkpt><trkpt lat="43.57923258045805" lon="10.810212663216332"><ele>85.0</ele><time>2026-04-06T09:19:28.001Z</time></trkpt><trkpt lat="43.57934377123868" lon="10.810292213806909"><ele>85.0</ele><time>2026-04-06T09:19:29.001Z</time></trkpt><trkpt lat="43.579455411668846" lon="10.810346191781612"><ele>86.2</ele><time>2026-04-06T09:19:30.001Z</time></trkpt><trkpt lat="43.57955636056706" lon="10.810373426075946"><ele>87.4</ele><time>2026-04-06T09:19:31.001Z</time></trkpt><trkpt lat="43.57965181357813" lon="10.810385235343862"><ele>88.6</ele><time>2026-04-06T09:19:32.001Z</time></trkpt><trkpt lat="43.57974091590523" lon="10.810364201363415"><ele>89.8</ele><time>2026-04-06T09:19:33.001Z</time></trkpt><trkpt lat="43.57982247213392" lon="10.810306774138647"><ele>91.0</ele><time>2026-04-06T09:19:34.001Z</time></trkpt><trkpt lat="43.57989895343229" lon="10.81020929147942"><ele>90.8</ele><time>2026-04-06T09:19:35.001Z</time></trkpt><trkpt lat="43.579965709086736" lon="10.810109249379503"><ele>90.6</ele><time>2026-04-06T09:19:36.001Z</time></trkpt><trkpt lat="43.58002530671504" lon="10.809961417170168"><ele>90.4</ele><time>2026-04-06T09:19:37.001Z</time></trkpt><trkpt lat="43.580095246701724" lon="10.809838652919762"><ele>90.2</ele><time>2026-04-06T09:19:38.001Z</time></trkpt><trkpt lat="43.58017547374878" lon="10.809745431396315"><ele>90.0</ele><time>2026-04-06T09:19:39.001Z</time></trkpt><trkpt lat="43.58026505908093" lon="10.809662156021625"><ele>93.4</ele><time>2026-04-06T09:19:40.001Z</time></trkpt><trkpt lat="43.58036109993539" lon="10.809586527637546"><ele>96.8</ele><time>2026-04-06T09:19:41.001Z</time></trkpt><trkpt lat="43.58046076156856" lon="10.809510325001119"><ele>100.19999999999999</ele><time>2026-04-06T09:19:42.001Z</time></trkpt><trkpt lat="43.58055851490854" lon="10.809441708643293"><ele>103.6</ele><time>2026-04-06T09:19:43.001Z</time></trkpt><trkpt lat="43.58063763105458" lon="10.809397560880319"><ele>107.0</ele><time>2026-04-06T09:19:44.001Z</time></trkpt><trkpt lat="43.58070362458391" lon="10.809391330551488"><ele>107.0</ele><time>2026-04-06T09:19:45.001Z</time></trkpt><trkpt lat="43.580784766991535" lon="10.809419440819783"><ele>106.99999999999999</ele><time>2026-04-06T09:19:47.001Z</time></trkpt><trkpt lat="43.58083591577306" lon="10.809528032763493"><ele>106.99999999999999</ele><time>2026-04-06T09:19:49.001Z</time></trkpt><trkpt lat="43.58080858405749" lon="10.809691018319498"><ele>107.0</ele><time>2026-04-06T09:19:51.001Z</time></trkpt><trkpt lat="43.58077348325504" lon="10.809782974710878"><ele>107.0</ele><time>2026-04-06T09:19:52.001Z</time></trkpt><trkpt lat="43.580729700874386" lon="10.80987099945693"><ele>107.0</ele><time>2026-04-06T09:19:53.001Z</time></trkpt><trkpt lat="43.58068506940431" lon="10.809967602271167"><ele>106.99999999999999</ele><time>2026-04-06T09:19:54.001Z</time></trkpt><trkpt lat="43.58065916970099" lon="10.810057512656389"><ele>106.99999999999999</ele><time>2026-04-06T09:19:55.001Z</time></trkpt><trkpt lat="43.58064741425957" lon="10.810231536564109"><ele>107.0</ele><time>2026-04-06T09:19:57.001Z</time></trkpt><trkpt lat="43.58069794101105" lon="10.810387027554327"><ele>107.0</ele><time>2026-04-06T09:19:59.001Z</time></trkpt><trkpt lat="43.58080650483323" lon="10.810485333892345"><ele>107.33333333333333</ele><time>2026-04-06T09:20:01.001Z</time></trkpt><trkpt lat="43.58087098846384" lon="10.81051226721965"><ele>107.66666666666666</ele><time>2026-04-06T09:20:02.002Z</time></trkpt><trkpt lat="43.58094566553259" lon="10.810522244744506"><ele>108.0</ele><time>2026-04-06T09:20:03.002Z</time></trkpt><trkpt lat="43.58102308766001" lon="10.810524367994855"><ele>108.33333333333334</ele><time>2026-04-06T09:20:04.002Z</time></trkpt><trkpt lat="43.581108870974894" lon="10.81050952515023"><ele>108.66666666666667</ele><time>2026-04-06T09:20:05.002Z</time></trkpt><trkpt lat="43.58119748089292" lon="10.810485243123141"><ele>109.0</ele><time>2026-04-06T09:20:06.002Z</time></trkpt><trkpt lat="43.581295239172675" lon="10.81044848176262"><ele>112.80000000000001</ele><time>2026-04-06T09:20:07.002Z</time></trkpt><trkpt lat="43.58139027340816" lon="10.81040668778721"><ele>116.60000000000001</ele><time>2026-04-06T09:20:08.002Z</time></trkpt><trkpt lat="43.58148818351247" lon="10.810380453042367"><ele>120.4</ele><time>2026-04-06T09:20:09.002Z</time></trkpt><trkpt lat="43.58157887697528" lon="10.810359305731637"><ele>124.2</ele><time>2026-04-06T09:20:10.002Z</time></trkpt><trkpt lat="43.58167637602192" lon="10.810344104215261"><ele>128.0</ele><time>2026-04-06T09:20:11.002Z</time></trkpt><trkpt lat="43.581778011606715" lon="10.810343102588229"><ele>128.0</ele><time>2026-04-06T09:20:12.002Z</time></trkpt><trkpt lat="43.58189456734648" lon="10.810354386757174"><ele>128.0</ele><time>2026-04-06T09:20:13.002Z</time></trkpt><trkpt lat="43.58202154471051" lon="10.810376983812638"><ele>128.0</ele><time>2026-04-06T09:20:14.002Z</time></trkpt><trkpt lat="43.5821453243089" lon="10.810398599410071"><ele>128.0</ele><time>2026-04-06T09:20:15.002Z</time></trkpt><trkpt lat="43.582247548665315" lon="10.81042154247831"><ele>130.8</ele><time>2026-04-06T09:20:16.002Z</time></trkpt><trkpt lat="43.58234837762926" lon="10.810454551694404"><ele>133.60000000000002</ele><time>2026-04-06T09:20:17.002Z</time></trkpt><trkpt lat="43.582440336980085" lon="10.810489551617652"><ele>136.39999999999998</ele><time>2026-04-06T09:20:18.002Z</time></trkpt><trkpt lat="43.58253030929905" lon="10.81053762704134"><ele>139.2</ele><time>2026-04-06T09:20:19.002Z</time></trkpt><trkpt lat="43.58260870278254" lon="10.810612530834588"><ele>142.0</ele><time>2026-04-06T09:20:20.002Z</time></trkpt><trkpt lat="43.58267671782138" lon="10.810708856219339"><ele>142.0</ele><time>2026-04-06T09:20:21.002Z</time></trkpt><trkpt lat="43.58274085438421" lon="10.810818667776847"><ele>142.0</ele><time>2026-04-06T09:20:22.002Z</time></trkpt><trkpt lat="43.58281829892392" lon="10.810941639400802"><ele>142.0</ele><time>2026-04-06T09:20:23.002Z</time></trkpt><trkpt lat="43.58288996622248" lon="10.811061278924564"><ele>142.0</ele><time>2026-04-06T09:20:24.002Z</time></trkpt><trkpt lat="43.5829640666538" lon="10.811174996478222"><ele>142.0</ele><time>2026-04-06T09:20:25.002Z</time></trkpt><trkpt lat="43.58303816382067" lon="10.811289972204822"><ele>144.83333333333334</ele><time>2026-04-06T09:20:26.002Z</time></trkpt><trkpt lat="43.58310758980335" lon="10.81140115320007"><ele>147.66666666666669</ele><time>2026-04-06T09:20:27.002Z</time></trkpt><trkpt lat="43.58316675765313" lon="10.811492524144558"><ele>150.5</ele><time>2026-04-06T09:20:28.002Z</time></trkpt><trkpt lat="43.58320973200349" lon="10.81156439108389"><ele>153.33333333333334</ele><time>2026-04-06T09:20:29.002Z</time></trkpt><trkpt lat="43.58328051250586" lon="10.811661154243906"><ele>156.16666666666666</ele><time>2026-04-06T09:20:31.002Z</time></trkpt><trkpt lat="43.58335703779142" lon="10.811680430811801"><ele>159.0</ele><time>2026-04-06T09:20:33.002Z</time></trkpt><trkpt lat="43.583428478155035" lon="10.8115813428688"><ele>159.0</ele><time>2026-04-06T09:20:35.002Z</time></trkpt><trkpt lat="43.58344359691205" lon="10.811407084853172"><ele>159.0</ele><time>2026-04-06T09:20:37.002Z</time></trkpt><trkpt lat="43.58344315042061" lon="10.811312039988506"><ele>159.0</ele><time>2026-04-06T09:20:38.002Z</time></trkpt><trkpt lat="43.583462302410545" lon="10.811222422181459"><ele>159.0</ele><time>2026-04-06T09:20:39.003Z</time></trkpt><trkpt lat="43.583545576945596" lon="10.811086431362849"><ele>159.0</ele><time>2026-04-06T09:20:41.003Z</time></trkpt><trkpt lat="43.583605072060244" lon="10.811033310870354"><ele>159.0</ele><time>2026-04-06T09:20:42.003Z</time></trkpt><trkpt lat="43.583671604479484" lon="10.810999303013864"><ele>159.0</ele><time>2026-04-06T09:20:43.003Z</time></trkpt><trkpt lat="43.583744295482845" lon="10.810970956025754"><ele>159.0</ele><time>2026-04-06T09:20:44.003Z</time></trkpt><trkpt lat="43.583822705837505" lon="10.810932657456986"><ele>159.0</ele><time>2026-04-06T09:20:45.003Z</time></trkpt><trkpt lat="43.58390463164323" lon="10.810886146936319"><ele>159.0</ele><time>2026-04-06T09:20:46.003Z</time></trkpt><trkpt lat="43.58398693548874" lon="10.810838991830463"><ele>159.0</ele><time>2026-04-06T09:20:47.003Z</time></trkpt><trkpt lat="43.58406161005722" lon="10.810777463173485"><ele>162.6</ele><time>2026-04-06T09:20:48.003Z</time></trkpt><trkpt lat="43.58412465864403" lon="10.810699350791007"><ele>166.2</ele><time>2026-04-06T09:20:49.003Z</time></trkpt><trkpt lat="43.58417230867844" lon="10.810606905379826"><ele>169.79999999999998</ele><time>2026-04-06T09:20:50.003Z</time></trkpt><trkpt lat="43.58420815817957" lon="10.810491336222197"><ele>173.4</ele><time>2026-04-06T09:20:51.003Z</time></trkpt><trkpt lat="43.58423414188808" lon="10.81035830364978"><ele>177.0</ele><time>2026-04-06T09:20:52.003Z</time></trkpt><trkpt lat="43.584259059463726" lon="10.81021828842838"><ele>176.66666666666666</ele><time>2026-04-06T09:20:53.003Z</time></trkpt><trkpt lat="43.58428664760915" lon="10.810091886206022"><ele>176.33333333333334</ele><time>2026-04-06T09:20:54.003Z</time></trkpt><trkpt lat="43.58432416424952" lon="10.809971985253679"><ele>176.0</ele><time>2026-04-06T09:20:55.003Z</time></trkpt><trkpt lat="43.5843559573863" lon="10.809866577704579"><ele>175.66666666666669</ele><time>2026-04-06T09:20:56.003Z</time></trkpt><trkpt lat="43.58438872969654" lon="10.80977949419733"><ele>175.33333333333334</ele><time>2026-04-06T09:20:57.003Z</time></trkpt><trkpt lat="43.58443506181459" lon="10.809710622409444"><ele>175.0</ele><time>2026-04-06T09:20:58.003Z</time></trkpt><trkpt lat="43.5844863418485" lon="10.809640823828301"><ele>178.5</ele><time>2026-04-06T09:20:59Z</time></trkpt><trkpt lat="43.58453678042755" lon="10.809584556712311"><ele>182.0</ele><time>2026-04-06T09:21:00Z</time></trkpt><trkpt lat="43.58459226453821" lon="10.809536012844877"><ele>185.5</ele><time>2026-04-06T09:21:01Z</time></trkpt><trkpt lat="43.5846523097808" lon="10.809499111963406"><ele>189.0</ele><time>2026-04-06T09:21:02Z</time></trkpt><trkpt lat="43.58471964866952" lon="10.809480731798349"><ele>192.49999999999997</ele><time>2026-04-06T09:21:03Z</time></trkpt><trkpt lat="43.584782950652446" lon="10.809473518914047"><ele>196.0</ele><time>2026-04-06T09:21:04Z</time></trkpt><trkpt lat="43.58490127455773" lon="10.809514292973423"><ele>195.99999999999997</ele><time>2026-04-06T09:21:06Z</time></trkpt><trkpt lat="43.585015398424616" lon="10.809605334835872"><ele>196.0</ele><time>2026-04-06T09:21:08Z</time></trkpt><trkpt lat="43.58507564595166" lon="10.809661125713275"><ele>196.0</ele><time>2026-04-06T09:21:09Z</time></trkpt><trkpt lat="43.585130570796515" lon="10.809731419402313"><ele>196.0</ele><time>2026-04-06T09:21:10Z</time></trkpt><trkpt lat="43.58518590643792" lon="10.809809183799333"><ele>195.99999999999997</ele><time>2026-04-06T09:21:11Z</time></trkpt><trkpt lat="43.58525448388341" lon="10.8098908259923"><ele>196.0</ele><time>2026-04-06T09:21:12Z</time></trkpt><trkpt lat="43.585326277303636" lon="10.809975592320654"><ele>200.60000000000002</ele><time>2026-04-06T09:21:13Z</time></trkpt><trkpt lat="43.58539765443158" lon="10.810062294350086"><ele>205.2</ele><time>2026-04-06T09:21:14Z</time></trkpt><trkpt lat="43.58547497344005" lon="10.810157688575218"><ele>209.79999999999998</ele><time>2026-04-06T09:21:15Z</time></trkpt><trkpt lat="43.585552864996885" lon="10.810256606143092"><ele>214.39999999999998</ele><time>2026-04-06T09:21:16Z</time></trkpt><trkpt lat="43.58562089261184" lon="10.810366803878876"><ele>219.0</ele><time>2026-04-06T09:21:17Z</time></trkpt><trkpt lat="43.58569411495337" lon="10.810478548580887"><ele>219.0</ele><time>2026-04-06T09:21:18Z</time></trkpt><trkpt lat="43.5857588845868" lon="10.810590008619762"><ele>218.99999999999997</ele><time>2026-04-06T09:21:19Z</time></trkpt><trkpt lat="43.585820083242965" lon="10.810708710849251"><ele>218.99999999999997</ele><time>2026-04-06T09:21:20Z</time></trkpt><trkpt lat="43.58587760453393" lon="10.810826002346866"><ele>219.0</ele><time>2026-04-06T09:21:21Z</time></trkpt><trkpt lat="43.58593691654479" lon="10.810941384582518"><ele>219.0</ele><time>2026-04-06T09:21:22Z</time></trkpt><trkpt lat="43.585995603113766" lon="10.811047559711541"><ele>218.39999999999998</ele><time>2026-04-06T09:21:23Z</time></trkpt><trkpt lat="43.586058190662044" lon="10.81115374478082"><ele>217.79999999999998</ele><time>2026-04-06T09:21:24Z</time></trkpt><trkpt lat="43.58612475646328" lon="10.811264213872361"><ele>217.20000000000002</ele><time>2026-04-06T09:21:25Z</time></trkpt><trkpt lat="43.586190547940596" lon="10.811371179040929"><ele>216.60000000000002</ele><time>2026-04-06T09:21:26Z</time></trkpt><trkpt lat="43.58626458045567" lon="10.81147710462817"><ele>216.0</ele><time>2026-04-06T09:21:27Z</time></trkpt><trkpt lat="43.58633753596378" lon="10.811589793000328"><ele>220.60000000000002</ele><time>2026-04-06T09:21:28Z</time></trkpt><trkpt lat="43.58640476750711" lon="10.81170319072272"><ele>225.20000000000002</ele><time>2026-04-06T09:21:29Z</time></trkpt><trkpt lat="43.586477529475715" lon="10.811816678727746"><ele>229.79999999999998</ele><time>2026-04-06T09:21:30.001Z</time></trkpt><trkpt lat="43.58654321494393" lon="10.811931652333817"><ele>234.39999999999998</ele><time>2026-04-06T09:21:31.001Z</time></trkpt><trkpt lat="43.58660656392306" lon="10.812039571759398"><ele>239.0</ele><time>2026-04-06T09:21:32.001Z</time></trkpt><trkpt lat="43.586675464202855" lon="10.812152826578918"><ele>239.0</ele><time>2026-04-06T09:21:33.001Z</time></trkpt><trkpt lat="43.58674404646707" lon="10.812266503561757"><ele>238.99999999999997</ele><time>2026-04-06T09:21:34.001Z</time></trkpt><trkpt lat="43.58679150460826" lon="10.812395996089103"><ele>238.99999999999997</ele><time>2026-04-06T09:21:35.001Z</time></trkpt><trkpt lat="43.58681405871999" lon="10.812526977940509"><ele>239.0</ele><time>2026-04-06T09:21:36.001Z</time></trkpt><trkpt lat="43.586818274123864" lon="10.812665799520532"><ele>239.0</ele><time>2026-04-06T09:21:37.001Z</time></trkpt><trkpt lat="43.586815049925335" lon="10.812813306082097"><ele>238.25</ele><time>2026-04-06T09:21:38.001Z</time></trkpt><trkpt lat="43.58679614010648" lon="10.812970026463718"><ele>237.5</ele><time>2026-04-06T09:21:39.001Z</time></trkpt><trkpt lat="43.58677904535595" lon="10.813138220109046"><ele>236.75</ele><time>2026-04-06T09:21:40.001Z</time></trkpt><trkpt lat="43.586763058547696" lon="10.813313888566066"><ele>236.0</ele><time>2026-04-06T09:21:41.001Z</time></trkpt><trkpt lat="43.58675231749695" lon="10.813487006968034"><ele>236.5</ele><time>2026-04-06T09:21:42.001Z</time></trkpt><trkpt lat="43.58673903356767" lon="10.813655417208539"><ele>237.0</ele><time>2026-04-06T09:21:43.001Z</time></trkpt><trkpt lat="43.58672901905917" lon="10.813813987977994"><ele>237.5</ele><time>2026-04-06T09:21:44.001Z</time></trkpt><trkpt lat="43.586718592005816" lon="10.813964021135858"><ele>238.0</ele><time>2026-04-06T09:21:45.001Z</time></trkpt><trkpt lat="43.58671588959035" lon="10.814110679072915"><ele>238.0</ele><time>2026-04-06T09:21:46.001Z</time></trkpt><trkpt lat="43.58672414815589" lon="10.814258118111953"><ele>238.0</ele><time>2026-04-06T09:21:47.001Z</time></trkpt><trkpt lat="43.5867456425705" lon="10.814415713773986"><ele>238.0</ele><time>2026-04-06T09:21:48.001Z</time></trkpt><trkpt lat="43.58677407738002" lon="10.814575236967913"><ele>238.0</ele><time>2026-04-06T09:21:49.001Z</time></trkpt><trkpt lat="43.58681409452924" lon="10.814729152311857"><ele>238.4</ele><time>2026-04-06T09:21:50.001Z</time></trkpt><trkpt lat="43.586869514790955" lon="10.814884447436153"><ele>238.8</ele><time>2026-04-06T09:21:51.001Z</time></trkpt><trkpt lat="43.586926301407416" lon="10.815017680109591"><ele>239.2</ele><time>2026-04-06T09:21:52.001Z</time></trkpt><trkpt lat="43.58697454563665" lon="10.815127446552282"><ele>239.6</ele><time>2026-04-06T09:21:53.001Z</time></trkpt><trkpt lat="43.587012845444846" lon="10.81523576304207"><ele>240.0</ele><time>2026-04-06T09:21:54.001Z</time></trkpt><trkpt lat="43.58705688067247" lon="10.815336643474122"><ele>241.33333333333334</ele><time>2026-04-06T09:21:55.001Z</time></trkpt><trkpt lat="43.58711414141531" lon="10.815418621382323"><ele>242.66666666666669</ele><time>2026-04-06T09:21:56.001Z</time></trkpt><trkpt lat="43.587171567524344" lon="10.815478557955062"><ele>244.0</ele><time>2026-04-06T09:21:57.001Z</time></trkpt><trkpt lat="43.58722466625022" lon="10.815600100863927"><ele>245.33333333333334</ele><time>2026-04-06T09:21:59.001Z</time></trkpt><trkpt lat="43.58722269889932" lon="10.815689230713135"><ele>246.66666666666669</ele><time>2026-04-06T09:22:00.001Z</time></trkpt><trkpt lat="43.58721411609964" lon="10.815794587363415"><ele>248.0</ele><time>2026-04-06T09:22:01.001Z</time></trkpt><trkpt lat="43.58721289791119" lon="10.815899141435478"><ele>248.83333333333334</ele><time>2026-04-06T09:22:02.001Z</time></trkpt><trkpt lat="43.587212185759675" lon="10.815997873532174"><ele>249.66666666666669</ele><time>2026-04-06T09:22:03.001Z</time></trkpt><trkpt lat="43.58721482150597" lon="10.816092666367195"><ele>250.5</ele><time>2026-04-06T09:22:04.001Z</time></trkpt><trkpt lat="43.5872242435773" lon="10.81618879776664"><ele>251.33333333333331</ele><time>2026-04-06T09:22:05.001Z</time></trkpt><trkpt lat="43.58724212708602" lon="10.816279418600967"><ele>252.16666666666666</ele><time>2026-04-06T09:22:06.001Z</time></trkpt><trkpt lat="43.58728385943997" lon="10.816433559709543"><ele>253.0</ele><time>2026-04-06T09:22:08.001Z</time></trkpt><trkpt lat="43.58731505914825" lon="10.816515754201223"><ele>252.99999999999997</ele><time>2026-04-06T09:22:09.002Z</time></trkpt><trkpt lat="43.587332936442955" lon="10.816601625420697"><ele>253.0</ele><time>2026-04-06T09:22:10.002Z</time></trkpt><trkpt lat="43.58735247669774" lon="10.816708361032124"><ele>253.0</ele><time>2026-04-06T09:22:11.002Z</time></trkpt><trkpt lat="43.58737442754524" lon="10.816826662829433"><ele>253.0</ele><time>2026-04-06T09:22:12.002Z</time></trkpt><trkpt lat="43.587399274469256" lon="10.816956470244097"><ele>252.99999999999997</ele><time>2026-04-06T09:22:13.002Z</time></trkpt><trkpt lat="43.587406302637085" lon="10.817088571731269"><ele>253.0</ele><time>2026-04-06T09:22:14.002Z</time></trkpt><trkpt lat="43.587412126129394" lon="10.817222160196845"><ele>253.33333333333331</ele><time>2026-04-06T09:22:15.002Z</time></trkpt><trkpt lat="43.58741843837023" lon="10.817345621744428"><ele>253.66666666666666</ele><time>2026-04-06T09:22:16.002Z</time></trkpt><trkpt lat="43.58743068373318" lon="10.817462579877493"><ele>254.0</ele><time>2026-04-06T09:22:17.002Z</time></trkpt><trkpt lat="43.58744791244295" lon="10.81757236087487"><ele>254.33333333333331</ele><time>2026-04-06T09:22:18.002Z</time></trkpt><trkpt lat="43.587470826632185" lon="10.81767423520173"><ele>254.66666666666666</ele><time>2026-04-06T09:22:19.002Z</time></trkpt><trkpt lat="43.587499881560134" lon="10.817771481732137"><ele>255.0</ele><time>2026-04-06T09:22:20.002Z</time></trkpt><trkpt lat="43.58753523910767" lon="10.817873295487184"><ele>255.0</ele><time>2026-04-06T09:22:21.002Z</time></trkpt><trkpt lat="43.587580279046335" lon="10.817961388127944"><ele>255.0</ele><time>2026-04-06T09:22:22.002Z</time></trkpt><trkpt lat="43.587616016471536" lon="10.818059914425122"><ele>255.0</ele><time>2026-04-06T09:22:23.002Z</time></trkpt><trkpt lat="43.58764583685078" lon="10.818148731031915"><ele>255.0</ele><time>2026-04-06T09:22:24.002Z</time></trkpt><trkpt lat="43.587684893903656" lon="10.818245069988818"><ele>255.0</ele><time>2026-04-06T09:22:25.002Z</time></trkpt><trkpt lat="43.58770788593202" lon="10.818362486529425"><ele>255.0</ele><time>2026-04-06T09:22:26.002Z</time></trkpt><trkpt lat="43.58772584655878" lon="10.818476425769585"><ele>253.0</ele><time>2026-04-06T09:22:27.002Z</time></trkpt><trkpt lat="43.587733708911536" lon="10.818590977610242"><ele>251.0</ele><time>2026-04-06T09:22:28.002Z</time></trkpt><trkpt lat="43.58774218143646" lon="10.81869194465631"><ele>249.0</ele><time>2026-04-06T09:22:29.002Z</time></trkpt><trkpt lat="43.58776119873353" lon="10.818788007819357"><ele>247.0</ele><time>2026-04-06T09:22:30.002Z</time></trkpt><trkpt lat="43.587781135671406" lon="10.81888378767641"><ele>245.0</ele><time>2026-04-06T09:22:31.002Z</time></trkpt><trkpt lat="43.58780713782203" lon="10.818979994621014"><ele>243.0</ele><time>2026-04-06T09:22:32.002Z</time></trkpt><trkpt lat="43.58781605830119" lon="10.81908624810581"><ele>243.0</ele><time>2026-04-06T09:22:33.002Z</time></trkpt><trkpt lat="43.58782042906556" lon="10.819185951417811"><ele>243.0</ele><time>2026-04-06T09:22:34.002Z</time></trkpt><trkpt lat="43.587839838121745" lon="10.819278131039246"><ele>243.0</ele><time>2026-04-06T09:22:35.002Z</time></trkpt><trkpt lat="43.58788168839583" lon="10.819388017151667"><ele>243.0</ele><time>2026-04-06T09:22:37.002Z</time></trkpt><trkpt lat="43.587944229611885" lon="10.81951431464774"><ele>243.0</ele><time>2026-04-06T09:22:39.002Z</time></trkpt><trkpt lat="43.587985135902166" lon="10.819584064529797"><ele>243.0</ele><time>2026-04-06T09:22:40.002Z</time></trkpt><trkpt lat="43.58807204672203" lon="10.819708483566462"><ele>242.2</ele><time>2026-04-06T09:22:42.002Z</time></trkpt><trkpt lat="43.58812502156391" lon="10.81975591292483"><ele>241.4</ele><time>2026-04-06T09:22:43.002Z</time></trkpt><trkpt lat="43.58822190692414" lon="10.819822484553546"><ele>240.59999999999997</ele><time>2026-04-06T09:22:45.002Z</time></trkpt><trkpt lat="43.5883165792606" lon="10.819884435492781"><ele>239.79999999999998</ele><time>2026-04-06T09:22:47.002Z</time></trkpt><trkpt lat="43.58842863831412" lon="10.819919277730163"><ele>239.0</ele><time>2026-04-06T09:22:49.003Z</time></trkpt><trkpt lat="43.58853075412284" lon="10.819964637426793"><ele>239.00000000000003</ele><time>2026-04-06T09:22:51.003Z</time></trkpt><trkpt lat="43.58859741123493" lon="10.81994137432541"><ele>239.0</ele><time>2026-04-06T09:22:52.003Z</time></trkpt><trkpt lat="43.588663336906414" lon="10.819940994345407"><ele>239.00000000000003</ele><time>2026-04-06T09:22:53.003Z</time></trkpt><trkpt lat="43.58873585425978" lon="10.819931554595472"><ele>239.00000000000003</ele><time>2026-04-06T09:22:54.003Z</time></trkpt><trkpt lat="43.58880283079588" lon="10.819903713446031"><ele>239.0</ele><time>2026-04-06T09:22:55.003Z</time></trkpt><trkpt lat="43.588873171319946" lon="10.819875211089274"><ele>239.00000000000003</ele><time>2026-04-06T09:22:56.003Z</time></trkpt><trkpt lat="43.588952056439254" lon="10.819862649855235"><ele>239.00000000000003</ele><time>2026-04-06T09:22:57.003Z</time></trkpt><trkpt lat="43.589028670260994" lon="10.819829627600875"><ele>241.50000000000003</ele><time>2026-04-06T09:22:58.003Z</time></trkpt><trkpt lat="43.58909945876812" lon="10.819792737451593"><ele>244.0</ele><time>2026-04-06T09:22:59.003Z</time></trkpt><trkpt lat="43.589165923725915" lon="10.819789317068828"><ele>246.5</ele><time>2026-04-06T09:23:00.003Z</time></trkpt><trkpt lat="43.58923219619776" lon="10.81977827283218"><ele>249.0</ele><time>2026-04-06T09:23:01.003Z</time></trkpt><trkpt lat="43.58930914796052" lon="10.819769560038038"><ele>251.50000000000003</ele><time>2026-04-06T09:23:02.003Z</time></trkpt><trkpt lat="43.58939280023676" lon="10.81976266671417"><ele>254.0</ele><time>2026-04-06T09:23:03.003Z</time></trkpt><trkpt lat="43.589486390643245" lon="10.819783139014334"><ele>255.0</ele><time>2026-04-06T09:23:04.003Z</time></trkpt><trkpt lat="43.589578473053166" lon="10.819821661106733"><ele>255.99999999999997</ele><time>2026-04-06T09:23:04.999Z</time></trkpt><trkpt lat="43.58967754058692" lon="10.819859866024293"><ele>257.0</ele><time>2026-04-06T09:23:05.999Z</time></trkpt><trkpt lat="43.58978333224609" lon="10.819915607474032"><ele>258.0</ele><time>2026-04-06T09:23:06.999Z</time></trkpt><trkpt lat="43.58988544451058" lon="10.819968240411631"><ele>259.0</ele><time>2026-04-06T09:23:07.999Z</time></trkpt><trkpt lat="43.589990316420426" lon="10.820028944637242"><ele>259.0</ele><time>2026-04-06T09:23:08.999Z</time></trkpt><trkpt lat="43.59008221656327" lon="10.820030305213757"><ele>259.0</ele><time>2026-04-06T09:23:09.999Z</time></trkpt><trkpt lat="43.59017881387255" lon="10.819980542164883"><ele>259.0</ele><time>2026-04-06T09:23:11.999Z</time></trkpt><trkpt lat="43.59028212754681" lon="10.819911379520864"><ele>259.0</ele><time>2026-04-06T09:23:13.999Z</time></trkpt><trkpt lat="43.59033958818623" lon="10.819844289878493"><ele>259.0</ele><time>2026-04-06T09:23:14.999Z</time></trkpt><trkpt lat="43.59038656263444" lon="10.819782608565124"><ele>258.8333333333333</ele><time>2026-04-06T09:23:15.999Z</time></trkpt><trkpt lat="43.590432319501275" lon="10.819706049864816"><ele>258.66666666666663</ele><time>2026-04-06T09:23:16.999Z</time></trkpt><trkpt lat="43.59045615726508" lon="10.8194673887165"><ele>258.5</ele><time>2026-04-06T09:23:18.999Z</time></trkpt><trkpt lat="43.590437325739046" lon="10.819381696204415"><ele>258.3333333333333</ele><time>2026-04-06T09:23:19.999Z</time></trkpt><trkpt lat="43.59041277536499" lon="10.819296076430417"><ele>258.1666666666667</ele><time>2026-04-06T09:23:21Z</time></trkpt><trkpt lat="43.59039710779235" lon="10.819208865277796"><ele>258.0</ele><time>2026-04-06T09:23:22Z</time></trkpt><trkpt lat="43.59042579799505" lon="10.819052242727226"><ele>256.3333333333333</ele><time>2026-04-06T09:23:24Z</time></trkpt><trkpt lat="43.59053571577959" lon="10.818983757159035"><ele>254.66666666666669</ele><time>2026-04-06T09:23:26Z</time></trkpt><trkpt lat="43.59060135836997" lon="10.818992067673785"><ele>253.0</ele><time>2026-04-06T09:23:27Z</time></trkpt><trkpt lat="43.59066410889356" lon="10.819017381434966"><ele>251.33333333333334</ele><time>2026-04-06T09:23:28Z</time></trkpt><trkpt lat="43.590720217021776" lon="10.81906133312512"><ele>249.66666666666669</ele><time>2026-04-06T09:23:29Z</time></trkpt><trkpt lat="43.590774476241776" lon="10.819119588712764"><ele>248.0</ele><time>2026-04-06T09:23:30Z</time></trkpt><trkpt lat="43.59083678206462" lon="10.819180772890418"><ele>248.00000000000003</ele><time>2026-04-06T09:23:31Z</time></trkpt><trkpt lat="43.59090936270943" lon="10.819267031743339"><ele>248.0</ele><time>2026-04-06T09:23:32Z</time></trkpt><trkpt lat="43.59096671534314" lon="10.819345645926855"><ele>248.0</ele><time>2026-04-06T09:23:33Z</time></trkpt><trkpt lat="43.59100949995802" lon="10.819429829565347"><ele>248.0</ele><time>2026-04-06T09:23:34Z</time></trkpt><trkpt lat="43.59103627012942" lon="10.819526787051407"><ele>248.00000000000003</ele><time>2026-04-06T09:23:35Z</time></trkpt><trkpt lat="43.59105002149839" lon="10.81964591739014"><ele>248.0</ele><time>2026-04-06T09:23:36Z</time></trkpt><trkpt lat="43.59105635519323" lon="10.819755334291916"><ele>247.83333333333334</ele><time>2026-04-06T09:23:37Z</time></trkpt><trkpt lat="43.59107488465104" lon="10.819850452380441"><ele>247.66666666666669</ele><time>2026-04-06T09:23:38Z</time></trkpt><trkpt lat="43.59110077204751" lon="10.819942045080902"><ele>247.5</ele><time>2026-04-06T09:23:39Z</time></trkpt><trkpt lat="43.591134804632844" lon="10.820019897826867"><ele>247.33333333333331</ele><time>2026-04-06T09:23:40Z</time></trkpt><trkpt lat="43.591208308717036" lon="10.820130519397884"><ele>247.16666666666666</ele><time>2026-04-06T09:23:42Z</time></trkpt><trkpt lat="43.591313525408715" lon="10.820208901590725"><ele>247.0</ele><time>2026-04-06T09:23:44Z</time></trkpt><trkpt lat="43.59143456786288" lon="10.820252635625913"><ele>247.42857142857144</ele><time>2026-04-06T09:23:46.001Z</time></trkpt><trkpt lat="43.59149600630822" lon="10.820279905973177"><ele>247.85714285714283</ele><time>2026-04-06T09:23:47.001Z</time></trkpt><trkpt lat="43.59155804256603" lon="10.820311508994948"><ele>248.28571428571428</ele><time>2026-04-06T09:23:48.001Z</time></trkpt><trkpt lat="43.59162204926144" lon="10.820346066418919"><ele>248.71428571428572</ele><time>2026-04-06T09:23:49.001Z</time></trkpt><trkpt lat="43.5916863863329" lon="10.82037752579727"><ele>249.14285714285717</ele><time>2026-04-06T09:23:50.001Z</time></trkpt><trkpt lat="43.59175863709882" lon="10.820406149694751"><ele>249.57142857142856</ele><time>2026-04-06T09:23:51.001Z</time></trkpt><trkpt lat="43.59183806022388" lon="10.820438335534927"><ele>250.0</ele><time>2026-04-06T09:23:52.001Z</time></trkpt><trkpt lat="43.59191493023422" lon="10.820479078987699"><ele>250.0</ele><time>2026-04-06T09:23:53.001Z</time></trkpt><trkpt lat="43.59200048516886" lon="10.82051870569345"><ele>250.0</ele><time>2026-04-06T09:23:54.001Z</time></trkpt><trkpt lat="43.592086471939254" lon="10.82056030005191"><ele>250.0</ele><time>2026-04-06T09:23:55.001Z</time></trkpt><trkpt lat="43.59217588321267" lon="10.820598314981748"><ele>250.0</ele><time>2026-04-06T09:23:56.001Z</time></trkpt><trkpt lat="43.592266209079966" lon="10.8206362584268"><ele>250.0</ele><time>2026-04-06T09:23:57.001Z</time></trkpt><trkpt lat="43.592347828988125" lon="10.820680073749939"><ele>249.6</ele><time>2026-04-06T09:23:58.001Z</time></trkpt><trkpt lat="43.5924244854719" lon="10.820721883883833"><ele>249.2</ele><time>2026-04-06T09:23:59.001Z</time></trkpt><trkpt lat="43.59249648135468" lon="10.820755618478882"><ele>248.8</ele><time>2026-04-06T09:24:00.001Z</time></trkpt><trkpt lat="43.592585928828214" lon="10.8207988592145"><ele>248.4</ele><time>2026-04-06T09:24:02.001Z</time></trkpt><trkpt lat="43.592683485336735" lon="10.820851662050284"><ele>248.0</ele><time>2026-04-06T09:24:04.001Z</time></trkpt><trkpt lat="43.59279951538214" lon="10.820916717551713"><ele>247.25</ele><time>2026-04-06T09:24:06.001Z</time></trkpt><trkpt lat="43.592916029216504" lon="10.820985209272022"><ele>246.5</ele><time>2026-04-06T09:24:08.001Z</time></trkpt><trkpt lat="43.593033650188254" lon="10.821056667102704"><ele>245.75</ele><time>2026-04-06T09:24:10.001Z</time></trkpt><trkpt lat="43.59313566000563" lon="10.821135709107523"><ele>245.0</ele><time>2026-04-06T09:24:12.001Z</time></trkpt><trkpt lat="43.593201014775424" lon="10.821213155521992"><ele>245.0</ele><time>2026-04-06T09:24:14.001Z</time></trkpt><trkpt lat="43.59325473984669" lon="10.821308496028458"><ele>245.0</ele><time>2026-04-06T09:24:16.001Z</time></trkpt><trkpt lat="43.59332371836438" lon="10.821465097868964"><ele>245.0</ele><time>2026-04-06T09:24:18.001Z</time></trkpt><trkpt lat="43.593366964866924" lon="10.821556952658812"><ele>245.0</ele><time>2026-04-06T09:24:19.002Z</time></trkpt><trkpt lat="43.59342418219965" lon="10.821652623388973"><ele>245.0</ele><time>2026-04-06T09:24:20.002Z</time></trkpt><trkpt lat="43.59348849900616" lon="10.82174663854518"><ele>244.00000000000003</ele><time>2026-04-06T09:24:21.002Z</time></trkpt><trkpt lat="43.593560107549685" lon="10.821825464061286"><ele>243.0</ele><time>2026-04-06T09:24:22.002Z</time></trkpt><trkpt lat="43.59362738161281" lon="10.821905896016952"><ele>242.0</ele><time>2026-04-06T09:24:23.002Z</time></trkpt><trkpt lat="43.59368211651693" lon="10.821973892291517"><ele>241.0</ele><time>2026-04-06T09:24:24.002Z</time></trkpt><trkpt lat="43.593727250459125" lon="10.82205280538636"><ele>240.00000000000003</ele><time>2026-04-06T09:24:25.002Z</time></trkpt><trkpt lat="43.593727225738064" lon="10.822152013633115"><ele>239.0</ele><time>2026-04-06T09:24:26.002Z</time></trkpt><trkpt lat="43.59371847271685" lon="10.822271066964007"><ele>239.0</ele><time>2026-04-06T09:24:27.002Z</time></trkpt><trkpt lat="43.59369346712611" lon="10.82240466205551"><ele>238.99999999999997</ele><time>2026-04-06T09:24:28.002Z</time></trkpt><trkpt lat="43.59366446033703" lon="10.822544308948894"><ele>238.99999999999997</ele><time>2026-04-06T09:24:29.002Z</time></trkpt><trkpt lat="43.5936573096839" lon="10.822678139619722"><ele>239.0</ele><time>2026-04-06T09:24:30.002Z</time></trkpt><trkpt lat="43.59368891199748" lon="10.822802728661058"><ele>239.0</ele><time>2026-04-06T09:24:31.002Z</time></trkpt><trkpt lat="43.5936994030268" lon="10.822949406544252"><ele>237.39999999999998</ele><time>2026-04-06T09:24:32.002Z</time></trkpt><trkpt lat="43.593723038175746" lon="10.823092936416884"><ele>235.79999999999998</ele><time>2026-04-06T09:24:33.002Z</time></trkpt><trkpt lat="43.59374981133324" lon="10.823208756372441"><ele>234.20000000000002</ele><time>2026-04-06T09:24:34.002Z</time></trkpt><trkpt lat="43.59375700116008" lon="10.823323458600473"><ele>232.60000000000002</ele><time>2026-04-06T09:24:35.002Z</time></trkpt><trkpt lat="43.593765564387795" lon="10.823470717662595"><ele>231.0</ele><time>2026-04-06T09:24:37.002Z</time></trkpt><trkpt lat="43.59385255852868" lon="10.8234789318765"><ele>231.0</ele><time>2026-04-06T09:24:39.002Z</time></trkpt><trkpt lat="43.59388559880515" lon="10.823386378704427"><ele>231.00000000000003</ele><time>2026-04-06T09:24:40.002Z</time></trkpt><trkpt lat="43.59391117714435" lon="10.82327029288352"><ele>231.00000000000003</ele><time>2026-04-06T09:24:41.002Z</time></trkpt><trkpt lat="43.593892150030634" lon="10.823095989526516"><ele>231.0</ele><time>2026-04-06T09:24:42.002Z</time></trkpt><trkpt lat="43.59387700473028" lon="10.822928709046723"><ele>231.0</ele><time>2026-04-06T09:24:43.002Z</time></trkpt><trkpt lat="43.59386534466211" lon="10.822779923143763"><ele>231.0</ele><time>2026-04-06T09:24:44.002Z</time></trkpt><trkpt lat="43.59386836439795" lon="10.822650513548837"><ele>231.0</ele><time>2026-04-06T09:24:45.002Z</time></trkpt><trkpt lat="43.5938879809449" lon="10.822545806472355"><ele>231.0</ele><time>2026-04-06T09:24:46.002Z</time></trkpt><trkpt lat="43.59393104862067" lon="10.822454369248844"><ele>231.0</ele><time>2026-04-06T09:24:47.002Z</time></trkpt><trkpt lat="43.59399065454657" lon="10.822358103722387"><ele>231.0</ele><time>2026-04-06T09:24:48.002Z</time></trkpt><trkpt lat="43.5940636310679" lon="10.822263469175667"><ele>231.0</ele><time>2026-04-06T09:24:49.002Z</time></trkpt><trkpt lat="43.59416070948197" lon="10.822218430428538"><ele>231.16666666666666</ele><time>2026-04-06T09:24:50.002Z</time></trkpt><trkpt lat="43.59424231097992" lon="10.822204324642076"><ele>231.33333333333331</ele><time>2026-04-06T09:24:51.002Z</time></trkpt><trkpt lat="43.59431350723148" lon="10.82222090240811"><ele>231.5</ele><time>2026-04-06T09:24:52.002Z</time></trkpt><trkpt lat="43.5943880076788" lon="10.822250404704167"><ele>231.66666666666666</ele><time>2026-04-06T09:24:53.002Z</time></trkpt><trkpt lat="43.59446690648219" lon="10.822296778659583"><ele>231.83333333333331</ele><time>2026-04-06T09:24:54.003Z</time></trkpt><trkpt lat="43.594539194451734" lon="10.822334448030771"><ele>232.0</ele><time>2026-04-06T09:24:55.003Z</time></trkpt><trkpt lat="43.59461021097545" lon="10.82234852616087"><ele>229.6</ele><time>2026-04-06T09:24:56.003Z</time></trkpt><trkpt lat="43.59472849901098" lon="10.822276730358205"><ele>227.2</ele><time>2026-04-06T09:24:58.003Z</time></trkpt><trkpt lat="43.59478831581681" lon="10.822199400830375"><ele>224.8</ele><time>2026-04-06T09:24:59.003Z</time></trkpt><trkpt lat="43.594851621898414" lon="10.822121406920436"><ele>222.4</ele><time>2026-04-06T09:25:00.003Z</time></trkpt><trkpt lat="43.594915397947105" lon="10.82205011540049"><ele>220.0</ele><time>2026-04-06T09:25:01.003Z</time></trkpt><trkpt lat="43.594989943225606" lon="10.821988856686108"><ele>219.99999999999997</ele><time>2026-04-06T09:25:02.003Z</time></trkpt><trkpt lat="43.59507650072724" lon="10.821936803612108"><ele>220.0</ele><time>2026-04-06T09:25:03.003Z</time></trkpt><trkpt lat="43.595155186937696" lon="10.821893122155313"><ele>220.0</ele><time>2026-04-06T09:25:04.003Z</time></trkpt><trkpt lat="43.59522872873022" lon="10.82184647473764"><ele>220.0</ele><time>2026-04-06T09:25:05.003Z</time></trkpt><trkpt lat="43.59529183628255" lon="10.82180966798934"><ele>219.99999999999997</ele><time>2026-04-06T09:25:06.003Z</time></trkpt><trkpt lat="43.59535361778852" lon="10.821767201168953"><ele>220.0</ele><time>2026-04-06T09:25:07.003Z</time></trkpt><trkpt lat="43.59542102054691" lon="10.821731734809084"><ele>219.28571428571428</ele><time>2026-04-06T09:25:08.003Z</time></trkpt><trkpt lat="43.59549144640856" lon="10.82168776482984"><ele>218.57142857142856</ele><time>2026-04-06T09:25:09.003Z</time></trkpt><trkpt lat="43.59556136505294" lon="10.82165041784335"><ele>217.85714285714283</ele><time>2026-04-06T09:25:10.003Z</time></trkpt><trkpt lat="43.595628873560756" lon="10.82162569236654"><ele>217.14285714285714</ele><time>2026-04-06T09:25:10.999Z</time></trkpt><trkpt lat="43.5956963644499" lon="10.821603011769367"><ele>216.42857142857144</ele><time>2026-04-06T09:25:11.999Z</time></trkpt><trkpt lat="43.59576347237545" lon="10.821583965007337"><ele>215.7142857142857</ele><time>2026-04-06T09:25:12.999Z</time></trkpt><trkpt lat="43.595835640454055" lon="10.82156691003668"><ele>215.0</ele><time>2026-04-06T09:25:13.999Z</time></trkpt><trkpt lat="43.59590862543591" lon="10.821549066665138"><ele>215.0</ele><time>2026-04-06T09:25:14.999Z</time></trkpt><trkpt lat="43.59598171589008" lon="10.82153191995275"><ele>215.0</ele><time>2026-04-06T09:25:15.999Z</time></trkpt><trkpt lat="43.59605515174507" lon="10.821515350069532"><ele>215.0</ele><time>2026-04-06T09:25:16.999Z</time></trkpt><trkpt lat="43.5961267486079" lon="10.82149405237431"><ele>215.0</ele><time>2026-04-06T09:25:17.999Z</time></trkpt><trkpt lat="43.59619692869809" lon="10.821463559566801"><ele>215.0</ele><time>2026-04-06T09:25:18.999Z</time></trkpt><trkpt lat="43.59627259421555" lon="10.821436667372797"><ele>215.0</ele><time>2026-04-06T09:25:19.999Z</time></trkpt><trkpt lat="43.596344957287016" lon="10.821405435893944"><ele>215.0</ele><time>2026-04-06T09:25:20.999Z</time></trkpt><trkpt lat="43.596417649984325" lon="10.821367929157272"><ele>214.33333333333334</ele><time>2026-04-06T09:25:21.999Z</time></trkpt><trkpt lat="43.59648582599699" lon="10.821354085163918"><ele>213.66666666666669</ele><time>2026-04-06T09:25:22.999Z</time></trkpt><trkpt lat="43.59656168764601" lon="10.82133684891004"><ele>213.0</ele><time>2026-04-06T09:25:23.999Z</time></trkpt><trkpt lat="43.59664657964865" lon="10.821330500599265"><ele>212.33333333333331</ele><time>2026-04-06T09:25:24.999Z</time></trkpt><trkpt lat="43.59672569379152" lon="10.821344284005178"><ele>211.66666666666666</ele><time>2026-04-06T09:25:25.999Z</time></trkpt><trkpt lat="43.596818565159026" lon="10.821354065231139"><ele>211.0</ele><time>2026-04-06T09:25:26.999Z</time></trkpt><trkpt lat="43.59691322654707" lon="10.821370676413315"><ele>211.0</ele><time>2026-04-06T09:25:27.999Z</time></trkpt><trkpt lat="43.59700010561951" lon="10.82139769904414"><ele>211.0</ele><time>2026-04-06T09:25:28.999Z</time></trkpt><trkpt lat="43.597085474720664" lon="10.821432029245535"><ele>211.0</ele><time>2026-04-06T09:25:29.999Z</time></trkpt><trkpt lat="43.59717772217761" lon="10.82147142153689"><ele>211.0</ele><time>2026-04-06T09:25:30.999Z</time></trkpt><trkpt lat="43.597273650354694" lon="10.821516830006686"><ele>211.0</ele><time>2026-04-06T09:25:32Z</time></trkpt><trkpt lat="43.597365323554584" lon="10.821554254379473"><ele>211.16666666666666</ele><time>2026-04-06T09:25:33Z</time></trkpt><trkpt lat="43.597460753464894" lon="10.821597331204968"><ele>211.33333333333331</ele><time>2026-04-06T09:25:34Z</time></trkpt><trkpt lat="43.59754885054381" lon="10.821630519572745"><ele>211.5</ele><time>2026-04-06T09:25:35Z</time></trkpt><trkpt lat="43.5976373114849" lon="10.821665515346057"><ele>211.66666666666669</ele><time>2026-04-06T09:25:36Z</time></trkpt><trkpt lat="43.59770638267188" lon="10.821704457102287"><ele>211.83333333333334</ele><time>2026-04-06T09:25:37Z</time></trkpt><trkpt lat="43.597766477050236" lon="10.821732187283335"><ele>212.0</ele><time>2026-04-06T09:25:38Z</time></trkpt><trkpt lat="43.597883620961156" lon="10.821712202602052"><ele>212.33333333333334</ele><time>2026-04-06T09:25:40Z</time></trkpt><trkpt lat="43.59793824384989" lon="10.821658972571003"><ele>212.66666666666669</ele><time>2026-04-06T09:25:41Z</time></trkpt><trkpt lat="43.597995255125866" lon="10.821606965478317"><ele>213.0</ele><time>2026-04-06T09:25:42Z</time></trkpt><trkpt lat="43.59804792823025" lon="10.821552038586265"><ele>213.33333333333331</ele><time>2026-04-06T09:25:43Z</time></trkpt><trkpt lat="43.59809074706735" lon="10.821420084454548"><ele>213.66666666666666</ele><time>2026-04-06T09:25:45Z</time></trkpt><trkpt lat="43.598048445368384" lon="10.821324992852857"><ele>214.0</ele><time>2026-04-06T09:25:46Z</time></trkpt><trkpt lat="43.5979468648405" lon="10.821295842052706"><ele>213.6</ele><time>2026-04-06T09:25:47Z</time></trkpt><trkpt lat="43.597830381321614" lon="10.821253439244662"><ele>213.2</ele><time>2026-04-06T09:25:48Z</time></trkpt><trkpt lat="43.59775089784519" lon="10.821174587986468"><ele>212.79999999999998</ele><time>2026-04-06T09:25:49Z</time></trkpt><trkpt lat="43.597670128475706" lon="10.821107232880761"><ele>212.39999999999998</ele><time>2026-04-06T09:25:50Z</time></trkpt><trkpt lat="43.59759620593323" lon="10.821038776013781"><ele>212.0</ele><time>2026-04-06T09:25:51Z</time></trkpt><trkpt lat="43.597529711018545" lon="10.820964553659426"><ele>213.2</ele><time>2026-04-06T09:25:52Z</time></trkpt><trkpt lat="43.59746418089353" lon="10.820868783030885"><ele>214.39999999999998</ele><time>2026-04-06T09:25:53Z</time></trkpt><trkpt lat="43.59741408776898" lon="10.820773808316106"><ele>215.60000000000002</ele><time>2026-04-06T09:25:54Z</time></trkpt><trkpt lat="43.597356512360605" lon="10.82067395637787"><ele>216.8</ele><time>2026-04-06T09:25:55Z</time></trkpt><trkpt lat="43.5973368038919" lon="10.820532682795442"><ele>218.0</ele><time>2026-04-06T09:25:56Z</time></trkpt><trkpt lat="43.597306074424786" lon="10.820398051741835"><ele>218.0</ele><time>2026-04-06T09:25:57.001Z</time></trkpt><trkpt lat="43.59730770471454" lon="10.820245221507951"><ele>218.0</ele><time>2026-04-06T09:25:58.001Z</time></trkpt><trkpt lat="43.59729519438755" lon="10.820096428640738"><ele>218.0</ele><time>2026-04-06T09:25:59.001Z</time></trkpt><trkpt lat="43.59729463090729" lon="10.819950479961944"><ele>218.0</ele><time>2026-04-06T09:26:00.001Z</time></trkpt><trkpt lat="43.597310625897215" lon="10.819804329619952"><ele>218.0</ele><time>2026-04-06T09:26:01.001Z</time></trkpt><trkpt lat="43.59733408656975" lon="10.819660432456693"><ele>216.8</ele><time>2026-04-06T09:26:02.001Z</time></trkpt><trkpt lat="43.597333146194835" lon="10.819524393916147"><ele>215.60000000000002</ele><time>2026-04-06T09:26:03.001Z</time></trkpt><trkpt lat="43.59729373459339" lon="10.819406031898339"><ele>214.39999999999998</ele><time>2026-04-06T09:26:04.001Z</time></trkpt><trkpt lat="43.59722979801861" lon="10.819304977642577"><ele>213.2</ele><time>2026-04-06T09:26:05.001Z</time></trkpt><trkpt lat="43.59714742858858" lon="10.819207139439209"><ele>212.0</ele><time>2026-04-06T09:26:06.001Z</time></trkpt><trkpt lat="43.59706439877948" lon="10.819106005822558"><ele>214.6</ele><time>2026-04-06T09:26:07.001Z</time></trkpt><trkpt lat="43.596990181277576" lon="10.819000361486486"><ele>217.2</ele><time>2026-04-06T09:26:08.001Z</time></trkpt><trkpt lat="43.59692950386486" lon="10.81889291573663"><ele>219.8</ele><time>2026-04-06T09:26:09.001Z</time></trkpt><trkpt lat="43.59689166331576" lon="10.818773089499043"><ele>222.4</ele><time>2026-04-06T09:26:10.001Z</time></trkpt><trkpt lat="43.59684646713348" lon="10.818663332355362"><ele>225.0</ele><time>2026-04-06T09:26:11.001Z</time></trkpt><trkpt lat="43.596809077954575" lon="10.81855730217709"><ele>224.0</ele><time>2026-04-06T09:26:12.001Z</time></trkpt><trkpt lat="43.596775489310666" lon="10.818441774007686"><ele>223.0</ele><time>2026-04-06T09:26:13.001Z</time></trkpt><trkpt lat="43.596747562736915" lon="10.818328522791072"><ele>222.0</ele><time>2026-04-06T09:26:14.001Z</time></trkpt><trkpt lat="43.59672298657677" lon="10.81820846213787"><ele>221.0</ele><time>2026-04-06T09:26:15.001Z</time></trkpt><trkpt lat="43.59669497402322" lon="10.81808523628694"><ele>220.0</ele><time>2026-04-06T09:26:16.001Z</time></trkpt><trkpt lat="43.59668465069619" lon="10.817951220351487"><ele>219.99999999999997</ele><time>2026-04-06T09:26:17.001Z</time></trkpt><trkpt lat="43.5966825676647" lon="10.817816873835836"><ele>220.0</ele><time>2026-04-06T09:26:18.001Z</time></trkpt><trkpt lat="43.596672582079556" lon="10.817689255039202"><ele>220.0</ele><time>2026-04-06T09:26:19.001Z</time></trkpt><trkpt lat="43.596669401581316" lon="10.817580444275848"><ele>220.0</ele><time>2026-04-06T09:26:20.001Z</time></trkpt><trkpt lat="43.5966629541596" lon="10.817481005522485"><ele>219.99999999999997</ele><time>2026-04-06T09:26:21.001Z</time></trkpt><trkpt lat="43.59666892865042" lon="10.81737519631465"><ele>220.0</ele><time>2026-04-06T09:26:22.001Z</time></trkpt><trkpt lat="43.59668176365856" lon="10.817237591885926"><ele>220.0</ele><time>2026-04-06T09:26:23.001Z</time></trkpt><trkpt lat="43.596697006470684" lon="10.817077586519702"><ele>220.0</ele><time>2026-04-06T09:26:24.001Z</time></trkpt><trkpt lat="43.59671736923078" lon="10.816930708060484"><ele>220.0</ele><time>2026-04-06T09:26:25.001Z</time></trkpt><trkpt lat="43.596732185029325" lon="10.816771263976142"><ele>220.0</ele><time>2026-04-06T09:26:26.001Z</time></trkpt><trkpt lat="43.596760152524936" lon="10.816604611410925"><ele>219.5</ele><time>2026-04-06T09:26:27.001Z</time></trkpt><trkpt lat="43.59680498284059" lon="10.816445434135833"><ele>219.0</ele><time>2026-04-06T09:26:28.001Z</time></trkpt><trkpt lat="43.5968495243237" lon="10.816261853658398"><ele>218.5</ele><time>2026-04-06T09:26:29.002Z</time></trkpt><trkpt lat="43.596917006883075" lon="10.81609289210822"><ele>218.0</ele><time>2026-04-06T09:26:30.002Z</time></trkpt><trkpt lat="43.59696947921084" lon="10.815909581057342"><ele>213.4</ele><time>2026-04-06T09:26:31.002Z</time></trkpt><trkpt lat="43.59701175249214" lon="10.81574152927818"><ele>208.8</ele><time>2026-04-06T09:26:32.002Z</time></trkpt><trkpt lat="43.59703692589191" lon="10.815626312768199"><ele>204.2</ele><time>2026-04-06T09:26:33.002Z</time></trkpt><trkpt lat="43.59708389838426" lon="10.815493398287012"><ele>199.6</ele><time>2026-04-06T09:26:34.002Z</time></trkpt><trkpt lat="43.597120228058515" lon="10.815364707957503"><ele>195.0</ele><time>2026-04-06T09:26:35.002Z</time></trkpt><trkpt lat="43.59716244384613" lon="10.815231743393177"><ele>196.6</ele><time>2026-04-06T09:26:36.002Z</time></trkpt><trkpt lat="43.5971926665153" lon="10.815106904281508"><ele>198.2</ele><time>2026-04-06T09:26:37.002Z</time></trkpt><trkpt lat="43.597233148868916" lon="10.81497215034611"><ele>199.8</ele><time>2026-04-06T09:26:38.002Z</time></trkpt><trkpt lat="43.597258476493515" lon="10.8148393122411"><ele>201.4</ele><time>2026-04-06T09:26:39.002Z</time></trkpt><trkpt lat="43.597283730390956" lon="10.81470388528305"><ele>203.0</ele><time>2026-04-06T09:26:40.002Z</time></trkpt><trkpt lat="43.59729553603718" lon="10.81455742666627"><ele>203.0</ele><time>2026-04-06T09:26:41.002Z</time></trkpt><trkpt lat="43.597299811281616" lon="10.814400779520607"><ele>203.0</ele><time>2026-04-06T09:26:42.002Z</time></trkpt><trkpt lat="43.597304966914855" lon="10.814247444717813"><ele>203.0</ele><time>2026-04-06T09:26:43.002Z</time></trkpt><trkpt lat="43.59731239053154" lon="10.814116056361957"><ele>203.0</ele><time>2026-04-06T09:26:44.002Z</time></trkpt><trkpt lat="43.59731893074144" lon="10.81398402394685"><ele>203.0</ele><time>2026-04-06T09:26:45.002Z</time></trkpt><trkpt lat="43.59732429986148" lon="10.813854193509677"><ele>202.8</ele><time>2026-04-06T09:26:46.002Z</time></trkpt><trkpt lat="43.5973218857244" lon="10.813723790638347"><ele>202.60000000000002</ele><time>2026-04-06T09:26:47.002Z</time></trkpt><trkpt lat="43.597332772624114" lon="10.81358450250718"><ele>202.39999999999998</ele><time>2026-04-06T09:26:48.002Z</time></trkpt><trkpt lat="43.59735083368941" lon="10.813458022927753"><ele>202.2</ele><time>2026-04-06T09:26:49.002Z</time></trkpt><trkpt lat="43.59737633766764" lon="10.81332445640314"><ele>202.0</ele><time>2026-04-06T09:26:50.002Z</time></trkpt><trkpt lat="43.59740856231505" lon="10.813195569135654"><ele>200.6</ele><time>2026-04-06T09:26:51.002Z</time></trkpt><trkpt lat="43.59744658063802" lon="10.813069421197572"><ele>199.2</ele><time>2026-04-06T09:26:52.002Z</time></trkpt><trkpt lat="43.59750380198351" lon="10.812953527264577"><ele>197.8</ele><time>2026-04-06T09:26:53.002Z</time></trkpt><trkpt lat="43.597554620802136" lon="10.812829485614813"><ele>196.4</ele><time>2026-04-06T09:26:54.002Z</time></trkpt><trkpt lat="43.59761200272237" lon="10.812722637770278"><ele>195.0</ele><time>2026-04-06T09:26:55.002Z</time></trkpt><trkpt lat="43.5976625126622" lon="10.812617976185498"><ele>195.0</ele><time>2026-04-06T09:26:56.002Z</time></trkpt><trkpt lat="43.59774588146131" lon="10.812541157900938"><ele>195.0</ele><time>2026-04-06T09:26:57.002Z</time></trkpt><trkpt lat="43.59781483146373" lon="10.812430134200625"><ele>195.0</ele><time>2026-04-06T09:26:58.002Z</time></trkpt><trkpt lat="43.5978986129458" lon="10.812351082856896"><ele>195.0</ele><time>2026-04-06T09:26:59.002Z</time></trkpt><trkpt lat="43.59798670918664" lon="10.812273545322874"><ele>195.0</ele><time>2026-04-06T09:27:00.002Z</time></trkpt><trkpt lat="43.59806756648274" lon="10.812188399337586"><ele>196.0</ele><time>2026-04-06T09:27:01.002Z</time></trkpt><trkpt lat="43.598145693511995" lon="10.812101529284222"><ele>197.0</ele><time>2026-04-06T09:27:02.003Z</time></trkpt><trkpt lat="43.59821601670065" lon="10.812019322692842"><ele>198.0</ele><time>2026-04-06T09:27:03.003Z</time></trkpt><trkpt lat="43.59828630557953" lon="10.811934819398918"><ele>199.0</ele><time>2026-04-06T09:27:04.003Z</time></trkpt><trkpt lat="43.59835334105745" lon="10.811834549916108"><ele>200.0</ele><time>2026-04-06T09:27:05.003Z</time></trkpt><trkpt lat="43.59840524066582" lon="10.811721430473552"><ele>201.0</ele><time>2026-04-06T09:27:06.003Z</time></trkpt><trkpt lat="43.5984494881991" lon="10.811605754425939"><ele>202.0</ele><time>2026-04-06T09:27:07.003Z</time></trkpt><trkpt lat="43.598503473617775" lon="10.811509932365995"><ele>203.0</ele><time>2026-04-06T09:27:08.003Z</time></trkpt><trkpt lat="43.59854753319567" lon="10.811431537476748"><ele>204.0</ele><time>2026-04-06T09:27:09.003Z</time></trkpt><trkpt lat="43.598627087231584" lon="10.811335543468651"><ele>205.0</ele><time>2026-04-06T09:27:11.003Z</time></trkpt><trkpt lat="43.59875999380169" lon="10.811356386579323"><ele>205.6</ele><time>2026-04-06T09:27:13.003Z</time></trkpt><trkpt lat="43.59883557461995" lon="10.811355602076908"><ele>206.2</ele><time>2026-04-06T09:27:14.003Z</time></trkpt><trkpt lat="43.59892720131871" lon="10.811344177746747"><ele>206.8</ele><time>2026-04-06T09:27:15.003Z</time></trkpt><trkpt lat="43.59901789193188" lon="10.81137261805752"><ele>207.4</ele><time>2026-04-06T09:27:16.003Z</time></trkpt><trkpt lat="43.5991147781424" lon="10.811388077656387"><ele>208.0</ele><time>2026-04-06T09:27:17Z</time></trkpt><trkpt lat="43.59920316809116" lon="10.811432809604774"><ele>207.99999999999997</ele><time>2026-04-06T09:27:18Z</time></trkpt><trkpt lat="43.599289263523225" lon="10.811464193217235"><ele>208.0</ele><time>2026-04-06T09:27:19Z</time></trkpt><trkpt lat="43.59936357355753" lon="10.81144391646663"><ele>208.0</ele><time>2026-04-06T09:27:20Z</time></trkpt><trkpt lat="43.59943982816911" lon="10.811402246792076"><ele>208.0</ele><time>2026-04-06T09:27:21Z</time></trkpt><trkpt lat="43.59951632583633" lon="10.811341482589354"><ele>207.99999999999997</ele><time>2026-04-06T09:27:22Z</time></trkpt><trkpt lat="43.59959161795013" lon="10.811262244857451"><ele>208.0</ele><time>2026-04-06T09:27:23Z</time></trkpt><trkpt lat="43.599669013301764" lon="10.811180888777033"><ele>206.0</ele><time>2026-04-06T09:27:24Z</time></trkpt><trkpt lat="43.59975570797541" lon="10.8111034381148"><ele>204.0</ele><time>2026-04-06T09:27:25Z</time></trkpt><trkpt lat="43.59985075362173" lon="10.811033385468038"><ele>202.0</ele><time>2026-04-06T09:27:26Z</time></trkpt><trkpt lat="43.59994094512029" lon="10.810942105338361"><ele>200.0</ele><time>2026-04-06T09:27:27Z</time></trkpt><trkpt lat="43.60001451090713" lon="10.81082289163009"><ele>198.0</ele><time>2026-04-06T09:27:28Z</time></trkpt><trkpt lat="43.60007803776333" lon="10.810677102819607"><ele>197.0</ele><time>2026-04-06T09:27:29Z</time></trkpt><trkpt lat="43.600140933214995" lon="10.810517868493013"><ele>196.0</ele><time>2026-04-06T09:27:30Z</time></trkpt><trkpt lat="43.60018755572246" lon="10.81036710126829"><ele>195.0</ele><time>2026-04-06T09:27:31Z</time></trkpt><trkpt lat="43.60022621314688" lon="10.810219208772534"><ele>194.0</ele><time>2026-04-06T09:27:32Z</time></trkpt><trkpt lat="43.600262797429885" lon="10.810068874535256"><ele>191.75</ele><time>2026-04-06T09:27:33Z</time></trkpt><trkpt lat="43.600273978680306" lon="10.809907630127936"><ele>189.5</ele><time>2026-04-06T09:27:34Z</time></trkpt><trkpt lat="43.600283256872125" lon="10.80975275553259"><ele>187.25</ele><time>2026-04-06T09:27:35Z</time></trkpt><trkpt lat="43.60029405462163" lon="10.809597923199151"><ele>185.0</ele><time>2026-04-06T09:27:36Z</time></trkpt><trkpt lat="43.60030497867947" lon="10.809431213317982"><ele>184.4</ele><time>2026-04-06T09:27:37Z</time></trkpt><trkpt lat="43.6002982648096" lon="10.809276152955649"><ele>183.8</ele><time>2026-04-06T09:27:38Z</time></trkpt><trkpt lat="43.60027960777604" lon="10.809122482984764"><ele>183.2</ele><time>2026-04-06T09:27:39Z</time></trkpt><trkpt lat="43.600269982009756" lon="10.808983316288964"><ele>182.6</ele><time>2026-04-06T09:27:40Z</time></trkpt><trkpt lat="43.60029658541936" lon="10.808866200321717"><ele>182.0</ele><time>2026-04-06T09:27:41Z</time></trkpt><trkpt lat="43.600353904492415" lon="10.808746811058286"><ele>182.0</ele><time>2026-04-06T09:27:42Z</time></trkpt><trkpt lat="43.60042066792655" lon="10.80870065882869"><ele>182.0</ele><time>2026-04-06T09:27:43Z</time></trkpt><trkpt lat="43.60048266740408" lon="10.80866260876189"><ele>182.0</ele><time>2026-04-06T09:27:44Z</time></trkpt><trkpt lat="43.60055018785829" lon="10.808617451623066"><ele>182.0</ele><time>2026-04-06T09:27:45Z</time></trkpt><trkpt lat="43.60063176613303" lon="10.808604943553197"><ele>182.0</ele><time>2026-04-06T09:27:46Z</time></trkpt><trkpt lat="43.60072089607234" lon="10.8085760972976"><ele>182.0</ele><time>2026-04-06T09:27:47.001Z</time></trkpt><trkpt lat="43.60081513585924" lon="10.808544131373171"><ele>182.0</ele><time>2026-04-06T09:27:48.001Z</time></trkpt><trkpt lat="43.60091258087018" lon="10.808515537087215"><ele>182.0</ele><time>2026-04-06T09:27:49.001Z</time></trkpt><trkpt lat="43.60101242042269" lon="10.808471397856135"><ele>182.0</ele><time>2026-04-06T09:27:50.001Z</time></trkpt><trkpt lat="43.60111763198096" lon="10.808424279093929"><ele>182.0</ele><time>2026-04-06T09:27:51.001Z</time></trkpt><trkpt lat="43.60121499389541" lon="10.80838343719498"><ele>182.0</ele><time>2026-04-06T09:27:52.001Z</time></trkpt><trkpt lat="43.601317774964954" lon="10.808341867419175"><ele>184.6</ele><time>2026-04-06T09:27:53.001Z</time></trkpt><trkpt lat="43.60141470449499" lon="10.80830250348404"><ele>187.2</ele><time>2026-04-06T09:27:54.001Z</time></trkpt><trkpt lat="43.60150608038842" lon="10.80825747099218"><ele>189.8</ele><time>2026-04-06T09:27:55.001Z</time></trkpt><trkpt lat="43.60158573479864" lon="10.808199249271555"><ele>192.4</ele><time>2026-04-06T09:27:56.001Z</time></trkpt><trkpt lat="43.60164597483916" lon="10.808122490785754"><ele>195.0</ele><time>2026-04-06T09:27:57.001Z</time></trkpt><trkpt lat="43.60169185935121" lon="10.808017261189391"><ele>195.0</ele><time>2026-04-06T09:27:58.001Z</time></trkpt><trkpt lat="43.60173674066549" lon="10.807896739751698"><ele>195.0</ele><time>2026-04-06T09:27:59.001Z</time></trkpt><trkpt lat="43.60175339984819" lon="10.807752225377198"><ele>195.0</ele><time>2026-04-06T09:28:00.001Z</time></trkpt><trkpt lat="43.601740771822875" lon="10.807606071044473"><ele>195.0</ele><time>2026-04-06T09:28:01.001Z</time></trkpt><trkpt lat="43.60172516260067" lon="10.807471395617318"><ele>195.0</ele><time>2026-04-06T09:28:02.001Z</time></trkpt><trkpt lat="43.60169200315982" lon="10.80734570228686"><ele>196.6</ele><time>2026-04-06T09:28:03.001Z</time></trkpt><trkpt lat="43.60166200631004" lon="10.807234051424873"><ele>198.2</ele><time>2026-04-06T09:28:04.001Z</time></trkpt><trkpt lat="43.601600880248775" lon="10.807126732719482"><ele>199.8</ele><time>2026-04-06T09:28:05.001Z</time></trkpt><trkpt lat="43.6015736168487" lon="10.807006044726064"><ele>201.4</ele><time>2026-04-06T09:28:06.001Z</time></trkpt><trkpt lat="43.60152358294691" lon="10.80690225179418"><ele>203.0</ele><time>2026-04-06T09:28:07.001Z</time></trkpt><trkpt lat="43.601511541440594" lon="10.806787007422653"><ele>203.0</ele><time>2026-04-06T09:28:08.001Z</time></trkpt><trkpt lat="43.60153275047875" lon="10.806682727895984"><ele>203.0</ele><time>2026-04-06T09:28:09.001Z</time></trkpt><trkpt lat="43.60160876886718" lon="10.806540516358952"><ele>203.0</ele><time>2026-04-06T09:28:11.001Z</time></trkpt><trkpt lat="43.60163745358705" lon="10.806439674542176"><ele>203.0</ele><time>2026-04-06T09:28:12.001Z</time></trkpt><trkpt lat="43.601686678401336" lon="10.806335484147898"><ele>203.0</ele><time>2026-04-06T09:28:13.001Z</time></trkpt><trkpt lat="43.60174532958564" lon="10.806237467352187"><ele>203.00000000000003</ele><time>2026-04-06T09:28:14.001Z</time></trkpt><trkpt lat="43.601788393023305" lon="10.806136074309183"><ele>203.0</ele><time>2026-04-06T09:28:15.001Z</time></trkpt><trkpt lat="43.60181427863196" lon="10.806030417837253"><ele>203.0</ele><time>2026-04-06T09:28:16.001Z</time></trkpt><trkpt lat="43.60182937833961" lon="10.805928345157392"><ele>203.0</ele><time>2026-04-06T09:28:17.001Z</time></trkpt><trkpt lat="43.60184645675123" lon="10.805836897919763"><ele>203.00000000000003</ele><time>2026-04-06T09:28:18.001Z</time></trkpt><trkpt lat="43.60176585196741" lon="10.805732051911669"><ele>203.0</ele><time>2026-04-06T09:28:19.001Z</time></trkpt><trkpt lat="43.601718635028384" lon="10.805629964194233"><ele>202.50000000000003</ele><time>2026-04-06T09:28:20.002Z</time></trkpt><trkpt lat="43.60167369569043" lon="10.805525977838233"><ele>202.0</ele><time>2026-04-06T09:28:21.002Z</time></trkpt><trkpt lat="43.60163089413909" lon="10.805427293842342"><ele>201.5</ele><time>2026-04-06T09:28:22.002Z</time></trkpt><trkpt lat="43.60159230319525" lon="10.805333851639162"><ele>201.0</ele><time>2026-04-06T09:28:23.002Z</time></trkpt><trkpt lat="43.6015606197808" lon="10.805241695024689"><ele>200.50000000000003</ele><time>2026-04-06T09:28:24.002Z</time></trkpt><trkpt lat="43.601514002674485" lon="10.805166423699552"><ele>200.0</ele><time>2026-04-06T09:28:25.002Z</time></trkpt><trkpt lat="43.60145589874649" lon="10.805117346943826"><ele>201.00000000000003</ele><time>2026-04-06T09:28:26.002Z</time></trkpt><trkpt lat="43.601395703219325" lon="10.805078629297737"><ele>202.0</ele><time>2026-04-06T09:28:27.002Z</time></trkpt><trkpt lat="43.601276515344985" lon="10.805042426168232"><ele>203.0</ele><time>2026-04-06T09:28:29.002Z</time></trkpt><trkpt lat="43.60121314242419" lon="10.805009227871654"><ele>204.0</ele><time>2026-04-06T09:28:30.002Z</time></trkpt><trkpt lat="43.601156661895466" lon="10.804942853171376"><ele>205.00000000000003</ele><time>2026-04-06T09:28:31.002Z</time></trkpt><trkpt lat="43.601123116392024" lon="10.804846849482308"><ele>206.0</ele><time>2026-04-06T09:28:32.002Z</time></trkpt><trkpt lat="43.60113842639637" lon="10.80473374119155"><ele>206.0</ele><time>2026-04-06T09:28:33.002Z</time></trkpt><trkpt lat="43.6011599834545" lon="10.804617687626315"><ele>206.0</ele><time>2026-04-06T09:28:34.002Z</time></trkpt><trkpt lat="43.6011932659727" lon="10.804487288043955"><ele>206.0</ele><time>2026-04-06T09:28:35.002Z</time></trkpt><trkpt lat="43.60122566817763" lon="10.804333968532395"><ele>206.0</ele><time>2026-04-06T09:28:36.002Z</time></trkpt><trkpt lat="43.60123378085767" lon="10.804182480315193"><ele>206.0</ele><time>2026-04-06T09:28:37.002Z</time></trkpt><trkpt lat="43.60121749895765" lon="10.804033542760298"><ele>202.25</ele><time>2026-04-06T09:28:38.002Z</time></trkpt><trkpt lat="43.601161029345576" lon="10.803887368474694"><ele>198.5</ele><time>2026-04-06T09:28:39.002Z</time></trkpt><trkpt lat="43.601090450045284" lon="10.803732955298496"><ele>194.75</ele><time>2026-04-06T09:28:40.002Z</time></trkpt><trkpt lat="43.60102416640516" lon="10.803604459322393"><ele>191.0</ele><time>2026-04-06T09:28:41.002Z</time></trkpt><trkpt lat="43.601006787316365" lon="10.803485922135444"><ele>191.0</ele><time>2026-04-06T09:28:42.002Z</time></trkpt><trkpt lat="43.60102405833" lon="10.803388211713651"><ele>191.0</ele><time>2026-04-06T09:28:43.002Z</time></trkpt><trkpt lat="43.6010542636405" lon="10.803297877749678"><ele>191.0</ele><time>2026-04-06T09:28:44.002Z</time></trkpt><trkpt lat="43.60107139844297" lon="10.80320416150051"><ele>191.0</ele><time>2026-04-06T09:28:45.002Z</time></trkpt><trkpt lat="43.60107021240753" lon="10.803107383064319"><ele>191.0</ele><time>2026-04-06T09:28:46.002Z</time></trkpt><trkpt lat="43.601003658659266" lon="10.803011800238547"><ele>191.0</ele><time>2026-04-06T09:28:47.002Z</time></trkpt><trkpt lat="43.60095014573047" lon="10.802934039733808"><ele>191.0</ele><time>2026-04-06T09:28:48.002Z</time></trkpt><trkpt lat="43.60089406183654" lon="10.802857388900412"><ele>191.0</ele><time>2026-04-06T09:28:49.002Z</time></trkpt><trkpt lat="43.60080900124893" lon="10.802796270120039"><ele>191.0</ele><time>2026-04-06T09:28:50.002Z</time></trkpt><trkpt lat="43.60073679942594" lon="10.802711542221303"><ele>191.0</ele><time>2026-04-06T09:28:51.002Z</time></trkpt><trkpt lat="43.60065346003251" lon="10.80264275419492"><ele>191.0</ele><time>2026-04-06T09:28:52.002Z</time></trkpt><trkpt lat="43.60056527279656" lon="10.802596605621742"><ele>190.60000000000002</ele><time>2026-04-06T09:28:53.002Z</time></trkpt><trkpt lat="43.60048966293682" lon="10.802536085744823"><ele>190.2</ele><time>2026-04-06T09:28:54.003Z</time></trkpt><trkpt lat="43.60041638232609" lon="10.802470862220813"><ele>189.8</ele><time>2026-04-06T09:28:55.003Z</time></trkpt><trkpt lat="43.600327913316804" lon="10.802426834213119"><ele>189.39999999999998</ele><time>2026-04-06T09:28:56.003Z</time></trkpt><trkpt lat="43.60023869583606" lon="10.802385186190063"><ele>189.0</ele><time>2026-04-06T09:28:57.003Z</time></trkpt><trkpt lat="43.600135640144075" lon="10.802363059491084"><ele>189.0</ele><time>2026-04-06T09:28:58.003Z</time></trkpt><trkpt lat="43.60003611378404" lon="10.802314236272014"><ele>189.0</ele><time>2026-04-06T09:28:59.003Z</time></trkpt><trkpt lat="43.5999321000918" lon="10.802260506398753"><ele>189.0</ele><time>2026-04-06T09:29:00.003Z</time></trkpt><trkpt lat="43.59980568034858" lon="10.802213015807311"><ele>189.0</ele><time>2026-04-06T09:29:01.003Z</time></trkpt><trkpt lat="43.5996799411664" lon="10.802162366270212"><ele>189.0</ele><time>2026-04-06T09:29:02.003Z</time></trkpt><trkpt lat="43.59955582408121" lon="10.80208734296622"><ele>189.0</ele><time>2026-04-06T09:29:03.003Z</time></trkpt><trkpt lat="43.59944185184695" lon="10.801991815309792"><ele>189.0</ele><time>2026-04-06T09:29:04.003Z</time></trkpt><trkpt lat="43.599352020266764" lon="10.801920704930904"><ele>189.0</ele><time>2026-04-06T09:29:05.003Z</time></trkpt><trkpt lat="43.599268451768474" lon="10.801846592738464"><ele>190.2</ele><time>2026-04-06T09:29:06.003Z</time></trkpt><trkpt lat="43.59920311189702" lon="10.801747442803025"><ele>191.39999999999998</ele><time>2026-04-06T09:29:07.003Z</time></trkpt><trkpt lat="43.599148374615794" lon="10.801618788789241"><ele>192.6</ele><time>2026-04-06T09:29:08.003Z</time></trkpt><trkpt lat="43.59912900210981" lon="10.80148331648506"><ele>193.8</ele><time>2026-04-06T09:29:09.003Z</time></trkpt><trkpt lat="43.59910397134435" lon="10.801348982883646"><ele>195.0</ele><time>2026-04-06T09:29:10.003Z</time></trkpt><trkpt lat="43.599084739500064" lon="10.80120488913456"><ele>195.0</ele><time>2026-04-06T09:29:11.003Z</time></trkpt><trkpt lat="43.59906716784329" lon="10.801046826985921"><ele>195.0</ele><time>2026-04-06T09:29:12.003Z</time></trkpt><trkpt lat="43.59905651601058" lon="10.800890242937731"><ele>195.0</ele><time>2026-04-06T09:29:13.003Z</time></trkpt><trkpt lat="43.59904345014618" lon="10.800732102390455"><ele>195.0</ele><time>2026-04-06T09:29:14.003Z</time></trkpt><trkpt lat="43.59904845264903" lon="10.80055442596278"><ele>196.8</ele><time>2026-04-06T09:29:15.003Z</time></trkpt><trkpt lat="43.5990504867403" lon="10.800356433667439"><ele>198.6</ele><time>2026-04-06T09:29:16.003Z</time></trkpt><trkpt lat="43.59903770071766" lon="10.80020254979448"><ele>200.39999999999998</ele><time>2026-04-06T09:29:17.003Z</time></trkpt><trkpt lat="43.59902325995162" lon="10.800082063454154"><ele>202.2</ele><time>2026-04-06T09:29:18.003Z</time></trkpt><trkpt lat="43.599003285148925" lon="10.799952937210582"><ele>204.0</ele><time>2026-04-06T09:29:19.003Z</time></trkpt><trkpt lat="43.598974713262855" lon="10.799835899543366"><ele>204.0</ele><time>2026-04-06T09:29:20.003Z</time></trkpt><trkpt lat="43.59892826166311" lon="10.799693572425024"><ele>204.0</ele><time>2026-04-06T09:29:21.003Z</time></trkpt><trkpt lat="43.598559466628025" lon="10.800078710207426"><ele>201.5</ele><time>2026-04-06T09:29:22.003Z</time></trkpt><trkpt lat="43.59849610852807" lon="10.799710188312515"><ele>199.0</ele><time>2026-04-06T09:29:23Z</time></trkpt><trkpt lat="43.59868502006205" lon="10.799132991001764"><ele>199.2</ele><time>2026-04-06T09:29:24Z</time></trkpt><trkpt lat="43.598651568514704" lon="10.798997146979596"><ele>199.39999999999998</ele><time>2026-04-06T09:29:25Z</time></trkpt><trkpt lat="43.59864536997857" lon="10.798845619833108"><ele>199.6</ele><time>2026-04-06T09:29:26Z</time></trkpt><trkpt lat="43.5986487352082" lon="10.798707547636127"><ele>199.8</ele><time>2026-04-06T09:29:27Z</time></trkpt><trkpt lat="43.59863869438594" lon="10.798589440159908"><ele>200.0</ele><time>2026-04-06T09:29:28Z</time></trkpt><trkpt lat="43.59860993885142" lon="10.79848686837355"><ele>200.00000000000003</ele><time>2026-04-06T09:29:29Z</time></trkpt><trkpt lat="43.598574140631385" lon="10.798392833261092"><ele>200.0</ele><time>2026-04-06T09:29:30Z</time></trkpt><trkpt lat="43.59853599657721" lon="10.798298080130822"><ele>200.0</ele><time>2026-04-06T09:29:31Z</time></trkpt><trkpt lat="43.59849577805902" lon="10.798197523197349"><ele>200.0</ele><time>2026-04-06T09:29:32Z</time></trkpt><trkpt lat="43.598464674776885" lon="10.798096122727365"><ele>200.00000000000003</ele><time>2026-04-06T09:29:33Z</time></trkpt><trkpt lat="43.59844579487822" lon="10.797983296902025"><ele>200.0</ele><time>2026-04-06T09:29:34Z</time></trkpt><trkpt lat="43.598426177043834" lon="10.797861318513185"><ele>200.00000000000003</ele><time>2026-04-06T09:29:35Z</time></trkpt><trkpt lat="43.59841145474808" lon="10.7977333710521"><ele>200.0</ele><time>2026-04-06T09:29:36Z</time></trkpt><trkpt lat="43.598401522724444" lon="10.79761416380686"><ele>200.0</ele><time>2026-04-06T09:29:37Z</time></trkpt><trkpt lat="43.598384405539335" lon="10.797492906368172"><ele>200.0</ele><time>2026-04-06T09:29:38Z</time></trkpt><trkpt lat="43.598350963404755" lon="10.797402166918975"><ele>200.00000000000003</ele><time>2026-04-06T09:29:39Z</time></trkpt><trkpt lat="43.598299983690325" lon="10.797311247637525"><ele>200.0</ele><time>2026-04-06T09:29:40Z</time></trkpt><trkpt lat="43.59822674497404" lon="10.797225201515667"><ele>201.50000000000003</ele><time>2026-04-06T09:29:41Z</time></trkpt><trkpt lat="43.59815567113214" lon="10.797155149286992"><ele>203.0</ele><time>2026-04-06T09:29:42Z</time></trkpt><trkpt lat="43.59808557496336" lon="10.797109321796794"><ele>204.5</ele><time>2026-04-06T09:29:43Z</time></trkpt><trkpt lat="43.59801386508177" lon="10.797061063986177"><ele>206.0</ele><time>2026-04-06T09:29:44Z</time></trkpt><trkpt lat="43.59793998490698" lon="10.797011695561345"><ele>207.50000000000003</ele><time>2026-04-06T09:29:45Z</time></trkpt><trkpt lat="43.59786376195981" lon="10.796961656015723"><ele>209.0</ele><time>2026-04-06T09:29:46Z</time></trkpt><trkpt lat="43.59778552342058" lon="10.796910387136183"><ele>206.39999999999998</ele><time>2026-04-06T09:29:47Z</time></trkpt><trkpt lat="43.597719331884676" lon="10.796829476683461"><ele>203.8</ele><time>2026-04-06T09:29:48Z</time></trkpt><trkpt lat="43.59764702077855" lon="10.796749923167699"><ele>201.2</ele><time>2026-04-06T09:29:49Z</time></trkpt><trkpt lat="43.5975658622075" lon="10.796666020890918"><ele>198.60000000000002</ele><time>2026-04-06T09:29:50Z</time></trkpt><trkpt lat="43.597483940211504" lon="10.796566798079262"><ele>196.0</ele><time>2026-04-06T09:29:51Z</time></trkpt><trkpt lat="43.59739837411522" lon="10.796472252244973"><ele>196.0</ele><time>2026-04-06T09:29:52Z</time></trkpt><trkpt lat="43.59730066868712" lon="10.796430380038148"><ele>196.0</ele><time>2026-04-06T09:29:53Z</time></trkpt><trkpt lat="43.59719463745247" lon="10.796367722935294"><ele>196.0</ele><time>2026-04-06T09:29:54.001Z</time></trkpt><trkpt lat="43.59710660474424" lon="10.79628912113134"><ele>196.0</ele><time>2026-04-06T09:29:55.001Z</time></trkpt><trkpt lat="43.597033807569105" lon="10.7962309258255"><ele>196.0</ele><time>2026-04-06T09:29:56.001Z</time></trkpt><trkpt lat="43.59697316171865" lon="10.796192779209496"><ele>195.14285714285714</ele><time>2026-04-06T09:29:57.001Z</time></trkpt><trkpt lat="43.59691687149354" lon="10.796125953080175"><ele>194.28571428571428</ele><time>2026-04-06T09:29:58.001Z</time></trkpt><trkpt lat="43.59685621041143" lon="10.796071225400587"><ele>193.42857142857144</ele><time>2026-04-06T09:29:59.001Z</time></trkpt><trkpt lat="43.596795656552715" lon="10.796011519714765"><ele>192.57142857142856</ele><time>2026-04-06T09:30:00.001Z</time></trkpt><trkpt lat="43.59673601013619" lon="10.795952905976687"><ele>191.71428571428572</ele><time>2026-04-06T09:30:01.001Z</time></trkpt><trkpt lat="43.596680056411856" lon="10.795876910309408"><ele>190.85714285714286</ele><time>2026-04-06T09:30:02.001Z</time></trkpt><trkpt lat="43.59661845667001" lon="10.795818430219377"><ele>190.0</ele><time>2026-04-06T09:30:03.001Z</time></trkpt><trkpt lat="43.59655701186225" lon="10.795758874425916"><ele>192.5</ele><time>2026-04-06T09:30:04.001Z</time></trkpt><trkpt lat="43.596499679740816" lon="10.79569175829488"><ele>195.0</ele><time>2026-04-06T09:30:05.001Z</time></trkpt><trkpt lat="43.5964552873769" lon="10.79561099583637"><ele>197.5</ele><time>2026-04-06T09:30:06.001Z</time></trkpt><trkpt lat="43.59641905125925" lon="10.7955176677358"><ele>200.0</ele><time>2026-04-06T09:30:07.001Z</time></trkpt><trkpt lat="43.5963755481994" lon="10.795426094652441"><ele>202.49999999999997</ele><time>2026-04-06T09:30:08.001Z</time></trkpt><trkpt lat="43.596366970155856" lon="10.795311038977289"><ele>205.0</ele><time>2026-04-06T09:30:09.001Z</time></trkpt><trkpt lat="43.596350458974186" lon="10.79520661978115"><ele>203.99999999999997</ele><time>2026-04-06T09:30:10.001Z</time></trkpt><trkpt lat="43.59633343594695" lon="10.795110927483403"><ele>203.0</ele><time>2026-04-06T09:30:11.001Z</time></trkpt><trkpt lat="43.596314416257805" lon="10.795006665033183"><ele>202.0</ele><time>2026-04-06T09:30:12.001Z</time></trkpt><trkpt lat="43.59628845636166" lon="10.794901622522922"><ele>201.0</ele><time>2026-04-06T09:30:13.001Z</time></trkpt><trkpt lat="43.59625893350945" lon="10.794787678041867"><ele>199.99999999999997</ele><time>2026-04-06T09:30:14.001Z</time></trkpt><trkpt lat="43.59624581585735" lon="10.79467172998157"><ele>199.0</ele><time>2026-04-06T09:30:15.001Z</time></trkpt><trkpt lat="43.59622224387775" lon="10.794565103090703"><ele>198.99999999999997</ele><time>2026-04-06T09:30:16.001Z</time></trkpt><trkpt lat="43.59621106128358" lon="10.794447739977482"><ele>199.0</ele><time>2026-04-06T09:30:17.001Z</time></trkpt><trkpt lat="43.5962391183323" lon="10.794342804022204"><ele>199.0</ele><time>2026-04-06T09:30:18.001Z</time></trkpt><trkpt lat="43.596260282066204" lon="10.794240152059189"><ele>199.0</ele><time>2026-04-06T09:30:19.001Z</time></trkpt><trkpt lat="43.59627237762897" lon="10.794122929649173"><ele>198.99999999999997</ele><time>2026-04-06T09:30:20.001Z</time></trkpt><trkpt lat="43.596299706228585" lon="10.793998426046876"><ele>199.0</ele><time>2026-04-06T09:30:21.001Z</time></trkpt><trkpt lat="43.596330752543196" lon="10.79388585528078"><ele>198.39999999999998</ele><time>2026-04-06T09:30:22.001Z</time></trkpt><trkpt lat="43.596359121162514" lon="10.793764002109794"><ele>197.8</ele><time>2026-04-06T09:30:23.001Z</time></trkpt><trkpt lat="43.596388776547" lon="10.793631211251187"><ele>197.2</ele><time>2026-04-06T09:30:24.001Z</time></trkpt><trkpt lat="43.596393594594986" lon="10.793475136001742"><ele>196.60000000000002</ele><time>2026-04-06T09:30:25.001Z</time></trkpt><trkpt lat="43.59637844574777" lon="10.793319866200724"><ele>196.0</ele><time>2026-04-06T09:30:26.001Z</time></trkpt><trkpt lat="43.5963310847005" lon="10.793173234715242"><ele>197.20000000000002</ele><time>2026-04-06T09:30:27.001Z</time></trkpt><trkpt lat="43.59629616753686" lon="10.793041594223485"><ele>198.4</ele><time>2026-04-06T09:30:28.001Z</time></trkpt><trkpt lat="43.59626103843054" lon="10.792930257026338"><ele>199.6</ele><time>2026-04-06T09:30:29.001Z</time></trkpt><trkpt lat="43.596242430975884" lon="10.792824545315447"><ele>200.8</ele><time>2026-04-06T09:30:30.001Z</time></trkpt><trkpt lat="43.59630461884516" lon="10.792675139680815"><ele>202.0</ele><time>2026-04-06T09:30:32.002Z</time></trkpt><trkpt lat="43.59639771419007" lon="10.792674675375547"><ele>204.39999999999998</ele><time>2026-04-06T09:30:33.002Z</time></trkpt><trkpt lat="43.59648098323355" lon="10.792664755199532"><ele>206.79999999999998</ele><time>2026-04-06T09:30:34.002Z</time></trkpt><trkpt lat="43.596573368220895" lon="10.792631445269844"><ele>209.2</ele><time>2026-04-06T09:30:35.002Z</time></trkpt><trkpt lat="43.596667289477296" lon="10.792626649265353"><ele>211.6</ele><time>2026-04-06T09:30:36.002Z</time></trkpt><trkpt lat="43.5967610652457" lon="10.7926212937205"><ele>214.0</ele><time>2026-04-06T09:30:37.002Z</time></trkpt><trkpt lat="43.59685989126832" lon="10.79262393505923"><ele>213.99999999999997</ele><time>2026-04-06T09:30:38.002Z</time></trkpt><trkpt lat="43.59695896137315" lon="10.792609828021897"><ele>214.0</ele><time>2026-04-06T09:30:39.002Z</time></trkpt><trkpt lat="43.59704871111633" lon="10.792580687290673"><ele>214.0</ele><time>2026-04-06T09:30:40.002Z</time></trkpt><trkpt lat="43.59712933793032" lon="10.792528932681455"><ele>214.0</ele><time>2026-04-06T09:30:41.002Z</time></trkpt><trkpt lat="43.5971942813594" lon="10.792451974952069"><ele>213.99999999999997</ele><time>2026-04-06T09:30:42.002Z</time></trkpt><trkpt lat="43.59724424900606" lon="10.792365206742938"><ele>214.0</ele><time>2026-04-06T09:30:43.002Z</time></trkpt><trkpt lat="43.5972755432344" lon="10.792267247675413"><ele>214.39999999999998</ele><time>2026-04-06T09:30:44.002Z</time></trkpt><trkpt lat="43.597292004084075" lon="10.792158276449817"><ele>214.79999999999998</ele><time>2026-04-06T09:30:45.002Z</time></trkpt><trkpt lat="43.597312055415856" lon="10.79204075286197"><ele>215.20000000000002</ele><time>2026-04-06T09:30:46.002Z</time></trkpt><trkpt lat="43.597334889513455" lon="10.791909989540097"><ele>215.60000000000002</ele><time>2026-04-06T09:30:47.002Z</time></trkpt><trkpt lat="43.59735585148231" lon="10.791776746140068"><ele>216.0</ele><time>2026-04-06T09:30:48.002Z</time></trkpt><trkpt lat="43.59736966414353" lon="10.791638010408377"><ele>216.33333333333334</ele><time>2026-04-06T09:30:49.002Z</time></trkpt><trkpt lat="43.597372153151085" lon="10.791498807826038"><ele>216.66666666666669</ele><time>2026-04-06T09:30:50.002Z</time></trkpt><trkpt lat="43.59735783550071" lon="10.79137260926246"><ele>217.0</ele><time>2026-04-06T09:30:51.002Z</time></trkpt><trkpt lat="43.5973201415445" lon="10.7912667883461"><ele>217.33333333333334</ele><time>2026-04-06T09:30:52.002Z</time></trkpt><trkpt lat="43.597303379160124" lon="10.791160835336548"><ele>217.66666666666669</ele><time>2026-04-06T09:30:53.002Z</time></trkpt><trkpt lat="43.597273693075756" lon="10.791057996079308"><ele>218.0</ele><time>2026-04-06T09:30:54.002Z</time></trkpt><trkpt lat="43.59724039081663" lon="10.790949738247708"><ele>215.8</ele><time>2026-04-06T09:30:55.002Z</time></trkpt><trkpt lat="43.597206415520766" lon="10.790842504114249"><ele>213.60000000000002</ele><time>2026-04-06T09:30:56.002Z</time></trkpt><trkpt lat="43.597174346700506" lon="10.790732827124327"><ele>211.39999999999998</ele><time>2026-04-06T09:30:57.002Z</time></trkpt><trkpt lat="43.59713824368152" lon="10.790612255924648"><ele>209.2</ele><time>2026-04-06T09:30:58.002Z</time></trkpt><trkpt lat="43.59708513515424" lon="10.790495452746802"><ele>207.0</ele><time>2026-04-06T09:30:59.002Z</time></trkpt><trkpt lat="43.59703061956956" lon="10.790380100831403"><ele>206.00000000000003</ele><time>2026-04-06T09:31:00.002Z</time></trkpt><trkpt lat="43.59696747425074" lon="10.790287298715256"><ele>205.0</ele><time>2026-04-06T09:31:01.002Z</time></trkpt><trkpt lat="43.596914769295424" lon="10.790213678869062"><ele>204.0</ele><time>2026-04-06T09:31:02.002Z</time></trkpt><trkpt lat="43.59688317585701" lon="10.790134848746398"><ele>203.0</ele><time>2026-04-06T09:31:03.002Z</time></trkpt><trkpt lat="43.5968613070229" lon="10.790040085865177"><ele>202.0</ele><time>2026-04-06T09:31:04.002Z</time></trkpt><trkpt lat="43.59688722111936" lon="10.789939204120827"><ele>201.00000000000003</ele><time>2026-04-06T09:31:05.002Z</time></trkpt><trkpt lat="43.59690473672721" lon="10.789853738373942"><ele>200.0</ele><time>2026-04-06T09:31:06.002Z</time></trkpt><trkpt lat="43.59690312963504" lon="10.789756328055295"><ele>200.00000000000003</ele><time>2026-04-06T09:31:07.003Z</time></trkpt><trkpt lat="43.59691727861785" lon="10.789663264816525"><ele>200.0</ele><time>2026-04-06T09:31:08.003Z</time></trkpt><trkpt lat="43.596927685288485" lon="10.789562143946698"><ele>200.0</ele><time>2026-04-06T09:31:09.003Z</time></trkpt><trkpt lat="43.59692833404682" lon="10.789463016479429"><ele>200.0</ele><time>2026-04-06T09:31:10.003Z</time></trkpt><trkpt lat="43.596926613415945" lon="10.78936347682663"><ele>200.0</ele><time>2026-04-06T09:31:11.003Z</time></trkpt><trkpt lat="43.59692224866772" lon="10.789257063395928"><ele>200.00000000000003</ele><time>2026-04-06T09:31:12.003Z</time></trkpt><trkpt lat="43.59691800195841" lon="10.789140086026654"><ele>200.0</ele><time>2026-04-06T09:31:13.003Z</time></trkpt><trkpt lat="43.59693443531682" lon="10.789054039974017"><ele>199.83333333333334</ele><time>2026-04-06T09:31:14.003Z</time></trkpt><trkpt lat="43.59693586662419" lon="10.788944330845311"><ele>199.66666666666669</ele><time>2026-04-06T09:31:15.003Z</time></trkpt><trkpt lat="43.59694358359158" lon="10.788831493478966"><ele>199.5</ele><time>2026-04-06T09:31:16.003Z</time></trkpt><trkpt lat="43.596966473796606" lon="10.788740677455245"><ele>199.33333333333331</ele><time>2026-04-06T09:31:17.003Z</time></trkpt><trkpt lat="43.59698327700686" lon="10.788627264625328"><ele>199.16666666666666</ele><time>2026-04-06T09:31:18.003Z</time></trkpt><trkpt lat="43.597001457487245" lon="10.788513874906663"><ele>199.0</ele><time>2026-04-06T09:31:19.003Z</time></trkpt><trkpt lat="43.59702649576568" lon="10.78840386478008"><ele>200.99999999999997</ele><time>2026-04-06T09:31:20.003Z</time></trkpt><trkpt lat="43.597059585388806" lon="10.78829255169944"><ele>203.0</ele><time>2026-04-06T09:31:21.003Z</time></trkpt><trkpt lat="43.59710461067647" lon="10.788199417532923"><ele>205.0</ele><time>2026-04-06T09:31:22.003Z</time></trkpt><trkpt lat="43.59713414926425" lon="10.788084585015893"><ele>207.0</ele><time>2026-04-06T09:31:23.003Z</time></trkpt><trkpt lat="43.59717690266822" lon="10.787977344483828"><ele>208.99999999999997</ele><time>2026-04-06T09:31:24.003Z</time></trkpt><trkpt lat="43.597229887314015" lon="10.787889845272765"><ele>211.0</ele><time>2026-04-06T09:31:25.003Z</time></trkpt><trkpt lat="43.59729363486268" lon="10.787821956313277"><ele>210.99999999999997</ele><time>2026-04-06T09:31:26.003Z</time></trkpt><trkpt lat="43.59737132686191" lon="10.787774474710401"><ele>211.0</ele><time>2026-04-06T09:31:27.003Z</time></trkpt><trkpt lat="43.59745174124007" lon="10.787737555495456"><ele>211.0</ele><time>2026-04-06T09:31:28.003Z</time></trkpt><trkpt lat="43.597534088389544" lon="10.787700251310069"><ele>211.0</ele><time>2026-04-06T09:31:29Z</time></trkpt><trkpt lat="43.59761821430386" lon="10.787679084200525"><ele>210.99999999999997</ele><time>2026-04-06T09:31:30Z</time></trkpt><trkpt lat="43.59770020649708" lon="10.78767058848914"><ele>211.0</ele><time>2026-04-06T09:31:31Z</time></trkpt><trkpt lat="43.59778625635287" lon="10.787679780075687"><ele>207.8</ele><time>2026-04-06T09:31:32Z</time></trkpt><trkpt lat="43.59786958365879" lon="10.78769300382807"><ele>204.60000000000002</ele><time>2026-04-06T09:31:33Z</time></trkpt><trkpt lat="43.597959964194715" lon="10.787714373337854"><ele>201.4</ele><time>2026-04-06T09:31:34Z</time></trkpt><trkpt lat="43.59805455759972" lon="10.787727174988047"><ele>198.2</ele><time>2026-04-06T09:31:35Z</time></trkpt><trkpt lat="43.59814992075914" lon="10.787724884241792"><ele>195.0</ele><time>2026-04-06T09:31:36Z</time></trkpt><trkpt lat="43.598245571551104" lon="10.7877234931001"><ele>195.0</ele><time>2026-04-06T09:31:37Z</time></trkpt><trkpt lat="43.59833837291051" lon="10.7877134219484"><ele>195.0</ele><time>2026-04-06T09:31:38Z</time></trkpt><trkpt lat="43.598422363565994" lon="10.78768892130026"><ele>195.0</ele><time>2026-04-06T09:31:39Z</time></trkpt><trkpt lat="43.598500208850936" lon="10.787641678563762"><ele>195.0</ele><time>2026-04-06T09:31:40Z</time></trkpt><trkpt lat="43.598571491952704" lon="10.787560024948016"><ele>195.0</ele><time>2026-04-06T09:31:41Z</time></trkpt><trkpt lat="43.59863914398734" lon="10.787475206001913"><ele>195.0</ele><time>2026-04-06T09:31:42Z</time></trkpt><trkpt lat="43.598697149844966" lon="10.787375730669133"><ele>194.0</ele><time>2026-04-06T09:31:43Z</time></trkpt><trkpt lat="43.598750427587476" lon="10.787268970239793"><ele>193.0</ele><time>2026-04-06T09:31:44Z</time></trkpt><trkpt lat="43.598804638182045" lon="10.787169059336799"><ele>192.0</ele><time>2026-04-06T09:31:45Z</time></trkpt><trkpt lat="43.598840141042295" lon="10.787053081941535"><ele>191.0</ele><time>2026-04-06T09:31:46Z</time></trkpt><trkpt lat="43.59885557004553" lon="10.786917637638382"><ele>190.0</ele><time>2026-04-06T09:31:47Z</time></trkpt><trkpt lat="43.59886865197459" lon="10.786791114412196"><ele>193.0</ele><time>2026-04-06T09:31:48Z</time></trkpt><trkpt lat="43.598874436607645" lon="10.786660649870067"><ele>196.0</ele><time>2026-04-06T09:31:49Z</time></trkpt><trkpt lat="43.59885922942978" lon="10.786531196093756"><ele>199.0</ele><time>2026-04-06T09:31:50Z</time></trkpt><trkpt lat="43.59884632125462" lon="10.786407259006486"><ele>202.0</ele><time>2026-04-06T09:31:51Z</time></trkpt><trkpt lat="43.59882999041974" lon="10.78628324552973"><ele>205.0</ele><time>2026-04-06T09:31:52Z</time></trkpt><trkpt lat="43.59877919919872" lon="10.78617778540902"><ele>205.0</ele><time>2026-04-06T09:31:53Z</time></trkpt><trkpt lat="43.598692291028314" lon="10.786116398184783"><ele>205.0</ele><time>2026-04-06T09:31:54Z</time></trkpt><trkpt lat="43.59859676960391" lon="10.78607958540489"><ele>205.0</ele><time>2026-04-06T09:31:55Z</time></trkpt><trkpt lat="43.598499328779745" lon="10.786025039728445"><ele>205.0</ele><time>2026-04-06T09:31:56Z</time></trkpt><trkpt lat="43.59840828114003" lon="10.785977811226532"><ele>205.0</ele><time>2026-04-06T09:31:57Z</time></trkpt><trkpt lat="43.59831890868745" lon="10.785932760878518"><ele>205.0</ele><time>2026-04-06T09:31:58Z</time></trkpt><trkpt lat="43.59822766597418" lon="10.785886771481438"><ele>205.0</ele><time>2026-04-06T09:31:59Z</time></trkpt><trkpt lat="43.59815693288204" lon="10.785799529997464"><ele>205.0</ele><time>2026-04-06T09:32:00Z</time></trkpt><trkpt lat="43.59810004961741" lon="10.785692153408863"><ele>205.0</ele><time>2026-04-06T09:32:01Z</time></trkpt><trkpt lat="43.598040872360684" lon="10.785595779416946"><ele>205.0</ele><time>2026-04-06T09:32:02Z</time></trkpt><trkpt lat="43.597997069507194" lon="10.785502978273302"><ele>205.0</ele><time>2026-04-06T09:32:03Z</time></trkpt><trkpt lat="43.59795050003278" lon="10.785402151211239"><ele>205.0</ele><time>2026-04-06T09:32:04Z</time></trkpt><trkpt lat="43.59789465987075" lon="10.785302785742598"><ele>205.0</ele><time>2026-04-06T09:32:05.001Z</time></trkpt><trkpt lat="43.59782783052337" lon="10.785210108492825"><ele>205.0</ele><time>2026-04-06T09:32:06.001Z</time></trkpt><trkpt lat="43.597754201207515" lon="10.785119158633357"><ele>205.0</ele><time>2026-04-06T09:32:07.001Z</time></trkpt><trkpt lat="43.59768434774406" lon="10.78503902130078"><ele>204.83333333333331</ele><time>2026-04-06T09:32:08.001Z</time></trkpt><trkpt lat="43.597626250939456" lon="10.784975855782353"><ele>204.66666666666666</ele><time>2026-04-06T09:32:09.001Z</time></trkpt><trkpt lat="43.59755822388142" lon="10.784933220116768"><ele>204.5</ele><time>2026-04-06T09:32:10.001Z</time></trkpt><trkpt lat="43.59750981634149" lon="10.784876341632547"><ele>204.33333333333331</ele><time>2026-04-06T09:32:11.001Z</time></trkpt><trkpt lat="43.59744921420977" lon="10.784822201173046"><ele>204.16666666666666</ele><time>2026-04-06T09:32:12.001Z</time></trkpt><trkpt lat="43.59737559573717" lon="10.784765071629772"><ele>204.0</ele><time>2026-04-06T09:32:13.001Z</time></trkpt><trkpt lat="43.597284798810236" lon="10.784707442937357"><ele>204.0</ele><time>2026-04-06T09:32:14.001Z</time></trkpt><trkpt lat="43.59719021490187" lon="10.78464687026037"><ele>204.0</ele><time>2026-04-06T09:32:15.001Z</time></trkpt><trkpt lat="43.59713305564049" lon="10.784551475146985"><ele>204.0</ele><time>2026-04-06T09:32:16.001Z</time></trkpt><trkpt lat="43.597081063497996" lon="10.784457918384932"><ele>204.0</ele><time>2026-04-06T09:32:17.001Z</time></trkpt><trkpt lat="43.59707199376087" lon="10.78436371654477"><ele>204.0</ele><time>2026-04-06T09:32:18.001Z</time></trkpt><trkpt lat="43.59717056763825" lon="10.784307458778066"><ele>204.0</ele><time>2026-04-06T09:32:21.001Z</time></trkpt><trkpt lat="43.59725031673492" lon="10.784330218222903"><ele>204.0</ele><time>2026-04-06T09:32:24.001Z</time></trkpt><trkpt lat="43.59733293018312" lon="10.784366613197408"><ele>204.0</ele><time>2026-04-06T09:32:25.001Z</time></trkpt><trkpt lat="43.597419052846135" lon="10.784388751255566"><ele>204.0</ele><time>2026-04-06T09:32:26.001Z</time></trkpt><trkpt lat="43.597505205908426" lon="10.784412474576813"><ele>204.0</ele><time>2026-04-06T09:32:27.001Z</time></trkpt><trkpt lat="43.59759839372439" lon="10.784444066374698"><ele>204.0</ele><time>2026-04-06T09:32:28.001Z</time></trkpt><trkpt lat="43.597703369472214" lon="10.784467505560622"><ele>204.0</ele><time>2026-04-06T09:32:29.001Z</time></trkpt><trkpt lat="43.59782707697048" lon="10.784514825946209"><ele>204.0</ele><time>2026-04-06T09:32:30.001Z</time></trkpt><trkpt lat="43.59795577361112" lon="10.784588543342242"><ele>204.0</ele><time>2026-04-06T09:32:31.001Z</time></trkpt><trkpt lat="43.598087260969415" lon="10.784679502950933"><ele>204.0</ele><time>2026-04-06T09:32:32.001Z</time></trkpt><trkpt lat="43.598217343888976" lon="10.784767772999786"><ele>207.66666666666669</ele><time>2026-04-06T09:32:33.001Z</time></trkpt><trkpt lat="43.598358848876565" lon="10.784832683989583"><ele>211.33333333333334</ele><time>2026-04-06T09:32:34.001Z</time></trkpt><trkpt lat="43.5984861358624" lon="10.784899473783133"><ele>215.0</ele><time>2026-04-06T09:32:35.001Z</time></trkpt><trkpt lat="43.598650854859294" lon="10.784947899261422"><ele>216.75</ele><time>2026-04-06T09:32:36.001Z</time></trkpt><trkpt lat="43.59876566057511" lon="10.784961908769345"><ele>218.5</ele><time>2026-04-06T09:32:37.002Z</time></trkpt><trkpt lat="43.59894109915876" lon="10.784957797310527"><ele>220.25</ele><time>2026-04-06T09:32:38.002Z</time></trkpt><trkpt lat="43.59902906742229" lon="10.7849220123938"><ele>222.0</ele><time>2026-04-06T09:32:40.002Z</time></trkpt><trkpt lat="43.59911317252969" lon="10.78486971246694"><ele>222.0</ele><time>2026-04-06T09:32:41.002Z</time></trkpt><trkpt lat="43.59919276457529" lon="10.784765768606915"><ele>222.0</ele><time>2026-04-06T09:32:42.002Z</time></trkpt><trkpt lat="43.59927155444366" lon="10.784650877760571"><ele>222.0</ele><time>2026-04-06T09:32:43.002Z</time></trkpt><trkpt lat="43.59933967168462" lon="10.784573869633832"><ele>222.0</ele><time>2026-04-06T09:32:44.002Z</time></trkpt><trkpt lat="43.5994123036406" lon="10.784530740649393"><ele>222.0</ele><time>2026-04-06T09:32:45.002Z</time></trkpt><trkpt lat="43.599493910064645" lon="10.784524891163331"><ele>221.6</ele><time>2026-04-06T09:32:46.002Z</time></trkpt><trkpt lat="43.599580422998976" lon="10.784519012296775"><ele>221.2</ele><time>2026-04-06T09:32:47.002Z</time></trkpt><trkpt lat="43.5996707562575" lon="10.784524288208994"><ele>220.8</ele><time>2026-04-06T09:32:48.002Z</time></trkpt><trkpt lat="43.599771077408796" lon="10.784535876467016"><ele>220.4</ele><time>2026-04-06T09:32:49.002Z</time></trkpt><trkpt lat="43.59986674238371" lon="10.784566051377066"><ele>220.0</ele><time>2026-04-06T09:32:50.002Z</time></trkpt><trkpt lat="43.599955706765904" lon="10.784615020849486"><ele>219.99999999999997</ele><time>2026-04-06T09:32:51.002Z</time></trkpt><trkpt lat="43.60002848683752" lon="10.784687404104002"><ele>220.0</ele><time>2026-04-06T09:32:52.002Z</time></trkpt><trkpt lat="43.600096448893204" lon="10.784756424450313"><ele>220.0</ele><time>2026-04-06T09:32:53.002Z</time></trkpt><trkpt lat="43.60016261740796" lon="10.784817782607407"><ele>220.0</ele><time>2026-04-06T09:32:54.002Z</time></trkpt><trkpt lat="43.60023353617967" lon="10.784854098650532"><ele>219.99999999999997</ele><time>2026-04-06T09:32:55.002Z</time></trkpt><trkpt lat="43.600309968819474" lon="10.784815554868748"><ele>220.0</ele><time>2026-04-06T09:32:56.002Z</time></trkpt><trkpt lat="43.60035927126549" lon="10.784712643815237"><ele>218.6</ele><time>2026-04-06T09:32:57.002Z</time></trkpt><trkpt lat="43.60038672715768" lon="10.784595214218502"><ele>217.2</ele><time>2026-04-06T09:32:58.002Z</time></trkpt><trkpt lat="43.60038451824441" lon="10.784443761915036"><ele>215.8</ele><time>2026-04-06T09:32:59.002Z</time></trkpt><trkpt lat="43.60038344547277" lon="10.784288026389222"><ele>214.4</ele><time>2026-04-06T09:33:00.002Z</time></trkpt><trkpt lat="43.60033284886253" lon="10.784135158743027"><ele>213.0</ele><time>2026-04-06T09:33:01.002Z</time></trkpt><trkpt lat="43.60026377740725" lon="10.784009038704005"><ele>213.0</ele><time>2026-04-06T09:33:02.002Z</time></trkpt><trkpt lat="43.600191396645485" lon="10.783883855968059"><ele>213.0</ele><time>2026-04-06T09:33:03.002Z</time></trkpt><trkpt lat="43.60011422378067" lon="10.783767702743823"><ele>213.0</ele><time>2026-04-06T09:33:04.002Z</time></trkpt><trkpt lat="43.600035798297" lon="10.78364658755982"><ele>213.0</ele><time>2026-04-06T09:33:05.002Z</time></trkpt><trkpt lat="43.599969359742126" lon="10.783535456264861"><ele>211.60000000000002</ele><time>2026-04-06T09:33:06.002Z</time></trkpt><trkpt lat="43.599931644983" lon="10.783425478338144"><ele>210.20000000000002</ele><time>2026-04-06T09:33:07.002Z</time></trkpt><trkpt lat="43.59990454080259" lon="10.783298044481281"><ele>208.8</ele><time>2026-04-06T09:33:08.002Z</time></trkpt><trkpt lat="43.59992439332857" lon="10.783146381932848"><ele>207.4</ele><time>2026-04-06T09:33:09.002Z</time></trkpt><trkpt lat="43.59994439407812" lon="10.7829865175538"><ele>206.0</ele><time>2026-04-06T09:33:10.003Z</time></trkpt><trkpt lat="43.5999419667232" lon="10.782839819604488"><ele>204.0</ele><time>2026-04-06T09:33:11.003Z</time></trkpt><trkpt lat="43.59992353398609" lon="10.782680390082582"><ele>202.0</ele><time>2026-04-06T09:33:12.003Z</time></trkpt><trkpt lat="43.59989797534224" lon="10.782528459035637"><ele>200.0</ele><time>2026-04-06T09:33:13.003Z</time></trkpt><trkpt lat="43.599901986060544" lon="10.78239409010217"><ele>198.0</ele><time>2026-04-06T09:33:14.003Z</time></trkpt><trkpt lat="43.599942484879065" lon="10.782255135156943"><ele>196.0</ele><time>2026-04-06T09:33:15.003Z</time></trkpt><trkpt lat="43.600002333144694" lon="10.782136397016561"><ele>196.0</ele><time>2026-04-06T09:33:16.003Z</time></trkpt><trkpt lat="43.60007888750586" lon="10.782029921188698"><ele>196.0</ele><time>2026-04-06T09:33:17.003Z</time></trkpt><trkpt lat="43.600154838804634" lon="10.781925967662836"><ele>196.0</ele><time>2026-04-06T09:33:18.003Z</time></trkpt><trkpt lat="43.600230278749656" lon="10.781819376045377"><ele>196.0</ele><time>2026-04-06T09:33:19.003Z</time></trkpt><trkpt lat="43.60029969301257" lon="10.781706449755822"><ele>196.0</ele><time>2026-04-06T09:33:20.003Z</time></trkpt><trkpt lat="43.60036707605489" lon="10.78159417077516"><ele>196.0</ele><time>2026-04-06T09:33:21.003Z</time></trkpt><trkpt lat="43.60042413189899" lon="10.781483236559712"><ele>196.0</ele><time>2026-04-06T09:33:22.003Z</time></trkpt><trkpt lat="43.600491053569726" lon="10.781384450444733"><ele>196.0</ele><time>2026-04-06T09:33:23.003Z</time></trkpt><trkpt lat="43.60055626611738" lon="10.78129290902748"><ele>196.0</ele><time>2026-04-06T09:33:24.003Z</time></trkpt><trkpt lat="43.60062151801268" lon="10.781212581816858"><ele>196.0</ele><time>2026-04-06T09:33:25.003Z</time></trkpt><trkpt lat="43.600686959305634" lon="10.781140608155669"><ele>196.0</ele><time>2026-04-06T09:33:26.003Z</time></trkpt><trkpt lat="43.600753861560854" lon="10.781071836188714"><ele>196.0</ele><time>2026-04-06T09:33:27.003Z</time></trkpt><trkpt lat="43.60083270004798" lon="10.780998019863127"><ele>196.0</ele><time>2026-04-06T09:33:28.003Z</time></trkpt><trkpt lat="43.6009171500966" lon="10.780938073563714"><ele>196.0</ele><time>2026-04-06T09:33:29.003Z</time></trkpt><trkpt lat="43.601017769615844" lon="10.780908740856939"><ele>196.0</ele><time>2026-04-06T09:33:30.003Z</time></trkpt><trkpt lat="43.60111575454131" lon="10.780925526208934"><ele>195.0</ele><time>2026-04-06T09:33:31.003Z</time></trkpt><trkpt lat="43.601213090025624" lon="10.78096931593194"><ele>194.0</ele><time>2026-04-06T09:33:32.003Z</time></trkpt><trkpt lat="43.601303517287775" lon="10.78102274440795"><ele>193.0</ele><time>2026-04-06T09:33:33.003Z</time></trkpt><trkpt lat="43.60139229454389" lon="10.781069952661717"><ele>192.0</ele><time>2026-04-06T09:33:34.003Z</time></trkpt><trkpt lat="43.60148064594676" lon="10.781118276334002"><ele>191.0</ele><time>2026-04-06T09:33:34.998Z</time></trkpt><trkpt lat="43.60156996766272" lon="10.781159578927882"><ele>191.0</ele><time>2026-04-06T09:33:35.998Z</time></trkpt><trkpt lat="43.60165619890242" lon="10.781195877512104"><ele>191.0</ele><time>2026-04-06T09:33:36.999Z</time></trkpt><trkpt lat="43.601736793828394" lon="10.781213431316235"><ele>191.0</ele><time>2026-04-06T09:33:37.999Z</time></trkpt><trkpt lat="43.60182813106019" lon="10.78122447222658"><ele>191.0</ele><time>2026-04-06T09:33:38.999Z</time></trkpt><trkpt lat="43.60191428620162" lon="10.781227676943466"><ele>191.0</ele><time>2026-04-06T09:33:39.999Z</time></trkpt><trkpt lat="43.60200535007832" lon="10.781227585861586"><ele>191.0</ele><time>2026-04-06T09:33:40.999Z</time></trkpt><trkpt lat="43.60209531423261" lon="10.781243539767356"><ele>192.0</ele><time>2026-04-06T09:33:41.999Z</time></trkpt><trkpt lat="43.60218460678921" lon="10.7812045073498"><ele>193.0</ele><time>2026-04-06T09:33:42.999Z</time></trkpt><trkpt lat="43.60227727374531" lon="10.781179244238027"><ele>194.0</ele><time>2026-04-06T09:33:43.999Z</time></trkpt><trkpt lat="43.60236141976893" lon="10.781140433971256"><ele>195.0</ele><time>2026-04-06T09:33:44.999Z</time></trkpt><trkpt lat="43.60243905808175" lon="10.781081743338884"><ele>196.0</ele><time>2026-04-06T09:33:45.999Z</time></trkpt><trkpt lat="43.60251444338557" lon="10.780999584914811"><ele>196.0</ele><time>2026-04-06T09:33:46.999Z</time></trkpt><trkpt lat="43.6026028748275" lon="10.780889649405795"><ele>196.0</ele><time>2026-04-06T09:33:47.999Z</time></trkpt><trkpt lat="43.60268975444364" lon="10.780777619088017"><ele>196.0</ele><time>2026-04-06T09:33:48.999Z</time></trkpt><trkpt lat="43.60279039411522" lon="10.780650970674294"><ele>196.0</ele><time>2026-04-06T09:33:49.999Z</time></trkpt><trkpt lat="43.602899121991136" lon="10.780516909675713"><ele>201.0</ele><time>2026-04-06T09:33:50.999Z</time></trkpt><trkpt lat="43.60301115775688" lon="10.780375716423114"><ele>206.0</ele><time>2026-04-06T09:33:51.999Z</time></trkpt><trkpt lat="43.60311914378939" lon="10.780225524132344"><ele>211.0</ele><time>2026-04-06T09:33:52.999Z</time></trkpt><trkpt lat="43.6032181137896" lon="10.78006755933554"><ele>212.25</ele><time>2026-04-06T09:33:53.999Z</time></trkpt><trkpt lat="43.60330270292512" lon="10.779927555646339"><ele>213.5</ele><time>2026-04-06T09:33:54.999Z</time></trkpt><trkpt lat="43.603353758785445" lon="10.779770797247622"><ele>214.75</ele><time>2026-04-06T09:33:55.999Z</time></trkpt><trkpt lat="43.603405956414996" lon="10.779625537841568"><ele>216.0</ele><time>2026-04-06T09:33:57Z</time></trkpt><trkpt lat="43.60340674590234" lon="10.779467124761293"><ele>215.75</ele><time>2026-04-06T09:33:58Z</time></trkpt><trkpt lat="43.60339137448119" lon="10.779307894774192"><ele>215.5</ele><time>2026-04-06T09:33:59Z</time></trkpt><trkpt lat="43.60336674757405" lon="10.779144460058314"><ele>215.25</ele><time>2026-04-06T09:34:00Z</time></trkpt><trkpt lat="43.60333963513853" lon="10.778970272886502"><ele>215.0</ele><time>2026-04-06T09:34:01Z</time></trkpt><trkpt lat="43.603304556185655" lon="10.778789317563653"><ele>215.0</ele><time>2026-04-06T09:34:02Z</time></trkpt><trkpt lat="43.603262357134355" lon="10.77860162858164"><ele>215.0</ele><time>2026-04-06T09:34:03Z</time></trkpt><trkpt lat="43.603228357554784" lon="10.778423067641217"><ele>215.0</ele><time>2026-04-06T09:34:04Z</time></trkpt><trkpt lat="43.60319780675003" lon="10.77825679038188"><ele>215.0</ele><time>2026-04-06T09:34:05Z</time></trkpt><trkpt lat="43.603181871191794" lon="10.778095494905548"><ele>213.5</ele><time>2026-04-06T09:34:06Z</time></trkpt><trkpt lat="43.60320107037281" lon="10.77793563235741"><ele>212.0</ele><time>2026-04-06T09:34:07Z</time></trkpt><trkpt lat="43.60322988128107" lon="10.777774750846369"><ele>210.5</ele><time>2026-04-06T09:34:08Z</time></trkpt><trkpt lat="43.60326838741204" lon="10.777618653718013"><ele>209.0</ele><time>2026-04-06T09:34:09Z</time></trkpt><trkpt lat="43.60329434744515" lon="10.77745355018268"><ele>208.79999999999998</ele><time>2026-04-06T09:34:10Z</time></trkpt><trkpt lat="43.6033127111912" lon="10.777289665561858"><ele>208.6</ele><time>2026-04-06T09:34:11Z</time></trkpt><trkpt lat="43.60333688657042" lon="10.777138182376486"><ele>208.4</ele><time>2026-04-06T09:34:12Z</time></trkpt><trkpt lat="43.603374362994934" lon="10.77701713220881"><ele>208.2</ele><time>2026-04-06T09:34:13Z</time></trkpt><trkpt lat="43.60344205281896" lon="10.776935174057792"><ele>208.0</ele><time>2026-04-06T09:34:14Z</time></trkpt><trkpt lat="43.603524717785405" lon="10.776925614426249"><ele>208.0</ele><time>2026-04-06T09:34:15Z</time></trkpt><trkpt lat="43.60360348381989" lon="10.776909052128659"><ele>208.0</ele><time>2026-04-06T09:34:16Z</time></trkpt><trkpt lat="43.603666513591655" lon="10.776885245726906"><ele>208.0</ele><time>2026-04-06T09:34:17Z</time></trkpt><trkpt lat="43.603731903750536" lon="10.77685843794155"><ele>208.0</ele><time>2026-04-06T09:34:18Z</time></trkpt><trkpt lat="43.6038022584848" lon="10.776825808357144"><ele>208.0</ele><time>2026-04-06T09:34:19.001Z</time></trkpt><trkpt lat="43.60387039476161" lon="10.776810134508418"><ele>208.0</ele><time>2026-04-06T09:34:20.001Z</time></trkpt><trkpt lat="43.60394703146061" lon="10.77679136931616"><ele>208.0</ele><time>2026-04-06T09:34:21.001Z</time></trkpt><trkpt lat="43.604021269595876" lon="10.776762876157203"><ele>207.28571428571428</ele><time>2026-04-06T09:34:22.001Z</time></trkpt><trkpt lat="43.60409147473311" lon="10.776740318098621"><ele>206.57142857142858</ele><time>2026-04-06T09:34:23.001Z</time></trkpt><trkpt lat="43.604165520474396" lon="10.776717732967356"><ele>205.85714285714286</ele><time>2026-04-06T09:34:24.001Z</time></trkpt><trkpt lat="43.60422808292986" lon="10.776676722070812"><ele>205.14285714285714</ele><time>2026-04-06T09:34:25.001Z</time></trkpt><trkpt lat="43.604284283034595" lon="10.776623079775115"><ele>204.42857142857144</ele><time>2026-04-06T09:34:26.001Z</time></trkpt><trkpt lat="43.60434673578527" lon="10.776563389109"><ele>203.71428571428572</ele><time>2026-04-06T09:34:27.001Z</time></trkpt><trkpt lat="43.60440096800004" lon="10.776489868299226"><ele>203.0</ele><time>2026-04-06T09:34:28.001Z</time></trkpt><trkpt lat="43.60445340290846" lon="10.77641254477457"><ele>203.57142857142858</ele><time>2026-04-06T09:34:29.001Z</time></trkpt><trkpt lat="43.60450201662009" lon="10.7763376341225"><ele>204.14285714285714</ele><time>2026-04-06T09:34:30.001Z</time></trkpt><trkpt lat="43.604542903934124" lon="10.77626819547876"><ele>204.71428571428572</ele><time>2026-04-06T09:34:31.001Z</time></trkpt><trkpt lat="43.604597609376924" lon="10.776204106122995"><ele>205.28571428571428</ele><time>2026-04-06T09:34:32.001Z</time></trkpt><trkpt lat="43.60466561199791" lon="10.776157125082184"><ele>205.85714285714286</ele><time>2026-04-06T09:34:33.001Z</time></trkpt><trkpt lat="43.6047249921212" lon="10.77610677679159"><ele>206.42857142857144</ele><time>2026-04-06T09:34:34.001Z</time></trkpt><trkpt lat="43.60478269562753" lon="10.776060851305578"><ele>207.0</ele><time>2026-04-06T09:34:35.001Z</time></trkpt><trkpt lat="43.60485474497223" lon="10.77602967993245"><ele>206.71428571428572</ele><time>2026-04-06T09:34:36.001Z</time></trkpt><trkpt lat="43.604931792591486" lon="10.776009414075796"><ele>206.42857142857144</ele><time>2026-04-06T09:34:37.001Z</time></trkpt><trkpt lat="43.60499972492211" lon="10.775971073160374"><ele>206.14285714285717</ele><time>2026-04-06T09:34:38.001Z</time></trkpt><trkpt lat="43.605069611250876" lon="10.775955191909487"><ele>205.85714285714286</ele><time>2026-04-06T09:34:39.001Z</time></trkpt><trkpt lat="43.60514437659196" lon="10.775953500529091"><ele>205.57142857142856</ele><time>2026-04-06T09:34:40.001Z</time></trkpt><trkpt lat="43.60520391115836" lon="10.775912436430604"><ele>205.2857142857143</ele><time>2026-04-06T09:34:41.001Z</time></trkpt><trkpt lat="43.60527041276522" lon="10.775851798178504"><ele>205.0</ele><time>2026-04-06T09:34:42.001Z</time></trkpt><trkpt lat="43.605315289741476" lon="10.775777596430714"><ele>203.49999999999997</ele><time>2026-04-06T09:34:43.001Z</time></trkpt><trkpt lat="43.60537670307345" lon="10.775653324056552"><ele>202.0</ele><time>2026-04-06T09:34:45.001Z</time></trkpt><trkpt lat="43.60545140701473" lon="10.775600513069497"><ele>200.5</ele><time>2026-04-06T09:34:48.001Z</time></trkpt><trkpt lat="43.60549251079919" lon="10.775530274509613"><ele>199.0</ele><time>2026-04-06T09:36:59.002Z</time></trkpt><trkpt lat="43.605519449794706" lon="10.77544512966899"><ele>197.49999999999997</ele><time>2026-04-06T09:37:01.002Z</time></trkpt><trkpt lat="43.605602886793505" lon="10.775333416638501"><ele>196.0</ele><time>2026-04-06T09:37:03.002Z</time></trkpt><trkpt lat="43.6056604775799" lon="10.775220396297705"><ele>198.0</ele><time>2026-04-06T09:37:05.002Z</time></trkpt><trkpt lat="43.60572337819949" lon="10.775114932261454"><ele>200.0</ele><time>2026-04-06T09:37:07.002Z</time></trkpt><trkpt lat="43.60579168985037" lon="10.775023914898163"><ele>202.0</ele><time>2026-04-06T09:37:09.002Z</time></trkpt><trkpt lat="43.605862877782094" lon="10.774926120384372"><ele>204.0</ele><time>2026-04-06T09:37:11.002Z</time></trkpt><trkpt lat="43.605934971387974" lon="10.774827142092445"><ele>206.0</ele><time>2026-04-06T09:37:13.002Z</time></trkpt><trkpt lat="43.60600358938153" lon="10.774723685671837"><ele>206.0</ele><time>2026-04-06T09:37:15.002Z</time></trkpt><trkpt lat="43.60604362150972" lon="10.774593723984843"><ele>206.0</ele><time>2026-04-06T09:37:17.003Z</time></trkpt><trkpt lat="43.606059510784696" lon="10.774488230473802"><ele>206.0</ele><time>2026-04-06T09:37:19.003Z</time></trkpt><trkpt lat="43.606196697810404" lon="10.774489034024308"><ele>206.0</ele><time>2026-04-06T09:37:27.003Z</time></trkpt><trkpt lat="43.60627491776587" lon="10.77451688632271"><ele>206.0</ele><time>2026-04-06T09:37:28.003Z</time></trkpt><trkpt lat="43.60635539311836" lon="10.774540688353738"><ele>205.8</ele><time>2026-04-06T09:37:29.003Z</time></trkpt><trkpt lat="43.606446196270134" lon="10.774558914689539"><ele>205.60000000000002</ele><time>2026-04-06T09:37:30.003Z</time></trkpt><trkpt lat="43.60655235808145" lon="10.774582611774767"><ele>205.4</ele><time>2026-04-06T09:37:31.003Z</time></trkpt><trkpt lat="43.60665005368319" lon="10.774611370289831"><ele>205.2</ele><time>2026-04-06T09:37:32.003Z</time></trkpt><trkpt lat="43.60672853377838" lon="10.77462063326576"><ele>205.0</ele><time>2026-04-06T09:37:33.003Z</time></trkpt><trkpt lat="43.606803391547075" lon="10.774612289144535"><ele>204.99999999999997</ele><time>2026-04-06T09:37:34.003Z</time></trkpt><trkpt lat="43.60687808033759" lon="10.77463366255597"><ele>205.0</ele><time>2026-04-06T09:37:35.003Z</time></trkpt><trkpt lat="43.606947974634714" lon="10.774650753656887"><ele>205.0</ele><time>2026-04-06T09:37:36.003Z</time></trkpt><trkpt lat="43.60702527430694" lon="10.774668748050185"><ele>205.0</ele><time>2026-04-06T09:37:37.003Z</time></trkpt><trkpt lat="43.60714323095203" lon="10.774663774839118"><ele>204.99999999999997</ele><time>2026-04-06T09:37:39.003Z</time></trkpt><trkpt lat="43.60723823684663" lon="10.77464934475845"><ele>205.0</ele><time>2026-04-06T09:37:41.003Z</time></trkpt><trkpt lat="43.607314663461445" lon="10.774660182412992"><ele>205.6</ele><time>2026-04-06T09:37:42.003Z</time></trkpt><trkpt lat="43.60743843877042" lon="10.774669094536572"><ele>206.2</ele><time>2026-04-06T09:37:44.003Z</time></trkpt><trkpt lat="43.60750353392502" lon="10.774666074470758"><ele>206.8</ele><time>2026-04-06T09:37:45.003Z</time></trkpt><trkpt lat="43.607582805420115" lon="10.774657363025174"><ele>207.4</ele><time>2026-04-06T09:37:46.003Z</time></trkpt><trkpt lat="43.60773084399823" lon="10.7746861094441"><ele>208.0</ele><time>2026-04-06T09:37:48.001Z</time></trkpt><trkpt lat="43.60781793808513" lon="10.774687966300547"><ele>204.25</ele><time>2026-04-06T09:37:49.001Z</time></trkpt><trkpt lat="43.60793277394691" lon="10.774680944409079"><ele>200.5</ele><time>2026-04-06T09:37:50.001Z</time></trkpt><trkpt lat="43.60805155304597" lon="10.774658551241123"><ele>196.75</ele><time>2026-04-06T09:37:51.001Z</time></trkpt><trkpt lat="43.60815980815298" lon="10.774635720900253"><ele>193.0</ele><time>2026-04-06T09:37:52.001Z</time></trkpt><trkpt lat="43.60827598220166" lon="10.774583881351438"><ele>193.0</ele><time>2026-04-06T09:37:53.001Z</time></trkpt><trkpt lat="43.608373045450286" lon="10.77452117003462"><ele>193.0</ele><time>2026-04-06T09:37:54Z</time></trkpt><trkpt lat="43.608442727887734" lon="10.774379619559102"><ele>193.0</ele><time>2026-04-06T09:37:55Z</time></trkpt><trkpt lat="43.60848101150811" lon="10.774220819584547"><ele>193.0</ele><time>2026-04-06T09:37:56Z</time></trkpt><trkpt lat="43.6084953078862" lon="10.774113886562844"><ele>193.0</ele><time>2026-04-06T09:37:57Z</time></trkpt><trkpt lat="43.60853315226367" lon="10.773996798088856"><ele>193.2</ele><time>2026-04-06T09:37:58Z</time></trkpt><trkpt lat="43.608567952967284" lon="10.773900757224453"><ele>193.4</ele><time>2026-04-06T09:37:59Z</time></trkpt><trkpt lat="43.608666604988315" lon="10.773779790958402"><ele>193.6</ele><time>2026-04-06T09:38:01Z</time></trkpt><trkpt lat="43.608724851064665" lon="10.773724387828674"><ele>193.79999999999998</ele><time>2026-04-06T09:38:02Z</time></trkpt><trkpt lat="43.608796538643375" lon="10.77366816985327"><ele>194.0</ele><time>2026-04-06T09:38:03Z</time></trkpt><trkpt lat="43.608888634676354" lon="10.773649348406671"><ele>193.2</ele><time>2026-04-06T09:38:04Z</time></trkpt><trkpt lat="43.6089548998771" lon="10.773612276065261"><ele>192.39999999999998</ele><time>2026-04-06T09:38:05Z</time></trkpt><trkpt lat="43.609072320939376" lon="10.773617725755345"><ele>191.6</ele><time>2026-04-06T09:38:07Z</time></trkpt><trkpt lat="43.60918032396681" lon="10.773630041911982"><ele>190.8</ele><time>2026-04-06T09:38:09Z</time></trkpt><trkpt lat="43.60926271436" lon="10.773657470932006"><ele>190.0</ele><time>2026-04-06T09:38:10Z</time></trkpt><trkpt lat="43.60933227069843" lon="10.773730688684676"><ele>190.0</ele><time>2026-04-06T09:38:12.001Z</time></trkpt><trkpt lat="43.6093924370454" lon="10.773787890730928"><ele>190.0</ele><time>2026-04-06T09:38:14.001Z</time></trkpt><trkpt lat="43.609514154096274" lon="10.773856380098117"><ele>190.0</ele><time>2026-04-06T09:38:16.001Z</time></trkpt><trkpt lat="43.60957190031984" lon="10.774043222071512"><ele>190.0</ele><time>2026-04-06T09:38:17.001Z</time></trkpt><trkpt lat="43.609604883061344" lon="10.77415630653717"><ele>190.0</ele><time>2026-04-06T09:38:18.001Z</time></trkpt><trkpt lat="43.60970812569574" lon="10.774180762475526"><ele>193.0</ele><time>2026-04-06T09:38:19.001Z</time></trkpt><trkpt lat="43.60978183036424" lon="10.774211192572919"><ele>196.0</ele><time>2026-04-06T09:38:20.001Z</time></trkpt><trkpt lat="43.60985033704055" lon="10.774248187322517"><ele>199.0</ele><time>2026-04-06T09:38:21.001Z</time></trkpt><trkpt lat="43.60992873954265" lon="10.774282628744707"><ele>202.0</ele><time>2026-04-06T09:38:22.001Z</time></trkpt><trkpt lat="43.61009721171853" lon="10.774323132539031"><ele>205.0</ele><time>2026-04-06T09:38:24.001Z</time></trkpt><trkpt lat="43.610175901522055" lon="10.774333922880576"><ele>204.99999999999997</ele><time>2026-04-06T09:38:25.001Z</time></trkpt><trkpt lat="43.61025988614423" lon="10.774303774432598"><ele>205.0</ele><time>2026-04-06T09:38:26.001Z</time></trkpt><trkpt lat="43.61034934396001" lon="10.774289491707565"><ele>205.0</ele><time>2026-04-06T09:38:27.001Z</time></trkpt><trkpt lat="43.610434688649974" lon="10.774292457172404"><ele>205.0</ele><time>2026-04-06T09:38:28.001Z</time></trkpt><trkpt lat="43.61052070984999" lon="10.774283865379157"><ele>204.99999999999997</ele><time>2026-04-06T09:38:29.001Z</time></trkpt><trkpt lat="43.61061449951739" lon="10.774273597557846"><ele>205.0</ele><time>2026-04-06T09:38:30.001Z</time></trkpt><trkpt lat="43.61070247055795" lon="10.774272560187798"><ele>205.2</ele><time>2026-04-06T09:38:31.001Z</time></trkpt><trkpt lat="43.61079341492497" lon="10.774272728140232"><ele>205.4</ele><time>2026-04-06T09:38:32.001Z</time></trkpt><trkpt lat="43.61088652392559" lon="10.774273989958827"><ele>205.60000000000002</ele><time>2026-04-06T09:38:33.001Z</time></trkpt><trkpt lat="43.6109787647495" lon="10.774282767378642"><ele>205.8</ele><time>2026-04-06T09:38:34.001Z</time></trkpt><trkpt lat="43.6110693491777" lon="10.774288986597911"><ele>206.0</ele><time>2026-04-06T09:38:35.001Z</time></trkpt><trkpt lat="43.61115316732342" lon="10.774328817021981"><ele>204.83333333333334</ele><time>2026-04-06T09:38:36.001Z</time></trkpt><trkpt lat="43.611230761555284" lon="10.77438158798778"><ele>203.66666666666669</ele><time>2026-04-06T09:38:37.001Z</time></trkpt><trkpt lat="43.61130678879833" lon="10.774448584429702"><ele>202.5</ele><time>2026-04-06T09:38:38.001Z</time></trkpt><trkpt lat="43.61138036259695" lon="10.774522509547218"><ele>201.33333333333331</ele><time>2026-04-06T09:38:39.001Z</time></trkpt><trkpt lat="43.61142001395396" lon="10.774646423544159"><ele>200.16666666666666</ele><time>2026-04-06T09:38:40.001Z</time></trkpt><trkpt lat="43.61146125032599" lon="10.774745566377623"><ele>199.0</ele><time>2026-04-06T09:38:41.001Z</time></trkpt><trkpt lat="43.61149480776476" lon="10.774858951678121"><ele>198.99999999999997</ele><time>2026-04-06T09:38:42.001Z</time></trkpt><trkpt lat="43.61151786194092" lon="10.774968049694422"><ele>199.0</ele><time>2026-04-06T09:38:43.001Z</time></trkpt><trkpt lat="43.61153428919864" lon="10.775065274834086"><ele>199.0</ele><time>2026-04-06T09:38:44.001Z</time></trkpt><trkpt lat="43.611576854141" lon="10.775142190491183"><ele>199.0</ele><time>2026-04-06T09:38:45.001Z</time></trkpt><trkpt lat="43.611610802048325" lon="10.775222018090195"><ele>199.0</ele><time>2026-04-06T09:38:46.001Z</time></trkpt><trkpt lat="43.61166452270413" lon="10.775269584463361"><ele>198.99999999999997</ele><time>2026-04-06T09:38:47.001Z</time></trkpt><trkpt lat="43.61174855293342" lon="10.775292615924158"><ele>199.0</ele><time>2026-04-06T09:38:48.001Z</time></trkpt><trkpt lat="43.6118255279361" lon="10.775327851059318"><ele>200.16666666666666</ele><time>2026-04-06T09:38:49.001Z</time></trkpt><trkpt lat="43.61189100427765" lon="10.775379159484682"><ele>201.33333333333331</ele><time>2026-04-06T09:38:50.001Z</time></trkpt><trkpt lat="43.611932362183516" lon="10.775458088631865"><ele>202.5</ele><time>2026-04-06T09:38:51.001Z</time></trkpt><trkpt lat="43.61195749861911" lon="10.775549422857337"><ele>203.66666666666669</ele><time>2026-04-06T09:38:52.001Z</time></trkpt><trkpt lat="43.611993214704476" lon="10.775649198405038"><ele>204.83333333333334</ele><time>2026-04-06T09:38:53.001Z</time></trkpt><trkpt lat="43.61201944658063" lon="10.775754698798345"><ele>206.0</ele><time>2026-04-06T09:38:54.001Z</time></trkpt><trkpt lat="43.61204451752065" lon="10.77586625475351"><ele>206.0</ele><time>2026-04-06T09:38:55.001Z</time></trkpt><trkpt lat="43.612082316729555" lon="10.775965923190332"><ele>206.0</ele><time>2026-04-06T09:38:56.001Z</time></trkpt><trkpt lat="43.61214622678455" lon="10.776044980193735"><ele>206.0</ele><time>2026-04-06T09:38:57.001Z</time></trkpt><trkpt lat="43.61220416995459" lon="10.77616616550658"><ele>206.0</ele><time>2026-04-06T09:38:58.002Z</time></trkpt><trkpt lat="43.61227630653087" lon="10.776263955212626"><ele>206.0</ele><time>2026-04-06T09:38:59.002Z</time></trkpt><trkpt lat="43.61234957302366" lon="10.776355782335358"><ele>202.66666666666669</ele><time>2026-04-06T09:39:00.002Z</time></trkpt><trkpt lat="43.612419617406154" lon="10.776453818152772"><ele>199.33333333333334</ele><time>2026-04-06T09:39:01.002Z</time></trkpt><trkpt lat="43.61248185994848" lon="10.776531988755046"><ele>196.0</ele><time>2026-04-06T09:39:02.002Z</time></trkpt><trkpt lat="43.612560764472114" lon="10.776580018068792"><ele>192.66666666666669</ele><time>2026-04-06T09:39:03.002Z</time></trkpt><trkpt lat="43.612631845058445" lon="10.776628212479162"><ele>189.33333333333334</ele><time>2026-04-06T09:39:04.002Z</time></trkpt><trkpt lat="43.61270187943242" lon="10.776696824049289"><ele>186.0</ele><time>2026-04-06T09:39:05.002Z</time></trkpt><trkpt lat="43.612780726806676" lon="10.776727598977551"><ele>187.33333333333334</ele><time>2026-04-06T09:39:06.002Z</time></trkpt><trkpt lat="43.61285862050058" lon="10.776748522899824"><ele>188.66666666666669</ele><time>2026-04-06T09:39:07.002Z</time></trkpt><trkpt lat="43.61293157607645" lon="10.776790546810735"><ele>190.0</ele><time>2026-04-06T09:39:08.002Z</time></trkpt><trkpt lat="43.61300828404889" lon="10.776827152814606"><ele>191.33333333333334</ele><time>2026-04-06T09:39:09.002Z</time></trkpt><trkpt lat="43.61308432567961" lon="10.776851889124218"><ele>192.66666666666669</ele><time>2026-04-06T09:39:10.002Z</time></trkpt><trkpt lat="43.613158561623635" lon="10.77686829232708"><ele>194.0</ele><time>2026-04-06T09:39:11.002Z</time></trkpt><trkpt lat="43.61322369649475" lon="10.776861002490206"><ele>194.00000000000003</ele><time>2026-04-06T09:39:12.002Z</time></trkpt><trkpt lat="43.61330697288051" lon="10.776847196825905"><ele>194.0</ele><time>2026-04-06T09:39:13.002Z</time></trkpt><trkpt lat="43.6133848639275" lon="10.776816359985478"><ele>194.0</ele><time>2026-04-06T09:39:14.002Z</time></trkpt><trkpt lat="43.6134589785833" lon="10.776759510157605"><ele>194.0</ele><time>2026-04-06T09:39:15.002Z</time></trkpt><trkpt lat="43.61352613348119" lon="10.776680272614016"><ele>194.00000000000003</ele><time>2026-04-06T09:39:16.002Z</time></trkpt><trkpt lat="43.6135998335192" lon="10.77658937037863"><ele>194.0</ele><time>2026-04-06T09:39:17.002Z</time></trkpt><trkpt lat="43.61366878672799" lon="10.776484325847786"><ele>189.79999999999998</ele><time>2026-04-06T09:39:18.002Z</time></trkpt><trkpt lat="43.613739877333984" lon="10.776397574512659"><ele>185.6</ele><time>2026-04-06T09:39:19.002Z</time></trkpt><trkpt lat="43.613822883518765" lon="10.77632118234009"><ele>181.4</ele><time>2026-04-06T09:39:20.002Z</time></trkpt><trkpt lat="43.61391376917361" lon="10.776271672013218"><ele>177.2</ele><time>2026-04-06T09:39:21.002Z</time></trkpt><trkpt lat="43.614013945064926" lon="10.776259416973183"><ele>173.0</ele><time>2026-04-06T09:39:22.002Z</time></trkpt><trkpt lat="43.6140894038985" lon="10.77625742465349"><ele>173.0</ele><time>2026-04-06T09:39:23.002Z</time></trkpt><trkpt lat="43.61416173658912" lon="10.776248094865993"><ele>173.0</ele><time>2026-04-06T09:39:24.002Z</time></trkpt><trkpt lat="43.61423260360475" lon="10.77621940367122"><ele>173.0</ele><time>2026-04-06T09:39:25.002Z</time></trkpt><trkpt lat="43.614292920708756" lon="10.776162374014602"><ele>173.0</ele><time>2026-04-06T09:39:26.002Z</time></trkpt><trkpt lat="43.61434997824103" lon="10.77609028321354"><ele>173.0</ele><time>2026-04-06T09:39:27.002Z</time></trkpt><trkpt lat="43.61440737235191" lon="10.7760147864671"><ele>173.0</ele><time>2026-04-06T09:39:28.002Z</time></trkpt><trkpt lat="43.614451209624356" lon="10.775910406204279"><ele>171.2</ele><time>2026-04-06T09:39:29.002Z</time></trkpt><trkpt lat="43.61449614460251" lon="10.775787466191868"><ele>169.4</ele><time>2026-04-06T09:39:30.002Z</time></trkpt><trkpt lat="43.61454518614113" lon="10.77565215797937"><ele>167.6</ele><time>2026-04-06T09:39:31.002Z</time></trkpt><trkpt lat="43.614589952516546" lon="10.775512492012826"><ele>165.79999999999998</ele><time>2026-04-06T09:39:32.002Z</time></trkpt><trkpt lat="43.61462926349787" lon="10.775364911507856"><ele>164.0</ele><time>2026-04-06T09:39:33.002Z</time></trkpt><trkpt lat="43.6146733939017" lon="10.775235473856725"><ele>164.0</ele><time>2026-04-06T09:39:34.002Z</time></trkpt><trkpt lat="43.614713548498734" lon="10.775107794315515"><ele>164.0</ele><time>2026-04-06T09:39:35.002Z</time></trkpt><trkpt lat="43.614783992510624" lon="10.775011839638825"><ele>164.0</ele><time>2026-04-06T09:39:36.002Z</time></trkpt><trkpt lat="43.61484691070479" lon="10.774892686074274"><ele>164.0</ele><time>2026-04-06T09:39:37.002Z</time></trkpt><trkpt lat="43.61493324451174" lon="10.77478413921226"><ele>164.0</ele><time>2026-04-06T09:39:38.003Z</time></trkpt><trkpt lat="43.61501646670875" lon="10.774667970817836"><ele>164.0</ele><time>2026-04-06T09:39:39.003Z</time></trkpt><trkpt lat="43.61509315721726" lon="10.774559009671375"><ele>164.0</ele><time>2026-04-06T09:39:40.003Z</time></trkpt><trkpt lat="43.61517920717469" lon="10.774466364824619"><ele>164.0</ele><time>2026-04-06T09:39:41.003Z</time></trkpt><trkpt lat="43.61527705915164" lon="10.77439881037011"><ele>164.0</ele><time>2026-04-06T09:39:42.003Z</time></trkpt><trkpt lat="43.615342210744956" lon="10.774272788413613"><ele>164.0</ele><time>2026-04-06T09:39:43.003Z</time></trkpt><trkpt lat="43.61541429635027" lon="10.774192701961521"><ele>161.39999999999998</ele><time>2026-04-06T09:39:44.003Z</time></trkpt><trkpt lat="43.61547851665726" lon="10.77408161455912"><ele>158.79999999999998</ele><time>2026-04-06T09:39:45.003Z</time></trkpt><trkpt lat="43.61555364691" lon="10.773988796420381"><ele>156.2</ele><time>2026-04-06T09:39:46.003Z</time></trkpt><trkpt lat="43.615628829344374" lon="10.773894213195184"><ele>153.6</ele><time>2026-04-06T09:39:47.003Z</time></trkpt><trkpt lat="43.61569888719804" lon="10.773805953107065"><ele>151.0</ele><time>2026-04-06T09:39:48.003Z</time></trkpt><trkpt lat="43.615764900572366" lon="10.773709023129513"><ele>151.0</ele><time>2026-04-06T09:39:49.003Z</time></trkpt><trkpt lat="43.615826282150145" lon="10.773604151655947"><ele>151.0</ele><time>2026-04-06T09:39:50.003Z</time></trkpt><trkpt lat="43.61588680989264" lon="10.773484834445872"><ele>151.0</ele><time>2026-04-06T09:39:51.003Z</time></trkpt><trkpt lat="43.615942221609465" lon="10.77337699790874"><ele>151.0</ele><time>2026-04-06T09:39:52.003Z</time></trkpt><trkpt lat="43.6159969211887" lon="10.773262273730484"><ele>151.0</ele><time>2026-04-06T09:39:53Z</time></trkpt><trkpt lat="43.616063692026565" lon="10.773165211814552"><ele>151.4</ele><time>2026-04-06T09:39:54Z</time></trkpt><trkpt lat="43.616124384818605" lon="10.773067213465422"><ele>151.8</ele><time>2026-04-06T09:39:55Z</time></trkpt><trkpt lat="43.61618300338426" lon="10.772969416630408"><ele>152.20000000000002</ele><time>2026-04-06T09:39:56Z</time></trkpt><trkpt lat="43.61624704536946" lon="10.772881549003385"><ele>152.6</ele><time>2026-04-06T09:39:57Z</time></trkpt><trkpt lat="43.61631668062604" lon="10.772797471268216"><ele>153.0</ele><time>2026-04-06T09:39:58Z</time></trkpt><trkpt lat="43.61638700131412" lon="10.772713958060876"><ele>152.0</ele><time>2026-04-06T09:39:59Z</time></trkpt><trkpt lat="43.61645525422433" lon="10.772630558094976"><ele>151.0</ele><time>2026-04-06T09:40:00Z</time></trkpt><trkpt lat="43.616526478650634" lon="10.772564553269413"><ele>150.0</ele><time>2026-04-06T09:40:01Z</time></trkpt><trkpt lat="43.616598033259564" lon="10.772484305042026"><ele>149.0</ele><time>2026-04-06T09:40:02Z</time></trkpt><trkpt lat="43.61666245088066" lon="10.772394145750452"><ele>148.0</ele><time>2026-04-06T09:40:03Z</time></trkpt><trkpt lat="43.61672650752659" lon="10.772324425779358"><ele>147.0</ele><time>2026-04-06T09:40:04Z</time></trkpt><trkpt lat="43.61678356102965" lon="10.772253471361777"><ele>147.0</ele><time>2026-04-06T09:40:05Z</time></trkpt><trkpt lat="43.61683832019871" lon="10.772178216408243"><ele>147.0</ele><time>2026-04-06T09:40:06Z</time></trkpt><trkpt lat="43.61688392223053" lon="10.772114434772448"><ele>147.0</ele><time>2026-04-06T09:40:07Z</time></trkpt><trkpt lat="43.61698288349155" lon="10.771993855863217"><ele>147.0</ele><time>2026-04-06T09:40:09Z</time></trkpt><trkpt lat="43.6170363107011" lon="10.77188514952376"><ele>147.0</ele><time>2026-04-06T09:40:10Z</time></trkpt><trkpt lat="43.617103665553124" lon="10.771773623116264"><ele>145.6</ele><time>2026-04-06T09:40:11Z</time></trkpt><trkpt lat="43.617147044787586" lon="10.771625292092258"><ele>144.2</ele><time>2026-04-06T09:40:12Z</time></trkpt><trkpt lat="43.617205130372575" lon="10.771489549794138"><ele>142.8</ele><time>2026-04-06T09:40:13Z</time></trkpt><trkpt lat="43.61723599503828" lon="10.77134512474757"><ele>141.4</ele><time>2026-04-06T09:40:14Z</time></trkpt><trkpt lat="43.61726391601569" lon="10.77121076782162"><ele>140.0</ele><time>2026-04-06T09:40:15Z</time></trkpt><trkpt lat="43.61729439782198" lon="10.771090193651462"><ele>140.4</ele><time>2026-04-06T09:40:16Z</time></trkpt><trkpt lat="43.617339478761586" lon="10.770966874964092"><ele>140.8</ele><time>2026-04-06T09:40:17Z</time></trkpt><trkpt lat="43.617393345032966" lon="10.77084427758984"><ele>141.2</ele><time>2026-04-06T09:40:18Z</time></trkpt><trkpt lat="43.617448172585206" lon="10.770713422830845"><ele>141.6</ele><time>2026-04-06T09:40:19Z</time></trkpt><trkpt lat="43.61751863360575" lon="10.77058988802014"><ele>142.0</ele><time>2026-04-06T09:40:20Z</time></trkpt><trkpt lat="43.617587330382605" lon="10.77046041461494"><ele>142.0</ele><time>2026-04-06T09:40:21Z</time></trkpt><trkpt lat="43.617659895888636" lon="10.770337140515922"><ele>142.0</ele><time>2026-04-06T09:40:22Z</time></trkpt><trkpt lat="43.6177278641051" lon="10.770210665212788"><ele>142.0</ele><time>2026-04-06T09:40:23Z</time></trkpt><trkpt lat="43.61779578893508" lon="10.770090592949257"><ele>142.0</ele><time>2026-04-06T09:40:24Z</time></trkpt><trkpt lat="43.61785972331264" lon="10.769967808011613"><ele>142.0</ele><time>2026-04-06T09:40:25Z</time></trkpt><trkpt lat="43.617931677837824" lon="10.769865683555459"><ele>142.66666666666669</ele><time>2026-04-06T09:40:26Z</time></trkpt><trkpt lat="43.617989792200646" lon="10.769763535589432"><ele>143.33333333333334</ele><time>2026-04-06T09:40:27Z</time></trkpt><trkpt lat="43.61804099777029" lon="10.769680849657785"><ele>144.0</ele><time>2026-04-06T09:40:28.001Z</time></trkpt><trkpt lat="43.61808693922578" lon="10.769595346941054"><ele>144.66666666666666</ele><time>2026-04-06T09:40:29.001Z</time></trkpt><trkpt lat="43.61817004868419" lon="10.76955378696719"><ele>145.33333333333331</ele><time>2026-04-06T09:40:30.001Z</time></trkpt><trkpt lat="43.61823770306226" lon="10.769527604890866"><ele>146.0</ele><time>2026-04-06T09:40:31.001Z</time></trkpt><trkpt lat="43.61831706739647" lon="10.769517444221448"><ele>146.0</ele><time>2026-04-06T09:40:32.001Z</time></trkpt><trkpt lat="43.61838569772423" lon="10.769510419422849"><ele>146.0</ele><time>2026-04-06T09:40:33.001Z</time></trkpt><trkpt lat="43.618465205485876" lon="10.769509922911944"><ele>146.0</ele><time>2026-04-06T09:40:34.001Z</time></trkpt><trkpt lat="43.61854863184989" lon="10.769505540869481"><ele>146.0</ele><time>2026-04-06T09:40:35.001Z</time></trkpt><trkpt lat="43.61862871900387" lon="10.769491193017709"><ele>146.0</ele><time>2026-04-06T09:40:36.001Z</time></trkpt><trkpt lat="43.61870560683853" lon="10.769480557600676"><ele>146.0</ele><time>2026-04-06T09:40:37.001Z</time></trkpt><trkpt lat="43.61877755630528" lon="10.769503572108368"><ele>148.0</ele><time>2026-04-06T09:40:38.001Z</time></trkpt><trkpt lat="43.618841810420314" lon="10.76956016573666"><ele>150.0</ele><time>2026-04-06T09:40:39.001Z</time></trkpt><trkpt lat="43.61889787604005" lon="10.769649515222559"><ele>152.0</ele><time>2026-04-06T09:40:40.001Z</time></trkpt><trkpt lat="43.618940588782216" lon="10.769734584371601"><ele>154.0</ele><time>2026-04-06T09:40:41.001Z</time></trkpt><trkpt lat="43.618988490487105" lon="10.76985314469652"><ele>156.0</ele><time>2026-04-06T09:40:42.001Z</time></trkpt><trkpt lat="43.61903296548065" lon="10.76997323322914"><ele>158.0</ele><time>2026-04-06T09:40:43.001Z</time></trkpt><trkpt lat="43.61908174002752" lon="10.770083073371055"><ele>158.0</ele><time>2026-04-06T09:40:44.001Z</time></trkpt><trkpt lat="43.6191279979491" lon="10.770182260153597"><ele>158.0</ele><time>2026-04-06T09:40:45.001Z</time></trkpt><trkpt lat="43.61916533995599" lon="10.7702631913006"><ele>158.0</ele><time>2026-04-06T09:40:46.001Z</time></trkpt><trkpt lat="43.61923952143639" lon="10.77036991372128"><ele>158.0</ele><time>2026-04-06T09:40:48.001Z</time></trkpt><trkpt lat="43.61931914099257" lon="10.770357316095351"><ele>158.0</ele><time>2026-04-06T09:40:50.001Z</time></trkpt><trkpt lat="43.61939275258919" lon="10.770263527793418"><ele>158.0</ele><time>2026-04-06T09:40:52.001Z</time></trkpt><trkpt lat="43.619395503841915" lon="10.770162394396866"><ele>158.0</ele><time>2026-04-06T09:40:53.001Z</time></trkpt><trkpt lat="43.619395701863176" lon="10.770058588305249"><ele>158.0</ele><time>2026-04-06T09:40:54.001Z</time></trkpt><trkpt lat="43.619395223490635" lon="10.769948849848785"><ele>158.0</ele><time>2026-04-06T09:40:55.001Z</time></trkpt><trkpt lat="43.61939570145011" lon="10.769826121517394"><ele>158.0</ele><time>2026-04-06T09:40:56.001Z</time></trkpt><trkpt lat="43.61940257821204" lon="10.769690008803778"><ele>158.0</ele><time>2026-04-06T09:40:57.001Z</time></trkpt><trkpt lat="43.61941287031641" lon="10.769541418715304"><ele>158.0</ele><time>2026-04-06T09:40:58.001Z</time></trkpt><trkpt lat="43.61940446052435" lon="10.769394230227716"><ele>158.0</ele><time>2026-04-06T09:40:59.001Z</time></trkpt><trkpt lat="43.61940396682811" lon="10.769254985129082"><ele>158.0</ele><time>2026-04-06T09:41:00.001Z</time></trkpt><trkpt lat="43.61939189788005" lon="10.769119114386058"><ele>158.0</ele><time>2026-04-06T09:41:01.001Z</time></trkpt><trkpt lat="43.619372360741814" lon="10.76899527942656"><ele>158.0</ele><time>2026-04-06T09:41:02.001Z</time></trkpt><trkpt lat="43.619355398263814" lon="10.768884880029471"><ele>159.8</ele><time>2026-04-06T09:41:03.001Z</time></trkpt><trkpt lat="43.61934589424102" lon="10.768763725500781"><ele>161.60000000000002</ele><time>2026-04-06T09:41:04.001Z</time></trkpt><trkpt lat="43.619330897106025" lon="10.768629425007642"><ele>163.39999999999998</ele><time>2026-04-06T09:41:05.001Z</time></trkpt><trkpt lat="43.619318993027356" lon="10.768502370099057"><ele>165.2</ele><time>2026-04-06T09:41:06.001Z</time></trkpt><trkpt lat="43.619306692741475" lon="10.768403365348707"><ele>167.0</ele><time>2026-04-06T09:41:07.001Z</time></trkpt><trkpt lat="43.61928770884035" lon="10.768224423370159"><ele>167.0</ele><time>2026-04-06T09:41:09.001Z</time></trkpt><trkpt lat="43.619284172342496" lon="10.768116779308924"><ele>167.0</ele><time>2026-04-06T09:41:10.002Z</time></trkpt><trkpt lat="43.61927714903008" lon="10.768002953954051"><ele>167.0</ele><time>2026-04-06T09:41:11.002Z</time></trkpt><trkpt lat="43.61926779679641" lon="10.767890217538731"><ele>167.0</ele><time>2026-04-06T09:41:12.002Z</time></trkpt><trkpt lat="43.61926121087791" lon="10.767780877689463"><ele>167.0</ele><time>2026-04-06T09:41:13.002Z</time></trkpt><trkpt lat="43.619261901518364" lon="10.767687244360552"><ele>167.0</ele><time>2026-04-06T09:41:14.002Z</time></trkpt><trkpt lat="43.61926351898684" lon="10.76759456713474"><ele>167.0</ele><time>2026-04-06T09:41:15.002Z</time></trkpt><trkpt lat="43.61930279824174" lon="10.767469493499071"><ele>167.0</ele><time>2026-04-06T09:41:17.002Z</time></trkpt><trkpt lat="43.61940246607239" lon="10.76742772670654"><ele>167.0</ele><time>2026-04-06T09:41:19.002Z</time></trkpt><trkpt lat="43.61952201032004" lon="10.767422027780793"><ele>167.0</ele><time>2026-04-06T09:41:21.002Z</time></trkpt><trkpt lat="43.61958538262909" lon="10.767450642407686"><ele>167.0</ele><time>2026-04-06T09:41:22.002Z</time></trkpt><trkpt lat="43.61969806564446" lon="10.767494701039206"><ele>168.33333333333331</ele><time>2026-04-06T09:41:24.002Z</time></trkpt><trkpt lat="43.61977017269835" lon="10.767555661914429"><ele>169.66666666666666</ele><time>2026-04-06T09:41:25.002Z</time></trkpt><trkpt lat="43.6198346683473" lon="10.767614967645828"><ele>171.0</ele><time>2026-04-06T09:41:26.002Z</time></trkpt><trkpt lat="43.61990388896207" lon="10.767677188183587"><ele>172.33333333333334</ele><time>2026-04-06T09:41:27.002Z</time></trkpt><trkpt lat="43.6199669961643" lon="10.767733377724992"><ele>173.66666666666669</ele><time>2026-04-06T09:41:28.002Z</time></trkpt><trkpt lat="43.62002970171601" lon="10.767769636781201"><ele>175.0</ele><time>2026-04-06T09:41:29.002Z</time></trkpt><trkpt lat="43.62013082994322" lon="10.76778624052909"><ele>174.83333333333334</ele><time>2026-04-06T09:41:31.002Z</time></trkpt><trkpt lat="43.620192817933706" lon="10.76776551233882"><ele>174.66666666666669</ele><time>2026-04-06T09:41:32.002Z</time></trkpt><trkpt lat="43.62026438124478" lon="10.767751243151379"><ele>174.5</ele><time>2026-04-06T09:41:33.002Z</time></trkpt><trkpt lat="43.620350508953486" lon="10.767722814207804"><ele>174.33333333333334</ele><time>2026-04-06T09:41:34.002Z</time></trkpt><trkpt lat="43.620455412217375" lon="10.7676794262029"><ele>174.16666666666666</ele><time>2026-04-06T09:41:35.002Z</time></trkpt><trkpt lat="43.62056371077892" lon="10.767648391098637"><ele>174.0</ele><time>2026-04-06T09:41:36.002Z</time></trkpt><trkpt lat="43.620685931186266" lon="10.767612915842044"><ele>174.0</ele><time>2026-04-06T09:41:37.002Z</time></trkpt><trkpt lat="43.62080484458871" lon="10.767568276441345"><ele>174.0</ele><time>2026-04-06T09:41:38.002Z</time></trkpt><trkpt lat="43.62091304496669" lon="10.767525105104617"><ele>174.0</ele><time>2026-04-06T09:41:39.002Z</time></trkpt><trkpt lat="43.62102095805794" lon="10.76747527243226"><ele>174.0</ele><time>2026-04-06T09:41:40.002Z</time></trkpt><trkpt lat="43.6211182214659" lon="10.767425339238148"><ele>173.5</ele><time>2026-04-06T09:41:41.002Z</time></trkpt><trkpt lat="43.62120320951383" lon="10.76739308615273"><ele>173.0</ele><time>2026-04-06T09:41:42.002Z</time></trkpt><trkpt lat="43.621284782474945" lon="10.767358100832327"><ele>172.5</ele><time>2026-04-06T09:41:43.002Z</time></trkpt><trkpt lat="43.621359418738955" lon="10.767333397208033"><ele>172.0</ele><time>2026-04-06T09:41:44.002Z</time></trkpt><trkpt lat="43.62143312258827" lon="10.767303690682466"><ele>171.5</ele><time>2026-04-06T09:41:45.002Z</time></trkpt><trkpt lat="43.621506397223015" lon="10.767304499097081"><ele>171.0</ele><time>2026-04-06T09:41:46.002Z</time></trkpt><trkpt lat="43.621575247014036" lon="10.767298778333977"><ele>171.0</ele><time>2026-04-06T09:41:47.002Z</time></trkpt><trkpt lat="43.62169509069006" lon="10.767309590009082"><ele>171.0</ele><time>2026-04-06T09:41:49.002Z</time></trkpt><trkpt lat="43.62175898202982" lon="10.767294990975463"><ele>171.0</ele><time>2026-04-06T09:41:50.002Z</time></trkpt><trkpt lat="43.621846167545314" lon="10.767259643213139"><ele>171.0</ele><time>2026-04-06T09:41:51.003Z</time></trkpt><trkpt lat="43.62193334325899" lon="10.767219838193869"><ele>171.0</ele><time>2026-04-06T09:41:52.003Z</time></trkpt><trkpt lat="43.62202871633627" lon="10.76717810996612"><ele>169.20000000000002</ele><time>2026-04-06T09:41:53.003Z</time></trkpt><trkpt lat="43.622124729686014" lon="10.767124253300166"><ele>167.4</ele><time>2026-04-06T09:41:54.003Z</time></trkpt><trkpt lat="43.62221239042829" lon="10.767121257729103"><ele>165.6</ele><time>2026-04-06T09:41:55.003Z</time></trkpt><trkpt lat="43.62230349919811" lon="10.76713098337061"><ele>163.8</ele><time>2026-04-06T09:41:56.003Z</time></trkpt><trkpt lat="43.62239970207282" lon="10.767170653129728"><ele>162.0</ele><time>2026-04-06T09:41:57.003Z</time></trkpt><trkpt lat="43.62249960369113" lon="10.767203532480943"><ele>162.0</ele><time>2026-04-06T09:41:58.003Z</time></trkpt><trkpt lat="43.62261166537382" lon="10.7672377133997"><ele>162.0</ele><time>2026-04-06T09:41:58.999Z</time></trkpt><trkpt lat="43.622715969136635" lon="10.76727104799162"><ele>162.0</ele><time>2026-04-06T09:41:59.999Z</time></trkpt><trkpt lat="43.62281604872622" lon="10.767288003320955"><ele>162.0</ele><time>2026-04-06T09:42:00.999Z</time></trkpt><trkpt lat="43.62291125317607" lon="10.767311412151038"><ele>162.0</ele><time>2026-04-06T09:42:01.999Z</time></trkpt><trkpt lat="43.623006054125334" lon="10.767341305517224"><ele>161.83333333333334</ele><time>2026-04-06T09:42:02.999Z</time></trkpt><trkpt lat="43.62309799152079" lon="10.767366959944027"><ele>161.66666666666666</ele><time>2026-04-06T09:42:03.999Z</time></trkpt><trkpt lat="43.62318466132301" lon="10.7673962098386"><ele>161.5</ele><time>2026-04-06T09:42:04.999Z</time></trkpt><trkpt lat="43.62326204358126" lon="10.767415403142127"><ele>161.33333333333331</ele><time>2026-04-06T09:42:05.999Z</time></trkpt><trkpt lat="43.62334368748643" lon="10.767435191187108"><ele>161.16666666666666</ele><time>2026-04-06T09:42:06.999Z</time></trkpt><trkpt lat="43.62342373503382" lon="10.767455922083869"><ele>161.0</ele><time>2026-04-06T09:42:07.999Z</time></trkpt><trkpt lat="43.62351653752365" lon="10.767472427908844"><ele>161.0</ele><time>2026-04-06T09:42:08.999Z</time></trkpt><trkpt lat="43.62360951199709" lon="10.767481699557528"><ele>161.0</ele><time>2026-04-06T09:42:09.999Z</time></trkpt><trkpt lat="43.623701897465324" lon="10.76749839728384"><ele>161.0</ele><time>2026-04-06T09:42:10.999Z</time></trkpt><trkpt lat="43.62380304043683" lon="10.767526482232158"><ele>161.0</ele><time>2026-04-06T09:42:11.999Z</time></trkpt><trkpt lat="43.623907632505656" lon="10.767563837819667"><ele>161.0</ele><time>2026-04-06T09:42:12.999Z</time></trkpt><trkpt lat="43.624008913832085" lon="10.76760741237753"><ele>160.8</ele><time>2026-04-06T09:42:13.999Z</time></trkpt><trkpt lat="43.62411400615929" lon="10.76765222038214"><ele>160.60000000000002</ele><time>2026-04-06T09:42:14.999Z</time></trkpt><trkpt lat="43.62421857219329" lon="10.767706067114439"><ele>160.4</ele><time>2026-04-06T09:42:15.999Z</time></trkpt><trkpt lat="43.624319969815744" lon="10.767768815839576"><ele>160.2</ele><time>2026-04-06T09:42:16.999Z</time></trkpt><trkpt lat="43.62442315704039" lon="10.767832188570235"><ele>160.0</ele><time>2026-04-06T09:42:17.999Z</time></trkpt><trkpt lat="43.62452338243849" lon="10.767896023721528"><ele>160.0</ele><time>2026-04-06T09:42:18.999Z</time></trkpt><trkpt lat="43.624618912382545" lon="10.76795857233663"><ele>160.0</ele><time>2026-04-06T09:42:20Z</time></trkpt><trkpt lat="43.624702912465864" lon="10.768012984015801"><ele>160.0</ele><time>2026-04-06T09:42:21Z</time></trkpt><trkpt lat="43.624771807693996" lon="10.768061074496275"><ele>160.0</ele><time>2026-04-06T09:42:22Z</time></trkpt><trkpt lat="43.624833474811815" lon="10.768117430848125"><ele>160.0</ele><time>2026-04-06T09:42:23Z</time></trkpt><trkpt lat="43.624888078200236" lon="10.768191553946906"><ele>160.0</ele><time>2026-04-06T09:42:24Z</time></trkpt><trkpt lat="43.62493536250175" lon="10.76828593300959"><ele>160.0</ele><time>2026-04-06T09:42:25Z</time></trkpt><trkpt lat="43.6249846859301" lon="10.76836886702655"><ele>160.0</ele><time>2026-04-06T09:42:26Z</time></trkpt><trkpt lat="43.62506946571399" lon="10.76841073978441"><ele>160.0</ele><time>2026-04-06T09:42:27Z</time></trkpt><trkpt lat="43.62514231756394" lon="10.768407040449635"><ele>160.0</ele><time>2026-04-06T09:42:28Z</time></trkpt><trkpt lat="43.625216542516355" lon="10.76837807779851"><ele>160.0</ele><time>2026-04-06T09:42:29Z</time></trkpt><trkpt lat="43.62529801007362" lon="10.768352408334966"><ele>160.0</ele><time>2026-04-06T09:42:30Z</time></trkpt><trkpt lat="43.625388845551605" lon="10.76834295198745"><ele>160.0</ele><time>2026-04-06T09:42:31Z</time></trkpt><trkpt lat="43.625472423414735" lon="10.768311133408435"><ele>160.0</ele><time>2026-04-06T09:42:32Z</time></trkpt><trkpt lat="43.62554266129602" lon="10.768279334329527"><ele>160.0</ele><time>2026-04-06T09:42:33Z</time></trkpt><trkpt lat="43.625599809756814" lon="10.768234321199083"><ele>160.0</ele><time>2026-04-06T09:42:34Z</time></trkpt><trkpt lat="43.62566845136252" lon="10.768221393953333"><ele>160.0</ele><time>2026-04-06T09:42:35Z</time></trkpt><trkpt lat="43.62574150951093" lon="10.768190458323536"><ele>160.0</ele><time>2026-04-06T09:42:36Z</time></trkpt><trkpt lat="43.625798341109" lon="10.768149433540053"><ele>160.0</ele><time>2026-04-06T09:42:37Z</time></trkpt><trkpt lat="43.6258198838753" lon="10.768064319471497"><ele>160.0</ele><time>2026-04-06T09:42:38Z</time></trkpt><trkpt lat="43.62585030247348" lon="10.767984098639829"><ele>160.0</ele><time>2026-04-06T09:42:39Z</time></trkpt><trkpt lat="43.62587690490987" lon="10.767870676396644"><ele>160.0</ele><time>2026-04-06T09:42:40Z</time></trkpt><trkpt lat="43.62590202179166" lon="10.767739738540866"><ele>160.0</ele><time>2026-04-06T09:42:41Z</time></trkpt><trkpt lat="43.625916498710545" lon="10.767616717513043"><ele>160.0</ele><time>2026-04-06T09:42:42Z</time></trkpt><trkpt lat="43.62594587479616" lon="10.767539366254546"><ele>160.0</ele><time>2026-04-06T09:42:43Z</time></trkpt><trkpt lat="43.626000733033145" lon="10.76737877113985"><ele>159.83333333333334</ele><time>2026-04-06T09:42:45.001Z</time></trkpt><trkpt lat="43.62604385682891" lon="10.767301431252323"><ele>159.66666666666669</ele><time>2026-04-06T09:42:46.001Z</time></trkpt><trkpt lat="43.62610535465776" lon="10.76723379615363"><ele>159.5</ele><time>2026-04-06T09:42:47.001Z</time></trkpt><trkpt lat="43.626185766070755" lon="10.767178089936085"><ele>159.33333333333334</ele><time>2026-04-06T09:42:48.001Z</time></trkpt><trkpt lat="43.62626482916516" lon="10.767118380321511"><ele>159.16666666666666</ele><time>2026-04-06T09:42:49.001Z</time></trkpt><trkpt lat="43.62634488719527" lon="10.76706122133586"><ele>159.0</ele><time>2026-04-06T09:42:50.001Z</time></trkpt><trkpt lat="43.62641953263271" lon="10.767008888268855"><ele>159.0</ele><time>2026-04-06T09:42:51.001Z</time></trkpt><trkpt lat="43.62648328625629" lon="10.766959566071817"><ele>159.0</ele><time>2026-04-06T09:42:52.001Z</time></trkpt><trkpt lat="43.62653586349102" lon="10.766909703064984"><ele>159.0</ele><time>2026-04-06T09:42:53.001Z</time></trkpt><trkpt lat="43.626637480992194" lon="10.766852026667085"><ele>159.0</ele><time>2026-04-06T09:42:55.001Z</time></trkpt><trkpt lat="43.62671206993954" lon="10.766794258620724"><ele>159.0</ele><time>2026-04-06T09:42:57.001Z</time></trkpt><trkpt lat="43.626812633247674" lon="10.766744272274629"><ele>159.0</ele><time>2026-04-06T09:42:59.001Z</time></trkpt><trkpt lat="43.626894904278345" lon="10.766667824224909"><ele>159.0</ele><time>2026-04-06T09:43:01.001Z</time></trkpt><trkpt lat="43.62696931863467" lon="10.766559713848059"><ele>159.0</ele><time>2026-04-06T09:43:03.001Z</time></trkpt><trkpt lat="43.62698017857563" lon="10.766468944672862"><ele>159.0</ele><time>2026-04-06T09:43:04.001Z</time></trkpt><trkpt lat="43.62697795054449" lon="10.766359993940105"><ele>159.0</ele><time>2026-04-06T09:43:05.001Z</time></trkpt><trkpt lat="43.62696524899938" lon="10.766248100089982"><ele>159.0</ele><time>2026-04-06T09:43:06.001Z</time></trkpt><trkpt lat="43.626946957278875" lon="10.766140451922787"><ele>159.0</ele><time>2026-04-06T09:43:07.001Z</time></trkpt><trkpt lat="43.626928103012226" lon="10.766045892121184"><ele>157.85714285714286</ele><time>2026-04-06T09:43:08.001Z</time></trkpt><trkpt lat="43.62689971676419" lon="10.765966586960934"><ele>156.71428571428572</ele><time>2026-04-06T09:43:09.001Z</time></trkpt><trkpt lat="43.626878007431166" lon="10.765882958924719"><ele>155.57142857142858</ele><time>2026-04-06T09:43:10.001Z</time></trkpt><trkpt lat="43.62684048524549" lon="10.76580196563826"><ele>154.42857142857144</ele><time>2026-04-06T09:43:11.001Z</time></trkpt><trkpt lat="43.62681046022178" lon="10.765700336583812"><ele>153.28571428571428</ele><time>2026-04-06T09:43:12.001Z</time></trkpt><trkpt lat="43.62676362306523" lon="10.76560953776741"><ele>152.14285714285717</ele><time>2026-04-06T09:43:13.001Z</time></trkpt><trkpt lat="43.62671157153573" lon="10.76551226114874"><ele>151.0</ele><time>2026-04-06T09:43:14.001Z</time></trkpt><trkpt lat="43.62665782539321" lon="10.765403094287977"><ele>151.0</ele><time>2026-04-06T09:43:15.001Z</time></trkpt><trkpt lat="43.626591406936136" lon="10.765301066425144"><ele>151.0</ele><time>2026-04-06T09:43:16.001Z</time></trkpt><trkpt lat="43.626543836560074" lon="10.765183271735605"><ele>151.0</ele><time>2026-04-06T09:43:17.001Z</time></trkpt><trkpt lat="43.626495002727616" lon="10.765067993413986"><ele>151.0</ele><time>2026-04-06T09:43:18.002Z</time></trkpt><trkpt lat="43.62647997155962" lon="10.76493495221851"><ele>151.0</ele><time>2026-04-06T09:43:19.002Z</time></trkpt><trkpt lat="43.626461466327825" lon="10.764800607814655"><ele>149.0</ele><time>2026-04-06T09:43:20.002Z</time></trkpt><trkpt lat="43.62644635447186" lon="10.764663548882648"><ele>147.0</ele><time>2026-04-06T09:43:21.002Z</time></trkpt><trkpt lat="43.62641984794272" lon="10.764522581179348"><ele>145.0</ele><time>2026-04-06T09:43:22.002Z</time></trkpt><trkpt lat="43.62641218955496" lon="10.764391201784791"><ele>143.0</ele><time>2026-04-06T09:43:23.002Z</time></trkpt><trkpt lat="43.626426060969244" lon="10.764278996265649"><ele>141.0</ele><time>2026-04-06T09:43:24.002Z</time></trkpt><trkpt lat="43.626432565889296" lon="10.7641877571848"><ele>140.66666666666666</ele><time>2026-04-06T09:43:25.002Z</time></trkpt><trkpt lat="43.62644237635752" lon="10.764095216183586"><ele>140.33333333333334</ele><time>2026-04-06T09:43:26.002Z</time></trkpt><trkpt lat="43.6264633010858" lon="10.763993548570605"><ele>140.0</ele><time>2026-04-06T09:43:27.002Z</time></trkpt><trkpt lat="43.62649347748211" lon="10.763875295993577"><ele>139.66666666666669</ele><time>2026-04-06T09:43:28.002Z</time></trkpt><trkpt lat="43.62655141553912" lon="10.7637559470712"><ele>139.33333333333334</ele><time>2026-04-06T09:43:29.002Z</time></trkpt><trkpt lat="43.626614111538295" lon="10.763639325588285"><ele>139.0</ele><time>2026-04-06T09:43:30.002Z</time></trkpt><trkpt lat="43.62667490374327" lon="10.763515684572365"><ele>137.83333333333334</ele><time>2026-04-06T09:43:31.002Z</time></trkpt><trkpt lat="43.62673895936771" lon="10.763405082501214"><ele>136.66666666666669</ele><time>2026-04-06T09:43:32.002Z</time></trkpt><trkpt lat="43.626796175855674" lon="10.763307747770275"><ele>135.5</ele><time>2026-04-06T09:43:33.002Z</time></trkpt><trkpt lat="43.626852285180455" lon="10.7632179828714"><ele>134.33333333333334</ele><time>2026-04-06T09:43:34.002Z</time></trkpt><trkpt lat="43.626904037881744" lon="10.763138317862184"><ele>133.16666666666666</ele><time>2026-04-06T09:43:35.002Z</time></trkpt><trkpt lat="43.62696660637885" lon="10.763059066035138"><ele>132.0</ele><time>2026-04-06T09:43:36.002Z</time></trkpt><trkpt lat="43.62702692350466" lon="10.762983996659528"><ele>132.0</ele><time>2026-04-06T09:43:37.002Z</time></trkpt><trkpt lat="43.627088793573996" lon="10.762916482928269"><ele>132.0</ele><time>2026-04-06T09:43:38.002Z</time></trkpt><trkpt lat="43.62715067700418" lon="10.762852043526756"><ele>132.0</ele><time>2026-04-06T09:43:39.002Z</time></trkpt><trkpt lat="43.62721285621768" lon="10.762790434045753"><ele>132.0</ele><time>2026-04-06T09:43:40.002Z</time></trkpt><trkpt lat="43.62728004498995" lon="10.76272443710954"><ele>132.0</ele><time>2026-04-06T09:43:41.002Z</time></trkpt><trkpt lat="43.62734941819921" lon="10.762655688092993"><ele>132.0</ele><time>2026-04-06T09:43:42.002Z</time></trkpt><trkpt lat="43.62741729977612" lon="10.762569928997717"><ele>134.79999999999998</ele><time>2026-04-06T09:43:43.002Z</time></trkpt><trkpt lat="43.627476829458146" lon="10.762467176521637"><ele>137.6</ele><time>2026-04-06T09:43:44.002Z</time></trkpt><trkpt lat="43.62752856500845" lon="10.76235715552266"><ele>140.39999999999998</ele><time>2026-04-06T09:43:45.002Z</time></trkpt><trkpt lat="43.6275736124303" lon="10.762240186969258"><ele>143.2</ele><time>2026-04-06T09:43:46.002Z</time></trkpt><trkpt lat="43.62762590212577" lon="10.762122886675877"><ele>146.0</ele><time>2026-04-06T09:43:47.002Z</time></trkpt><trkpt lat="43.6276901017314" lon="10.762029476266152"><ele>146.0</ele><time>2026-04-06T09:43:48.002Z</time></trkpt><trkpt lat="43.62775631807478" lon="10.761927347337467"><ele>146.0</ele><time>2026-04-06T09:43:49.002Z</time></trkpt><trkpt lat="43.62781437310714" lon="10.761842141851549"><ele>146.0</ele><time>2026-04-06T09:43:50.002Z</time></trkpt><trkpt lat="43.62786750447488" lon="10.761772881380336"><ele>146.0</ele><time>2026-04-06T09:43:51.002Z</time></trkpt><trkpt lat="43.62793560864203" lon="10.761645448681929"><ele>146.0</ele><time>2026-04-06T09:43:53.003Z</time></trkpt><trkpt lat="43.62801119723328" lon="10.761503188736407"><ele>147.0</ele><time>2026-04-06T09:43:55.003Z</time></trkpt><trkpt lat="43.62805822617385" lon="10.761441350913618"><ele>148.0</ele><time>2026-04-06T09:43:56.003Z</time></trkpt><trkpt lat="43.6281084048315" lon="10.761387011377984"><ele>149.0</ele><time>2026-04-06T09:43:57.003Z</time></trkpt><trkpt lat="43.62816419295269" lon="10.761327905237467"><ele>150.0</ele><time>2026-04-06T09:43:58.003Z</time></trkpt><trkpt lat="43.62822792925147" lon="10.761270416630168"><ele>151.0</ele><time>2026-04-06T09:43:59.003Z</time></trkpt><trkpt lat="43.62829272507629" lon="10.761207530557696"><ele>152.0</ele><time>2026-04-06T09:44:00.003Z</time></trkpt><trkpt lat="43.6283497407153" lon="10.761145209914558"><ele>153.0</ele><time>2026-04-06T09:44:01.003Z</time></trkpt><trkpt lat="43.62841406192655" lon="10.761086184566814"><ele>152.5</ele><time>2026-04-06T09:44:02.003Z</time></trkpt><trkpt lat="43.62847750300361" lon="10.761007226188633"><ele>152.0</ele><time>2026-04-06T09:44:03.003Z</time></trkpt><trkpt lat="43.628535323961906" lon="10.76093166006931"><ele>151.5</ele><time>2026-04-06T09:44:04.003Z</time></trkpt><trkpt lat="43.62858505281273" lon="10.760844255948113"><ele>151.0</ele><time>2026-04-06T09:44:04.999Z</time></trkpt><trkpt lat="43.628639731143544" lon="10.760746219748027"><ele>150.5</ele><time>2026-04-06T09:44:05.999Z</time></trkpt><trkpt lat="43.628693976124204" lon="10.760656379910115"><ele>150.0</ele><time>2026-04-06T09:44:06.999Z</time></trkpt><trkpt lat="43.62875423599123" lon="10.760552805163927"><ele>148.4</ele><time>2026-04-06T09:44:07.999Z</time></trkpt><trkpt lat="43.628812664323576" lon="10.760452219842646"><ele>146.8</ele><time>2026-04-06T09:44:08.999Z</time></trkpt><trkpt lat="43.62886756336848" lon="10.760351421969496"><ele>145.2</ele><time>2026-04-06T09:44:09.999Z</time></trkpt><trkpt lat="43.62892654319015" lon="10.760269217350045"><ele>143.6</ele><time>2026-04-06T09:44:10.999Z</time></trkpt><trkpt lat="43.62898613184196" lon="10.760170565401186"><ele>142.0</ele><time>2026-04-06T09:44:11.999Z</time></trkpt><trkpt lat="43.62905735993996" lon="10.760068557103553"><ele>142.0</ele><time>2026-04-06T09:44:12.999Z</time></trkpt><trkpt lat="43.62912781470601" lon="10.759969790422756"><ele>142.0</ele><time>2026-04-06T09:44:13.999Z</time></trkpt><trkpt lat="43.62919069332013" lon="10.759843357795173"><ele>142.0</ele><time>2026-04-06T09:44:14.999Z</time></trkpt><trkpt lat="43.629256881444654" lon="10.759743606500425"><ele>142.0</ele><time>2026-04-06T09:44:15.999Z</time></trkpt><trkpt lat="43.62932484494682" lon="10.759638669639664"><ele>142.0</ele><time>2026-04-06T09:44:16.999Z</time></trkpt><trkpt lat="43.62938721933334" lon="10.759525774208704"><ele>142.0</ele><time>2026-04-06T09:44:17.999Z</time></trkpt><trkpt lat="43.62945196733641" lon="10.759422057685821"><ele>142.0</ele><time>2026-04-06T09:44:18.999Z</time></trkpt><trkpt lat="43.6295240613742" lon="10.759319751744233"><ele>142.0</ele><time>2026-04-06T09:44:19.999Z</time></trkpt><trkpt lat="43.629594711320756" lon="10.759216538405637"><ele>142.0</ele><time>2026-04-06T09:44:20.999Z</time></trkpt><trkpt lat="43.62965411856726" lon="10.759109072991395"><ele>142.0</ele><time>2026-04-06T09:44:21.999Z</time></trkpt><trkpt lat="43.62971244647715" lon="10.759017313208714"><ele>144.0</ele><time>2026-04-06T09:44:22.999Z</time></trkpt><trkpt lat="43.629791567888745" lon="10.758951152897959"><ele>146.0</ele><time>2026-04-06T09:44:23.999Z</time></trkpt><trkpt lat="43.629865475544136" lon="10.758879394573777"><ele>148.0</ele><time>2026-04-06T09:44:24.999Z</time></trkpt><trkpt lat="43.62995058565756" lon="10.758849184872476"><ele>150.0</ele><time>2026-04-06T09:44:25.999Z</time></trkpt><trkpt lat="43.63001583639618" lon="10.758814262408423"><ele>152.0</ele><time>2026-04-06T09:44:27Z</time></trkpt><trkpt lat="43.63005776116998" lon="10.758654010555277"><ele>152.0</ele><time>2026-04-06T09:44:29Z</time></trkpt><trkpt lat="43.63008822516596" lon="10.758569839573195"><ele>152.0</ele><time>2026-04-06T09:44:30Z</time></trkpt><trkpt lat="43.63010679731862" lon="10.75848624503575"><ele>152.0</ele><time>2026-04-06T09:44:31Z</time></trkpt><trkpt lat="43.630181538159924" lon="10.758491898394457"><ele>152.0</ele><time>2026-04-06T09:44:32Z</time></trkpt><trkpt lat="43.630309012998" lon="10.758536420207898"><ele>152.0</ele><time>2026-04-06T09:44:34Z</time></trkpt><trkpt lat="43.63038381377592" lon="10.758497371007328"><ele>152.0</ele><time>2026-04-06T09:44:35Z</time></trkpt><trkpt lat="43.63045922364221" lon="10.758406525465926"><ele>156.0</ele><time>2026-04-06T09:44:36Z</time></trkpt><trkpt lat="43.630522527541785" lon="10.758294910943244"><ele>160.0</ele><time>2026-04-06T09:44:37Z</time></trkpt><trkpt lat="43.63057456019326" lon="10.758166778018058"><ele>164.0</ele><time>2026-04-06T09:44:38Z</time></trkpt><trkpt lat="43.630627230814085" lon="10.758045005451805"><ele>168.0</ele><time>2026-04-06T09:44:39Z</time></trkpt><trkpt lat="43.63067583980265" lon="10.75792909210924"><ele>172.0</ele><time>2026-04-06T09:44:40Z</time></trkpt><trkpt lat="43.63072600617032" lon="10.75781857083836"><ele>172.0</ele><time>2026-04-06T09:44:41Z</time></trkpt><trkpt lat="43.630783945689714" lon="10.75771898103979"><ele>172.0</ele><time>2026-04-06T09:44:42Z</time></trkpt><trkpt lat="43.63085199777983" lon="10.757618106936048"><ele>172.0</ele><time>2026-04-06T09:44:43Z</time></trkpt><trkpt lat="43.630924438145094" lon="10.757530856626657"><ele>172.0</ele><time>2026-04-06T09:44:44Z</time></trkpt><trkpt lat="43.63099491597097" lon="10.757450411849954"><ele>172.0</ele><time>2026-04-06T09:44:45Z</time></trkpt><trkpt lat="43.63107429029888" lon="10.75737521106349"><ele>174.0</ele><time>2026-04-06T09:44:46Z</time></trkpt><trkpt lat="43.63113730377066" lon="10.75732387554548"><ele>176.0</ele><time>2026-04-06T09:44:47Z</time></trkpt><trkpt lat="43.631214543540096" lon="10.75727435037286"><ele>178.0</ele><time>2026-04-06T09:44:49Z</time></trkpt><trkpt lat="43.63127967917" lon="10.757226054783462"><ele>180.0</ele><time>2026-04-06T09:44:51.001Z</time></trkpt><trkpt lat="43.63137636820459" lon="10.757167537080628"><ele>182.0</ele><time>2026-04-06T09:44:53.001Z</time></trkpt><trkpt lat="43.631442664711166" lon="10.75710919430638"><ele>184.0</ele><time>2026-04-06T09:44:54.001Z</time></trkpt><trkpt lat="43.63152826721579" lon="10.757069618842436"><ele>183.5</ele><time>2026-04-06T09:44:55.001Z</time></trkpt><trkpt lat="43.63162856944017" lon="10.757029164320048"><ele>183.0</ele><time>2026-04-06T09:44:56.001Z</time></trkpt><trkpt lat="43.631742186495686" lon="10.756976278590423"><ele>182.5</ele><time>2026-04-06T09:44:57.001Z</time></trkpt><trkpt lat="43.6318610454969" lon="10.756919446961549"><ele>182.0</ele><time>2026-04-06T09:44:58.001Z</time></trkpt><trkpt lat="43.63197317410071" lon="10.756860209822252"><ele>183.75</ele><time>2026-04-06T09:44:59.001Z</time></trkpt><trkpt lat="43.63207917643272" lon="10.756791520314513"><ele>185.5</ele><time>2026-04-06T09:45:00.001Z</time></trkpt><trkpt lat="43.63218331921506" lon="10.756720122401425"><ele>187.25</ele><time>2026-04-06T09:45:01.001Z</time></trkpt><trkpt lat="43.6322911953287" lon="10.756675019390281"><ele>189.0</ele><time>2026-04-06T09:45:02.001Z</time></trkpt><trkpt lat="43.63239819858526" lon="10.756641581926832"><ele>189.0</ele><time>2026-04-06T09:45:03.001Z</time></trkpt><trkpt lat="43.63249776165369" lon="10.75661014653383"><ele>189.0</ele><time>2026-04-06T09:45:04.001Z</time></trkpt><trkpt lat="43.63258738364217" lon="10.75656504149127"><ele>189.0</ele><time>2026-04-06T09:45:05.001Z</time></trkpt><trkpt lat="43.632671969510476" lon="10.756508296157152"><ele>189.0</ele><time>2026-04-06T09:45:06.001Z</time></trkpt><trkpt lat="43.6327618359727" lon="10.756494618633834"><ele>189.0</ele><time>2026-04-06T09:45:07.001Z</time></trkpt><trkpt lat="43.63283382650754" lon="10.756441273403947"><ele>185.79999999999998</ele><time>2026-04-06T09:45:08.001Z</time></trkpt><trkpt lat="43.63291802735085" lon="10.756426537195454"><ele>182.6</ele><time>2026-04-06T09:45:09.001Z</time></trkpt><trkpt lat="43.63300511338884" lon="10.756405016746152"><ele>179.4</ele><time>2026-04-06T09:45:10.001Z</time></trkpt><trkpt lat="43.63310180196193" lon="10.756380689258197"><ele>176.2</ele><time>2026-04-06T09:45:11.001Z</time></trkpt><trkpt lat="43.63319229501107" lon="10.756338371325215"><ele>173.0</ele><time>2026-04-06T09:45:12.001Z</time></trkpt><trkpt lat="43.633285373289134" lon="10.756286899326476"><ele>173.0</ele><time>2026-04-06T09:45:13.001Z</time></trkpt><trkpt lat="43.63337952309524" lon="10.756233842482503"><ele>173.0</ele><time>2026-04-06T09:45:14.001Z</time></trkpt><trkpt lat="43.63346484885343" lon="10.756195639235214"><ele>173.0</ele><time>2026-04-06T09:45:15.001Z</time></trkpt><trkpt lat="43.63354374308586" lon="10.756169009296014"><ele>173.0</ele><time>2026-04-06T09:45:16.001Z</time></trkpt><trkpt lat="43.63361729715988" lon="10.756150959929727"><ele>173.0</ele><time>2026-04-06T09:45:17.001Z</time></trkpt><trkpt lat="43.63372521311989" lon="10.756095644649701"><ele>173.28571428571428</ele><time>2026-04-06T09:45:19.001Z</time></trkpt><trkpt lat="43.63377778762137" lon="10.756041392042857"><ele>173.57142857142858</ele><time>2026-04-06T09:45:20.001Z</time></trkpt><trkpt lat="43.633823640179166" lon="10.755964567108553"><ele>173.85714285714286</ele><time>2026-04-06T09:45:21.001Z</time></trkpt><trkpt lat="43.63387195485957" lon="10.755881573988086"><ele>174.14285714285714</ele><time>2026-04-06T09:45:22.001Z</time></trkpt><trkpt lat="43.633916077263876" lon="10.755795972326718"><ele>174.42857142857144</ele><time>2026-04-06T09:45:23.002Z</time></trkpt><trkpt lat="43.63395962135059" lon="10.755715106052522"><ele>174.71428571428572</ele><time>2026-04-06T09:45:24.002Z</time></trkpt><trkpt lat="43.63401229234062" lon="10.755642306333575"><ele>175.0</ele><time>2026-04-06T09:45:25.002Z</time></trkpt><trkpt lat="43.63407157769054" lon="10.75556787395289"><ele>175.0</ele><time>2026-04-06T09:45:26.002Z</time></trkpt><trkpt lat="43.63414451615119" lon="10.755514550419583"><ele>175.0</ele><time>2026-04-06T09:45:27.002Z</time></trkpt><trkpt lat="43.634219935034565" lon="10.755473391241106"><ele>175.0</ele><time>2026-04-06T09:45:28.002Z</time></trkpt><trkpt lat="43.63428785447231" lon="10.755420394229231"><ele>175.0</ele><time>2026-04-06T09:45:29.002Z</time></trkpt><trkpt lat="43.634354036774575" lon="10.755370360748836"><ele>175.0</ele><time>2026-04-06T09:45:30.002Z</time></trkpt><trkpt lat="43.63442220381853" lon="10.755326182834786"><ele>175.0</ele><time>2026-04-06T09:45:31.002Z</time></trkpt><trkpt lat="43.63449610769753" lon="10.755291327256252"><ele>172.6</ele><time>2026-04-06T09:45:32.002Z</time></trkpt><trkpt lat="43.634579597805285" lon="10.75526958403003"><ele>170.2</ele><time>2026-04-06T09:45:33.002Z</time></trkpt><trkpt lat="43.63466789681904" lon="10.755253640584508"><ele>167.8</ele><time>2026-04-06T09:45:34.002Z</time></trkpt><trkpt lat="43.634762062998504" lon="10.755242613625379"><ele>165.4</ele><time>2026-04-06T09:45:35.002Z</time></trkpt><trkpt lat="43.63486332149472" lon="10.755228316444958"><ele>163.0</ele><time>2026-04-06T09:45:36.002Z</time></trkpt><trkpt lat="43.63496123315534" lon="10.755206587458709"><ele>163.2</ele><time>2026-04-06T09:45:37.002Z</time></trkpt><trkpt lat="43.63506161776242" lon="10.75517905723194"><ele>163.4</ele><time>2026-04-06T09:45:38.002Z</time></trkpt><trkpt lat="43.635164296037146" lon="10.75513798896938"><ele>163.6</ele><time>2026-04-06T09:45:39.002Z</time></trkpt><trkpt lat="43.63526537748434" lon="10.755068037255443"><ele>163.79999999999998</ele><time>2026-04-06T09:45:40.002Z</time></trkpt><trkpt lat="43.63536465996811" lon="10.754997441037466"><ele>164.0</ele><time>2026-04-06T09:45:41.002Z</time></trkpt><trkpt lat="43.635459021423394" lon="10.75492748463222"><ele>163.39999999999998</ele><time>2026-04-06T09:45:42.002Z</time></trkpt><trkpt lat="43.635547782528576" lon="10.75486409757973"><ele>162.8</ele><time>2026-04-06T09:45:43.002Z</time></trkpt><trkpt lat="43.63562679378381" lon="10.754814624098898"><ele>162.2</ele><time>2026-04-06T09:45:44.002Z</time></trkpt><trkpt lat="43.63569230143615" lon="10.754778673751213"><ele>161.60000000000002</ele><time>2026-04-06T09:45:45.002Z</time></trkpt><trkpt lat="43.6357850344272" lon="10.75473337780648"><ele>161.0</ele><time>2026-04-06T09:45:47.002Z</time></trkpt><trkpt lat="43.63589545800204" lon="10.754693556059904"><ele>161.0</ele><time>2026-04-06T09:45:49.002Z</time></trkpt><trkpt lat="43.63597305514281" lon="10.75466593033498"><ele>161.0</ele><time>2026-04-06T09:45:50.002Z</time></trkpt><trkpt lat="43.63605882508158" lon="10.754617407451951"><ele>161.0</ele><time>2026-04-06T09:45:51.002Z</time></trkpt><trkpt lat="43.63614795566952" lon="10.754555664629622"><ele>161.0</ele><time>2026-04-06T09:45:52.002Z</time></trkpt><trkpt lat="43.636231836797485" lon="10.754484967991871"><ele>161.0</ele><time>2026-04-06T09:45:53.002Z</time></trkpt><trkpt lat="43.63631596409785" lon="10.754409275785571"><ele>159.8</ele><time>2026-04-06T09:45:54.002Z</time></trkpt><trkpt lat="43.63640751624429" lon="10.754348389852922"><ele>158.60000000000002</ele><time>2026-04-06T09:45:55.002Z</time></trkpt><trkpt lat="43.63650870799334" lon="10.75430005550573"><ele>157.4</ele><time>2026-04-06T09:45:56.003Z</time></trkpt><trkpt lat="43.63661810870686" lon="10.754255180451283"><ele>156.2</ele><time>2026-04-06T09:45:57.003Z</time></trkpt><trkpt lat="43.63673666564784" lon="10.754206213137682"><ele>155.0</ele><time>2026-04-06T09:45:58.003Z</time></trkpt><trkpt lat="43.636859034389474" lon="10.75418128512976"><ele>155.5</ele><time>2026-04-06T09:45:59.003Z</time></trkpt><trkpt lat="43.6369768769233" lon="10.754196857080078"><ele>156.0</ele><time>2026-04-06T09:46:00.003Z</time></trkpt><trkpt lat="43.637084082848936" lon="10.754240527351035"><ele>156.5</ele><time>2026-04-06T09:46:01.003Z</time></trkpt><trkpt lat="43.637192198707126" lon="10.754295658451385"><ele>157.0</ele><time>2026-04-06T09:46:02.003Z</time></trkpt><trkpt lat="43.63729892619105" lon="10.754330032393252"><ele>157.0</ele><time>2026-04-06T09:46:03.003Z</time></trkpt><trkpt lat="43.637400633456274" lon="10.754336345698585"><ele>157.0</ele><time>2026-04-06T09:46:04.003Z</time></trkpt><trkpt lat="43.63749072718367" lon="10.754342061036832"><ele>157.0</ele><time>2026-04-06T09:46:05.003Z</time></trkpt><trkpt lat="43.63759000667225" lon="10.754320553827437"><ele>157.0</ele><time>2026-04-06T09:46:06.003Z</time></trkpt><trkpt lat="43.637695643610705" lon="10.75426883884367"><ele>157.0</ele><time>2026-04-06T09:46:07.003Z</time></trkpt><trkpt lat="43.637794896400855" lon="10.754214084373867"><ele>155.75</ele><time>2026-04-06T09:46:08.003Z</time></trkpt><trkpt lat="43.63791633018958" lon="10.75416734675757"><ele>154.5</ele><time>2026-04-06T09:46:09.003Z</time></trkpt><trkpt lat="43.638032018377714" lon="10.754124130010846"><ele>153.25</ele><time>2026-04-06T09:46:10.003Z</time></trkpt><trkpt lat="43.638152627008715" lon="10.754104407249704"><ele>152.0</ele><time>2026-04-06T09:46:10.999Z</time></trkpt><trkpt lat="43.63827207307789" lon="10.754082767563327"><ele>152.0</ele><time>2026-04-06T09:46:11.999Z</time></trkpt><trkpt lat="43.63838866785688" lon="10.754061908558356"><ele>152.0</ele><time>2026-04-06T09:46:12.999Z</time></trkpt><trkpt lat="43.638503976900594" lon="10.754047732521045"><ele>152.0</ele><time>2026-04-06T09:46:13.999Z</time></trkpt><trkpt lat="43.638613282465364" lon="10.754033055476407"><ele>152.0</ele><time>2026-04-06T09:46:14.999Z</time></trkpt><trkpt lat="43.63871220918863" lon="10.754010425438533"><ele>152.0</ele><time>2026-04-06T09:46:15.999Z</time></trkpt><trkpt lat="43.63879362538644" lon="10.753986712451825"><ele>154.39999999999998</ele><time>2026-04-06T09:46:16.999Z</time></trkpt><trkpt lat="43.63888082140579" lon="10.753959350691263"><ele>156.79999999999998</ele><time>2026-04-06T09:46:17.999Z</time></trkpt><trkpt lat="43.63896105618585" lon="10.753912915355777"><ele>159.2</ele><time>2026-04-06T09:46:18.999Z</time></trkpt><trkpt lat="43.63903322980697" lon="10.753828809357161"><ele>161.6</ele><time>2026-04-06T09:46:19.999Z</time></trkpt><trkpt lat="43.63909284614181" lon="10.753695459175324"><ele>164.0</ele><time>2026-04-06T09:46:21Z</time></trkpt><trkpt lat="43.63915474598385" lon="10.753560253659751"><ele>162.33333333333331</ele><time>2026-04-06T09:46:22Z</time></trkpt><trkpt lat="43.63921289811758" lon="10.753439244777999"><ele>160.66666666666666</ele><time>2026-04-06T09:46:23Z</time></trkpt><trkpt lat="43.639277844243296" lon="10.753361404336921"><ele>159.0</ele><time>2026-04-06T09:46:24Z</time></trkpt><trkpt lat="43.63934557072056" lon="10.753275460583598"><ele>157.33333333333334</ele><time>2026-04-06T09:46:25Z</time></trkpt><trkpt lat="43.63941298959098" lon="10.753211725903318"><ele>155.66666666666669</ele><time>2026-04-06T09:46:26Z</time></trkpt><trkpt lat="43.63947887837831" lon="10.753171400700811"><ele>154.0</ele><time>2026-04-06T09:46:27Z</time></trkpt><trkpt lat="43.63954145434013" lon="10.753155441811078"><ele>154.0</ele><time>2026-04-06T09:46:28Z</time></trkpt><trkpt lat="43.63963962909502" lon="10.753134276960811"><ele>154.0</ele><time>2026-04-06T09:46:29Z</time></trkpt><trkpt lat="43.6397326713542" lon="10.75312562965656"><ele>154.0</ele><time>2026-04-06T09:46:30Z</time></trkpt><trkpt lat="43.63981351819576" lon="10.753110884350445"><ele>154.0</ele><time>2026-04-06T09:46:31Z</time></trkpt><trkpt lat="43.63988923876832" lon="10.753123464226157"><ele>154.0</ele><time>2026-04-06T09:46:32Z</time></trkpt><trkpt lat="43.639965165550606" lon="10.753145248834008"><ele>154.0</ele><time>2026-04-06T09:46:33Z</time></trkpt><trkpt lat="43.64004367455835" lon="10.753167564284556"><ele>154.0</ele><time>2026-04-06T09:46:34Z</time></trkpt><trkpt lat="43.640126757388" lon="10.75318554801314"><ele>154.0</ele><time>2026-04-06T09:46:35Z</time></trkpt><trkpt lat="43.64019831827127" lon="10.753201842683513"><ele>154.0</ele><time>2026-04-06T09:46:36Z</time></trkpt><trkpt lat="43.640278436748034" lon="10.753218739278541"><ele>154.0</ele><time>2026-04-06T09:46:37Z</time></trkpt><trkpt lat="43.640364203203866" lon="10.753240735996751"><ele>154.0</ele><time>2026-04-06T09:46:38Z</time></trkpt><trkpt lat="43.64043353011237" lon="10.753254045014737"><ele>154.0</ele><time>2026-04-06T09:46:39Z</time></trkpt><trkpt lat="43.640545510431565" lon="10.753263278681342"><ele>151.16666666666669</ele><time>2026-04-06T09:46:41Z</time></trkpt><trkpt lat="43.64062678070402" lon="10.753249288470766"><ele>148.33333333333334</ele><time>2026-04-06T09:46:43Z</time></trkpt><trkpt lat="43.6406989329194" lon="10.753218524586648"><ele>145.5</ele><time>2026-04-06T09:46:44Z</time></trkpt><trkpt lat="43.64075585880695" lon="10.75316771744758"><ele>142.66666666666666</ele><time>2026-04-06T09:46:45Z</time></trkpt><trkpt lat="43.64083174252069" lon="10.753056474086856"><ele>139.83333333333331</ele><time>2026-04-06T09:46:47.001Z</time></trkpt><trkpt lat="43.64088709805886" lon="10.752979696603099"><ele>137.0</ele><time>2026-04-06T09:46:49.001Z</time></trkpt><trkpt lat="43.6409854777501" lon="10.752952448319594"><ele>137.0</ele><time>2026-04-06T09:46:51.001Z</time></trkpt><trkpt lat="43.64107063968885" lon="10.753052469935591"><ele>137.0</ele><time>2026-04-06T09:46:53.001Z</time></trkpt><trkpt lat="43.64111127006413" lon="10.753196205203086"><ele>137.0</ele><time>2026-04-06T09:46:55.001Z</time></trkpt><trkpt lat="43.64115529674055" lon="10.753337640893664"><ele>137.0</ele><time>2026-04-06T09:46:57.001Z</time></trkpt><trkpt lat="43.641188182959866" lon="10.75346428743439"><ele>137.0</ele><time>2026-04-06T09:46:59.001Z</time></trkpt><trkpt lat="43.64122018563229" lon="10.75359175752385"><ele>135.4</ele><time>2026-04-06T09:47:01.001Z</time></trkpt><trkpt lat="43.64124496290155" lon="10.75374881214544"><ele>133.79999999999998</ele><time>2026-04-06T09:47:03.001Z</time></trkpt><trkpt lat="43.641296530944935" lon="10.753896966359036"><ele>132.2</ele><time>2026-04-06T09:47:05.001Z</time></trkpt><trkpt lat="43.641348436100614" lon="10.753958203600998"><ele>130.6</ele><time>2026-04-06T09:47:06.001Z</time></trkpt><trkpt lat="43.64145736733507" lon="10.754061826217626"><ele>129.0</ele><time>2026-04-06T09:47:08.001Z</time></trkpt><trkpt lat="43.641540833433524" lon="10.754050473285117"><ele>129.0</ele><time>2026-04-06T09:47:09.001Z</time></trkpt><trkpt lat="43.64161840759292" lon="10.754049591641081"><ele>129.0</ele><time>2026-04-06T09:47:10.001Z</time></trkpt><trkpt lat="43.641691828546726" lon="10.754031707783266"><ele>129.0</ele><time>2026-04-06T09:47:11.001Z</time></trkpt><trkpt lat="43.641762331391334" lon="10.753976787436665"><ele>129.0</ele><time>2026-04-06T09:47:12.001Z</time></trkpt><trkpt lat="43.64184685552211" lon="10.753923364986301"><ele>129.0</ele><time>2026-04-06T09:47:13.001Z</time></trkpt><trkpt lat="43.64191374222715" lon="10.753834433335593"><ele>129.0</ele><time>2026-04-06T09:47:14.001Z</time></trkpt><trkpt lat="43.641969289469465" lon="10.753722531967671"><ele>132.0</ele><time>2026-04-06T09:47:15.001Z</time></trkpt><trkpt lat="43.641990548668495" lon="10.753599074403983"><ele>135.0</ele><time>2026-04-06T09:47:16.002Z</time></trkpt><trkpt lat="43.64200027540698" lon="10.75348950376969"><ele>138.0</ele><time>2026-04-06T09:47:17.002Z</time></trkpt><trkpt lat="43.642022256693366" lon="10.753382612992123"><ele>141.0</ele><time>2026-04-06T09:47:18.002Z</time></trkpt><trkpt lat="43.642043788127886" lon="10.753284208979359"><ele>144.0</ele><time>2026-04-06T09:47:19.002Z</time></trkpt><trkpt lat="43.64208617115137" lon="10.753202756149326"><ele>147.0</ele><time>2026-04-06T09:47:20.002Z</time></trkpt><trkpt lat="43.64214032543052" lon="10.753131633470554"><ele>147.0</ele><time>2026-04-06T09:47:21.002Z</time></trkpt><trkpt lat="43.64219445709718" lon="10.753032127657624"><ele>147.0</ele><time>2026-04-06T09:47:22.002Z</time></trkpt><trkpt lat="43.64221371116835" lon="10.752911676977005"><ele>147.0</ele><time>2026-04-06T09:47:23.002Z</time></trkpt><trkpt lat="43.64225257500152" lon="10.752784142947815"><ele>147.0</ele><time>2026-04-06T09:47:24.002Z</time></trkpt><trkpt lat="43.6422742617223" lon="10.752641851905468"><ele>147.0</ele><time>2026-04-06T09:47:25.002Z</time></trkpt><trkpt lat="43.64228164990319" lon="10.752500657653288"><ele>147.0</ele><time>2026-04-06T09:47:26.002Z</time></trkpt><trkpt lat="43.6422697646865" lon="10.75235024362976"><ele>147.0</ele><time>2026-04-06T09:47:27.002Z</time></trkpt><trkpt lat="43.64227147231717" lon="10.75217977526058"><ele>147.0</ele><time>2026-04-06T09:47:28.002Z</time></trkpt><trkpt lat="43.642276285515145" lon="10.752003640785938"><ele>147.0</ele><time>2026-04-06T09:47:29.002Z</time></trkpt><trkpt lat="43.64227222824768" lon="10.751841024545316"><ele>147.0</ele><time>2026-04-06T09:47:30.002Z</time></trkpt><trkpt lat="43.64227666530778" lon="10.751706148475867"><ele>147.0</ele><time>2026-04-06T09:47:31.002Z</time></trkpt><trkpt lat="43.64228246402072" lon="10.751599817847643"><ele>147.0</ele><time>2026-04-06T09:47:32.002Z</time></trkpt><trkpt lat="43.64228748718659" lon="10.751491619680744"><ele>147.0</ele><time>2026-04-06T09:47:33.002Z</time></trkpt><trkpt lat="43.64229642338472" lon="10.751364181927407"><ele>147.0</ele><time>2026-04-06T09:47:34.002Z</time></trkpt><trkpt lat="43.64231096352347" lon="10.751228502751506"><ele>147.0</ele><time>2026-04-06T09:47:35.002Z</time></trkpt><trkpt lat="43.64232439183627" lon="10.751102658556634"><ele>147.79999999999998</ele><time>2026-04-06T09:47:36.002Z</time></trkpt><trkpt lat="43.64233951820969" lon="10.750979510284628"><ele>148.6</ele><time>2026-04-06T09:47:37.002Z</time></trkpt><trkpt lat="43.642355278131745" lon="10.750858565337532"><ele>149.39999999999998</ele><time>2026-04-06T09:47:38.002Z</time></trkpt><trkpt lat="43.64237827671129" lon="10.750741213393848"><ele>150.2</ele><time>2026-04-06T09:47:39.002Z</time></trkpt><trkpt lat="43.642381796919565" lon="10.750609845173466"><ele>151.0</ele><time>2026-04-06T09:47:40.002Z</time></trkpt><trkpt lat="43.64238416400542" lon="10.750477892236695"><ele>151.0</ele><time>2026-04-06T09:47:41.002Z</time></trkpt><trkpt lat="43.642381294978115" lon="10.750347268295293"><ele>151.0</ele><time>2026-04-06T09:47:42.002Z</time></trkpt><trkpt lat="43.64239077340324" lon="10.750217694096621"><ele>151.0</ele><time>2026-04-06T09:47:43.002Z</time></trkpt><trkpt lat="43.64241517377223" lon="10.750079641074455"><ele>151.0</ele><time>2026-04-06T09:47:44.002Z</time></trkpt><trkpt lat="43.64245287327629" lon="10.749944295274517"><ele>151.0</ele><time>2026-04-06T09:47:45.002Z</time></trkpt><trkpt lat="43.642495330373144" lon="10.749811421131025"><ele>151.75</ele><time>2026-04-06T09:47:46.002Z</time></trkpt><trkpt lat="43.642534677717364" lon="10.749665663315406"><ele>152.5</ele><time>2026-04-06T09:47:47.002Z</time></trkpt><trkpt lat="43.642575052396225" lon="10.749508996986787"><ele>153.25</ele><time>2026-04-06T09:47:48.002Z</time></trkpt><trkpt lat="43.64262979815622" lon="10.749345436381562"><ele>154.0</ele><time>2026-04-06T09:47:49.003Z</time></trkpt><trkpt lat="43.642683892077216" lon="10.749204356869187"><ele>156.0</ele><time>2026-04-06T09:47:50.003Z</time></trkpt><trkpt lat="43.64275985376812" lon="10.749082489652253"><ele>158.0</ele><time>2026-04-06T09:47:51.003Z</time></trkpt><trkpt lat="43.64284640430469" lon="10.748965632338999"><ele>160.0</ele><time>2026-04-06T09:47:52.003Z</time></trkpt><trkpt lat="43.642952305785556" lon="10.74886699158108"><ele>162.0</ele><time>2026-04-06T09:47:53.003Z</time></trkpt><trkpt lat="43.64306206411981" lon="10.74879871926947"><ele>160.66666666666666</ele><time>2026-04-06T09:47:54.003Z</time></trkpt><trkpt lat="43.64316294928713" lon="10.748728239542627"><ele>159.33333333333334</ele><time>2026-04-06T09:47:55.003Z</time></trkpt><trkpt lat="43.643239940248634" lon="10.748672541642735"><ele>158.0</ele><time>2026-04-06T09:47:56.003Z</time></trkpt><trkpt lat="43.643309580565614" lon="10.748620313826821"><ele>156.66666666666669</ele><time>2026-04-06T09:47:57.003Z</time></trkpt><trkpt lat="43.64337972727843" lon="10.74856412531575"><ele>155.33333333333334</ele><time>2026-04-06T09:47:58.003Z</time></trkpt><trkpt lat="43.643437095772605" lon="10.748493431911722"><ele>154.0</ele><time>2026-04-06T09:47:59.003Z</time></trkpt><trkpt lat="43.643503025783936" lon="10.748450547323117"><ele>154.0</ele><time>2026-04-06T09:48:00.003Z</time></trkpt><trkpt lat="43.64356009852638" lon="10.748411779481176"><ele>154.0</ele><time>2026-04-06T09:48:01.003Z</time></trkpt><trkpt lat="43.64362070248548" lon="10.748377530713215"><ele>154.0</ele><time>2026-04-06T09:48:02.003Z</time></trkpt><trkpt lat="43.643684631005115" lon="10.74834782191444"><ele>154.0</ele><time>2026-04-06T09:48:03.003Z</time></trkpt><trkpt lat="43.64374221323975" lon="10.748307633408317"><ele>154.0</ele><time>2026-04-06T09:48:04.003Z</time></trkpt><trkpt lat="43.64381966255823" lon="10.74827718082242"><ele>154.0</ele><time>2026-04-06T09:48:05.003Z</time></trkpt><trkpt lat="43.64391364413535" lon="10.748240867494808"><ele>154.0</ele><time>2026-04-06T09:48:06.003Z</time></trkpt><trkpt lat="43.644019348119805" lon="10.748208002488209"><ele>152.5</ele><time>2026-04-06T09:48:07.003Z</time></trkpt><trkpt lat="43.644135771957856" lon="10.74815781309187"><ele>151.0</ele><time>2026-04-06T09:48:08.003Z</time></trkpt><trkpt lat="43.64425759857858" lon="10.748107854653458"><ele>149.5</ele><time>2026-04-06T09:48:09.003Z</time></trkpt><trkpt lat="43.64436947740159" lon="10.748074531224567"><ele>148.0</ele><time>2026-04-06T09:48:10.003Z</time></trkpt><trkpt lat="43.64446988223289" lon="10.748039570989912"><ele>146.83333333333334</ele><time>2026-04-06T09:48:11.003Z</time></trkpt><trkpt lat="43.64455408047508" lon="10.748010405976851"><ele>145.66666666666669</ele><time>2026-04-06T09:48:12.003Z</time></trkpt><trkpt lat="43.644631448856515" lon="10.74799117060653"><ele>144.5</ele><time>2026-04-06T09:48:13.003Z</time></trkpt><trkpt lat="43.64470833612678" lon="10.74796728465512"><ele>143.33333333333334</ele><time>2026-04-06T09:48:14.003Z</time></trkpt><trkpt lat="43.64477354923298" lon="10.747916883338203"><ele>142.16666666666666</ele><time>2026-04-06T09:48:15.003Z</time></trkpt><trkpt lat="43.64482750390272" lon="10.74786369924248"><ele>141.0</ele><time>2026-04-06T09:48:16.003Z</time></trkpt><trkpt lat="43.644874780182356" lon="10.747793999863493"><ele>141.0</ele><time>2026-04-06T09:48:16.999Z</time></trkpt><trkpt lat="43.64491501565272" lon="10.747715501723787"><ele>141.0</ele><time>2026-04-06T09:48:17.999Z</time></trkpt><trkpt lat="43.64496262344577" lon="10.747610740784578"><ele>141.0</ele><time>2026-04-06T09:48:18.999Z</time></trkpt><trkpt lat="43.64502933811623" lon="10.747519529474381"><ele>141.0</ele><time>2026-04-06T09:48:19.999Z</time></trkpt><trkpt lat="43.64508658545041" lon="10.747409702739846"><ele>141.0</ele><time>2026-04-06T09:48:20.999Z</time></trkpt><trkpt lat="43.645147493329254" lon="10.747291605231581"><ele>141.0</ele><time>2026-04-06T09:48:21.999Z</time></trkpt><trkpt lat="43.645210617033804" lon="10.747170405146955"><ele>141.0</ele><time>2026-04-06T09:48:22.999Z</time></trkpt><trkpt lat="43.64527797038802" lon="10.747053674120727"><ele>141.0</ele><time>2026-04-06T09:48:23.999Z</time></trkpt><trkpt lat="43.645342721967964" lon="10.746922642989459"><ele>141.0</ele><time>2026-04-06T09:48:25Z</time></trkpt><trkpt lat="43.64541103275768" lon="10.746797441499702"><ele>141.0</ele><time>2026-04-06T09:48:26Z</time></trkpt><trkpt lat="43.64548448812056" lon="10.74667717639019"><ele>140.6</ele><time>2026-04-06T09:48:27Z</time></trkpt><trkpt lat="43.645553556982165" lon="10.746555720420158"><ele>140.2</ele><time>2026-04-06T09:48:28Z</time></trkpt><trkpt lat="43.64561818607018" lon="10.746441714326972"><ele>139.8</ele><time>2026-04-06T09:48:29Z</time></trkpt><trkpt lat="43.645670487535874" lon="10.746337265034278"><ele>139.4</ele><time>2026-04-06T09:48:30Z</time></trkpt><trkpt lat="43.645719220008814" lon="10.74624626286992"><ele>139.0</ele><time>2026-04-06T09:48:31Z</time></trkpt><trkpt lat="43.64576243216978" lon="10.746166550077449"><ele>141.75</ele><time>2026-04-06T09:48:32Z</time></trkpt><trkpt lat="43.645842489744616" lon="10.746043775491046"><ele>144.5</ele><time>2026-04-06T09:48:34Z</time></trkpt><trkpt lat="43.645918689423404" lon="10.745926762988999"><ele>147.25</ele><time>2026-04-06T09:48:36Z</time></trkpt><trkpt lat="43.64601163089975" lon="10.745812977882848"><ele>150.0</ele><time>2026-04-06T09:48:38Z</time></trkpt><trkpt lat="43.646101879990766" lon="10.745727810349196"><ele>149.8</ele><time>2026-04-06T09:48:40Z</time></trkpt><trkpt lat="43.64619945451667" lon="10.745657318341832"><ele>149.6</ele><time>2026-04-06T09:48:42Z</time></trkpt><trkpt lat="43.64627714146106" lon="10.745589737929622"><ele>149.4</ele><time>2026-04-06T09:48:44Z</time></trkpt><trkpt lat="43.646362643942965" lon="10.745528310550586"><ele>149.2</ele><time>2026-04-06T09:48:46Z</time></trkpt><trkpt lat="43.6464408244187" lon="10.74545343706628"><ele>149.0</ele><time>2026-04-06T09:48:48Z</time></trkpt><trkpt lat="43.64653061225245" lon="10.745379447877312"><ele>149.0</ele><time>2026-04-06T09:48:50Z</time></trkpt><trkpt lat="43.64659102316304" lon="10.745279447862472"><ele>149.0</ele><time>2026-04-06T09:48:52.001Z</time></trkpt><trkpt lat="43.64665839659887" lon="10.745155236520596"><ele>149.0</ele><time>2026-04-06T09:48:54.001Z</time></trkpt><trkpt lat="43.646747783929335" lon="10.745029203230072"><ele>149.0</ele><time>2026-04-06T09:48:56.001Z</time></trkpt><trkpt lat="43.64681537699065" lon="10.744987013475026"><ele>149.0</ele><time>2026-04-06T09:48:57.001Z</time></trkpt><trkpt lat="43.64688132657976" lon="10.744924539909748"><ele>148.5</ele><time>2026-04-06T09:48:58.001Z</time></trkpt><trkpt lat="43.64695106099587" lon="10.744867956951976"><ele>148.0</ele><time>2026-04-06T09:48:59.001Z</time></trkpt><trkpt lat="43.64702318053171" lon="10.744817303393708"><ele>147.5</ele><time>2026-04-06T09:49:00.001Z</time></trkpt><trkpt lat="43.647092497993995" lon="10.744772189124024"><ele>147.0</ele><time>2026-04-06T09:49:01.001Z</time></trkpt><trkpt lat="43.64717368909218" lon="10.74474011632993"><ele>146.5</ele><time>2026-04-06T09:49:02.001Z</time></trkpt><trkpt lat="43.64724059830407" lon="10.744690073556544"><ele>146.0</ele><time>2026-04-06T09:49:03.001Z</time></trkpt><trkpt lat="43.64730879859262" lon="10.744638342119742"><ele>147.33333333333331</ele><time>2026-04-06T09:49:04.001Z</time></trkpt><trkpt lat="43.64738810743063" lon="10.744602098638227"><ele>148.66666666666666</ele><time>2026-04-06T09:49:05.001Z</time></trkpt><trkpt lat="43.6474544840967" lon="10.744554774804804"><ele>150.0</ele><time>2026-04-06T09:49:06.001Z</time></trkpt><trkpt lat="43.64752359418362" lon="10.744513945793866"><ele>151.33333333333334</ele><time>2026-04-06T09:49:07.001Z</time></trkpt><trkpt lat="43.64759638092145" lon="10.744471986363738"><ele>152.66666666666669</ele><time>2026-04-06T09:49:08.001Z</time></trkpt><trkpt lat="43.64766571328856" lon="10.744446642727787"><ele>154.0</ele><time>2026-04-06T09:49:09.001Z</time></trkpt><trkpt lat="43.6477339824517" lon="10.74443634081488"><ele>151.66666666666669</ele><time>2026-04-06T09:49:10.001Z</time></trkpt><trkpt lat="43.64780773011039" lon="10.744429987407123"><ele>149.33333333333334</ele><time>2026-04-06T09:49:11.001Z</time></trkpt><trkpt lat="43.647889149496976" lon="10.74442677500139"><ele>147.0</ele><time>2026-04-06T09:49:12.001Z</time></trkpt><trkpt lat="43.64797682537729" lon="10.744424203641305"><ele>144.66666666666666</ele><time>2026-04-06T09:49:13.001Z</time></trkpt><trkpt lat="43.648067066359154" lon="10.744422811651145"><ele>142.33333333333331</ele><time>2026-04-06T09:49:14.001Z</time></trkpt><trkpt lat="43.64815399230604" lon="10.744419387423743"><ele>140.0</ele><time>2026-04-06T09:49:15.001Z</time></trkpt><trkpt lat="43.6482400904217" lon="10.744419776998502"><ele>140.0</ele><time>2026-04-06T09:49:16.001Z</time></trkpt><trkpt lat="43.64832510932871" lon="10.74442214276834"><ele>140.0</ele><time>2026-04-06T09:49:17.001Z</time></trkpt><trkpt lat="43.64839979359934" lon="10.744422272226283"><ele>140.0</ele><time>2026-04-06T09:49:18.001Z</time></trkpt><trkpt lat="43.648478887120305" lon="10.74443873285928"><ele>140.0</ele><time>2026-04-06T09:49:19.001Z</time></trkpt><trkpt lat="43.64861048486691" lon="10.744507069199758"><ele>140.0</ele><time>2026-04-06T09:49:21.001Z</time></trkpt><trkpt lat="43.64868675556882" lon="10.74452945837111"><ele>138.28571428571428</ele><time>2026-04-06T09:49:22.002Z</time></trkpt><trkpt lat="43.64876462940088" lon="10.744552360527251"><ele>136.57142857142856</ele><time>2026-04-06T09:49:23.002Z</time></trkpt><trkpt lat="43.64884212259859" lon="10.744572470769109"><ele>134.85714285714286</ele><time>2026-04-06T09:49:24.002Z</time></trkpt><trkpt lat="43.648911646799405" lon="10.744595280004932"><ele>133.14285714285714</ele><time>2026-04-06T09:49:25.002Z</time></trkpt><trkpt lat="43.64898376534656" lon="10.744589694993923"><ele>131.42857142857142</ele><time>2026-04-06T09:49:26.002Z</time></trkpt><trkpt lat="43.649052902086524" lon="10.744565679600262"><ele>129.71428571428572</ele><time>2026-04-06T09:49:27.002Z</time></trkpt><trkpt lat="43.64911412751106" lon="10.74452574411024"><ele>128.0</ele><time>2026-04-06T09:49:28.002Z</time></trkpt><trkpt lat="43.649181546886986" lon="10.744486323605992"><ele>127.99999999999999</ele><time>2026-04-06T09:49:29.002Z</time></trkpt><trkpt lat="43.64924973629898" lon="10.744438679814321"><ele>128.0</ele><time>2026-04-06T09:49:30.002Z</time></trkpt><trkpt lat="43.649313809455705" lon="10.744395922405774"><ele>128.0</ele><time>2026-04-06T09:49:31.002Z</time></trkpt><trkpt lat="43.64936922985818" lon="10.744342553496786"><ele>128.0</ele><time>2026-04-06T09:49:32.002Z</time></trkpt><trkpt lat="43.64945988399811" lon="10.744315890651151"><ele>127.99999999999999</ele><time>2026-04-06T09:49:34.002Z</time></trkpt><trkpt lat="43.64956661896083" lon="10.74423125669202"><ele>128.0</ele><time>2026-04-06T09:49:36.002Z</time></trkpt><trkpt lat="43.649621980463905" lon="10.744174554539676"><ele>130.20000000000002</ele><time>2026-04-06T09:49:37.002Z</time></trkpt><trkpt lat="43.649675686220846" lon="10.74411468001721"><ele>132.4</ele><time>2026-04-06T09:49:38.002Z</time></trkpt><trkpt lat="43.64975632723381" lon="10.744006904055185"><ele>134.60000000000002</ele><time>2026-04-06T09:49:40.002Z</time></trkpt><trkpt lat="43.649788055193284" lon="10.743931532758952"><ele>136.8</ele><time>2026-04-06T09:49:42.002Z</time></trkpt><trkpt lat="43.649904991271555" lon="10.744041361995372"><ele>139.0</ele><time>2026-04-06T09:49:44.002Z</time></trkpt><trkpt lat="43.64999048751355" lon="10.74412300181491"><ele>139.0</ele><time>2026-04-06T09:49:45.002Z</time></trkpt><trkpt lat="43.6500639395225" lon="10.744183658849726"><ele>139.0</ele><time>2026-04-06T09:49:46.002Z</time></trkpt><trkpt lat="43.650138244794945" lon="10.744242927713055"><ele>139.0</ele><time>2026-04-06T09:49:47.002Z</time></trkpt><trkpt lat="43.65021622340922" lon="10.744318043521275"><ele>139.0</ele><time>2026-04-06T09:49:48.002Z</time></trkpt><trkpt lat="43.65029638609577" lon="10.744400960544478"><ele>139.0</ele><time>2026-04-06T09:49:49.002Z</time></trkpt><trkpt lat="43.65036988103693" lon="10.744496858470738"><ele>136.8</ele><time>2026-04-06T09:49:50.002Z</time></trkpt><trkpt lat="43.650443914603336" lon="10.744604101808802"><ele>134.60000000000002</ele><time>2026-04-06T09:49:51.002Z</time></trkpt><trkpt lat="43.650507172023154" lon="10.744720601357809"><ele>132.4</ele><time>2026-04-06T09:49:52.002Z</time></trkpt><trkpt lat="43.65057270031681" lon="10.744845102259523"><ele>130.20000000000002</ele><time>2026-04-06T09:49:53.002Z</time></trkpt><trkpt lat="43.65063260436021" lon="10.744973871726907"><ele>128.0</ele><time>2026-04-06T09:49:54.002Z</time></trkpt><trkpt lat="43.65069186805631" lon="10.74509877856508"><ele>125.80000000000001</ele><time>2026-04-06T09:49:55.003Z</time></trkpt><trkpt lat="43.65076275902978" lon="10.745228412929169"><ele>123.60000000000001</ele><time>2026-04-06T09:49:56.003Z</time></trkpt><trkpt lat="43.650835626521655" lon="10.745342794758043"><ele>121.39999999999999</ele><time>2026-04-06T09:49:57.003Z</time></trkpt><trkpt lat="43.65090020131556" lon="10.745453065087238"><ele>119.19999999999999</ele><time>2026-04-06T09:49:58.003Z</time></trkpt><trkpt lat="43.65097475379996" lon="10.745569094986243"><ele>117.0</ele><time>2026-04-06T09:49:59.003Z</time></trkpt><trkpt lat="43.65104143267738" lon="10.745695246183278"><ele>117.0</ele><time>2026-04-06T09:50:00.003Z</time></trkpt><trkpt lat="43.651094098786366" lon="10.745837948571788"><ele>117.0</ele><time>2026-04-06T09:50:01.003Z</time></trkpt><trkpt lat="43.651139319439764" lon="10.746010453513234"><ele>117.0</ele><time>2026-04-06T09:50:02.003Z</time></trkpt><trkpt lat="43.651205088225005" lon="10.746156472795603"><ele>117.0</ele><time>2026-04-06T09:50:03.003Z</time></trkpt><trkpt lat="43.65127858739249" lon="10.746293586727942"><ele>117.6</ele><time>2026-04-06T09:50:04.003Z</time></trkpt><trkpt lat="43.65135106622157" lon="10.746426112302434"><ele>118.19999999999999</ele><time>2026-04-06T09:50:05.003Z</time></trkpt><trkpt lat="43.65142086062949" lon="10.746539106438641"><ele>118.8</ele><time>2026-04-06T09:50:06.003Z</time></trkpt><trkpt lat="43.6514807278525" lon="10.746659511881967"><ele>119.4</ele><time>2026-04-06T09:50:07.003Z</time></trkpt><trkpt lat="43.651538453283095" lon="10.74677574048462"><ele>120.0</ele><time>2026-04-06T09:50:08.003Z</time></trkpt><trkpt lat="43.651591055308266" lon="10.74687444345648"><ele>119.83333333333333</ele><time>2026-04-06T09:50:09.003Z</time></trkpt><trkpt lat="43.651639347947565" lon="10.7469536595588"><ele>119.66666666666666</ele><time>2026-04-06T09:50:10.003Z</time></trkpt><trkpt lat="43.651703414905775" lon="10.74702548402861"><ele>119.5</ele><time>2026-04-06T09:50:11.003Z</time></trkpt><trkpt lat="43.651775649713365" lon="10.747060099455032"><ele>119.33333333333333</ele><time>2026-04-06T09:50:12.003Z</time></trkpt><trkpt lat="43.65186253746146" lon="10.74708274544031"><ele>119.16666666666666</ele><time>2026-04-06T09:50:13.003Z</time></trkpt><trkpt lat="43.65196298516421" lon="10.747113516139779"><ele>119.0</ele><time>2026-04-06T09:50:14.003Z</time></trkpt><trkpt lat="43.652084254125754" lon="10.74715633629679"><ele>119.0</ele><time>2026-04-06T09:50:15.003Z</time></trkpt><trkpt lat="43.65222843474787" lon="10.747184892709466"><ele>119.0</ele><time>2026-04-06T09:50:16.003Z</time></trkpt><trkpt lat="43.65235358194967" lon="10.747216256232557"><ele>119.0</ele><time>2026-04-06T09:50:17.003Z</time></trkpt><trkpt lat="43.65246432164045" lon="10.747251799643264"><ele>119.0</ele><time>2026-04-06T09:50:18.003Z</time></trkpt><trkpt lat="43.652575693467796" lon="10.747292045922057"><ele>119.0</ele><time>2026-04-06T09:50:19.003Z</time></trkpt><trkpt lat="43.65266665711658" lon="10.74728664073185"><ele>119.0</ele><time>2026-04-06T09:50:20.003Z</time></trkpt><trkpt lat="43.65276832307925" lon="10.747294953487971"><ele>119.0</ele><time>2026-04-06T09:50:21.003Z</time></trkpt><trkpt lat="43.65286468272782" lon="10.74729428183839"><ele>119.0</ele><time>2026-04-06T09:50:22.003Z</time></trkpt><trkpt lat="43.652970732150195" lon="10.747293047404016"><ele>119.0</ele><time>2026-04-06T09:50:22.998Z</time></trkpt><trkpt lat="43.653074653412546" lon="10.747301197446443"><ele>116.80000000000001</ele><time>2026-04-06T09:50:23.999Z</time></trkpt><trkpt lat="43.6531810156408" lon="10.747323668753511"><ele>114.60000000000001</ele><time>2026-04-06T09:50:24.999Z</time></trkpt><trkpt lat="43.653285834043416" lon="10.747357146311654"><ele>112.4</ele><time>2026-04-06T09:50:25.999Z</time></trkpt><trkpt lat="43.65339313510388" lon="10.74740008004125"><ele>110.2</ele><time>2026-04-06T09:50:26.999Z</time></trkpt><trkpt lat="43.653496646391396" lon="10.747447442894313"><ele>108.0</ele><time>2026-04-06T09:50:27.999Z</time></trkpt><trkpt lat="43.65359243541154" lon="10.747493046229968"><ele>109.0</ele><time>2026-04-06T09:50:28.999Z</time></trkpt><trkpt lat="43.65369059801171" lon="10.7475287740265"><ele>110.00000000000001</ele><time>2026-04-06T09:50:29.999Z</time></trkpt><trkpt lat="43.6537865862591" lon="10.747574260481738"><ele>111.00000000000001</ele><time>2026-04-06T09:50:30.999Z</time></trkpt><trkpt lat="43.65388821139836" lon="10.747624108127525"><ele>112.0</ele><time>2026-04-06T09:50:31.999Z</time></trkpt><trkpt lat="43.65397771405548" lon="10.74767404254805"><ele>113.0</ele><time>2026-04-06T09:50:32.999Z</time></trkpt><trkpt lat="43.65407500537906" lon="10.747730177648776"><ele>110.4</ele><time>2026-04-06T09:50:33.999Z</time></trkpt><trkpt lat="43.65416405902014" lon="10.747795999101415"><ele>107.80000000000001</ele><time>2026-04-06T09:50:34.999Z</time></trkpt><trkpt lat="43.65423466833729" lon="10.747876047057904"><ele>105.2</ele><time>2026-04-06T09:50:35.999Z</time></trkpt><trkpt lat="43.65429593685781" lon="10.747982187030535"><ele>102.6</ele><time>2026-04-06T09:50:36.999Z</time></trkpt><trkpt lat="43.654334617891344" lon="10.748108035457573"><ele>100.0</ele><time>2026-04-06T09:50:37.999Z</time></trkpt><trkpt lat="43.65433283890105" lon="10.748250919440496"><ele>100.0</ele><time>2026-04-06T09:50:38.999Z</time></trkpt><trkpt lat="43.654305849407834" lon="10.748426409126651"><ele>100.0</ele><time>2026-04-06T09:50:40Z</time></trkpt><trkpt lat="43.65426704029646" lon="10.748591998021213"><ele>100.0</ele><time>2026-04-06T09:50:41Z</time></trkpt><trkpt lat="43.65420485642682" lon="10.748751135406211"><ele>100.0</ele><time>2026-04-06T09:50:42Z</time></trkpt><trkpt lat="43.654135584696775" lon="10.74892269050642"><ele>98.6</ele><time>2026-04-06T09:50:43Z</time></trkpt><trkpt lat="43.6540919221938" lon="10.749087302207926"><ele>97.2</ele><time>2026-04-06T09:50:44Z</time></trkpt><trkpt lat="43.65407598791363" lon="10.749256534011261"><ele>95.80000000000001</ele><time>2026-04-06T09:50:45Z</time></trkpt><trkpt lat="43.65406909362018" lon="10.74935425022443"><ele>94.4</ele><time>2026-04-06T09:50:46Z</time></trkpt><trkpt lat="43.654079100158285" lon="10.749478750522886"><ele>93.0</ele><time>2026-04-06T09:50:48Z</time></trkpt><trkpt lat="43.65402416908803" lon="10.749524106147271"><ele>93.0</ele><time>2026-04-06T09:50:50Z</time></trkpt><trkpt lat="43.65402554632622" lon="10.749374157980341"><ele>93.0</ele><time>2026-04-06T09:50:52Z</time></trkpt><trkpt lat="43.65403806723137" lon="10.749248681435756"><ele>93.0</ele><time>2026-04-06T09:50:53Z</time></trkpt><trkpt lat="43.65404846525522" lon="10.74910168197263"><ele>93.0</ele><time>2026-04-06T09:50:54Z</time></trkpt><trkpt lat="43.654058295667525" lon="10.74894538959081"><ele>93.0</ele><time>2026-04-06T09:50:55Z</time></trkpt><trkpt lat="43.65406806114585" lon="10.748785348938585"><ele>93.0</ele><time>2026-04-06T09:50:56Z</time></trkpt><trkpt lat="43.654074573901966" lon="10.748653821236635"><ele>93.0</ele><time>2026-04-06T09:50:57Z</time></trkpt><trkpt lat="43.6540622201699" lon="10.748516148637256"><ele>93.0</ele><time>2026-04-06T09:50:58.001Z</time></trkpt><trkpt lat="43.65405720523484" lon="10.748379382460717"><ele>93.0</ele><time>2026-04-06T09:50:59.001Z</time></trkpt><trkpt lat="43.6540297193525" lon="10.74825349191572"><ele>93.0</ele><time>2026-04-06T09:51:00.001Z</time></trkpt><trkpt lat="43.65400443523411" lon="10.748156053602367"><ele>93.0</ele><time>2026-04-06T09:51:01.001Z</time></trkpt><trkpt lat="43.653956231532" lon="10.748083985107847"><ele>93.0</ele><time>2026-04-06T09:51:02.001Z</time></trkpt><trkpt lat="43.65386826992816" lon="10.748140170794729"><ele>93.0</ele><time>2026-04-06T09:51:04.001Z</time></trkpt><trkpt lat="43.65387569207883" lon="10.748251018006924"><ele>93.0</ele><time>2026-04-06T09:51:06.001Z</time></trkpt><trkpt lat="43.653910720654096" lon="10.748338368471089"><ele>93.0</ele><time>2026-04-06T09:51:07.001Z</time></trkpt><trkpt lat="43.653888856185134" lon="10.74844994691951"><ele>93.0</ele><time>2026-04-06T09:51:08.001Z</time></trkpt><trkpt lat="43.653878039889165" lon="10.74861973389762"><ele>93.0</ele><time>2026-04-06T09:51:09.001Z</time></trkpt><trkpt lat="43.65383785447319" lon="10.748791206132806"><ele>93.0</ele><time>2026-04-06T09:51:10.001Z</time></trkpt><trkpt lat="43.65379802342185" lon="10.748978172289183"><ele>93.0</ele><time>2026-04-06T09:51:11.001Z</time></trkpt><trkpt lat="43.65377286034378" lon="10.749136684087121"><ele>93.0</ele><time>2026-04-06T09:51:12.001Z</time></trkpt><trkpt lat="43.65373551913747" lon="10.749278739358608"><ele>90.83333333333333</ele><time>2026-04-06T09:51:13.001Z</time></trkpt><trkpt lat="43.65372155648076" lon="10.749403673978138"><ele>88.66666666666667</ele><time>2026-04-06T09:51:14.001Z</time></trkpt><trkpt lat="43.65371767744909" lon="10.749507933219169"><ele>86.5</ele><time>2026-04-06T09:51:15.001Z</time></trkpt><trkpt lat="43.653745473700724" lon="10.749614185911293"><ele>84.33333333333334</ele><time>2026-04-06T09:51:16.001Z</time></trkpt><trkpt lat="43.65379531779806" lon="10.749708235569031"><ele>82.16666666666667</ele><time>2026-04-06T09:51:17.001Z</time></trkpt><trkpt lat="43.65384355542464" lon="10.74976880174125"><ele>80.0</ele><time>2026-04-06T09:51:18.001Z</time></trkpt><trkpt lat="43.65385546270681" lon="10.74987722379332"><ele>80.0</ele><time>2026-04-06T09:51:20.001Z</time></trkpt><trkpt lat="43.65375033779069" lon="10.749769116902224"><ele>80.0</ele><time>2026-04-06T09:51:22.001Z</time></trkpt><trkpt lat="43.65364298384542" lon="10.749765091903647"><ele>80.0</ele><time>2026-04-06T09:51:25.001Z</time></trkpt><trkpt lat="43.6536356869229" lon="10.74993918152665"><ele>80.0</ele><time>2026-04-06T09:51:27.002Z</time></trkpt><trkpt lat="43.65368425023751" lon="10.750027268322743"><ele>80.0</ele><time>2026-04-06T09:51:28.002Z</time></trkpt><trkpt lat="43.65375329008732" lon="10.750092801850496"><ele>80.0</ele><time>2026-04-06T09:51:29.002Z</time></trkpt><trkpt lat="43.65383114881885" lon="10.750151568531066"><ele>80.0</ele><time>2026-04-06T09:51:30.002Z</time></trkpt><trkpt lat="43.65391765938539" lon="10.750188135183773"><ele>80.0</ele><time>2026-04-06T09:51:31.002Z</time></trkpt><trkpt lat="43.654013853508275" lon="10.75022938894735"><ele>80.0</ele><time>2026-04-06T09:51:32.002Z</time></trkpt><trkpt lat="43.65410452898425" lon="10.750276481340345"><ele>80.0</ele><time>2026-04-06T09:51:33.002Z</time></trkpt><trkpt lat="43.65419573293718" lon="10.750329869436603"><ele>78.25</ele><time>2026-04-06T09:51:34.002Z</time></trkpt><trkpt lat="43.65428104259471" lon="10.750394787307734"><ele>76.5</ele><time>2026-04-06T09:51:35.002Z</time></trkpt><trkpt lat="43.654371527422185" lon="10.750514591755598"><ele>74.75</ele><time>2026-04-06T09:51:36.002Z</time></trkpt><trkpt lat="43.6544626306354" lon="10.750637538705153"><ele>73.0</ele><time>2026-04-06T09:51:37.002Z</time></trkpt><trkpt lat="43.65454415774699" lon="10.750766877438506"><ele>73.0</ele><time>2026-04-06T09:51:38.002Z</time></trkpt><trkpt lat="43.654613305934426" lon="10.750885732741795"><ele>73.0</ele><time>2026-04-06T09:51:39.002Z</time></trkpt><trkpt lat="43.65469069691375" lon="10.751007771731313"><ele>73.0</ele><time>2026-04-06T09:51:40.002Z</time></trkpt><trkpt lat="43.654764534598705" lon="10.751110078164036"><ele>73.0</ele><time>2026-04-06T09:51:41.002Z</time></trkpt><trkpt lat="43.65483797417933" lon="10.75120854717088"><ele>73.0</ele><time>2026-04-06T09:51:42.002Z</time></trkpt><trkpt lat="43.654925740529414" lon="10.751286910108023"><ele>67.4</ele><time>2026-04-06T09:51:43.002Z</time></trkpt><trkpt lat="43.655016123322206" lon="10.751348554818962"><ele>61.8</ele><time>2026-04-06T09:51:44.002Z</time></trkpt><trkpt lat="43.655111864368614" lon="10.751398231504508"><ele>56.2</ele><time>2026-04-06T09:51:45.002Z</time></trkpt><trkpt lat="43.65519663112861" lon="10.75142353660819"><ele>50.6</ele><time>2026-04-06T09:51:46.002Z</time></trkpt><trkpt lat="43.65529808702409" lon="10.75142751758824"><ele>45.0</ele><time>2026-04-06T09:51:47.002Z</time></trkpt><trkpt lat="43.65541550378443" lon="10.751437886118577"><ele>44.0</ele><time>2026-04-06T09:51:48.002Z</time></trkpt><trkpt lat="43.65554649889431" lon="10.751456474700875"><ele>43.0</ele><time>2026-04-06T09:51:49.002Z</time></trkpt><trkpt lat="43.655675131077565" lon="10.751462505433047"><ele>42.0</ele><time>2026-04-06T09:51:50.002Z</time></trkpt><trkpt lat="43.655789515828424" lon="10.75143914649504"><ele>41.0</ele><time>2026-04-06T09:51:51.002Z</time></trkpt><trkpt lat="43.655884088515485" lon="10.751399863183147"><ele>41.0</ele><time>2026-04-06T09:51:52.002Z</time></trkpt><trkpt lat="43.65597589333988" lon="10.751395955459556"><ele>41.0</ele><time>2026-04-06T09:51:53.002Z</time></trkpt><trkpt lat="43.65606296196197" lon="10.751449786029902"><ele>41.0</ele><time>2026-04-06T09:51:54.002Z</time></trkpt><trkpt lat="43.65611946249112" lon="10.751556949135447"><ele>41.0</ele><time>2026-04-06T09:51:55.002Z</time></trkpt><trkpt lat="43.65615753432559" lon="10.751672005946478"><ele>41.0</ele><time>2026-04-06T09:51:56.002Z</time></trkpt><trkpt lat="43.6561919720882" lon="10.751782267225629"><ele>40.4</ele><time>2026-04-06T09:51:57.002Z</time></trkpt><trkpt lat="43.65622958146171" lon="10.751878108716882"><ele>39.8</ele><time>2026-04-06T09:51:58.002Z</time></trkpt><trkpt lat="43.65627414684365" lon="10.752015779499265"><ele>39.199999999999996</ele><time>2026-04-06T09:52:00.003Z</time></trkpt><trkpt lat="43.656184320310956" lon="10.752152868406476"><ele>38.599999999999994</ele><time>2026-04-06T09:52:17.003Z</time></trkpt><trkpt lat="43.656097712278246" lon="10.752207132830467"><ele>38.0</ele><time>2026-04-06T09:52:18.003Z</time></trkpt><trkpt lat="43.65600877972419" lon="10.752249158277104"><ele>38.0</ele><time>2026-04-06T09:52:19.003Z</time></trkpt><trkpt lat="43.6558919347244" lon="10.752323936598685"><ele>38.0</ele><time>2026-04-06T09:52:20.003Z</time></trkpt><trkpt lat="43.655739023161416" lon="10.752408130583119"><ele>38.0</ele><time>2026-04-06T09:52:21.003Z</time></trkpt><trkpt lat="43.65560436738056" lon="10.752489265107858"><ele>38.0</ele><time>2026-04-06T09:52:22.003Z</time></trkpt><trkpt lat="43.65546354341452" lon="10.752576906156845"><ele>38.0</ele><time>2026-04-06T09:52:23.003Z</time></trkpt><trkpt lat="43.6553228200571" lon="10.752669095092738"><ele>38.0</ele><time>2026-04-06T09:52:24.003Z</time></trkpt><trkpt lat="43.655176568684254" lon="10.752771262568196"><ele>38.0</ele><time>2026-04-06T09:52:25.003Z</time></trkpt><trkpt lat="43.655030612233126" lon="10.752878253850858"><ele>37.0</ele><time>2026-04-06T09:52:26.003Z</time></trkpt><trkpt lat="43.654882739957905" lon="10.752998942451898"><ele>36.0</ele><time>2026-04-06T09:52:27.003Z</time></trkpt><trkpt lat="43.6547221466465" lon="10.75309052778351"><ele>35.0</ele><time>2026-04-06T09:52:28.003Z</time></trkpt><trkpt lat="43.65458639542075" lon="10.753186731113944"><ele>35.0</ele><time>2026-04-06T09:52:28.999Z</time></trkpt><trkpt lat="43.65415702573767" lon="10.753460993165024"><ele>35.5</ele><time>2026-04-06T09:52:29.999Z</time></trkpt><trkpt lat="43.653946428299314" lon="10.753622918176827"><ele>36.0</ele><time>2026-04-06T09:52:30.999Z</time></trkpt><trkpt lat="43.653749130110135" lon="10.753768551367134"><ele>41.5</ele><time>2026-04-06T09:52:31.999Z</time></trkpt><trkpt lat="43.65354856195344" lon="10.753914924978002"><ele>47.0</ele><time>2026-04-06T09:52:32.999Z</time></trkpt><trkpt lat="43.653345271049716" lon="10.754052776389136"><ele>47.0</ele><time>2026-04-06T09:52:33.999Z</time></trkpt><trkpt lat="43.65314377678173" lon="10.75419572743593"><ele>47.0</ele><time>2026-04-06T09:52:34.999Z</time></trkpt><trkpt lat="43.65294474147996" lon="10.754341050222555"><ele>47.5</ele><time>2026-04-06T09:52:35.999Z</time></trkpt><trkpt lat="43.65274625180028" lon="10.754493084474946"><ele>48.0</ele><time>2026-04-06T09:52:36.999Z</time></trkpt><trkpt lat="43.65254494859088" lon="10.75463512772058"><ele>48.0</ele><time>2026-04-06T09:52:37.999Z</time></trkpt><trkpt lat="43.65234577085807" lon="10.75478147702378"><ele>48.0</ele><time>2026-04-06T09:52:38.999Z</time></trkpt><trkpt lat="43.652146759106685" lon="10.754925443907595"><ele>47.333333333333336</ele><time>2026-04-06T09:52:39.999Z</time></trkpt><trkpt lat="43.6519539455008" lon="10.755069030660966"><ele>46.66666666666667</ele><time>2026-04-06T09:52:41Z</time></trkpt><trkpt lat="43.65176635490935" lon="10.755205256188047"><ele>46.0</ele><time>2026-04-06T09:52:42Z</time></trkpt><trkpt lat="43.651583575435794" lon="10.755337444827468"><ele>46.0</ele><time>2026-04-06T09:52:43Z</time></trkpt><trkpt lat="43.65140428624684" lon="10.755498047128789"><ele>46.0</ele><time>2026-04-06T09:52:44Z</time></trkpt><trkpt lat="43.651237426018106" lon="10.755706290588483"><ele>46.0</ele><time>2026-04-06T09:52:45Z</time></trkpt><trkpt lat="43.65108766907667" lon="10.755922206402452"><ele>43.66666666666667</ele><time>2026-04-06T09:52:46Z</time></trkpt><trkpt lat="43.65094041702603" lon="10.756122635366342"><ele>41.333333333333336</ele><time>2026-04-06T09:52:47Z</time></trkpt><trkpt lat="43.65079357485335" lon="10.756305529454306"><ele>39.0</ele><time>2026-04-06T09:52:48Z</time></trkpt><trkpt lat="43.650651858299916" lon="10.756496948604745"><ele>39.0</ele><time>2026-04-06T09:52:49Z</time></trkpt><trkpt lat="43.650505418661474" lon="10.756685447042598"><ele>39.0</ele><time>2026-04-06T09:52:50Z</time></trkpt><trkpt lat="43.65035613753524" lon="10.756858508094297"><ele>39.0</ele><time>2026-04-06T09:52:51Z</time></trkpt><trkpt lat="43.650201396887056" lon="10.757021166946755"><ele>39.333333333333336</ele><time>2026-04-06T09:52:52Z</time></trkpt><trkpt lat="43.65004213784864" lon="10.7571677865076"><ele>39.66666666666667</ele><time>2026-04-06T09:52:53Z</time></trkpt><trkpt lat="43.64987827628388" lon="10.757276066678918"><ele>40.0</ele><time>2026-04-06T09:52:54Z</time></trkpt><trkpt lat="43.64972713764818" lon="10.757386083842464"><ele>40.0</ele><time>2026-04-06T09:52:55Z</time></trkpt><trkpt lat="43.649581187443324" lon="10.757500827524646"><ele>40.0</ele><time>2026-04-06T09:52:56Z</time></trkpt><trkpt lat="43.6494399508387" lon="10.757616478405081"><ele>40.0</ele><time>2026-04-06T09:52:57Z</time></trkpt><trkpt lat="43.649294132288645" lon="10.757734535030565"><ele>39.66666666666667</ele><time>2026-04-06T09:52:58Z</time></trkpt><trkpt lat="43.64915419799222" lon="10.757859527892178"><ele>39.333333333333336</ele><time>2026-04-06T09:52:59Z</time></trkpt><trkpt lat="43.64902404816458" lon="10.757997497217083"><ele>39.0</ele><time>2026-04-06T09:53:00Z</time></trkpt><trkpt lat="43.6489025121828" lon="10.758147874935814"><ele>39.0</ele><time>2026-04-06T09:53:01Z</time></trkpt><trkpt lat="43.64878656695546" lon="10.758306979782517"><ele>39.0</ele><time>2026-04-06T09:53:02Z</time></trkpt><trkpt lat="43.64867122819293" lon="10.75846934966252"><ele>39.0</ele><time>2026-04-06T09:53:03.001Z</time></trkpt><trkpt lat="43.648556761221975" lon="10.758627335847756"><ele>39.333333333333336</ele><time>2026-04-06T09:53:04.001Z</time></trkpt><trkpt lat="43.64844109356245" lon="10.758785189831121"><ele>39.66666666666667</ele><time>2026-04-06T09:53:05.001Z</time></trkpt><trkpt lat="43.64831437685734" lon="10.758930983152162"><ele>40.0</ele><time>2026-04-06T09:53:06.001Z</time></trkpt><trkpt lat="43.648172803563945" lon="10.759050820064392"><ele>40.0</ele><time>2026-04-06T09:53:07.001Z</time></trkpt><trkpt lat="43.64801958600079" lon="10.75914477928239"><ele>40.0</ele><time>2026-04-06T09:53:08.001Z</time></trkpt><trkpt lat="43.64784997925949" lon="10.75924141787361"><ele>40.0</ele><time>2026-04-06T09:53:09.001Z</time></trkpt><trkpt lat="43.64769017290334" lon="10.759333959277003"><ele>40.0</ele><time>2026-04-06T09:53:10.001Z</time></trkpt><trkpt lat="43.647536050283776" lon="10.75942670296422"><ele>40.0</ele><time>2026-04-06T09:53:11.001Z</time></trkpt><trkpt lat="43.64737976762884" lon="10.759524346704461"><ele>40.0</ele><time>2026-04-06T09:53:12.001Z</time></trkpt><trkpt lat="43.64721340853635" lon="10.759623281103728"><ele>40.0</ele><time>2026-04-06T09:53:13.001Z</time></trkpt><trkpt lat="43.64705362577531" lon="10.759718460529507"><ele>40.0</ele><time>2026-04-06T09:53:14.001Z</time></trkpt><trkpt lat="43.64689738287657" lon="10.759809384625852"><ele>40.0</ele><time>2026-04-06T09:53:15.001Z</time></trkpt><trkpt lat="43.646742631001494" lon="10.759898952020126"><ele>40.333333333333336</ele><time>2026-04-06T09:53:16.001Z</time></trkpt><trkpt lat="43.64659883992533" lon="10.759987782428254"><ele>40.666666666666664</ele><time>2026-04-06T09:53:17.001Z</time></trkpt><trkpt lat="43.6464632138242" lon="10.760072366321024"><ele>41.0</ele><time>2026-04-06T09:53:18.001Z</time></trkpt><trkpt lat="43.64632987876165" lon="10.760150847842661"><ele>41.0</ele><time>2026-04-06T09:53:19.001Z</time></trkpt><trkpt lat="43.64620009080826" lon="10.760234193537919"><ele>41.0</ele><time>2026-04-06T09:53:20.001Z</time></trkpt><trkpt lat="43.646075593593906" lon="10.760305814435236"><ele>41.0</ele><time>2026-04-06T09:53:21.001Z</time></trkpt><trkpt lat="43.64595432171722" lon="10.760376872276003"><ele>41.0</ele><time>2026-04-06T09:53:22.001Z</time></trkpt><trkpt lat="43.64584809982619" lon="10.760443202134397"><ele>41.0</ele><time>2026-04-06T09:53:23.001Z</time></trkpt><trkpt lat="43.64574527055218" lon="10.76050434637231"><ele>41.0</ele><time>2026-04-06T09:53:24.001Z</time></trkpt><trkpt lat="43.645649047932366" lon="10.76056200339987"><ele>41.0</ele><time>2026-04-06T09:53:25.001Z</time></trkpt><trkpt lat="43.64555459542859" lon="10.760606039685461"><ele>41.0</ele><time>2026-04-06T09:53:26.001Z</time></trkpt><trkpt lat="43.645474399045526" lon="10.760648966953001"><ele>41.0</ele><time>2026-04-06T09:53:27.001Z</time></trkpt><trkpt lat="43.645411148882424" lon="10.760682768360207"><ele>41.0</ele><time>2026-04-06T09:53:28.001Z</time></trkpt><trkpt lat="43.645326452132466" lon="10.760767258376708"><ele>41.0</ele><time>2026-04-06T09:53:30.001Z</time></trkpt><trkpt lat="43.645404281836214" lon="10.760992705425895"><ele>41.0</ele><time>2026-04-06T09:53:33.002Z</time></trkpt><trkpt lat="43.64550212240875" lon="10.761058091725225"><ele>41.0</ele><time>2026-04-06T09:53:34.002Z</time></trkpt><trkpt lat="43.64561072394696" lon="10.761138244871212"><ele>41.199999999999996</ele><time>2026-04-06T09:53:35.002Z</time></trkpt><trkpt lat="43.6456943472707" lon="10.761212422268127"><ele>41.4</ele><time>2026-04-06T09:53:36.002Z</time></trkpt><trkpt lat="43.645774442606694" lon="10.76128936874482"><ele>41.6</ele><time>2026-04-06T09:53:37.002Z</time></trkpt><trkpt lat="43.64585814048746" lon="10.761364041840865"><ele>41.8</ele><time>2026-04-06T09:53:38.002Z</time></trkpt><trkpt lat="43.64594838353116" lon="10.761450390469667"><ele>42.0</ele><time>2026-04-06T09:53:39.002Z</time></trkpt><trkpt lat="43.64604742111125" lon="10.76155092013004"><ele>41.5</ele><time>2026-04-06T09:53:40.002Z</time></trkpt><trkpt lat="43.646154657973064" lon="10.761655616340954"><ele>41.0</ele><time>2026-04-06T09:53:41.002Z</time></trkpt><trkpt lat="43.646268513347025" lon="10.761756092833354"><ele>40.5</ele><time>2026-04-06T09:53:42.002Z</time></trkpt><trkpt lat="43.64637672760066" lon="10.761850890609614"><ele>40.0</ele><time>2026-04-06T09:53:43.002Z</time></trkpt><trkpt lat="43.64649568323568" lon="10.761952882911821"><ele>40.0</ele><time>2026-04-06T09:53:44.002Z</time></trkpt><trkpt lat="43.64664952239319" lon="10.762070823030326"><ele>40.0</ele><time>2026-04-06T09:53:45.002Z</time></trkpt><trkpt lat="43.6468170620638" lon="10.762227674150335"><ele>40.0</ele><time>2026-04-06T09:53:46.002Z</time></trkpt><trkpt lat="43.646988667407776" lon="10.76241130490796"><ele>40.333333333333336</ele><time>2026-04-06T09:53:47.002Z</time></trkpt><trkpt lat="43.64715747916899" lon="10.762576802273678"><ele>40.666666666666664</ele><time>2026-04-06T09:53:48.002Z</time></trkpt><trkpt lat="43.64730477354007" lon="10.76271739898955"><ele>41.0</ele><time>2026-04-06T09:53:49.002Z</time></trkpt><trkpt lat="43.64743577986148" lon="10.762852058535337"><ele>41.0</ele><time>2026-04-06T09:53:50.002Z</time></trkpt><trkpt lat="43.647551617529416" lon="10.762978458536825"><ele>41.0</ele><time>2026-04-06T09:53:51.002Z</time></trkpt><trkpt lat="43.647648761765886" lon="10.763088887561269"><ele>41.0</ele><time>2026-04-06T09:53:52.002Z</time></trkpt><trkpt lat="43.647730911918785" lon="10.763192111233163"><ele>41.0</ele><time>2026-04-06T09:53:53.002Z</time></trkpt><trkpt lat="43.64780219237639" lon="10.76330510765016"><ele>42.0</ele><time>2026-04-06T09:53:54.002Z</time></trkpt><trkpt lat="43.6478355216219" lon="10.763419527207898"><ele>43.0</ele><time>2026-04-06T09:53:55.002Z</time></trkpt><trkpt lat="43.647964845920896" lon="10.763436812364867"><ele>44.0</ele><time>2026-04-06T09:53:56.002Z</time></trkpt><trkpt lat="43.64802838542543" lon="10.763476467770728"><ele>45.0</ele><time>2026-04-06T09:53:57.002Z</time></trkpt><trkpt lat="43.648098747799054" lon="10.763473353134525"><ele>46.0</ele><time>2026-04-06T09:53:58.002Z</time></trkpt><trkpt lat="43.64816758176911" lon="10.76341180268856"><ele>47.0</ele><time>2026-04-06T09:53:59.002Z</time></trkpt><trkpt lat="43.64823379033922" lon="10.763304789229633"><ele>47.0</ele><time>2026-04-06T09:54:00.002Z</time></trkpt><trkpt lat="43.64831941039484" lon="10.763204202483372"><ele>47.0</ele><time>2026-04-06T09:54:01.002Z</time></trkpt><trkpt lat="43.648393374809004" lon="10.763111217037599"><ele>47.0</ele><time>2026-04-06T09:54:02.002Z</time></trkpt><trkpt lat="43.64845038081421" lon="10.763042036271841"><ele>47.0</ele><time>2026-04-06T09:54:03.002Z</time></trkpt><trkpt lat="43.64853346839169" lon="10.762953409882048"><ele>47.0</ele><time>2026-04-06T09:54:05.002Z</time></trkpt><trkpt lat="43.648629480158846" lon="10.762891751616195"><ele>46.8</ele><time>2026-04-06T09:54:07.003Z</time></trkpt><trkpt lat="43.64869254268353" lon="10.762823852371515"><ele>46.6</ele><time>2026-04-06T09:54:08.003Z</time></trkpt><trkpt lat="43.64877145307964" lon="10.762739195865686"><ele>46.4</ele><time>2026-04-06T09:54:09.003Z</time></trkpt><trkpt lat="43.64885821566702" lon="10.7626331093568"><ele>46.199999999999996</ele><time>2026-04-06T09:54:10.003Z</time></trkpt><trkpt lat="43.64894015788868" lon="10.762526323265853"><ele>46.0</ele><time>2026-04-06T09:54:11.003Z</time></trkpt><trkpt lat="43.649046152763894" lon="10.76242145538395"><ele>46.0</ele><time>2026-04-06T09:54:12.003Z</time></trkpt><trkpt lat="43.649151483506124" lon="10.76229468910338"><ele>46.0</ele><time>2026-04-06T09:54:13.003Z</time></trkpt><trkpt lat="43.649271226467555" lon="10.76216177321139"><ele>46.0</ele><time>2026-04-06T09:54:14.003Z</time></trkpt><trkpt lat="43.64939349226946" lon="10.762020276016177"><ele>45.66666666666667</ele><time>2026-04-06T09:54:15.003Z</time></trkpt><trkpt lat="43.649521317554274" lon="10.761872983591177"><ele>45.333333333333336</ele><time>2026-04-06T09:54:16.003Z</time></trkpt><trkpt lat="43.64964967228383" lon="10.761727194644719"><ele>45.0</ele><time>2026-04-06T09:54:17.003Z</time></trkpt><trkpt lat="43.64977132129299" lon="10.761581431808805"><ele>45.0</ele><time>2026-04-06T09:54:18.003Z</time></trkpt><trkpt lat="43.64989349978674" lon="10.761443088383633"><ele>45.0</ele><time>2026-04-06T09:54:19.003Z</time></trkpt><trkpt lat="43.650022009106245" lon="10.761309299626895"><ele>45.0</ele><time>2026-04-06T09:54:20.003Z</time></trkpt><trkpt lat="43.65014523751576" lon="10.761169982286326"><ele>45.0</ele><time>2026-04-06T09:54:21.003Z</time></trkpt><trkpt lat="43.65027695490329" lon="10.761032592106542"><ele>45.0</ele><time>2026-04-06T09:54:22.003Z</time></trkpt><trkpt lat="43.650402217063515" lon="10.760900705012807"><ele>45.0</ele><time>2026-04-06T09:54:23.003Z</time></trkpt><trkpt lat="43.650539303184516" lon="10.76078773228495"><ele>45.25</ele><time>2026-04-06T09:54:24.003Z</time></trkpt><trkpt lat="43.65066523990723" lon="10.760659720063712"><ele>45.5</ele><time>2026-04-06T09:54:25.003Z</time></trkpt><trkpt lat="43.65077290300251" lon="10.76052023532631"><ele>45.75</ele><time>2026-04-06T09:54:26.003Z</time></trkpt><trkpt lat="43.650884584125585" lon="10.760411916656661"><ele>46.0</ele><time>2026-04-06T09:54:27.003Z</time></trkpt><trkpt lat="43.65099272400435" lon="10.760296755163672"><ele>45.0</ele><time>2026-04-06T09:54:28.003Z</time></trkpt><trkpt lat="43.65111081575756" lon="10.76017526201651"><ele>44.0</ele><time>2026-04-06T09:54:29.003Z</time></trkpt><trkpt lat="43.6512335147156" lon="10.760050586655785"><ele>43.0</ele><time>2026-04-06T09:54:30.003Z</time></trkpt><trkpt lat="43.65136771108478" lon="10.759932041843557"><ele>43.0</ele><time>2026-04-06T09:54:31.003Z</time></trkpt><trkpt lat="43.65149662062937" lon="10.759790408441928"><ele>43.0</ele><time>2026-04-06T09:54:32.003Z</time></trkpt><trkpt lat="43.65161903954443" lon="10.759639920518811"><ele>43.0</ele><time>2026-04-06T09:54:33.003Z</time></trkpt><trkpt lat="43.651726711231866" lon="10.759475524037454"><ele>41.66666666666667</ele><time>2026-04-06T09:54:34.003Z</time></trkpt><trkpt lat="43.65185700499867" lon="10.759344011027808"><ele>40.333333333333336</ele><time>2026-04-06T09:54:34.999Z</time></trkpt><trkpt lat="43.65196801246557" lon="10.7591799659096"><ele>39.0</ele><time>2026-04-06T09:54:35.999Z</time></trkpt><trkpt lat="43.65208806716046" lon="10.759034424886066"><ele>38.5</ele><time>2026-04-06T09:54:36.999Z</time></trkpt><trkpt lat="43.652199441581644" lon="10.75889504395056"><ele>38.0</ele><time>2026-04-06T09:54:37.999Z</time></trkpt><trkpt lat="43.652299656563656" lon="10.758768287607596"><ele>37.5</ele><time>2026-04-06T09:54:38.999Z</time></trkpt><trkpt lat="43.652386888302765" lon="10.758656741254564"><ele>37.0</ele><time>2026-04-06T09:54:39.999Z</time></trkpt><trkpt lat="43.652457264976114" lon="10.758571857314754"><ele>37.4</ele><time>2026-04-06T09:54:40.999Z</time></trkpt><trkpt lat="43.65252534034792" lon="10.758499423184883"><ele>37.800000000000004</ele><time>2026-04-06T09:54:41.999Z</time></trkpt><trkpt lat="43.652594846301284" lon="10.758467829910082"><ele>38.2</ele><time>2026-04-06T09:54:42.999Z</time></trkpt><trkpt lat="43.65267976009677" lon="10.758467217918774"><ele>38.6</ele><time>2026-04-06T09:54:43.999Z</time></trkpt><trkpt lat="43.652786527877154" lon="10.758494757554228"><ele>39.0</ele><time>2026-04-06T09:54:44.999Z</time></trkpt><trkpt lat="43.65289703986472" lon="10.758526604590744"><ele>39.0</ele><time>2026-04-06T09:54:46Z</time></trkpt><trkpt lat="43.65302269932835" lon="10.758505716563839"><ele>39.0</ele><time>2026-04-06T09:54:47Z</time></trkpt><trkpt lat="43.65314167359559" lon="10.758468632149295"><ele>39.0</ele><time>2026-04-06T09:54:48Z</time></trkpt><trkpt lat="43.65326982393702" lon="10.75842448580616"><ele>39.0</ele><time>2026-04-06T09:54:49Z</time></trkpt><trkpt lat="43.65339355386578" lon="10.758387844728775"><ele>39.0</ele><time>2026-04-06T09:54:50Z</time></trkpt><trkpt lat="43.65350553380492" lon="10.758342432649421"><ele>39.0</ele><time>2026-04-06T09:54:51Z</time></trkpt><trkpt lat="43.65361159519575" lon="10.75827709947392"><ele>39.0</ele><time>2026-04-06T09:54:52Z</time></trkpt><trkpt lat="43.65371134722604" lon="10.758180399797055"><ele>39.0</ele><time>2026-04-06T09:54:53Z</time></trkpt><trkpt lat="43.65380212335646" lon="10.75805441073672"><ele>38.75</ele><time>2026-04-06T09:54:54Z</time></trkpt><trkpt lat="43.65388570806712" lon="10.757933615201221"><ele>38.5</ele><time>2026-04-06T09:54:55Z</time></trkpt><trkpt lat="43.65397298834298" lon="10.757816324956543"><ele>38.25</ele><time>2026-04-06T09:54:56Z</time></trkpt><trkpt lat="43.65405942419784" lon="10.757700591950003"><ele>38.0</ele><time>2026-04-06T09:54:57Z</time></trkpt><trkpt lat="43.65414944699332" lon="10.757593690376451"><ele>38.0</ele><time>2026-04-06T09:54:58Z</time></trkpt><trkpt lat="43.65423726339987" lon="10.757498981530665"><ele>38.0</ele><time>2026-04-06T09:54:59Z</time></trkpt><trkpt lat="43.654309093136646" lon="10.75740700975382"><ele>38.0</ele><time>2026-04-06T09:55:00Z</time></trkpt><trkpt lat="43.654373044004124" lon="10.757316415213928"><ele>38.0</ele><time>2026-04-06T09:55:01Z</time></trkpt><trkpt lat="43.65443020984568" lon="10.75721811639844"><ele>38.0</ele><time>2026-04-06T09:55:02Z</time></trkpt><trkpt lat="43.654491650282175" lon="10.757152093736792"><ele>38.33333333333333</ele><time>2026-04-06T09:55:03Z</time></trkpt><trkpt lat="43.65456296348725" lon="10.757135902409356"><ele>38.666666666666664</ele><time>2026-04-06T09:55:04Z</time></trkpt><trkpt lat="43.65465465020875" lon="10.757147912901626"><ele>39.0</ele><time>2026-04-06T09:55:05Z</time></trkpt><trkpt lat="43.65474534213416" lon="10.757170585627724"><ele>39.333333333333336</ele><time>2026-04-06T09:55:06Z</time></trkpt><trkpt lat="43.65483434549059" lon="10.757184221156386"><ele>39.66666666666667</ele><time>2026-04-06T09:55:07Z</time></trkpt><trkpt lat="43.65492197689731" lon="10.757195523482222"><ele>40.0</ele><time>2026-04-06T09:55:08Z</time></trkpt><trkpt lat="43.65501015084582" lon="10.757203365060699"><ele>40.0</ele><time>2026-04-06T09:55:09Z</time></trkpt><trkpt lat="43.655099482054055" lon="10.75721247292761"><ele>40.0</ele><time>2026-04-06T09:55:10Z</time></trkpt><trkpt lat="43.65519015245381" lon="10.757221712879955"><ele>40.0</ele><time>2026-04-06T09:55:11.001Z</time></trkpt><trkpt lat="43.655277047814685" lon="10.757232628102436"><ele>40.0</ele><time>2026-04-06T09:55:12.001Z</time></trkpt><trkpt lat="43.6553679180176" lon="10.757243195507536"><ele>40.0</ele><time>2026-04-06T09:55:13.001Z</time></trkpt><trkpt lat="43.65546084142569" lon="10.757253614215971"><ele>40.2</ele><time>2026-04-06T09:55:14.001Z</time></trkpt><trkpt lat="43.65555362607949" lon="10.757264681404408"><ele>40.4</ele><time>2026-04-06T09:55:15.001Z</time></trkpt><trkpt lat="43.65564653189535" lon="10.75729341509938"><ele>40.599999999999994</ele><time>2026-04-06T09:55:16.001Z</time></trkpt><trkpt lat="43.65574478381363" lon="10.757331747064525"><ele>40.8</ele><time>2026-04-06T09:55:17.001Z</time></trkpt><trkpt lat="43.65585715004679" lon="10.757358636786185"><ele>41.0</ele><time>2026-04-06T09:55:18.001Z</time></trkpt><trkpt lat="43.65596836513714" lon="10.757382235483927"><ele>41.0</ele><time>2026-04-06T09:55:19.001Z</time></trkpt><trkpt lat="43.65606098954705" lon="10.757400747324416"><ele>41.0</ele><time>2026-04-06T09:55:20.001Z</time></trkpt><trkpt lat="43.65613509356672" lon="10.75741662444117"><ele>41.0</ele><time>2026-04-06T09:55:21.001Z</time></trkpt><trkpt lat="43.65620429967097" lon="10.757410082128393"><ele>41.0</ele><time>2026-04-06T09:55:22.001Z</time></trkpt><trkpt lat="43.65626485687907" lon="10.757379915120264"><ele>41.0</ele><time>2026-04-06T09:55:23.001Z</time></trkpt><trkpt lat="43.65633290408417" lon="10.75734822228017"><ele>41.0</ele><time>2026-04-06T09:55:24.001Z</time></trkpt><trkpt lat="43.65638731891601" lon="10.75726838092284"><ele>40.599999999999994</ele><time>2026-04-06T09:55:25.001Z</time></trkpt><trkpt lat="43.65646649224107" lon="10.757205426422873"><ele>40.199999999999996</ele><time>2026-04-06T09:55:26.001Z</time></trkpt><trkpt lat="43.65654175981274" lon="10.757180414176792"><ele>39.8</ele><time>2026-04-06T09:55:27.001Z</time></trkpt><trkpt lat="43.65663489839201" lon="10.757170075810517"><ele>39.4</ele><time>2026-04-06T09:55:28.001Z</time></trkpt><trkpt lat="43.65672900106773" lon="10.757166352810719"><ele>39.0</ele><time>2026-04-06T09:55:29.001Z</time></trkpt><trkpt lat="43.65682892717865" lon="10.757169249541581"><ele>39.0</ele><time>2026-04-06T09:55:30.001Z</time></trkpt><trkpt lat="43.656930463029276" lon="10.757164072599066"><ele>39.0</ele><time>2026-04-06T09:55:31.001Z</time></trkpt><trkpt lat="43.65702231392641" lon="10.757136971788663"><ele>39.0</ele><time>2026-04-06T09:55:32.001Z</time></trkpt><trkpt lat="43.65713224951131" lon="10.757088693071708"><ele>39.0</ele><time>2026-04-06T09:55:33.001Z</time></trkpt><trkpt lat="43.65723156419468" lon="10.757039859072254"><ele>39.0</ele><time>2026-04-06T09:55:34.001Z</time></trkpt><trkpt lat="43.65733773258248" lon="10.756985197738118"><ele>39.8</ele><time>2026-04-06T09:55:35.001Z</time></trkpt><trkpt lat="43.65743142979142" lon="10.756928516904969"><ele>40.599999999999994</ele><time>2026-04-06T09:55:36.001Z</time></trkpt><trkpt lat="43.65750935862333" lon="10.756861455365328"><ele>41.4</ele><time>2026-04-06T09:55:37.001Z</time></trkpt><trkpt lat="43.65756900585884" lon="10.75676981741693"><ele>42.199999999999996</ele><time>2026-04-06T09:55:38.001Z</time></trkpt><trkpt lat="43.65762692727949" lon="10.756641206941866"><ele>43.0</ele><time>2026-04-06T09:55:39.001Z</time></trkpt><trkpt lat="43.657671058552694" lon="10.756449257888582"><ele>43.0</ele><time>2026-04-06T09:55:40.001Z</time></trkpt><trkpt lat="43.65773669065724" lon="10.756313447108147"><ele>43.0</ele><time>2026-04-06T09:55:41.002Z</time></trkpt><trkpt lat="43.657801482028816" lon="10.756169568442305"><ele>43.0</ele><time>2026-04-06T09:55:42.002Z</time></trkpt><trkpt lat="43.6578707289986" lon="10.756044708275804"><ele>43.0</ele><time>2026-04-06T09:55:43.002Z</time></trkpt><trkpt lat="43.657951258586614" lon="10.755936719536622"><ele>41.8</ele><time>2026-04-06T09:55:44.002Z</time></trkpt><trkpt lat="43.65803182386758" lon="10.755842335015423"><ele>40.599999999999994</ele><time>2026-04-06T09:55:45.002Z</time></trkpt><trkpt lat="43.658112284587844" lon="10.755752392119083"><ele>39.400000000000006</ele><time>2026-04-06T09:55:46.002Z</time></trkpt><trkpt lat="43.65818935433263" lon="10.755655101925433"><ele>38.2</ele><time>2026-04-06T09:55:47.002Z</time></trkpt><trkpt lat="43.65827722646285" lon="10.755554800463685"><ele>37.0</ele><time>2026-04-06T09:55:48.002Z</time></trkpt><trkpt lat="43.65836654400467" lon="10.755442610736873"><ele>37.0</ele><time>2026-04-06T09:55:49.002Z</time></trkpt><trkpt lat="43.65846739788311" lon="10.75533815995885"><ele>37.0</ele><time>2026-04-06T09:55:50.002Z</time></trkpt><trkpt lat="43.65854577352548" lon="10.755245379947633"><ele>37.0</ele><time>2026-04-06T09:55:51.002Z</time></trkpt><trkpt lat="43.65863641988998" lon="10.755142143618738"><ele>37.0</ele><time>2026-04-06T09:55:52.002Z</time></trkpt><trkpt lat="43.65872054813968" lon="10.755048603029675"><ele>37.0</ele><time>2026-04-06T09:55:53.002Z</time></trkpt><trkpt lat="43.65878694365721" lon="10.754968188883787"><ele>37.0</ele><time>2026-04-06T09:55:54.002Z</time></trkpt><trkpt lat="43.6588669788072" lon="10.754865622224866"><ele>37.0</ele><time>2026-04-06T09:55:55.002Z</time></trkpt><trkpt lat="43.65895602883225" lon="10.754762734086432"><ele>37.0</ele><time>2026-04-06T09:55:56.002Z</time></trkpt><trkpt lat="43.65904396236452" lon="10.754663229676579"><ele>37.0</ele><time>2026-04-06T09:55:57.002Z</time></trkpt><trkpt lat="43.65913486311675" lon="10.754559147807878"><ele>37.0</ele><time>2026-04-06T09:55:58.002Z</time></trkpt><trkpt lat="43.659219720307334" lon="10.754459469567468"><ele>37.0</ele><time>2026-04-06T09:55:59.002Z</time></trkpt><trkpt lat="43.659307903962095" lon="10.754361255372872"><ele>37.0</ele><time>2026-04-06T09:56:00.002Z</time></trkpt><trkpt lat="43.659375447319775" lon="10.754265798155055"><ele>37.0</ele><time>2026-04-06T09:56:01.002Z</time></trkpt><trkpt lat="43.65944042457934" lon="10.754195788252126"><ele>37.0</ele><time>2026-04-06T09:56:02.002Z</time></trkpt><trkpt lat="43.65951568364644" lon="10.754139653786716"><ele>38.0</ele><time>2026-04-06T09:56:03.002Z</time></trkpt><trkpt lat="43.659584461231205" lon="10.754086072710322"><ele>39.0</ele><time>2026-04-06T09:56:04.002Z</time></trkpt><trkpt lat="43.65966532497087" lon="10.754022087319811"><ele>40.0</ele><time>2026-04-06T09:56:05.002Z</time></trkpt><trkpt lat="43.65974669214255" lon="10.753961174628603"><ele>41.0</ele><time>2026-04-06T09:56:06.002Z</time></trkpt><trkpt lat="43.65981597881971" lon="10.75392402125391"><ele>42.0</ele><time>2026-04-06T09:56:07.002Z</time></trkpt><trkpt lat="43.65988805542624" lon="10.753905264029358"><ele>43.0</ele><time>2026-04-06T09:56:08.002Z</time></trkpt><trkpt lat="43.65996036355321" lon="10.753884114885224"><ele>43.0</ele><time>2026-04-06T09:56:09.002Z</time></trkpt><trkpt lat="43.660034460754474" lon="10.753852752220096"><ele>43.0</ele><time>2026-04-06T09:56:10.002Z</time></trkpt><trkpt lat="43.66010425246886" lon="10.753826858589923"><ele>43.0</ele><time>2026-04-06T09:56:11.002Z</time></trkpt><trkpt lat="43.66019898029982" lon="10.753797052920117"><ele>43.0</ele><time>2026-04-06T09:56:12.002Z</time></trkpt><trkpt lat="43.66029092782651" lon="10.753756804762347"><ele>43.0</ele><time>2026-04-06T09:56:13.002Z</time></trkpt><trkpt lat="43.66038284264471" lon="10.753694495733626"><ele>43.0</ele><time>2026-04-06T09:56:14.003Z</time></trkpt><trkpt lat="43.66050628401543" lon="10.7536200867261"><ele>42.25</ele><time>2026-04-06T09:56:15.003Z</time></trkpt><trkpt lat="43.66062770197702" lon="10.753533223432205"><ele>41.5</ele><time>2026-04-06T09:56:16.003Z</time></trkpt><trkpt lat="43.660756533908405" lon="10.753473255468997"><ele>40.75</ele><time>2026-04-06T09:56:17.003Z</time></trkpt><trkpt lat="43.660885120624705" lon="10.753446088029682"><ele>40.0</ele><time>2026-04-06T09:56:18.003Z</time></trkpt><trkpt lat="43.66103023639506" lon="10.753457401716632"><ele>39.0</ele><time>2026-04-06T09:56:19.003Z</time></trkpt><trkpt lat="43.66118777199425" lon="10.753466338443216"><ele>38.0</ele><time>2026-04-06T09:56:20.003Z</time></trkpt><trkpt lat="43.66136050855483" lon="10.753453320800523"><ele>37.0</ele><time>2026-04-06T09:56:21.003Z</time></trkpt><trkpt lat="43.66156149661209" lon="10.753462294443866"><ele>37.0</ele><time>2026-04-06T09:56:22.003Z</time></trkpt><trkpt lat="43.661733778607584" lon="10.753440892560107"><ele>37.0</ele><time>2026-04-06T09:56:23.003Z</time></trkpt><trkpt lat="43.66189934906642" lon="10.753428663922405"><ele>37.0</ele><time>2026-04-06T09:56:24.003Z</time></trkpt><trkpt lat="43.662066679117544" lon="10.753427751961713"><ele>36.66666666666667</ele><time>2026-04-06T09:56:25.003Z</time></trkpt><trkpt lat="43.66223645450166" lon="10.753438332455888"><ele>36.333333333333336</ele><time>2026-04-06T09:56:26.003Z</time></trkpt><trkpt lat="43.662377243962666" lon="10.753431052881952"><ele>36.0</ele><time>2026-04-06T09:56:27.003Z</time></trkpt><trkpt lat="43.66254345874234" lon="10.753420453675835"><ele>36.0</ele><time>2026-04-06T09:56:28.003Z</time></trkpt><trkpt lat="43.66270552182256" lon="10.753392728024496"><ele>36.0</ele><time>2026-04-06T09:56:29.003Z</time></trkpt><trkpt lat="43.66285799355253" lon="10.75336293588726"><ele>36.0</ele><time>2026-04-06T09:56:30.003Z</time></trkpt><trkpt lat="43.66299735198866" lon="10.75331597233227"><ele>36.0</ele><time>2026-04-06T09:56:31.003Z</time></trkpt><trkpt lat="43.663121704115206" lon="10.753251118543426"><ele>36.0</ele><time>2026-04-06T09:56:32.003Z</time></trkpt><trkpt lat="43.6632365943892" lon="10.75318639803031"><ele>36.0</ele><time>2026-04-06T09:56:33.003Z</time></trkpt><trkpt lat="43.66333196269896" lon="10.753123423564173"><ele>36.0</ele><time>2026-04-06T09:56:34.003Z</time></trkpt><trkpt lat="43.66341199626025" lon="10.753066062443503"><ele>36.0</ele><time>2026-04-06T09:56:35.003Z</time></trkpt><trkpt lat="43.66347814417016" lon="10.753021217199748"><ele>36.0</ele><time>2026-04-06T09:56:37.003Z</time></trkpt><trkpt lat="43.66351653325698" lon="10.752951930669413"><ele>36.0</ele><time>2026-04-06T09:56:40.003Z</time></trkpt><trkpt lat="43.66342761235419" lon="10.752857340955414"><ele>36.0</ele><time>2026-04-06T09:56:40.999Z</time></trkpt><trkpt lat="43.66332021822886" lon="10.752793825390981"><ele>36.0</ele><time>2026-04-06T09:56:41.999Z</time></trkpt><trkpt lat="43.663224357569035" lon="10.752707953094948"><ele>35.75</ele><time>2026-04-06T09:56:42.999Z</time></trkpt><trkpt lat="43.66312803530115" lon="10.752618132364217"><ele>35.5</ele><time>2026-04-06T09:56:43.999Z</time></trkpt><trkpt lat="43.662999749757" lon="10.75250738227632"><ele>35.25</ele><time>2026-04-06T09:56:44.999Z</time></trkpt><trkpt lat="43.66286571931652" lon="10.752392378474772"><ele>35.0</ele><time>2026-04-06T09:56:45.999Z</time></trkpt><trkpt lat="43.6627200081709" lon="10.752268126704418"><ele>35.0</ele><time>2026-04-06T09:56:46.999Z</time></trkpt><trkpt lat="43.66256970266409" lon="10.752109825668715"><ele>35.0</ele><time>2026-04-06T09:56:47.999Z</time></trkpt><trkpt lat="43.66244098618958" lon="10.751902977425656"><ele>35.0</ele><time>2026-04-06T09:56:48.999Z</time></trkpt><trkpt lat="43.66232548972986" lon="10.751691801915372"><ele>34.0</ele><time>2026-04-06T09:56:49.999Z</time></trkpt><trkpt lat="43.66220895295079" lon="10.751482297596741"><ele>33.0</ele><time>2026-04-06T09:56:50.999Z</time></trkpt><trkpt lat="43.66208266272844" lon="10.75126907858481"><ele>32.0</ele><time>2026-04-06T09:56:51.999Z</time></trkpt><trkpt lat="43.661964946794434" lon="10.751062394571603"><ele>32.33333333333333</ele><time>2026-04-06T09:56:52.999Z</time></trkpt><trkpt lat="43.66185508182596" lon="10.750872345787368"><ele>32.666666666666664</ele><time>2026-04-06T09:56:53.999Z</time></trkpt><trkpt lat="43.66174104008304" lon="10.750676442506963"><ele>33.0</ele><time>2026-04-06T09:56:54.999Z</time></trkpt><trkpt lat="43.66163089035343" lon="10.75050786779532"><ele>33.0</ele><time>2026-04-06T09:56:55.999Z</time></trkpt><trkpt lat="43.661518374162966" lon="10.750370813563428"><ele>33.0</ele><time>2026-04-06T09:56:56.999Z</time></trkpt><trkpt lat="43.661421189598016" lon="10.750285325293493"><ele>33.0</ele><time>2026-04-06T09:56:58Z</time></trkpt><trkpt lat="43.66136134079041" lon="10.750251150561393"><ele>33.0</ele><time>2026-04-06T09:56:59Z</time></trkpt><trkpt lat="43.66125868724802" lon="10.750143310554682"><ele>32.75</ele><time>2026-04-06T09:57:01Z</time></trkpt><trkpt lat="43.661320239660135" lon="10.74995922673288"><ele>32.5</ele><time>2026-04-06T09:57:03Z</time></trkpt><trkpt lat="43.66137380776978" lon="10.749868815294594"><ele>32.25</ele><time>2026-04-06T09:57:04Z</time></trkpt><trkpt lat="43.66146293945579" lon="10.749743962000569"><ele>32.0</ele><time>2026-04-06T09:57:05Z</time></trkpt><trkpt lat="43.66159904557837" lon="10.749641324777578"><ele>32.0</ele><time>2026-04-06T09:57:06Z</time></trkpt><trkpt lat="43.66174871794504" lon="10.749533789034787"><ele>32.0</ele><time>2026-04-06T09:57:07Z</time></trkpt><trkpt lat="43.661897441933675" lon="10.749446501870429"><ele>32.0</ele><time>2026-04-06T09:57:08Z</time></trkpt><trkpt lat="43.66206811791524" lon="10.749354083684576"><ele>31.5</ele><time>2026-04-06T09:57:09Z</time></trkpt><trkpt lat="43.66227272794133" lon="10.749217138116128"><ele>31.0</ele><time>2026-04-06T09:57:10Z</time></trkpt><trkpt lat="43.662463314609234" lon="10.749055543808087"><ele>31.0</ele><time>2026-04-06T09:57:11Z</time></trkpt><trkpt lat="43.66263936796159" lon="10.748864974565578"><ele>31.0</ele><time>2026-04-06T09:57:12Z</time></trkpt><trkpt lat="43.66280660863529" lon="10.74864713300041"><ele>31.0</ele><time>2026-04-06T09:57:13Z</time></trkpt><trkpt lat="43.66296386435434" lon="10.748415372795764"><ele>31.0</ele><time>2026-04-06T09:57:14Z</time></trkpt><trkpt lat="43.66313590871952" lon="10.748150937177558"><ele>31.0</ele><time>2026-04-06T09:57:15Z</time></trkpt><trkpt lat="43.6633263579904" lon="10.747908629395804"><ele>31.0</ele><time>2026-04-06T09:57:16Z</time></trkpt><trkpt lat="43.66351695571735" lon="10.747637221455058"><ele>30.5</ele><time>2026-04-06T09:57:17Z</time></trkpt><trkpt lat="43.66370499541949" lon="10.74736888616116"><ele>30.0</ele><time>2026-04-06T09:57:18.001Z</time></trkpt><trkpt lat="43.66388824794648" lon="10.747108743579748"><ele>30.5</ele><time>2026-04-06T09:57:19.001Z</time></trkpt><trkpt lat="43.66406537015781" lon="10.74685275658736"><ele>31.0</ele><time>2026-04-06T09:57:20.001Z</time></trkpt><trkpt lat="43.66421293292654" lon="10.746640456201838"><ele>31.0</ele><time>2026-04-06T09:57:21.001Z</time></trkpt><trkpt lat="43.664356731990026" lon="10.746437991375732"><ele>31.0</ele><time>2026-04-06T09:57:22.001Z</time></trkpt><trkpt lat="43.664492380945376" lon="10.746236906876259"><ele>31.0</ele><time>2026-04-06T09:57:23.001Z</time></trkpt><trkpt lat="43.664605008488344" lon="10.746010624546832"><ele>30.333333333333336</ele><time>2026-04-06T09:57:24.001Z</time></trkpt><trkpt lat="43.664675756297434" lon="10.745766042008533"><ele>29.666666666666664</ele><time>2026-04-06T09:57:25.001Z</time></trkpt><trkpt lat="43.664729519352704" lon="10.745506162182924"><ele>29.0</ele><time>2026-04-06T09:57:26.001Z</time></trkpt><trkpt lat="43.66477303881789" lon="10.745244785957262"><ele>29.0</ele><time>2026-04-06T09:57:27.001Z</time></trkpt><trkpt lat="43.66479034397695" lon="10.7449539181245"><ele>29.0</ele><time>2026-04-06T09:57:28.001Z</time></trkpt><trkpt lat="43.66475090366006" lon="10.744623066310854"><ele>28.5</ele><time>2026-04-06T09:57:29.001Z</time></trkpt><trkpt lat="43.66467436958871" lon="10.744299216277597"><ele>28.0</ele><time>2026-04-06T09:57:30.001Z</time></trkpt><trkpt lat="43.66461398873096" lon="10.744007027425624"><ele>28.0</ele><time>2026-04-06T09:57:31.001Z</time></trkpt><trkpt lat="43.6645938147251" lon="10.743781747258566"><ele>28.0</ele><time>2026-04-06T09:57:32.001Z</time></trkpt><trkpt lat="43.66459235075429" lon="10.743564349209493"><ele>28.0</ele><time>2026-04-06T09:57:33.001Z</time></trkpt><trkpt lat="43.664625590456346" lon="10.743336427365094"><ele>27.666666666666668</ele><time>2026-04-06T09:57:34.001Z</time></trkpt><trkpt lat="43.66468425113818" lon="10.743128232213534"><ele>27.333333333333336</ele><time>2026-04-06T09:57:35.001Z</time></trkpt><trkpt lat="43.66480462687747" lon="10.742866557215644"><ele>27.0</ele><time>2026-04-06T09:57:36.001Z</time></trkpt><trkpt lat="43.664959118855265" lon="10.742600129260282"><ele>26.5</ele><time>2026-04-06T09:57:37.001Z</time></trkpt><trkpt lat="43.66513868527514" lon="10.742295001386768"><ele>26.0</ele><time>2026-04-06T09:57:38.001Z</time></trkpt><trkpt lat="43.665346951205215" lon="10.741953093598335"><ele>26.5</ele><time>2026-04-06T09:57:39.001Z</time></trkpt><trkpt lat="43.6655491591305" lon="10.74172768049163"><ele>27.0</ele><time>2026-04-06T09:57:40.001Z</time></trkpt><trkpt lat="43.66571801099322" lon="10.741554047754416"><ele>27.0</ele><time>2026-04-06T09:57:41.001Z</time></trkpt><trkpt lat="43.66585056326576" lon="10.741418441419484"><ele>27.0</ele><time>2026-04-06T09:57:42.001Z</time></trkpt><trkpt lat="43.66617375320877" lon="10.740996960907484"><ele>27.5</ele><time>2026-04-06T09:57:43.001Z</time></trkpt><trkpt lat="43.66633899529973" lon="10.74074154680886"><ele>28.0</ele><time>2026-04-06T09:57:44.001Z</time></trkpt><trkpt lat="43.666481270876" lon="10.740449131283798"><ele>31.0</ele><time>2026-04-06T09:57:45.001Z</time></trkpt><trkpt lat="43.666612144740654" lon="10.740139025257122"><ele>34.0</ele><time>2026-04-06T09:57:46.002Z</time></trkpt><trkpt lat="43.666769356356205" lon="10.73984978694107"><ele>34.0</ele><time>2026-04-06T09:57:47.002Z</time></trkpt><trkpt lat="43.66692123122115" lon="10.739537540399265"><ele>34.0</ele><time>2026-04-06T09:57:48.002Z</time></trkpt><trkpt lat="43.667076137385415" lon="10.739220128350398"><ele>31.0</ele><time>2026-04-06T09:57:49.002Z</time></trkpt><trkpt lat="43.66723223570631" lon="10.738907841832711"><ele>28.0</ele><time>2026-04-06T09:57:50.002Z</time></trkpt><trkpt lat="43.6673880321296" lon="10.738595585252963"><ele>31.0</ele><time>2026-04-06T09:57:51.002Z</time></trkpt><trkpt lat="43.6675498910321" lon="10.738284623820396"><ele>34.0</ele><time>2026-04-06T09:57:52.002Z</time></trkpt><trkpt lat="43.66770884726693" lon="10.737971149956328"><ele>31.0</ele><time>2026-04-06T09:57:53.002Z</time></trkpt><trkpt lat="43.66787410673835" lon="10.737662085159561"><ele>28.0</ele><time>2026-04-06T09:57:54.002Z</time></trkpt><trkpt lat="43.66803244749642" lon="10.737348523018005"><ele>28.0</ele><time>2026-04-06T09:57:55.002Z</time></trkpt><trkpt lat="43.66818013381912" lon="10.737040389497434"><ele>28.0</ele><time>2026-04-06T09:57:56.002Z</time></trkpt><trkpt lat="43.66832392904439" lon="10.736749548837533"><ele>28.0</ele><time>2026-04-06T09:57:57.002Z</time></trkpt><trkpt lat="43.66845383352789" lon="10.736483416955013"><ele>28.0</ele><time>2026-04-06T09:57:58.002Z</time></trkpt><trkpt lat="43.668573913095024" lon="10.736230998668113"><ele>27.0</ele><time>2026-04-06T09:57:59.002Z</time></trkpt><trkpt lat="43.66865845250384" lon="10.735996669575464"><ele>26.0</ele><time>2026-04-06T09:58:00.002Z</time></trkpt><trkpt lat="43.668712702268664" lon="10.735747472314554"><ele>25.0</ele><time>2026-04-06T09:58:01.002Z</time></trkpt><trkpt lat="43.668728392903326" lon="10.735499712068304"><ele>25.0</ele><time>2026-04-06T09:58:02.002Z</time></trkpt><trkpt lat="43.66871272065114" lon="10.735230053447312"><ele>25.0</ele><time>2026-04-06T09:58:03.002Z</time></trkpt><trkpt lat="43.668683025271136" lon="10.7349509035113"><ele>25.0</ele><time>2026-04-06T09:58:04.002Z</time></trkpt><trkpt lat="43.66867902676444" lon="10.734645086608493"><ele>24.666666666666668</ele><time>2026-04-06T09:58:05.002Z</time></trkpt><trkpt lat="43.66863586621152" lon="10.734333094527669"><ele>24.333333333333336</ele><time>2026-04-06T09:58:06.002Z</time></trkpt><trkpt lat="43.668617760920455" lon="10.734096255164156"><ele>24.0</ele><time>2026-04-06T09:58:07.002Z</time></trkpt><trkpt lat="43.66856340251235" lon="10.73390604480383"><ele>27.0</ele><time>2026-04-06T09:58:08.002Z</time></trkpt><trkpt lat="43.66828308350601" lon="10.7334154658513"><ele>27.0</ele><time>2026-04-06T09:58:09.002Z</time></trkpt><trkpt lat="43.66813858466653" lon="10.733109152396402"><ele>27.0</ele><time>2026-04-06T09:58:10.002Z</time></trkpt><trkpt lat="43.66799694530792" lon="10.732822187866159"><ele>25.0</ele><time>2026-04-06T09:58:11.002Z</time></trkpt><trkpt lat="43.667928484981154" lon="10.73250821858381"><ele>23.0</ele><time>2026-04-06T09:58:12.002Z</time></trkpt><trkpt lat="43.667890821865285" lon="10.73217523273601"><ele>24.0</ele><time>2026-04-06T09:58:13.002Z</time></trkpt><trkpt lat="43.66788996786025" lon="10.731839087688126"><ele>25.0</ele><time>2026-04-06T09:58:14.002Z</time></trkpt><trkpt lat="43.66791348860989" lon="10.731486365415472"><ele>25.0</ele><time>2026-04-06T09:58:15.002Z</time></trkpt><trkpt lat="43.66792631440906" lon="10.731123137796246"><ele>25.0</ele><time>2026-04-06T09:58:16.002Z</time></trkpt><trkpt lat="43.66794678140419" lon="10.7307935605715"><ele>24.666666666666668</ele><time>2026-04-06T09:58:17.002Z</time></trkpt><trkpt lat="43.66796281345573" lon="10.730504430565922"><ele>24.333333333333336</ele><time>2026-04-06T09:58:18.003Z</time></trkpt><trkpt lat="43.66797053206202" lon="10.730253388791999"><ele>24.0</ele><time>2026-04-06T09:58:19.003Z</time></trkpt><trkpt lat="43.66797853120958" lon="10.73001459898912"><ele>24.0</ele><time>2026-04-06T09:58:20.003Z</time></trkpt><trkpt lat="43.66798720743565" lon="10.729791231814199"><ele>24.0</ele><time>2026-04-06T09:58:21.003Z</time></trkpt><trkpt lat="43.6679930546585" lon="10.729583460824173"><ele>24.0</ele><time>2026-04-06T09:58:22.003Z</time></trkpt><trkpt lat="43.66799270968696" lon="10.729386906509202"><ele>23.0</ele><time>2026-04-06T09:58:23.003Z</time></trkpt><trkpt lat="43.667979615026425" lon="10.729202473778004"><ele>22.0</ele><time>2026-04-06T09:58:24.003Z</time></trkpt><trkpt lat="43.66795317686332" lon="10.729034724748209"><ele>21.0</ele><time>2026-04-06T09:58:25.003Z</time></trkpt><trkpt lat="43.66793270803973" lon="10.728879545536877"><ele>20.0</ele><time>2026-04-06T09:58:26.003Z</time></trkpt><trkpt lat="43.667916155200814" lon="10.728744920740779"><ele>20.0</ele><time>2026-04-06T09:58:27.003Z</time></trkpt><trkpt lat="43.6679024018751" lon="10.728648714492223"><ele>20.0</ele><time>2026-04-06T09:58:28.003Z</time></trkpt><trkpt lat="43.66791135241031" lon="10.728527545488515"><ele>20.0</ele><time>2026-04-06T09:58:30.003Z</time></trkpt><trkpt lat="43.66797806455891" lon="10.728456924553882"><ele>20.0</ele><time>2026-04-06T09:58:32.003Z</time></trkpt><trkpt lat="43.66804132257754" lon="10.728399311500262"><ele>20.0</ele><time>2026-04-06T09:58:33.003Z</time></trkpt><trkpt lat="43.668132522298066" lon="10.72833268946116"><ele>20.0</ele><time>2026-04-06T09:58:34.003Z</time></trkpt><trkpt lat="43.668227469915195" lon="10.728263244953734"><ele>20.25</ele><time>2026-04-06T09:58:35.003Z</time></trkpt><trkpt lat="43.66832799874505" lon="10.728190186926021"><ele>20.5</ele><time>2026-04-06T09:58:36.003Z</time></trkpt><trkpt lat="43.66843022550394" lon="10.728115137416495"><ele>20.75</ele><time>2026-04-06T09:58:37.003Z</time></trkpt><trkpt lat="43.66852941049168" lon="10.728045413942814"><ele>21.0</ele><time>2026-04-06T09:58:38.003Z</time></trkpt><trkpt lat="43.66862963836377" lon="10.727976675024282"><ele>21.0</ele><time>2026-04-06T09:58:39.003Z</time></trkpt><trkpt lat="43.66873770857478" lon="10.727922614223782"><ele>21.0</ele><time>2026-04-06T09:58:40.003Z</time></trkpt><trkpt lat="43.66884869470635" lon="10.72787612611457"><ele>21.0</ele><time>2026-04-06T09:58:41.003Z</time></trkpt><trkpt lat="43.66896116507456" lon="10.727840182634527"><ele>21.0</ele><time>2026-04-06T09:58:42.003Z</time></trkpt><trkpt lat="43.66907182991006" lon="10.72779555940294"><ele>21.0</ele><time>2026-04-06T09:58:43.003Z</time></trkpt><trkpt lat="43.66918460040412" lon="10.727720475753351"><ele>21.0</ele><time>2026-04-06T09:58:44.003Z</time></trkpt><trkpt lat="43.669286030465386" lon="10.727642459119197"><ele>21.0</ele><time>2026-04-06T09:58:45.003Z</time></trkpt><trkpt lat="43.669378974381715" lon="10.72755801653782"><ele>21.0</ele><time>2026-04-06T09:58:46.003Z</time></trkpt><trkpt lat="43.669469352285994" lon="10.727463114910273"><ele>21.25</ele><time>2026-04-06T09:58:46.998Z</time></trkpt><trkpt lat="43.66955773779433" lon="10.727359124933537"><ele>21.5</ele><time>2026-04-06T09:58:47.998Z</time></trkpt><trkpt lat="43.66964527950838" lon="10.727253803961458"><ele>21.75</ele><time>2026-04-06T09:58:48.999Z</time></trkpt><trkpt lat="43.66972841459212" lon="10.727162321132123"><ele>22.0</ele><time>2026-04-06T09:58:49.999Z</time></trkpt><trkpt lat="43.669817157434274" lon="10.727063837547975"><ele>22.0</ele><time>2026-04-06T09:58:50.999Z</time></trkpt><trkpt lat="43.669907091248525" lon="10.72697019790885"><ele>22.0</ele><time>2026-04-06T09:58:51.999Z</time></trkpt><trkpt lat="43.66999270332652" lon="10.726871044745373"><ele>22.0</ele><time>2026-04-06T09:58:52.999Z</time></trkpt><trkpt lat="43.67008248470417" lon="10.726773753092584"><ele>22.0</ele><time>2026-04-06T09:58:53.999Z</time></trkpt><trkpt lat="43.67017917922789" lon="10.726671753157259"><ele>22.0</ele><time>2026-04-06T09:58:54.999Z</time></trkpt><trkpt lat="43.6702778174272" lon="10.726566495813618"><ele>22.0</ele><time>2026-04-06T09:58:55.999Z</time></trkpt><trkpt lat="43.670377903819265" lon="10.72645786471603"><ele>22.0</ele><time>2026-04-06T09:58:56.999Z</time></trkpt><trkpt lat="43.67047769229654" lon="10.726347864597876"><ele>22.0</ele><time>2026-04-06T09:58:57.999Z</time></trkpt><trkpt lat="43.67058620432577" lon="10.72623160355399"><ele>22.0</ele><time>2026-04-06T09:58:58.999Z</time></trkpt><trkpt lat="43.670692026166236" lon="10.726122333704778"><ele>22.0</ele><time>2026-04-06T09:58:59.999Z</time></trkpt><trkpt lat="43.670792149709236" lon="10.726019263170873"><ele>22.0</ele><time>2026-04-06T09:59:00.999Z</time></trkpt><trkpt lat="43.67088534942884" lon="10.725954649783388"><ele>22.0</ele><time>2026-04-06T09:59:01.999Z</time></trkpt><trkpt lat="43.670998305499026" lon="10.725903041633602"><ele>21.75</ele><time>2026-04-06T09:59:02.999Z</time></trkpt><trkpt lat="43.67112729185709" lon="10.725863979457303"><ele>21.5</ele><time>2026-04-06T09:59:03.999Z</time></trkpt><trkpt lat="43.67125825309404" lon="10.725828958522051"><ele>21.25</ele><time>2026-04-06T09:59:05Z</time></trkpt><trkpt lat="43.67138902571724" lon="10.725793411406231"><ele>21.0</ele><time>2026-04-06T09:59:06Z</time></trkpt><trkpt lat="43.67150815633419" lon="10.725759340651388"><ele>21.0</ele><time>2026-04-06T09:59:07Z</time></trkpt><trkpt lat="43.67160370597186" lon="10.725737015881064"><ele>21.0</ele><time>2026-04-06T09:59:08Z</time></trkpt><trkpt lat="43.671678514781526" lon="10.725726406154676"><ele>21.0</ele><time>2026-04-06T09:59:09Z</time></trkpt><trkpt lat="43.67174505593378" lon="10.725739965725555"><ele>21.0</ele><time>2026-04-06T09:59:10Z</time></trkpt><trkpt lat="43.67184567350306" lon="10.725741759755214"><ele>21.0</ele><time>2026-04-06T09:59:12Z</time></trkpt><trkpt lat="43.67191395135847" lon="10.725741085609652"><ele>21.0</ele><time>2026-04-06T09:59:17Z</time></trkpt><trkpt lat="43.67184070602586" lon="10.725746197923893"><ele>21.0</ele><time>2026-04-06T09:59:28.001Z</time></trkpt><trkpt lat="43.67190961277861" lon="10.725738470741543"><ele>21.0</ele><time>2026-04-06T10:00:02.002Z</time></trkpt></trkseg></trk></gpx>